<?xml version="1.0" encoding="UTF-8" standalone="no" ?>
<gpx xmlns="http://www.topografix.com/GPX/1/1" xmlns:xsi="http://www.w3.org/2001/XMLSchema-instance" xsi:schemaLocation="http://www.topografix.com/GPX/1/1 http://www.topografix.com/GPX/1/1/gpx.xsd" version="1.1" creator="VisuGPX - https://www.visugpx.com">
  <metadata>
    <name>VTT - Venelles Concors Jouques</name>
    <desc><![CDATA[Sortie sans difficulté]]></desc>
  </metadata>
  <trk>
    <name><![CDATA[VTT - Venelles Concors Jouques]]></name>
    <desc><![CDATA[Frein arrière qui frotte !!!]]></desc>
    <trkseg>
      <trkpt lat="43.59917" lon="5.48851">
        <ele>365.60000610352</ele>
        <time>2013-03-12T10:52:29.000Z</time>
      </trkpt>
      <trkpt lat="43.59914" lon="5.48856">
        <ele>365.60000610352</ele>
        <time>2013-03-12T10:52:37.000Z</time>
      </trkpt>
      <trkpt lat="43.59913" lon="5.48858">
        <ele>365.79998779297</ele>
        <time>2013-03-12T10:52:38.000Z</time>
      </trkpt>
      <trkpt lat="43.59912" lon="5.48861">
        <ele>365.79998779297</ele>
        <time>2013-03-12T10:52:39.000Z</time>
      </trkpt>
      <trkpt lat="43.59907" lon="5.48893">
        <ele>366.79998779297</ele>
        <time>2013-03-12T10:52:50.000Z</time>
      </trkpt>
      <trkpt lat="43.59906" lon="5.48904">
        <ele>367.20001220703</ele>
        <time>2013-03-12T10:52:54.000Z</time>
      </trkpt>
      <trkpt lat="43.59907" lon="5.48906">
        <ele>367.39999389648</ele>
        <time>2013-03-12T10:52:55.000Z</time>
      </trkpt>
      <trkpt lat="43.59909" lon="5.48908">
        <ele>367.39999389648</ele>
        <time>2013-03-12T10:52:56.000Z</time>
      </trkpt>
      <trkpt lat="43.5991" lon="5.48909">
        <ele>367.60000610352</ele>
        <time>2013-03-12T10:52:57.000Z</time>
      </trkpt>
      <trkpt lat="43.59912" lon="5.4891">
        <ele>367.60000610352</ele>
        <time>2013-03-12T10:52:58.000Z</time>
      </trkpt>
      <trkpt lat="43.59932" lon="5.48914">
        <ele>368</ele>
        <time>2013-03-12T10:53:08.000Z</time>
      </trkpt>
      <trkpt lat="43.59957" lon="5.48917">
        <ele>368.39999389648</ele>
        <time>2013-03-12T10:53:20.000Z</time>
      </trkpt>
      <trkpt lat="43.59961" lon="5.48919">
        <ele>368.60000610352</ele>
        <time>2013-03-12T10:53:22.000Z</time>
      </trkpt>
      <trkpt lat="43.59964" lon="5.4892">
        <ele>368.60000610352</ele>
        <time>2013-03-12T10:53:23.000Z</time>
      </trkpt>
      <trkpt lat="43.59966" lon="5.48921">
        <ele>368.60000610352</ele>
        <time>2013-03-12T10:53:24.000Z</time>
      </trkpt>
      <trkpt lat="43.59968" lon="5.48922">
        <ele>368.60000610352</ele>
        <time>2013-03-12T10:53:25.000Z</time>
      </trkpt>
      <trkpt lat="43.59969" lon="5.48925">
        <ele>368.60000610352</ele>
        <time>2013-03-12T10:53:26.000Z</time>
      </trkpt>
      <trkpt lat="43.59971" lon="5.48927">
        <ele>368.79998779297</ele>
        <time>2013-03-12T10:53:27.000Z</time>
      </trkpt>
      <trkpt lat="43.59972" lon="5.4893">
        <ele>368.79998779297</ele>
        <time>2013-03-12T10:53:28.000Z</time>
      </trkpt>
      <trkpt lat="43.59973" lon="5.48933">
        <ele>368.79998779297</ele>
        <time>2013-03-12T10:53:29.000Z</time>
      </trkpt>
      <trkpt lat="43.59973" lon="5.48937">
        <ele>369</ele>
        <time>2013-03-12T10:53:30.000Z</time>
      </trkpt>
      <trkpt lat="43.59973" lon="5.48941">
        <ele>369</ele>
        <time>2013-03-12T10:53:31.000Z</time>
      </trkpt>
      <trkpt lat="43.59973" lon="5.48944">
        <ele>369.20001220703</ele>
        <time>2013-03-12T10:53:32.000Z</time>
      </trkpt>
      <trkpt lat="43.59972" lon="5.48948">
        <ele>369.20001220703</ele>
        <time>2013-03-12T10:53:33.000Z</time>
      </trkpt>
      <trkpt lat="43.5997" lon="5.48951">
        <ele>369.20001220703</ele>
        <time>2013-03-12T10:53:34.000Z</time>
      </trkpt>
      <trkpt lat="43.59969" lon="5.48954">
        <ele>369.39999389648</ele>
        <time>2013-03-12T10:53:35.000Z</time>
      </trkpt>
      <trkpt lat="43.59954" lon="5.48991">
        <ele>370.20001220703</ele>
        <time>2013-03-12T10:53:47.000Z</time>
      </trkpt>
      <trkpt lat="43.5995" lon="5.49024">
        <ele>371</ele>
        <time>2013-03-12T10:53:56.000Z</time>
      </trkpt>
      <trkpt lat="43.5995" lon="5.49037">
        <ele>371.20001220703</ele>
        <time>2013-03-12T10:54:00.000Z</time>
      </trkpt>
      <trkpt lat="43.59951" lon="5.4904">
        <ele>371.39999389648</ele>
        <time>2013-03-12T10:54:01.000Z</time>
      </trkpt>
      <trkpt lat="43.59953" lon="5.49042">
        <ele>371.39999389648</ele>
        <time>2013-03-12T10:54:02.000Z</time>
      </trkpt>
      <trkpt lat="43.59955" lon="5.49044">
        <ele>371.39999389648</ele>
        <time>2013-03-12T10:54:03.000Z</time>
      </trkpt>
      <trkpt lat="43.59957" lon="5.49046">
        <ele>371.20001220703</ele>
        <time>2013-03-12T10:54:04.000Z</time>
      </trkpt>
      <trkpt lat="43.59959" lon="5.49048">
        <ele>371.20001220703</ele>
        <time>2013-03-12T10:54:05.000Z</time>
      </trkpt>
      <trkpt lat="43.59961" lon="5.4905">
        <ele>371.20001220703</ele>
        <time>2013-03-12T10:54:06.000Z</time>
      </trkpt>
      <trkpt lat="43.59962" lon="5.49054">
        <ele>371.20001220703</ele>
        <time>2013-03-12T10:54:07.000Z</time>
      </trkpt>
      <trkpt lat="43.59961" lon="5.49057">
        <ele>371.39999389648</ele>
        <time>2013-03-12T10:54:08.000Z</time>
      </trkpt>
      <trkpt lat="43.5996" lon="5.49059">
        <ele>371.39999389648</ele>
        <time>2013-03-12T10:54:09.000Z</time>
      </trkpt>
      <trkpt lat="43.59957" lon="5.4906">
        <ele>371.60000610352</ele>
        <time>2013-03-12T10:54:10.000Z</time>
      </trkpt>
      <trkpt lat="43.59955" lon="5.49061">
        <ele>371.60000610352</ele>
        <time>2013-03-12T10:54:11.000Z</time>
      </trkpt>
      <trkpt lat="43.59952" lon="5.49062">
        <ele>371.79998779297</ele>
        <time>2013-03-12T10:54:12.000Z</time>
      </trkpt>
      <trkpt lat="43.5992" lon="5.49066">
        <ele>373.20001220703</ele>
        <time>2013-03-12T10:54:24.000Z</time>
      </trkpt>
      <trkpt lat="43.59888" lon="5.4906">
        <ele>372.79998779297</ele>
        <time>2013-03-12T10:54:35.000Z</time>
      </trkpt>
      <trkpt lat="43.59853" lon="5.49035">
        <ele>371.79998779297</ele>
        <time>2013-03-12T10:54:48.000Z</time>
      </trkpt>
      <trkpt lat="43.59817" lon="5.49025">
        <ele>371.60000610352</ele>
        <time>2013-03-12T10:55:01.000Z</time>
      </trkpt>
      <trkpt lat="43.598" lon="5.49027">
        <ele>371.60000610352</ele>
        <time>2013-03-12T10:55:10.000Z</time>
      </trkpt>
      <trkpt lat="43.59798" lon="5.49027">
        <ele>371.60000610352</ele>
        <time>2013-03-12T10:55:19.000Z</time>
      </trkpt>
      <trkpt lat="43.59797" lon="5.49025">
        <ele>371.60000610352</ele>
        <time>2013-03-12T10:55:29.000Z</time>
      </trkpt>
      <trkpt lat="43.59796" lon="5.49023">
        <ele>371.39999389648</ele>
        <time>2013-03-12T10:55:30.000Z</time>
      </trkpt>
      <trkpt lat="43.59795" lon="5.4902">
        <ele>371.39999389648</ele>
        <time>2013-03-12T10:55:31.000Z</time>
      </trkpt>
      <trkpt lat="43.59793" lon="5.49018">
        <ele>371.39999389648</ele>
        <time>2013-03-12T10:55:32.000Z</time>
      </trkpt>
      <trkpt lat="43.59791" lon="5.49016">
        <ele>371.20001220703</ele>
        <time>2013-03-12T10:55:33.000Z</time>
      </trkpt>
      <trkpt lat="43.59789" lon="5.49014">
        <ele>371.20001220703</ele>
        <time>2013-03-12T10:55:34.000Z</time>
      </trkpt>
      <trkpt lat="43.59787" lon="5.49012">
        <ele>371.20001220703</ele>
        <time>2013-03-12T10:55:35.000Z</time>
      </trkpt>
      <trkpt lat="43.5977" lon="5.48992">
        <ele>370.79998779297</ele>
        <time>2013-03-12T10:55:40.000Z</time>
      </trkpt>
      <trkpt lat="43.59766" lon="5.48987">
        <ele>370.60000610352</ele>
        <time>2013-03-12T10:55:41.000Z</time>
      </trkpt>
      <trkpt lat="43.59762" lon="5.48983">
        <ele>370.60000610352</ele>
        <time>2013-03-12T10:55:42.000Z</time>
      </trkpt>
      <trkpt lat="43.59759" lon="5.48979">
        <ele>370.60000610352</ele>
        <time>2013-03-12T10:55:43.000Z</time>
      </trkpt>
      <trkpt lat="43.59755" lon="5.48975">
        <ele>370.60000610352</ele>
        <time>2013-03-12T10:55:44.000Z</time>
      </trkpt>
      <trkpt lat="43.59749" lon="5.48966">
        <ele>370.39999389648</ele>
        <time>2013-03-12T10:55:50.000Z</time>
      </trkpt>
      <trkpt lat="43.59746" lon="5.48963">
        <ele>370.39999389648</ele>
        <time>2013-03-12T10:55:59.000Z</time>
      </trkpt>
      <trkpt lat="43.59745" lon="5.48961">
        <ele>370.39999389648</ele>
        <time>2013-03-12T10:56:01.000Z</time>
      </trkpt>
      <trkpt lat="43.59743" lon="5.48955">
        <ele>370.20001220703</ele>
        <time>2013-03-12T10:56:04.000Z</time>
      </trkpt>
      <trkpt lat="43.59734" lon="5.48941">
        <ele>369.79998779297</ele>
        <time>2013-03-12T10:56:11.000Z</time>
      </trkpt>
      <trkpt lat="43.59733" lon="5.48941">
        <ele>369.79998779297</ele>
        <time>2013-03-12T10:56:12.000Z</time>
      </trkpt>
      <trkpt lat="43.59731" lon="5.48941">
        <ele>369.79998779297</ele>
        <time>2013-03-12T10:56:13.000Z</time>
      </trkpt>
      <trkpt lat="43.59723" lon="5.48946">
        <ele>369.60000610352</ele>
        <time>2013-03-12T10:56:16.000Z</time>
      </trkpt>
      <trkpt lat="43.59719" lon="5.48946">
        <ele>369.60000610352</ele>
        <time>2013-03-12T10:56:17.000Z</time>
      </trkpt>
      <trkpt lat="43.59716" lon="5.48944">
        <ele>369.39999389648</ele>
        <time>2013-03-12T10:56:18.000Z</time>
      </trkpt>
      <trkpt lat="43.59713" lon="5.48942">
        <ele>369.39999389648</ele>
        <time>2013-03-12T10:56:19.000Z</time>
      </trkpt>
      <trkpt lat="43.59712" lon="5.4894">
        <ele>369.20001220703</ele>
        <time>2013-03-12T10:56:20.000Z</time>
      </trkpt>
      <trkpt lat="43.5971" lon="5.4894">
        <ele>369.20001220703</ele>
        <time>2013-03-12T10:56:21.000Z</time>
      </trkpt>
      <trkpt lat="43.59708" lon="5.48942">
        <ele>369.20001220703</ele>
        <time>2013-03-12T10:56:22.000Z</time>
      </trkpt>
      <trkpt lat="43.59706" lon="5.48944">
        <ele>369.20001220703</ele>
        <time>2013-03-12T10:56:23.000Z</time>
      </trkpt>
      <trkpt lat="43.59704" lon="5.48947">
        <ele>369.20001220703</ele>
        <time>2013-03-12T10:56:24.000Z</time>
      </trkpt>
      <trkpt lat="43.59702" lon="5.48949">
        <ele>369.20001220703</ele>
        <time>2013-03-12T10:56:25.000Z</time>
      </trkpt>
      <trkpt lat="43.59698" lon="5.48953">
        <ele>369</ele>
        <time>2013-03-12T10:56:27.000Z</time>
      </trkpt>
      <trkpt lat="43.59695" lon="5.48956">
        <ele>369</ele>
        <time>2013-03-12T10:56:28.000Z</time>
      </trkpt>
      <trkpt lat="43.59675" lon="5.48977">
        <ele>368.79998779297</ele>
        <time>2013-03-12T10:56:37.000Z</time>
      </trkpt>
      <trkpt lat="43.59672" lon="5.48982">
        <ele>368.79998779297</ele>
        <time>2013-03-12T10:56:40.000Z</time>
      </trkpt>
      <trkpt lat="43.59669" lon="5.48983">
        <ele>368.79998779297</ele>
        <time>2013-03-12T10:56:41.000Z</time>
      </trkpt>
      <trkpt lat="43.59642" lon="5.48997">
        <ele>369.39999389648</ele>
        <time>2013-03-12T10:56:49.000Z</time>
      </trkpt>
      <trkpt lat="43.59622" lon="5.49028">
        <ele>372.79998779297</ele>
        <time>2013-03-12T10:56:58.000Z</time>
      </trkpt>
      <trkpt lat="43.5961" lon="5.49061">
        <ele>376.20001220703</ele>
        <time>2013-03-12T10:57:09.000Z</time>
      </trkpt>
      <trkpt lat="43.59608" lon="5.49065">
        <ele>376.39999389648</ele>
        <time>2013-03-12T10:57:11.000Z</time>
      </trkpt>
      <trkpt lat="43.59607" lon="5.49065">
        <ele>376.39999389648</ele>
        <time>2013-03-12T10:57:12.000Z</time>
      </trkpt>
      <trkpt lat="43.59601" lon="5.49062">
        <ele>376.20001220703</ele>
        <time>2013-03-12T10:57:15.000Z</time>
      </trkpt>
      <trkpt lat="43.59596" lon="5.49062">
        <ele>376.20001220703</ele>
        <time>2013-03-12T10:57:18.000Z</time>
      </trkpt>
      <trkpt lat="43.59595" lon="5.49065">
        <ele>376.39999389648</ele>
        <time>2013-03-12T10:57:19.000Z</time>
      </trkpt>
      <trkpt lat="43.5958" lon="5.49101">
        <ele>379.39999389648</ele>
        <time>2013-03-12T10:57:32.000Z</time>
      </trkpt>
      <trkpt lat="43.59562" lon="5.49141">
        <ele>383</ele>
        <time>2013-03-12T10:57:46.000Z</time>
      </trkpt>
      <trkpt lat="43.59535" lon="5.49186">
        <ele>386.20001220703</ele>
        <time>2013-03-12T10:58:02.000Z</time>
      </trkpt>
      <trkpt lat="43.59531" lon="5.49191">
        <ele>386.39999389648</ele>
        <time>2013-03-12T10:58:04.000Z</time>
      </trkpt>
      <trkpt lat="43.59506" lon="5.49212">
        <ele>386.60000610352</ele>
        <time>2013-03-12T10:58:15.000Z</time>
      </trkpt>
      <trkpt lat="43.59486" lon="5.49228">
        <ele>385.60000610352</ele>
        <time>2013-03-12T10:58:21.000Z</time>
      </trkpt>
      <trkpt lat="43.59482" lon="5.49232">
        <ele>385.39999389648</ele>
        <time>2013-03-12T10:58:22.000Z</time>
      </trkpt>
      <trkpt lat="43.59478" lon="5.49237">
        <ele>385.20001220703</ele>
        <time>2013-03-12T10:58:23.000Z</time>
      </trkpt>
      <trkpt lat="43.59475" lon="5.49243">
        <ele>385</ele>
        <time>2013-03-12T10:58:24.000Z</time>
      </trkpt>
      <trkpt lat="43.59471" lon="5.49249">
        <ele>384.79998779297</ele>
        <time>2013-03-12T10:58:25.000Z</time>
      </trkpt>
      <trkpt lat="43.59469" lon="5.49255">
        <ele>384.79998779297</ele>
        <time>2013-03-12T10:58:26.000Z</time>
      </trkpt>
      <trkpt lat="43.59445" lon="5.4932">
        <ele>383.79998779297</ele>
        <time>2013-03-12T10:58:36.000Z</time>
      </trkpt>
      <trkpt lat="43.59424" lon="5.49392">
        <ele>385.20001220703</ele>
        <time>2013-03-12T10:58:47.000Z</time>
      </trkpt>
      <trkpt lat="43.59422" lon="5.49404">
        <ele>385.60000610352</ele>
        <time>2013-03-12T10:58:49.000Z</time>
      </trkpt>
      <trkpt lat="43.5942" lon="5.4941">
        <ele>385.79998779297</ele>
        <time>2013-03-12T10:58:50.000Z</time>
      </trkpt>
      <trkpt lat="43.59419" lon="5.49415">
        <ele>386</ele>
        <time>2013-03-12T10:58:51.000Z</time>
      </trkpt>
      <trkpt lat="43.59417" lon="5.4942">
        <ele>386</ele>
        <time>2013-03-12T10:58:52.000Z</time>
      </trkpt>
      <trkpt lat="43.59415" lon="5.49426">
        <ele>386.20001220703</ele>
        <time>2013-03-12T10:58:53.000Z</time>
      </trkpt>
      <trkpt lat="43.59404" lon="5.49462">
        <ele>386.60000610352</ele>
        <time>2013-03-12T10:58:59.000Z</time>
      </trkpt>
      <trkpt lat="43.59401" lon="5.49475">
        <ele>386.60000610352</ele>
        <time>2013-03-12T10:59:01.000Z</time>
      </trkpt>
      <trkpt lat="43.59366" lon="5.49537">
        <ele>384.39999389648</ele>
        <time>2013-03-12T10:59:12.000Z</time>
      </trkpt>
      <trkpt lat="43.59319" lon="5.49598">
        <ele>380.60000610352</ele>
        <time>2013-03-12T10:59:22.000Z</time>
      </trkpt>
      <trkpt lat="43.59304" lon="5.49619">
        <ele>379</ele>
        <time>2013-03-12T10:59:25.000Z</time>
      </trkpt>
      <trkpt lat="43.593" lon="5.49628">
        <ele>378.60000610352</ele>
        <time>2013-03-12T10:59:26.000Z</time>
      </trkpt>
      <trkpt lat="43.59282" lon="5.49669">
        <ele>376.60000610352</ele>
        <time>2013-03-12T10:59:30.000Z</time>
      </trkpt>
      <trkpt lat="43.59277" lon="5.4968">
        <ele>375.79998779297</ele>
        <time>2013-03-12T10:59:31.000Z</time>
      </trkpt>
      <trkpt lat="43.59274" lon="5.49693">
        <ele>375</ele>
        <time>2013-03-12T10:59:32.000Z</time>
      </trkpt>
      <trkpt lat="43.59273" lon="5.49705">
        <ele>374.39999389648</ele>
        <time>2013-03-12T10:59:33.000Z</time>
      </trkpt>
      <trkpt lat="43.59274" lon="5.49718">
        <ele>374.20001220703</ele>
        <time>2013-03-12T10:59:34.000Z</time>
      </trkpt>
      <trkpt lat="43.59276" lon="5.49731">
        <ele>373.79998779297</ele>
        <time>2013-03-12T10:59:35.000Z</time>
      </trkpt>
      <trkpt lat="43.59274" lon="5.49745">
        <ele>373.20001220703</ele>
        <time>2013-03-12T10:59:36.000Z</time>
      </trkpt>
      <trkpt lat="43.5927" lon="5.49758">
        <ele>372.39999389648</ele>
        <time>2013-03-12T10:59:37.000Z</time>
      </trkpt>
      <trkpt lat="43.59265" lon="5.49771">
        <ele>371.39999389648</ele>
        <time>2013-03-12T10:59:38.000Z</time>
      </trkpt>
      <trkpt lat="43.59257" lon="5.49799">
        <ele>369.60000610352</ele>
        <time>2013-03-12T10:59:40.000Z</time>
      </trkpt>
      <trkpt lat="43.59255" lon="5.49814">
        <ele>369.20001220703</ele>
        <time>2013-03-12T10:59:41.000Z</time>
      </trkpt>
      <trkpt lat="43.59255" lon="5.49828">
        <ele>368.79998779297</ele>
        <time>2013-03-12T10:59:42.000Z</time>
      </trkpt>
      <trkpt lat="43.59257" lon="5.4984">
        <ele>368.79998779297</ele>
        <time>2013-03-12T10:59:43.000Z</time>
      </trkpt>
      <trkpt lat="43.5926" lon="5.49852">
        <ele>369</ele>
        <time>2013-03-12T10:59:44.000Z</time>
      </trkpt>
      <trkpt lat="43.59263" lon="5.49863">
        <ele>369.39999389648</ele>
        <time>2013-03-12T10:59:45.000Z</time>
      </trkpt>
      <trkpt lat="43.5927" lon="5.49893">
        <ele>369.79998779297</ele>
        <time>2013-03-12T10:59:48.000Z</time>
      </trkpt>
      <trkpt lat="43.59271" lon="5.49913">
        <ele>369.79998779297</ele>
        <time>2013-03-12T10:59:50.000Z</time>
      </trkpt>
      <trkpt lat="43.59271" lon="5.4995">
        <ele>370.39999389648</ele>
        <time>2013-03-12T10:59:54.000Z</time>
      </trkpt>
      <trkpt lat="43.59269" lon="5.50026">
        <ele>370.79998779297</ele>
        <time>2013-03-12T11:00:03.000Z</time>
      </trkpt>
      <trkpt lat="43.59268" lon="5.50031">
        <ele>370.60000610352</ele>
        <time>2013-03-12T11:00:04.000Z</time>
      </trkpt>
      <trkpt lat="43.59265" lon="5.50035">
        <ele>370.20001220703</ele>
        <time>2013-03-12T11:00:05.000Z</time>
      </trkpt>
      <trkpt lat="43.5926" lon="5.50034">
        <ele>369.60000610352</ele>
        <time>2013-03-12T11:00:06.000Z</time>
      </trkpt>
      <trkpt lat="43.59254" lon="5.50033">
        <ele>369</ele>
        <time>2013-03-12T11:00:07.000Z</time>
      </trkpt>
      <trkpt lat="43.59203" lon="5.50031">
        <ele>365.39999389648</ele>
        <time>2013-03-12T11:00:14.000Z</time>
      </trkpt>
      <trkpt lat="43.59164" lon="5.5003">
        <ele>363</ele>
        <time>2013-03-12T11:00:19.000Z</time>
      </trkpt>
      <trkpt lat="43.59098" lon="5.50026">
        <ele>363</ele>
        <time>2013-03-12T11:00:28.000Z</time>
      </trkpt>
      <trkpt lat="43.59091" lon="5.50024">
        <ele>362.79998779297</ele>
        <time>2013-03-12T11:00:29.000Z</time>
      </trkpt>
      <trkpt lat="43.59051" lon="5.50005">
        <ele>362</ele>
        <time>2013-03-12T11:00:35.000Z</time>
      </trkpt>
      <trkpt lat="43.59044" lon="5.50001">
        <ele>362</ele>
        <time>2013-03-12T11:00:36.000Z</time>
      </trkpt>
      <trkpt lat="43.59038" lon="5.49996">
        <ele>361.60000610352</ele>
        <time>2013-03-12T11:00:37.000Z</time>
      </trkpt>
      <trkpt lat="43.5902" lon="5.4998">
        <ele>360.39999389648</ele>
        <time>2013-03-12T11:00:40.000Z</time>
      </trkpt>
      <trkpt lat="43.59014" lon="5.49977">
        <ele>360.20001220703</ele>
        <time>2013-03-12T11:00:41.000Z</time>
      </trkpt>
      <trkpt lat="43.59008" lon="5.49975">
        <ele>360</ele>
        <time>2013-03-12T11:00:42.000Z</time>
      </trkpt>
      <trkpt lat="43.59002" lon="5.49974">
        <ele>360</ele>
        <time>2013-03-12T11:00:43.000Z</time>
      </trkpt>
      <trkpt lat="43.58996" lon="5.49974">
        <ele>359.79998779297</ele>
        <time>2013-03-12T11:00:44.000Z</time>
      </trkpt>
      <trkpt lat="43.58989" lon="5.49974">
        <ele>359.60000610352</ele>
        <time>2013-03-12T11:00:45.000Z</time>
      </trkpt>
      <trkpt lat="43.58937" lon="5.4998">
        <ele>357.60000610352</ele>
        <time>2013-03-12T11:00:52.000Z</time>
      </trkpt>
      <trkpt lat="43.58921" lon="5.49979">
        <ele>356.60000610352</ele>
        <time>2013-03-12T11:00:54.000Z</time>
      </trkpt>
      <trkpt lat="43.58914" lon="5.49976">
        <ele>356</ele>
        <time>2013-03-12T11:00:55.000Z</time>
      </trkpt>
      <trkpt lat="43.58892" lon="5.49962">
        <ele>354.60000610352</ele>
        <time>2013-03-12T11:00:58.000Z</time>
      </trkpt>
      <trkpt lat="43.58885" lon="5.49956">
        <ele>354.20001220703</ele>
        <time>2013-03-12T11:00:59.000Z</time>
      </trkpt>
      <trkpt lat="43.58858" lon="5.49929">
        <ele>352</ele>
        <time>2013-03-12T11:01:03.000Z</time>
      </trkpt>
      <trkpt lat="43.58812" lon="5.4988">
        <ele>347.20001220703</ele>
        <time>2013-03-12T11:01:10.000Z</time>
      </trkpt>
      <trkpt lat="43.58805" lon="5.49876">
        <ele>346.60000610352</ele>
        <time>2013-03-12T11:01:11.000Z</time>
      </trkpt>
      <trkpt lat="43.58799" lon="5.49873">
        <ele>346.20001220703</ele>
        <time>2013-03-12T11:01:12.000Z</time>
      </trkpt>
      <trkpt lat="43.58792" lon="5.49874">
        <ele>346</ele>
        <time>2013-03-12T11:01:13.000Z</time>
      </trkpt>
      <trkpt lat="43.58785" lon="5.49876">
        <ele>346</ele>
        <time>2013-03-12T11:01:14.000Z</time>
      </trkpt>
      <trkpt lat="43.58779" lon="5.49879">
        <ele>346</ele>
        <time>2013-03-12T11:01:15.000Z</time>
      </trkpt>
      <trkpt lat="43.58773" lon="5.49881">
        <ele>346</ele>
        <time>2013-03-12T11:01:16.000Z</time>
      </trkpt>
      <trkpt lat="43.58767" lon="5.49884">
        <ele>346</ele>
        <time>2013-03-12T11:01:17.000Z</time>
      </trkpt>
      <trkpt lat="43.58695" lon="5.49925">
        <ele>343.79998779297</ele>
        <time>2013-03-12T11:01:29.000Z</time>
      </trkpt>
      <trkpt lat="43.58644" lon="5.49947">
        <ele>340.39999389648</ele>
        <time>2013-03-12T11:01:36.000Z</time>
      </trkpt>
      <trkpt lat="43.58629" lon="5.49956">
        <ele>339.60000610352</ele>
        <time>2013-03-12T11:01:38.000Z</time>
      </trkpt>
      <trkpt lat="43.58621" lon="5.49958">
        <ele>339</ele>
        <time>2013-03-12T11:01:39.000Z</time>
      </trkpt>
      <trkpt lat="43.58614" lon="5.49959">
        <ele>338.39999389648</ele>
        <time>2013-03-12T11:01:40.000Z</time>
      </trkpt>
      <trkpt lat="43.58602" lon="5.49962">
        <ele>337.60000610352</ele>
        <time>2013-03-12T11:01:42.000Z</time>
      </trkpt>
      <trkpt lat="43.58599" lon="5.49969">
        <ele>337.39999389648</ele>
        <time>2013-03-12T11:01:43.000Z</time>
      </trkpt>
      <trkpt lat="43.58598" lon="5.49978">
        <ele>337.79998779297</ele>
        <time>2013-03-12T11:01:44.000Z</time>
      </trkpt>
      <trkpt lat="43.58599" lon="5.49986">
        <ele>338</ele>
        <time>2013-03-12T11:01:45.000Z</time>
      </trkpt>
      <trkpt lat="43.58597" lon="5.49994">
        <ele>338</ele>
        <time>2013-03-12T11:01:46.000Z</time>
      </trkpt>
      <trkpt lat="43.58594" lon="5.50001">
        <ele>338</ele>
        <time>2013-03-12T11:01:47.000Z</time>
      </trkpt>
      <trkpt lat="43.58589" lon="5.50004">
        <ele>337.60000610352</ele>
        <time>2013-03-12T11:01:48.000Z</time>
      </trkpt>
      <trkpt lat="43.58583" lon="5.50004">
        <ele>337</ele>
        <time>2013-03-12T11:01:49.000Z</time>
      </trkpt>
      <trkpt lat="43.58577" lon="5.50005">
        <ele>337.20001220703</ele>
        <time>2013-03-12T11:01:50.000Z</time>
      </trkpt>
      <trkpt lat="43.58571" lon="5.50007">
        <ele>337.20001220703</ele>
        <time>2013-03-12T11:01:51.000Z</time>
      </trkpt>
      <trkpt lat="43.58566" lon="5.50011">
        <ele>337.60000610352</ele>
        <time>2013-03-12T11:01:52.000Z</time>
      </trkpt>
      <trkpt lat="43.58561" lon="5.50014">
        <ele>337.79998779297</ele>
        <time>2013-03-12T11:01:53.000Z</time>
      </trkpt>
      <trkpt lat="43.58556" lon="5.50017">
        <ele>338</ele>
        <time>2013-03-12T11:01:54.000Z</time>
      </trkpt>
      <trkpt lat="43.58546" lon="5.50021">
        <ele>338.39999389648</ele>
        <time>2013-03-12T11:01:56.000Z</time>
      </trkpt>
      <trkpt lat="43.58541" lon="5.50024">
        <ele>338.60000610352</ele>
        <time>2013-03-12T11:01:57.000Z</time>
      </trkpt>
      <trkpt lat="43.58537" lon="5.50027">
        <ele>339</ele>
        <time>2013-03-12T11:01:58.000Z</time>
      </trkpt>
      <trkpt lat="43.58534" lon="5.50031">
        <ele>339.39999389648</ele>
        <time>2013-03-12T11:01:59.000Z</time>
      </trkpt>
      <trkpt lat="43.58532" lon="5.50036">
        <ele>339.79998779297</ele>
        <time>2013-03-12T11:02:00.000Z</time>
      </trkpt>
      <trkpt lat="43.58531" lon="5.50041">
        <ele>340</ele>
        <time>2013-03-12T11:02:01.000Z</time>
      </trkpt>
      <trkpt lat="43.5853" lon="5.50046">
        <ele>340.39999389648</ele>
        <time>2013-03-12T11:02:02.000Z</time>
      </trkpt>
      <trkpt lat="43.58528" lon="5.50063">
        <ele>341.60000610352</ele>
        <time>2013-03-12T11:02:05.000Z</time>
      </trkpt>
      <trkpt lat="43.5852" lon="5.50116">
        <ele>343.79998779297</ele>
        <time>2013-03-12T11:02:15.000Z</time>
      </trkpt>
      <trkpt lat="43.58504" lon="5.5015">
        <ele>345.39999389648</ele>
        <time>2013-03-12T11:02:23.000Z</time>
      </trkpt>
      <trkpt lat="43.58475" lon="5.50199">
        <ele>344.20001220703</ele>
        <time>2013-03-12T11:02:34.000Z</time>
      </trkpt>
      <trkpt lat="43.58472" lon="5.50203">
        <ele>344</ele>
        <time>2013-03-12T11:02:35.000Z</time>
      </trkpt>
      <trkpt lat="43.58469" lon="5.50206">
        <ele>343.79998779297</ele>
        <time>2013-03-12T11:02:36.000Z</time>
      </trkpt>
      <trkpt lat="43.58466" lon="5.50209">
        <ele>343.79998779297</ele>
        <time>2013-03-12T11:02:37.000Z</time>
      </trkpt>
      <trkpt lat="43.58462" lon="5.50211">
        <ele>343.79998779297</ele>
        <time>2013-03-12T11:02:38.000Z</time>
      </trkpt>
      <trkpt lat="43.58458" lon="5.50213">
        <ele>343.60000610352</ele>
        <time>2013-03-12T11:02:39.000Z</time>
      </trkpt>
      <trkpt lat="43.58433" lon="5.50222">
        <ele>343.60000610352</ele>
        <time>2013-03-12T11:02:45.000Z</time>
      </trkpt>
      <trkpt lat="43.58428" lon="5.50224">
        <ele>343.60000610352</ele>
        <time>2013-03-12T11:02:46.000Z</time>
      </trkpt>
      <trkpt lat="43.58424" lon="5.50226">
        <ele>343.60000610352</ele>
        <time>2013-03-12T11:02:47.000Z</time>
      </trkpt>
      <trkpt lat="43.5842" lon="5.50229">
        <ele>343.60000610352</ele>
        <time>2013-03-12T11:02:48.000Z</time>
      </trkpt>
      <trkpt lat="43.58416" lon="5.50233">
        <ele>343.60000610352</ele>
        <time>2013-03-12T11:02:49.000Z</time>
      </trkpt>
      <trkpt lat="43.58401" lon="5.50244">
        <ele>343.20001220703</ele>
        <time>2013-03-12T11:02:52.000Z</time>
      </trkpt>
      <trkpt lat="43.58389" lon="5.50249">
        <ele>343</ele>
        <time>2013-03-12T11:02:54.000Z</time>
      </trkpt>
      <trkpt lat="43.58383" lon="5.50251">
        <ele>342.79998779297</ele>
        <time>2013-03-12T11:02:55.000Z</time>
      </trkpt>
      <trkpt lat="43.58377" lon="5.50252">
        <ele>342.79998779297</ele>
        <time>2013-03-12T11:02:56.000Z</time>
      </trkpt>
      <trkpt lat="43.58345" lon="5.50249">
        <ele>343</ele>
        <time>2013-03-12T11:03:03.000Z</time>
      </trkpt>
      <trkpt lat="43.58344" lon="5.50251">
        <ele>342.79998779297</ele>
        <time>2013-03-12T11:03:04.000Z</time>
      </trkpt>
      <trkpt lat="43.58344" lon="5.50254">
        <ele>342.79998779297</ele>
        <time>2013-03-12T11:03:05.000Z</time>
      </trkpt>
      <trkpt lat="43.58345" lon="5.50258">
        <ele>342.79998779297</ele>
        <time>2013-03-12T11:03:06.000Z</time>
      </trkpt>
      <trkpt lat="43.58347" lon="5.50262">
        <ele>342.79998779297</ele>
        <time>2013-03-12T11:03:07.000Z</time>
      </trkpt>
      <trkpt lat="43.5835" lon="5.50265">
        <ele>342.79998779297</ele>
        <time>2013-03-12T11:03:08.000Z</time>
      </trkpt>
      <trkpt lat="43.58354" lon="5.50269">
        <ele>342.79998779297</ele>
        <time>2013-03-12T11:03:09.000Z</time>
      </trkpt>
      <trkpt lat="43.58401" lon="5.50305">
        <ele>342.79998779297</ele>
        <time>2013-03-12T11:03:18.000Z</time>
      </trkpt>
      <trkpt lat="43.58463" lon="5.5034">
        <ele>341.39999389648</ele>
        <time>2013-03-12T11:03:30.000Z</time>
      </trkpt>
      <trkpt lat="43.58467" lon="5.50342">
        <ele>341.39999389648</ele>
        <time>2013-03-12T11:03:31.000Z</time>
      </trkpt>
      <trkpt lat="43.58472" lon="5.50346">
        <ele>341.20001220703</ele>
        <time>2013-03-12T11:03:32.000Z</time>
      </trkpt>
      <trkpt lat="43.58476" lon="5.50351">
        <ele>341.20001220703</ele>
        <time>2013-03-12T11:03:33.000Z</time>
      </trkpt>
      <trkpt lat="43.58478" lon="5.50357">
        <ele>341.20001220703</ele>
        <time>2013-03-12T11:03:34.000Z</time>
      </trkpt>
      <trkpt lat="43.58478" lon="5.50363">
        <ele>341.39999389648</ele>
        <time>2013-03-12T11:03:35.000Z</time>
      </trkpt>
      <trkpt lat="43.58478" lon="5.5037">
        <ele>341.39999389648</ele>
        <time>2013-03-12T11:03:36.000Z</time>
      </trkpt>
      <trkpt lat="43.58478" lon="5.50377">
        <ele>341.60000610352</ele>
        <time>2013-03-12T11:03:37.000Z</time>
      </trkpt>
      <trkpt lat="43.58477" lon="5.50384">
        <ele>341.79998779297</ele>
        <time>2013-03-12T11:03:38.000Z</time>
      </trkpt>
      <trkpt lat="43.58475" lon="5.50409">
        <ele>342.39999389648</ele>
        <time>2013-03-12T11:03:41.000Z</time>
      </trkpt>
      <trkpt lat="43.58478" lon="5.50463">
        <ele>341.60000610352</ele>
        <time>2013-03-12T11:03:47.000Z</time>
      </trkpt>
      <trkpt lat="43.58477" lon="5.50472">
        <ele>341.60000610352</ele>
        <time>2013-03-12T11:03:48.000Z</time>
      </trkpt>
      <trkpt lat="43.58476" lon="5.50481">
        <ele>341.60000610352</ele>
        <time>2013-03-12T11:03:49.000Z</time>
      </trkpt>
      <trkpt lat="43.58474" lon="5.50489">
        <ele>341.60000610352</ele>
        <time>2013-03-12T11:03:50.000Z</time>
      </trkpt>
      <trkpt lat="43.58471" lon="5.50496">
        <ele>341.79998779297</ele>
        <time>2013-03-12T11:03:51.000Z</time>
      </trkpt>
      <trkpt lat="43.58467" lon="5.50502">
        <ele>342</ele>
        <time>2013-03-12T11:03:52.000Z</time>
      </trkpt>
      <trkpt lat="43.58463" lon="5.50506">
        <ele>342.39999389648</ele>
        <time>2013-03-12T11:03:53.000Z</time>
      </trkpt>
      <trkpt lat="43.58458" lon="5.50508">
        <ele>342.79998779297</ele>
        <time>2013-03-12T11:03:54.000Z</time>
      </trkpt>
      <trkpt lat="43.58453" lon="5.50511">
        <ele>343</ele>
        <time>2013-03-12T11:03:55.000Z</time>
      </trkpt>
      <trkpt lat="43.58423" lon="5.50523">
        <ele>345.60000610352</ele>
        <time>2013-03-12T11:04:05.000Z</time>
      </trkpt>
      <trkpt lat="43.58394" lon="5.50537">
        <ele>349</ele>
        <time>2013-03-12T11:04:17.000Z</time>
      </trkpt>
      <trkpt lat="43.58367" lon="5.50548">
        <ele>352.39999389648</ele>
        <time>2013-03-12T11:04:29.000Z</time>
      </trkpt>
      <trkpt lat="43.58343" lon="5.5056">
        <ele>355.20001220703</ele>
        <time>2013-03-12T11:04:40.000Z</time>
      </trkpt>
      <trkpt lat="43.58325" lon="5.50567">
        <ele>356.79998779297</ele>
        <time>2013-03-12T11:04:48.000Z</time>
      </trkpt>
      <trkpt lat="43.58323" lon="5.50565">
        <ele>357</ele>
        <time>2013-03-12T11:04:49.000Z</time>
      </trkpt>
      <trkpt lat="43.58321" lon="5.50563">
        <ele>357.20001220703</ele>
        <time>2013-03-12T11:04:50.000Z</time>
      </trkpt>
      <trkpt lat="43.5832" lon="5.50561">
        <ele>357.39999389648</ele>
        <time>2013-03-12T11:04:51.000Z</time>
      </trkpt>
      <trkpt lat="43.58319" lon="5.50558">
        <ele>357.39999389648</ele>
        <time>2013-03-12T11:04:52.000Z</time>
      </trkpt>
      <trkpt lat="43.58317" lon="5.50554">
        <ele>357.60000610352</ele>
        <time>2013-03-12T11:04:53.000Z</time>
      </trkpt>
      <trkpt lat="43.58316" lon="5.5055">
        <ele>357.60000610352</ele>
        <time>2013-03-12T11:04:54.000Z</time>
      </trkpt>
      <trkpt lat="43.58316" lon="5.50547">
        <ele>357.79998779297</ele>
        <time>2013-03-12T11:04:55.000Z</time>
      </trkpt>
      <trkpt lat="43.58314" lon="5.50543">
        <ele>357.79998779297</ele>
        <time>2013-03-12T11:04:56.000Z</time>
      </trkpt>
      <trkpt lat="43.58313" lon="5.5054">
        <ele>357.79998779297</ele>
        <time>2013-03-12T11:04:57.000Z</time>
      </trkpt>
      <trkpt lat="43.58312" lon="5.50537">
        <ele>358</ele>
        <time>2013-03-12T11:04:58.000Z</time>
      </trkpt>
      <trkpt lat="43.58312" lon="5.50534">
        <ele>358</ele>
        <time>2013-03-12T11:04:59.000Z</time>
      </trkpt>
      <trkpt lat="43.58309" lon="5.50509">
        <ele>358.20001220703</ele>
        <time>2013-03-12T11:05:07.000Z</time>
      </trkpt>
      <trkpt lat="43.58307" lon="5.50507">
        <ele>358.20001220703</ele>
        <time>2013-03-12T11:05:08.000Z</time>
      </trkpt>
      <trkpt lat="43.58306" lon="5.50504">
        <ele>358.20001220703</ele>
        <time>2013-03-12T11:05:09.000Z</time>
      </trkpt>
      <trkpt lat="43.58304" lon="5.50503">
        <ele>358.20001220703</ele>
        <time>2013-03-12T11:05:10.000Z</time>
      </trkpt>
      <trkpt lat="43.58302" lon="5.50502">
        <ele>358.20001220703</ele>
        <time>2013-03-12T11:05:11.000Z</time>
      </trkpt>
      <trkpt lat="43.58299" lon="5.50501">
        <ele>358.39999389648</ele>
        <time>2013-03-12T11:05:12.000Z</time>
      </trkpt>
      <trkpt lat="43.58297" lon="5.50501">
        <ele>358.39999389648</ele>
        <time>2013-03-12T11:05:13.000Z</time>
      </trkpt>
      <trkpt lat="43.58294" lon="5.50502">
        <ele>358.39999389648</ele>
        <time>2013-03-12T11:05:14.000Z</time>
      </trkpt>
      <trkpt lat="43.58292" lon="5.50503">
        <ele>358.39999389648</ele>
        <time>2013-03-12T11:05:15.000Z</time>
      </trkpt>
      <trkpt lat="43.58289" lon="5.50505">
        <ele>358.60000610352</ele>
        <time>2013-03-12T11:05:16.000Z</time>
      </trkpt>
      <trkpt lat="43.58287" lon="5.50507">
        <ele>358.60000610352</ele>
        <time>2013-03-12T11:05:17.000Z</time>
      </trkpt>
      <trkpt lat="43.58261" lon="5.50531">
        <ele>360</ele>
        <time>2013-03-12T11:05:29.000Z</time>
      </trkpt>
      <trkpt lat="43.58234" lon="5.50559">
        <ele>360.60000610352</ele>
        <time>2013-03-12T11:05:41.000Z</time>
      </trkpt>
      <trkpt lat="43.58207" lon="5.50597">
        <ele>360.60000610352</ele>
        <time>2013-03-12T11:05:53.000Z</time>
      </trkpt>
      <trkpt lat="43.58178" lon="5.50644">
        <ele>362</ele>
        <time>2013-03-12T11:06:06.000Z</time>
      </trkpt>
      <trkpt lat="43.58162" lon="5.50677">
        <ele>364.20001220703</ele>
        <time>2013-03-12T11:06:15.000Z</time>
      </trkpt>
      <trkpt lat="43.58141" lon="5.50723">
        <ele>365.79998779297</ele>
        <time>2013-03-12T11:06:27.000Z</time>
      </trkpt>
      <trkpt lat="43.58119" lon="5.50776">
        <ele>369.20001220703</ele>
        <time>2013-03-12T11:06:41.000Z</time>
      </trkpt>
      <trkpt lat="43.58103" lon="5.50817">
        <ele>372.20001220703</ele>
        <time>2013-03-12T11:06:52.000Z</time>
      </trkpt>
      <trkpt lat="43.5809" lon="5.50854">
        <ele>374.79998779297</ele>
        <time>2013-03-12T11:07:03.000Z</time>
      </trkpt>
      <trkpt lat="43.5808" lon="5.50887">
        <ele>377.20001220703</ele>
        <time>2013-03-12T11:07:13.000Z</time>
      </trkpt>
      <trkpt lat="43.58068" lon="5.50929">
        <ele>379.60000610352</ele>
        <time>2013-03-12T11:07:26.000Z</time>
      </trkpt>
      <trkpt lat="43.5805" lon="5.50965">
        <ele>380.79998779297</ele>
        <time>2013-03-12T11:07:39.000Z</time>
      </trkpt>
      <trkpt lat="43.58025" lon="5.50973">
        <ele>383.79998779297</ele>
        <time>2013-03-12T11:07:49.000Z</time>
      </trkpt>
      <trkpt lat="43.58" lon="5.50991">
        <ele>387.39999389648</ele>
        <time>2013-03-12T11:08:00.000Z</time>
      </trkpt>
      <trkpt lat="43.5798" lon="5.51008">
        <ele>389.20001220703</ele>
        <time>2013-03-12T11:08:11.000Z</time>
      </trkpt>
      <trkpt lat="43.5796" lon="5.51029">
        <ele>391</ele>
        <time>2013-03-12T11:08:24.000Z</time>
      </trkpt>
      <trkpt lat="43.57952" lon="5.51038">
        <ele>392.20001220703</ele>
        <time>2013-03-12T11:08:30.000Z</time>
      </trkpt>
      <trkpt lat="43.57943" lon="5.51045">
        <ele>393.39999389648</ele>
        <time>2013-03-12T11:08:36.000Z</time>
      </trkpt>
      <trkpt lat="43.57942" lon="5.51047">
        <ele>393.60000610352</ele>
        <time>2013-03-12T11:08:37.000Z</time>
      </trkpt>
      <trkpt lat="43.5794" lon="5.51049">
        <ele>393.79998779297</ele>
        <time>2013-03-12T11:08:38.000Z</time>
      </trkpt>
      <trkpt lat="43.57939" lon="5.5105">
        <ele>394</ele>
        <time>2013-03-12T11:08:39.000Z</time>
      </trkpt>
      <trkpt lat="43.57937" lon="5.51051">
        <ele>394.39999389648</ele>
        <time>2013-03-12T11:08:40.000Z</time>
      </trkpt>
      <trkpt lat="43.57916" lon="5.51069">
        <ele>398</ele>
        <time>2013-03-12T11:08:51.000Z</time>
      </trkpt>
      <trkpt lat="43.57892" lon="5.5109">
        <ele>397.20001220703</ele>
        <time>2013-03-12T11:09:00.000Z</time>
      </trkpt>
      <trkpt lat="43.57872" lon="5.51117">
        <ele>394.79998779297</ele>
        <time>2013-03-12T11:09:10.000Z</time>
      </trkpt>
      <trkpt lat="43.5785" lon="5.51165">
        <ele>393.79998779297</ele>
        <time>2013-03-12T11:09:19.000Z</time>
      </trkpt>
      <trkpt lat="43.57848" lon="5.51171">
        <ele>393.60000610352</ele>
        <time>2013-03-12T11:09:20.000Z</time>
      </trkpt>
      <trkpt lat="43.57835" lon="5.51219">
        <ele>391.60000610352</ele>
        <time>2013-03-12T11:09:29.000Z</time>
      </trkpt>
      <trkpt lat="43.57816" lon="5.51257">
        <ele>391.20001220703</ele>
        <time>2013-03-12T11:09:38.000Z</time>
      </trkpt>
      <trkpt lat="43.57813" lon="5.51264">
        <ele>391.60000610352</ele>
        <time>2013-03-12T11:09:39.000Z</time>
      </trkpt>
      <trkpt lat="43.57811" lon="5.51273">
        <ele>392.20001220703</ele>
        <time>2013-03-12T11:09:40.000Z</time>
      </trkpt>
      <trkpt lat="43.57811" lon="5.51282">
        <ele>392.39999389648</ele>
        <time>2013-03-12T11:09:41.000Z</time>
      </trkpt>
      <trkpt lat="43.57811" lon="5.5129">
        <ele>392.79998779297</ele>
        <time>2013-03-12T11:09:42.000Z</time>
      </trkpt>
      <trkpt lat="43.57812" lon="5.51304">
        <ele>393.20001220703</ele>
        <time>2013-03-12T11:09:44.000Z</time>
      </trkpt>
      <trkpt lat="43.57811" lon="5.5131">
        <ele>393.60000610352</ele>
        <time>2013-03-12T11:09:45.000Z</time>
      </trkpt>
      <trkpt lat="43.5781" lon="5.51315">
        <ele>393.79998779297</ele>
        <time>2013-03-12T11:09:46.000Z</time>
      </trkpt>
      <trkpt lat="43.57808" lon="5.51319">
        <ele>394.20001220703</ele>
        <time>2013-03-12T11:09:47.000Z</time>
      </trkpt>
      <trkpt lat="43.57806" lon="5.51322">
        <ele>394.60000610352</ele>
        <time>2013-03-12T11:09:48.000Z</time>
      </trkpt>
      <trkpt lat="43.57804" lon="5.51324">
        <ele>395.20001220703</ele>
        <time>2013-03-12T11:09:49.000Z</time>
      </trkpt>
      <trkpt lat="43.57801" lon="5.51326">
        <ele>395.60000610352</ele>
        <time>2013-03-12T11:09:50.000Z</time>
      </trkpt>
      <trkpt lat="43.57788" lon="5.51349">
        <ele>399.20001220703</ele>
        <time>2013-03-12T11:09:58.000Z</time>
      </trkpt>
      <trkpt lat="43.5777" lon="5.5138">
        <ele>404</ele>
        <time>2013-03-12T11:10:08.000Z</time>
      </trkpt>
      <trkpt lat="43.57746" lon="5.51417">
        <ele>409.39999389648</ele>
        <time>2013-03-12T11:10:21.000Z</time>
      </trkpt>
      <trkpt lat="43.57728" lon="5.51456">
        <ele>414</ele>
        <time>2013-03-12T11:10:34.000Z</time>
      </trkpt>
      <trkpt lat="43.57709" lon="5.51476">
        <ele>416</ele>
        <time>2013-03-12T11:10:44.000Z</time>
      </trkpt>
      <trkpt lat="43.57695" lon="5.51497">
        <ele>417.39999389648</ele>
        <time>2013-03-12T11:10:53.000Z</time>
      </trkpt>
      <trkpt lat="43.57686" lon="5.51521">
        <ele>419.39999389648</ele>
        <time>2013-03-12T11:11:02.000Z</time>
      </trkpt>
      <trkpt lat="43.57687" lon="5.51527">
        <ele>419.79998779297</ele>
        <time>2013-03-12T11:11:04.000Z</time>
      </trkpt>
      <trkpt lat="43.57686" lon="5.5153">
        <ele>420</ele>
        <time>2013-03-12T11:11:05.000Z</time>
      </trkpt>
      <trkpt lat="43.57686" lon="5.51533">
        <ele>420.39999389648</ele>
        <time>2013-03-12T11:11:06.000Z</time>
      </trkpt>
      <trkpt lat="43.57685" lon="5.51536">
        <ele>420.60000610352</ele>
        <time>2013-03-12T11:11:07.000Z</time>
      </trkpt>
      <trkpt lat="43.57685" lon="5.51538">
        <ele>420.79998779297</ele>
        <time>2013-03-12T11:11:08.000Z</time>
      </trkpt>
      <trkpt lat="43.57685" lon="5.51541">
        <ele>421</ele>
        <time>2013-03-12T11:11:09.000Z</time>
      </trkpt>
      <trkpt lat="43.57684" lon="5.51544">
        <ele>421.20001220703</ele>
        <time>2013-03-12T11:11:10.000Z</time>
      </trkpt>
      <trkpt lat="43.57684" lon="5.51548">
        <ele>421.39999389648</ele>
        <time>2013-03-12T11:11:11.000Z</time>
      </trkpt>
      <trkpt lat="43.57684" lon="5.51551">
        <ele>421.79998779297</ele>
        <time>2013-03-12T11:11:12.000Z</time>
      </trkpt>
      <trkpt lat="43.57683" lon="5.51554">
        <ele>422</ele>
        <time>2013-03-12T11:11:13.000Z</time>
      </trkpt>
      <trkpt lat="43.57683" lon="5.51556">
        <ele>422.20001220703</ele>
        <time>2013-03-12T11:11:14.000Z</time>
      </trkpt>
      <trkpt lat="43.57682" lon="5.51588">
        <ele>424.60000610352</ele>
        <time>2013-03-12T11:11:26.000Z</time>
      </trkpt>
      <trkpt lat="43.57673" lon="5.51618">
        <ele>426</ele>
        <time>2013-03-12T11:11:37.000Z</time>
      </trkpt>
      <trkpt lat="43.57659" lon="5.51649">
        <ele>428.20001220703</ele>
        <time>2013-03-12T11:11:51.000Z</time>
      </trkpt>
      <trkpt lat="43.57654" lon="5.51676">
        <ele>430.60000610352</ele>
        <time>2013-03-12T11:12:01.000Z</time>
      </trkpt>
      <trkpt lat="43.57649" lon="5.51708">
        <ele>434</ele>
        <time>2013-03-12T11:12:13.000Z</time>
      </trkpt>
      <trkpt lat="43.5765" lon="5.51746">
        <ele>437.79998779297</ele>
        <time>2013-03-12T11:12:27.000Z</time>
      </trkpt>
      <trkpt lat="43.57654" lon="5.51777">
        <ele>440.39999389648</ele>
        <time>2013-03-12T11:12:39.000Z</time>
      </trkpt>
      <trkpt lat="43.57654" lon="5.51794">
        <ele>441.79998779297</ele>
        <time>2013-03-12T11:12:45.000Z</time>
      </trkpt>
      <trkpt lat="43.57653" lon="5.51796">
        <ele>442</ele>
        <time>2013-03-12T11:12:46.000Z</time>
      </trkpt>
      <trkpt lat="43.57653" lon="5.51799">
        <ele>442.20001220703</ele>
        <time>2013-03-12T11:12:47.000Z</time>
      </trkpt>
      <trkpt lat="43.57652" lon="5.51802">
        <ele>442.39999389648</ele>
        <time>2013-03-12T11:12:48.000Z</time>
      </trkpt>
      <trkpt lat="43.57652" lon="5.51805">
        <ele>442.60000610352</ele>
        <time>2013-03-12T11:12:49.000Z</time>
      </trkpt>
      <trkpt lat="43.57648" lon="5.5182">
        <ele>444</ele>
        <time>2013-03-12T11:12:55.000Z</time>
      </trkpt>
      <trkpt lat="43.57633" lon="5.51847">
        <ele>445.79998779297</ele>
        <time>2013-03-12T11:13:07.000Z</time>
      </trkpt>
      <trkpt lat="43.57612" lon="5.51878">
        <ele>447.39999389648</ele>
        <time>2013-03-12T11:13:22.000Z</time>
      </trkpt>
      <trkpt lat="43.5761" lon="5.51883">
        <ele>447.79998779297</ele>
        <time>2013-03-12T11:13:24.000Z</time>
      </trkpt>
      <trkpt lat="43.5759" lon="5.51909">
        <ele>450</ele>
        <time>2013-03-12T11:13:37.000Z</time>
      </trkpt>
      <trkpt lat="43.57573" lon="5.51918">
        <ele>451.39999389648</ele>
        <time>2013-03-12T11:13:45.000Z</time>
      </trkpt>
      <trkpt lat="43.57557" lon="5.51937">
        <ele>452.39999389648</ele>
        <time>2013-03-12T11:13:55.000Z</time>
      </trkpt>
      <trkpt lat="43.57555" lon="5.51941">
        <ele>452.60000610352</ele>
        <time>2013-03-12T11:13:57.000Z</time>
      </trkpt>
      <trkpt lat="43.57553" lon="5.51943">
        <ele>452.79998779297</ele>
        <time>2013-03-12T11:13:58.000Z</time>
      </trkpt>
      <trkpt lat="43.57537" lon="5.51966">
        <ele>454</ele>
        <time>2013-03-12T11:14:08.000Z</time>
      </trkpt>
      <trkpt lat="43.57522" lon="5.5199">
        <ele>455.79998779297</ele>
        <time>2013-03-12T11:14:18.000Z</time>
      </trkpt>
      <trkpt lat="43.57511" lon="5.52023">
        <ele>457.20001220703</ele>
        <time>2013-03-12T11:14:29.000Z</time>
      </trkpt>
      <trkpt lat="43.57502" lon="5.52067">
        <ele>458.60000610352</ele>
        <time>2013-03-12T11:14:41.000Z</time>
      </trkpt>
      <trkpt lat="43.57481" lon="5.52114">
        <ele>458.20001220703</ele>
        <time>2013-03-12T11:14:53.000Z</time>
      </trkpt>
      <trkpt lat="43.5747" lon="5.52162">
        <ele>458</ele>
        <time>2013-03-12T11:15:04.000Z</time>
      </trkpt>
      <trkpt lat="43.57472" lon="5.52197">
        <ele>459</ele>
        <time>2013-03-12T11:15:12.000Z</time>
      </trkpt>
      <trkpt lat="43.57471" lon="5.52256">
        <ele>460.20001220703</ele>
        <time>2013-03-12T11:15:26.000Z</time>
      </trkpt>
      <trkpt lat="43.5746" lon="5.5231">
        <ele>460.20001220703</ele>
        <time>2013-03-12T11:15:38.000Z</time>
      </trkpt>
      <trkpt lat="43.57433" lon="5.5236">
        <ele>460.39999389648</ele>
        <time>2013-03-12T11:15:50.000Z</time>
      </trkpt>
      <trkpt lat="43.57421" lon="5.52418">
        <ele>462.60000610352</ele>
        <time>2013-03-12T11:16:01.000Z</time>
      </trkpt>
      <trkpt lat="43.5741" lon="5.52501">
        <ele>459.39999389648</ele>
        <time>2013-03-12T11:16:12.000Z</time>
      </trkpt>
      <trkpt lat="43.5741" lon="5.52524">
        <ele>459.60000610352</ele>
        <time>2013-03-12T11:16:15.000Z</time>
      </trkpt>
      <trkpt lat="43.57409" lon="5.52531">
        <ele>459.60000610352</ele>
        <time>2013-03-12T11:16:16.000Z</time>
      </trkpt>
      <trkpt lat="43.57409" lon="5.52538">
        <ele>459.60000610352</ele>
        <time>2013-03-12T11:16:17.000Z</time>
      </trkpt>
      <trkpt lat="43.57406" lon="5.5256">
        <ele>459.79998779297</ele>
        <time>2013-03-12T11:16:20.000Z</time>
      </trkpt>
      <trkpt lat="43.57406" lon="5.52567">
        <ele>459.79998779297</ele>
        <time>2013-03-12T11:16:21.000Z</time>
      </trkpt>
      <trkpt lat="43.57399" lon="5.52648">
        <ele>462</ele>
        <time>2013-03-12T11:16:34.000Z</time>
      </trkpt>
      <trkpt lat="43.57389" lon="5.52736">
        <ele>459.60000610352</ele>
        <time>2013-03-12T11:16:48.000Z</time>
      </trkpt>
      <trkpt lat="43.57379" lon="5.52785">
        <ele>460.60000610352</ele>
        <time>2013-03-12T11:16:55.000Z</time>
      </trkpt>
      <trkpt lat="43.57377" lon="5.52847">
        <ele>463.20001220703</ele>
        <time>2013-03-12T11:17:05.000Z</time>
      </trkpt>
      <trkpt lat="43.57375" lon="5.52895">
        <ele>466.39999389648</ele>
        <time>2013-03-12T11:17:16.000Z</time>
      </trkpt>
      <trkpt lat="43.57373" lon="5.52947">
        <ele>469.79998779297</ele>
        <time>2013-03-12T11:17:27.000Z</time>
      </trkpt>
      <trkpt lat="43.57377" lon="5.52999">
        <ele>473.39999389648</ele>
        <time>2013-03-12T11:17:39.000Z</time>
      </trkpt>
      <trkpt lat="43.57376" lon="5.53037">
        <ele>475.20001220703</ele>
        <time>2013-03-12T11:17:48.000Z</time>
      </trkpt>
      <trkpt lat="43.5738" lon="5.53096">
        <ele>477.60000610352</ele>
        <time>2013-03-12T11:18:00.000Z</time>
      </trkpt>
      <trkpt lat="43.57381" lon="5.53152">
        <ele>477.39999389648</ele>
        <time>2013-03-12T11:18:12.000Z</time>
      </trkpt>
      <trkpt lat="43.57386" lon="5.53216">
        <ele>477</ele>
        <time>2013-03-12T11:18:25.000Z</time>
      </trkpt>
      <trkpt lat="43.5739" lon="5.53283">
        <ele>478.20001220703</ele>
        <time>2013-03-12T11:18:38.000Z</time>
      </trkpt>
      <trkpt lat="43.57378" lon="5.53336">
        <ele>479.20001220703</ele>
        <time>2013-03-12T11:18:49.000Z</time>
      </trkpt>
      <trkpt lat="43.57357" lon="5.53399">
        <ele>478.60000610352</ele>
        <time>2013-03-12T11:19:02.000Z</time>
      </trkpt>
      <trkpt lat="43.57323" lon="5.53464">
        <ele>479.79998779297</ele>
        <time>2013-03-12T11:19:15.000Z</time>
      </trkpt>
      <trkpt lat="43.57285" lon="5.53538">
        <ele>482.60000610352</ele>
        <time>2013-03-12T11:19:30.000Z</time>
      </trkpt>
      <trkpt lat="43.5727" lon="5.53565">
        <ele>485</ele>
        <time>2013-03-12T11:19:37.000Z</time>
      </trkpt>
      <trkpt lat="43.57246" lon="5.53614">
        <ele>489.39999389648</ele>
        <time>2013-03-12T11:19:50.000Z</time>
      </trkpt>
      <trkpt lat="43.57221" lon="5.53658">
        <ele>490.79998779297</ele>
        <time>2013-03-12T11:20:02.000Z</time>
      </trkpt>
      <trkpt lat="43.57197" lon="5.53704">
        <ele>491.39999389648</ele>
        <time>2013-03-12T11:20:14.000Z</time>
      </trkpt>
      <trkpt lat="43.57167" lon="5.53763">
        <ele>493.79998779297</ele>
        <time>2013-03-12T11:20:28.000Z</time>
      </trkpt>
      <trkpt lat="43.57138" lon="5.53836">
        <ele>495.20001220703</ele>
        <time>2013-03-12T11:20:43.000Z</time>
      </trkpt>
      <trkpt lat="43.57123" lon="5.53872">
        <ele>495.20001220703</ele>
        <time>2013-03-12T11:20:50.000Z</time>
      </trkpt>
      <trkpt lat="43.57088" lon="5.53937">
        <ele>497.79998779297</ele>
        <time>2013-03-12T11:21:04.000Z</time>
      </trkpt>
      <trkpt lat="43.57071" lon="5.54017">
        <ele>499.60000610352</ele>
        <time>2013-03-12T11:21:19.000Z</time>
      </trkpt>
      <trkpt lat="43.57064" lon="5.54095">
        <ele>503.79998779297</ele>
        <time>2013-03-12T11:21:33.000Z</time>
      </trkpt>
      <trkpt lat="43.57063" lon="5.54106">
        <ele>504.20001220703</ele>
        <time>2013-03-12T11:21:35.000Z</time>
      </trkpt>
      <trkpt lat="43.57063" lon="5.54112">
        <ele>504.60000610352</ele>
        <time>2013-03-12T11:21:36.000Z</time>
      </trkpt>
      <trkpt lat="43.57053" lon="5.54195">
        <ele>506.20001220703</ele>
        <time>2013-03-12T11:21:51.000Z</time>
      </trkpt>
      <trkpt lat="43.57052" lon="5.542">
        <ele>506</ele>
        <time>2013-03-12T11:21:52.000Z</time>
      </trkpt>
      <trkpt lat="43.57043" lon="5.54227">
        <ele>505.60000610352</ele>
        <time>2013-03-12T11:21:57.000Z</time>
      </trkpt>
      <trkpt lat="43.57041" lon="5.54232">
        <ele>505.60000610352</ele>
        <time>2013-03-12T11:21:58.000Z</time>
      </trkpt>
      <trkpt lat="43.57015" lon="5.54287">
        <ele>506.39999389648</ele>
        <time>2013-03-12T11:22:09.000Z</time>
      </trkpt>
      <trkpt lat="43.57012" lon="5.54291">
        <ele>506.60000610352</ele>
        <time>2013-03-12T11:22:10.000Z</time>
      </trkpt>
      <trkpt lat="43.5701" lon="5.54296">
        <ele>506.60000610352</ele>
        <time>2013-03-12T11:22:11.000Z</time>
      </trkpt>
      <trkpt lat="43.57008" lon="5.54302">
        <ele>506.79998779297</ele>
        <time>2013-03-12T11:22:12.000Z</time>
      </trkpt>
      <trkpt lat="43.57006" lon="5.54307">
        <ele>507</ele>
        <time>2013-03-12T11:22:13.000Z</time>
      </trkpt>
      <trkpt lat="43.57004" lon="5.54312">
        <ele>507.39999389648</ele>
        <time>2013-03-12T11:22:14.000Z</time>
      </trkpt>
      <trkpt lat="43.57001" lon="5.54316">
        <ele>507.60000610352</ele>
        <time>2013-03-12T11:22:15.000Z</time>
      </trkpt>
      <trkpt lat="43.56997" lon="5.54319">
        <ele>507.79998779297</ele>
        <time>2013-03-12T11:22:16.000Z</time>
      </trkpt>
      <trkpt lat="43.56994" lon="5.54322">
        <ele>507.79998779297</ele>
        <time>2013-03-12T11:22:17.000Z</time>
      </trkpt>
      <trkpt lat="43.56991" lon="5.54326">
        <ele>507.79998779297</ele>
        <time>2013-03-12T11:22:18.000Z</time>
      </trkpt>
      <trkpt lat="43.56987" lon="5.54329">
        <ele>507.79998779297</ele>
        <time>2013-03-12T11:22:19.000Z</time>
      </trkpt>
      <trkpt lat="43.5698" lon="5.54336">
        <ele>507.79998779297</ele>
        <time>2013-03-12T11:22:21.000Z</time>
      </trkpt>
      <trkpt lat="43.56976" lon="5.54338">
        <ele>507.79998779297</ele>
        <time>2013-03-12T11:22:22.000Z</time>
      </trkpt>
      <trkpt lat="43.56963" lon="5.54341">
        <ele>507.79998779297</ele>
        <time>2013-03-12T11:22:25.000Z</time>
      </trkpt>
      <trkpt lat="43.5693" lon="5.54353">
        <ele>508</ele>
        <time>2013-03-12T11:22:33.000Z</time>
      </trkpt>
      <trkpt lat="43.56925" lon="5.54354">
        <ele>508</ele>
        <time>2013-03-12T11:22:34.000Z</time>
      </trkpt>
      <trkpt lat="43.56895" lon="5.54361">
        <ele>506.79998779297</ele>
        <time>2013-03-12T11:22:40.000Z</time>
      </trkpt>
      <trkpt lat="43.56889" lon="5.54361">
        <ele>506.39999389648</ele>
        <time>2013-03-12T11:22:41.000Z</time>
      </trkpt>
      <trkpt lat="43.56884" lon="5.54361">
        <ele>506.20001220703</ele>
        <time>2013-03-12T11:22:42.000Z</time>
      </trkpt>
      <trkpt lat="43.56878" lon="5.54359">
        <ele>505.79998779297</ele>
        <time>2013-03-12T11:22:43.000Z</time>
      </trkpt>
      <trkpt lat="43.56873" lon="5.54358">
        <ele>505.39999389648</ele>
        <time>2013-03-12T11:22:44.000Z</time>
      </trkpt>
      <trkpt lat="43.56867" lon="5.54357">
        <ele>505</ele>
        <time>2013-03-12T11:22:45.000Z</time>
      </trkpt>
      <trkpt lat="43.56861" lon="5.54358">
        <ele>504.60000610352</ele>
        <time>2013-03-12T11:22:46.000Z</time>
      </trkpt>
      <trkpt lat="43.56855" lon="5.5436">
        <ele>504.20001220703</ele>
        <time>2013-03-12T11:22:47.000Z</time>
      </trkpt>
      <trkpt lat="43.56849" lon="5.54362">
        <ele>504</ele>
        <time>2013-03-12T11:22:48.000Z</time>
      </trkpt>
      <trkpt lat="43.56804" lon="5.54382">
        <ele>500.79998779297</ele>
        <time>2013-03-12T11:22:55.000Z</time>
      </trkpt>
      <trkpt lat="43.56789" lon="5.5439">
        <ele>500</ele>
        <time>2013-03-12T11:22:57.000Z</time>
      </trkpt>
      <trkpt lat="43.56782" lon="5.54395">
        <ele>499.60000610352</ele>
        <time>2013-03-12T11:22:58.000Z</time>
      </trkpt>
      <trkpt lat="43.56776" lon="5.54402">
        <ele>499.20001220703</ele>
        <time>2013-03-12T11:22:59.000Z</time>
      </trkpt>
      <trkpt lat="43.56771" lon="5.54412">
        <ele>499</ele>
        <time>2013-03-12T11:23:00.000Z</time>
      </trkpt>
      <trkpt lat="43.56766" lon="5.54422">
        <ele>498.79998779297</ele>
        <time>2013-03-12T11:23:01.000Z</time>
      </trkpt>
      <trkpt lat="43.56756" lon="5.54443">
        <ele>498</ele>
        <time>2013-03-12T11:23:03.000Z</time>
      </trkpt>
      <trkpt lat="43.56753" lon="5.54454">
        <ele>497.60000610352</ele>
        <time>2013-03-12T11:23:04.000Z</time>
      </trkpt>
      <trkpt lat="43.56751" lon="5.54467">
        <ele>497.39999389648</ele>
        <time>2013-03-12T11:23:05.000Z</time>
      </trkpt>
      <trkpt lat="43.56745" lon="5.54534">
        <ele>497.39999389648</ele>
        <time>2013-03-12T11:23:12.000Z</time>
      </trkpt>
      <trkpt lat="43.56744" lon="5.54543">
        <ele>497.60000610352</ele>
        <time>2013-03-12T11:23:13.000Z</time>
      </trkpt>
      <trkpt lat="43.56743" lon="5.54551">
        <ele>497.60000610352</ele>
        <time>2013-03-12T11:23:14.000Z</time>
      </trkpt>
      <trkpt lat="43.56735" lon="5.54587">
        <ele>498</ele>
        <time>2013-03-12T11:23:19.000Z</time>
      </trkpt>
      <trkpt lat="43.56734" lon="5.54593">
        <ele>498.20001220703</ele>
        <time>2013-03-12T11:23:20.000Z</time>
      </trkpt>
      <trkpt lat="43.56731" lon="5.54626">
        <ele>499</ele>
        <time>2013-03-12T11:23:25.000Z</time>
      </trkpt>
      <trkpt lat="43.56731" lon="5.54632">
        <ele>499.20001220703</ele>
        <time>2013-03-12T11:23:26.000Z</time>
      </trkpt>
      <trkpt lat="43.56725" lon="5.54702">
        <ele>500.79998779297</ele>
        <time>2013-03-12T11:23:38.000Z</time>
      </trkpt>
      <trkpt lat="43.56724" lon="5.54739">
        <ele>501.20001220703</ele>
        <time>2013-03-12T11:23:44.000Z</time>
      </trkpt>
      <trkpt lat="43.56725" lon="5.5477">
        <ele>501.60000610352</ele>
        <time>2013-03-12T11:23:49.000Z</time>
      </trkpt>
      <trkpt lat="43.56728" lon="5.54801">
        <ele>501.60000610352</ele>
        <time>2013-03-12T11:23:54.000Z</time>
      </trkpt>
      <trkpt lat="43.56728" lon="5.54819">
        <ele>501.60000610352</ele>
        <time>2013-03-12T11:23:57.000Z</time>
      </trkpt>
      <trkpt lat="43.56728" lon="5.54825">
        <ele>501.60000610352</ele>
        <time>2013-03-12T11:23:58.000Z</time>
      </trkpt>
      <trkpt lat="43.56729" lon="5.54831">
        <ele>501.60000610352</ele>
        <time>2013-03-12T11:23:59.000Z</time>
      </trkpt>
      <trkpt lat="43.5673" lon="5.54837">
        <ele>501.60000610352</ele>
        <time>2013-03-12T11:24:00.000Z</time>
      </trkpt>
      <trkpt lat="43.5673" lon="5.54843">
        <ele>501.60000610352</ele>
        <time>2013-03-12T11:24:01.000Z</time>
      </trkpt>
      <trkpt lat="43.56732" lon="5.54849">
        <ele>501.60000610352</ele>
        <time>2013-03-12T11:24:02.000Z</time>
      </trkpt>
      <trkpt lat="43.56752" lon="5.54912">
        <ele>500.79998779297</ele>
        <time>2013-03-12T11:24:12.000Z</time>
      </trkpt>
      <trkpt lat="43.56755" lon="5.54918">
        <ele>500.60000610352</ele>
        <time>2013-03-12T11:24:13.000Z</time>
      </trkpt>
      <trkpt lat="43.56763" lon="5.54931">
        <ele>500.60000610352</ele>
        <time>2013-03-12T11:24:15.000Z</time>
      </trkpt>
      <trkpt lat="43.56767" lon="5.54937">
        <ele>500.60000610352</ele>
        <time>2013-03-12T11:24:16.000Z</time>
      </trkpt>
      <trkpt lat="43.5677" lon="5.54944">
        <ele>500.60000610352</ele>
        <time>2013-03-12T11:24:17.000Z</time>
      </trkpt>
      <trkpt lat="43.56773" lon="5.54951">
        <ele>500.79998779297</ele>
        <time>2013-03-12T11:24:18.000Z</time>
      </trkpt>
      <trkpt lat="43.56776" lon="5.54959">
        <ele>500.79998779297</ele>
        <time>2013-03-12T11:24:19.000Z</time>
      </trkpt>
      <trkpt lat="43.56779" lon="5.54967">
        <ele>501</ele>
        <time>2013-03-12T11:24:20.000Z</time>
      </trkpt>
      <trkpt lat="43.56785" lon="5.54999">
        <ele>501.60000610352</ele>
        <time>2013-03-12T11:24:24.000Z</time>
      </trkpt>
      <trkpt lat="43.56792" lon="5.55024">
        <ele>501.60000610352</ele>
        <time>2013-03-12T11:24:28.000Z</time>
      </trkpt>
      <trkpt lat="43.56794" lon="5.5503">
        <ele>501.60000610352</ele>
        <time>2013-03-12T11:24:29.000Z</time>
      </trkpt>
      <trkpt lat="43.56796" lon="5.55037">
        <ele>501.60000610352</ele>
        <time>2013-03-12T11:24:30.000Z</time>
      </trkpt>
      <trkpt lat="43.56797" lon="5.55044">
        <ele>501.60000610352</ele>
        <time>2013-03-12T11:24:31.000Z</time>
      </trkpt>
      <trkpt lat="43.56798" lon="5.55051">
        <ele>501.60000610352</ele>
        <time>2013-03-12T11:24:32.000Z</time>
      </trkpt>
      <trkpt lat="43.56813" lon="5.55133">
        <ele>502.39999389648</ele>
        <time>2013-03-12T11:24:44.000Z</time>
      </trkpt>
      <trkpt lat="43.56816" lon="5.55147">
        <ele>502.60000610352</ele>
        <time>2013-03-12T11:24:46.000Z</time>
      </trkpt>
      <trkpt lat="43.56838" lon="5.55228">
        <ele>505</ele>
        <time>2013-03-12T11:24:59.000Z</time>
      </trkpt>
      <trkpt lat="43.56844" lon="5.55245">
        <ele>505.79998779297</ele>
        <time>2013-03-12T11:25:02.000Z</time>
      </trkpt>
      <trkpt lat="43.56854" lon="5.55285">
        <ele>507.20001220703</ele>
        <time>2013-03-12T11:25:09.000Z</time>
      </trkpt>
      <trkpt lat="43.56855" lon="5.55291">
        <ele>507.39999389648</ele>
        <time>2013-03-12T11:25:10.000Z</time>
      </trkpt>
      <trkpt lat="43.56858" lon="5.55302">
        <ele>507.79998779297</ele>
        <time>2013-03-12T11:25:12.000Z</time>
      </trkpt>
      <trkpt lat="43.56869" lon="5.55347">
        <ele>508.79998779297</ele>
        <time>2013-03-12T11:25:20.000Z</time>
      </trkpt>
      <trkpt lat="43.56875" lon="5.55376">
        <ele>508.39999389648</ele>
        <time>2013-03-12T11:25:25.000Z</time>
      </trkpt>
      <trkpt lat="43.56875" lon="5.55382">
        <ele>508.39999389648</ele>
        <time>2013-03-12T11:25:26.000Z</time>
      </trkpt>
      <trkpt lat="43.56873" lon="5.55387">
        <ele>508.20001220703</ele>
        <time>2013-03-12T11:25:27.000Z</time>
      </trkpt>
      <trkpt lat="43.5687" lon="5.55391">
        <ele>508.20001220703</ele>
        <time>2013-03-12T11:25:28.000Z</time>
      </trkpt>
      <trkpt lat="43.56866" lon="5.55393">
        <ele>508.20001220703</ele>
        <time>2013-03-12T11:25:29.000Z</time>
      </trkpt>
      <trkpt lat="43.56861" lon="5.55394">
        <ele>508.20001220703</ele>
        <time>2013-03-12T11:25:30.000Z</time>
      </trkpt>
      <trkpt lat="43.56857" lon="5.55395">
        <ele>508.20001220703</ele>
        <time>2013-03-12T11:25:31.000Z</time>
      </trkpt>
      <trkpt lat="43.56819" lon="5.55401">
        <ele>507.79998779297</ele>
        <time>2013-03-12T11:25:39.000Z</time>
      </trkpt>
      <trkpt lat="43.56811" lon="5.55406">
        <ele>507.39999389648</ele>
        <time>2013-03-12T11:25:41.000Z</time>
      </trkpt>
      <trkpt lat="43.56807" lon="5.55408">
        <ele>507.39999389648</ele>
        <time>2013-03-12T11:25:42.000Z</time>
      </trkpt>
      <trkpt lat="43.56753" lon="5.5544">
        <ele>506.60000610352</ele>
        <time>2013-03-12T11:25:54.000Z</time>
      </trkpt>
      <trkpt lat="43.56733" lon="5.55454">
        <ele>506.79998779297</ele>
        <time>2013-03-12T11:25:58.000Z</time>
      </trkpt>
      <trkpt lat="43.56729" lon="5.55458">
        <ele>506.79998779297</ele>
        <time>2013-03-12T11:25:59.000Z</time>
      </trkpt>
      <trkpt lat="43.56726" lon="5.55459">
        <ele>506.79998779297</ele>
        <time>2013-03-12T11:26:00.000Z</time>
      </trkpt>
      <trkpt lat="43.56719" lon="5.55461">
        <ele>506.79998779297</ele>
        <time>2013-03-12T11:26:02.000Z</time>
      </trkpt>
      <trkpt lat="43.56715" lon="5.55464">
        <ele>506.79998779297</ele>
        <time>2013-03-12T11:26:03.000Z</time>
      </trkpt>
      <trkpt lat="43.56712" lon="5.55468">
        <ele>506.79998779297</ele>
        <time>2013-03-12T11:26:04.000Z</time>
      </trkpt>
      <trkpt lat="43.56708" lon="5.55471">
        <ele>506.79998779297</ele>
        <time>2013-03-12T11:26:05.000Z</time>
      </trkpt>
      <trkpt lat="43.56704" lon="5.55473">
        <ele>506.79998779297</ele>
        <time>2013-03-12T11:26:06.000Z</time>
      </trkpt>
      <trkpt lat="43.56699" lon="5.55475">
        <ele>506.79998779297</ele>
        <time>2013-03-12T11:26:07.000Z</time>
      </trkpt>
      <trkpt lat="43.56695" lon="5.55478">
        <ele>506.79998779297</ele>
        <time>2013-03-12T11:26:08.000Z</time>
      </trkpt>
      <trkpt lat="43.56691" lon="5.5548">
        <ele>506.79998779297</ele>
        <time>2013-03-12T11:26:09.000Z</time>
      </trkpt>
      <trkpt lat="43.56686" lon="5.55482">
        <ele>506.79998779297</ele>
        <time>2013-03-12T11:26:10.000Z</time>
      </trkpt>
      <trkpt lat="43.56682" lon="5.55485">
        <ele>506.79998779297</ele>
        <time>2013-03-12T11:26:11.000Z</time>
      </trkpt>
      <trkpt lat="43.56674" lon="5.55493">
        <ele>506.79998779297</ele>
        <time>2013-03-12T11:26:13.000Z</time>
      </trkpt>
      <trkpt lat="43.56667" lon="5.55503">
        <ele>506.79998779297</ele>
        <time>2013-03-12T11:26:15.000Z</time>
      </trkpt>
      <trkpt lat="43.56664" lon="5.55508">
        <ele>506.60000610352</ele>
        <time>2013-03-12T11:26:16.000Z</time>
      </trkpt>
      <trkpt lat="43.56659" lon="5.55519">
        <ele>506.20001220703</ele>
        <time>2013-03-12T11:26:18.000Z</time>
      </trkpt>
      <trkpt lat="43.56655" lon="5.55523">
        <ele>506</ele>
        <time>2013-03-12T11:26:19.000Z</time>
      </trkpt>
      <trkpt lat="43.56651" lon="5.55528">
        <ele>505.79998779297</ele>
        <time>2013-03-12T11:26:20.000Z</time>
      </trkpt>
      <trkpt lat="43.56647" lon="5.55531">
        <ele>505.39999389648</ele>
        <time>2013-03-12T11:26:21.000Z</time>
      </trkpt>
      <trkpt lat="43.56642" lon="5.55534">
        <ele>505.20001220703</ele>
        <time>2013-03-12T11:26:22.000Z</time>
      </trkpt>
      <trkpt lat="43.56636" lon="5.55536">
        <ele>504.79998779297</ele>
        <time>2013-03-12T11:26:23.000Z</time>
      </trkpt>
      <trkpt lat="43.56619" lon="5.55544">
        <ele>503.79998779297</ele>
        <time>2013-03-12T11:26:26.000Z</time>
      </trkpt>
      <trkpt lat="43.56606" lon="5.5555">
        <ele>503.20001220703</ele>
        <time>2013-03-12T11:26:28.000Z</time>
      </trkpt>
      <trkpt lat="43.56573" lon="5.55572">
        <ele>501.39999389648</ele>
        <time>2013-03-12T11:26:33.000Z</time>
      </trkpt>
      <trkpt lat="43.56567" lon="5.55578">
        <ele>501.20001220703</ele>
        <time>2013-03-12T11:26:34.000Z</time>
      </trkpt>
      <trkpt lat="43.5655" lon="5.55598">
        <ele>500.60000610352</ele>
        <time>2013-03-12T11:26:37.000Z</time>
      </trkpt>
      <trkpt lat="43.56543" lon="5.55603">
        <ele>500.39999389648</ele>
        <time>2013-03-12T11:26:38.000Z</time>
      </trkpt>
      <trkpt lat="43.56516" lon="5.55621">
        <ele>499.39999389648</ele>
        <time>2013-03-12T11:26:42.000Z</time>
      </trkpt>
      <trkpt lat="43.56496" lon="5.55637">
        <ele>498.79998779297</ele>
        <time>2013-03-12T11:26:45.000Z</time>
      </trkpt>
      <trkpt lat="43.56488" lon="5.5564">
        <ele>498.79998779297</ele>
        <time>2013-03-12T11:26:46.000Z</time>
      </trkpt>
      <trkpt lat="43.56474" lon="5.55647">
        <ele>498.60000610352</ele>
        <time>2013-03-12T11:26:48.000Z</time>
      </trkpt>
      <trkpt lat="43.56468" lon="5.55652">
        <ele>498.60000610352</ele>
        <time>2013-03-12T11:26:49.000Z</time>
      </trkpt>
      <trkpt lat="43.56463" lon="5.55658">
        <ele>498.79998779297</ele>
        <time>2013-03-12T11:26:50.000Z</time>
      </trkpt>
      <trkpt lat="43.56457" lon="5.55664">
        <ele>498.79998779297</ele>
        <time>2013-03-12T11:26:51.000Z</time>
      </trkpt>
      <trkpt lat="43.56451" lon="5.5567">
        <ele>498.79998779297</ele>
        <time>2013-03-12T11:26:52.000Z</time>
      </trkpt>
      <trkpt lat="43.56445" lon="5.55674">
        <ele>498.79998779297</ele>
        <time>2013-03-12T11:26:53.000Z</time>
      </trkpt>
      <trkpt lat="43.56438" lon="5.55677">
        <ele>498.79998779297</ele>
        <time>2013-03-12T11:26:54.000Z</time>
      </trkpt>
      <trkpt lat="43.56431" lon="5.55679">
        <ele>498.79998779297</ele>
        <time>2013-03-12T11:26:55.000Z</time>
      </trkpt>
      <trkpt lat="43.56424" lon="5.55679">
        <ele>498.79998779297</ele>
        <time>2013-03-12T11:26:56.000Z</time>
      </trkpt>
      <trkpt lat="43.56409" lon="5.55679">
        <ele>498.39999389648</ele>
        <time>2013-03-12T11:26:58.000Z</time>
      </trkpt>
      <trkpt lat="43.56402" lon="5.55681">
        <ele>498</ele>
        <time>2013-03-12T11:26:59.000Z</time>
      </trkpt>
      <trkpt lat="43.56396" lon="5.55685">
        <ele>497.60000610352</ele>
        <time>2013-03-12T11:27:00.000Z</time>
      </trkpt>
      <trkpt lat="43.5639" lon="5.55691">
        <ele>497.20001220703</ele>
        <time>2013-03-12T11:27:01.000Z</time>
      </trkpt>
      <trkpt lat="43.56384" lon="5.55697">
        <ele>496.79998779297</ele>
        <time>2013-03-12T11:27:02.000Z</time>
      </trkpt>
      <trkpt lat="43.56379" lon="5.55705">
        <ele>496.39999389648</ele>
        <time>2013-03-12T11:27:03.000Z</time>
      </trkpt>
      <trkpt lat="43.56374" lon="5.55713">
        <ele>496</ele>
        <time>2013-03-12T11:27:04.000Z</time>
      </trkpt>
      <trkpt lat="43.56371" lon="5.55723">
        <ele>495.60000610352</ele>
        <time>2013-03-12T11:27:05.000Z</time>
      </trkpt>
      <trkpt lat="43.56368" lon="5.55732">
        <ele>495.39999389648</ele>
        <time>2013-03-12T11:27:06.000Z</time>
      </trkpt>
      <trkpt lat="43.56365" lon="5.55742">
        <ele>495</ele>
        <time>2013-03-12T11:27:07.000Z</time>
      </trkpt>
      <trkpt lat="43.56362" lon="5.55751">
        <ele>494.60000610352</ele>
        <time>2013-03-12T11:27:08.000Z</time>
      </trkpt>
      <trkpt lat="43.56358" lon="5.5576">
        <ele>494.20001220703</ele>
        <time>2013-03-12T11:27:09.000Z</time>
      </trkpt>
      <trkpt lat="43.56353" lon="5.55768">
        <ele>493.79998779297</ele>
        <time>2013-03-12T11:27:10.000Z</time>
      </trkpt>
      <trkpt lat="43.56342" lon="5.55783">
        <ele>493</ele>
        <time>2013-03-12T11:27:12.000Z</time>
      </trkpt>
      <trkpt lat="43.56338" lon="5.55792">
        <ele>492.60000610352</ele>
        <time>2013-03-12T11:27:13.000Z</time>
      </trkpt>
      <trkpt lat="43.56336" lon="5.55803">
        <ele>492.39999389648</ele>
        <time>2013-03-12T11:27:14.000Z</time>
      </trkpt>
      <trkpt lat="43.56337" lon="5.55814">
        <ele>492.20001220703</ele>
        <time>2013-03-12T11:27:15.000Z</time>
      </trkpt>
      <trkpt lat="43.56339" lon="5.55825">
        <ele>492.20001220703</ele>
        <time>2013-03-12T11:27:16.000Z</time>
      </trkpt>
      <trkpt lat="43.56341" lon="5.55835">
        <ele>492.20001220703</ele>
        <time>2013-03-12T11:27:17.000Z</time>
      </trkpt>
      <trkpt lat="43.56345" lon="5.55855">
        <ele>492.60000610352</ele>
        <time>2013-03-12T11:27:19.000Z</time>
      </trkpt>
      <trkpt lat="43.56351" lon="5.55874">
        <ele>493</ele>
        <time>2013-03-12T11:27:21.000Z</time>
      </trkpt>
      <trkpt lat="43.56351" lon="5.55884">
        <ele>493.20001220703</ele>
        <time>2013-03-12T11:27:22.000Z</time>
      </trkpt>
      <trkpt lat="43.56351" lon="5.55894">
        <ele>493.39999389648</ele>
        <time>2013-03-12T11:27:23.000Z</time>
      </trkpt>
      <trkpt lat="43.5635" lon="5.55903">
        <ele>493.60000610352</ele>
        <time>2013-03-12T11:27:24.000Z</time>
      </trkpt>
      <trkpt lat="43.56351" lon="5.55913">
        <ele>493.60000610352</ele>
        <time>2013-03-12T11:27:25.000Z</time>
      </trkpt>
      <trkpt lat="43.56353" lon="5.55921">
        <ele>493.79998779297</ele>
        <time>2013-03-12T11:27:26.000Z</time>
      </trkpt>
      <trkpt lat="43.56357" lon="5.55929">
        <ele>494</ele>
        <time>2013-03-12T11:27:27.000Z</time>
      </trkpt>
      <trkpt lat="43.56361" lon="5.55937">
        <ele>494.20001220703</ele>
        <time>2013-03-12T11:27:28.000Z</time>
      </trkpt>
      <trkpt lat="43.56364" lon="5.55945">
        <ele>494.20001220703</ele>
        <time>2013-03-12T11:27:29.000Z</time>
      </trkpt>
      <trkpt lat="43.56366" lon="5.55953">
        <ele>494.39999389648</ele>
        <time>2013-03-12T11:27:30.000Z</time>
      </trkpt>
      <trkpt lat="43.56367" lon="5.5597">
        <ele>494.79998779297</ele>
        <time>2013-03-12T11:27:32.000Z</time>
      </trkpt>
      <trkpt lat="43.5637" lon="5.55977">
        <ele>494.79998779297</ele>
        <time>2013-03-12T11:27:33.000Z</time>
      </trkpt>
      <trkpt lat="43.56373" lon="5.55984">
        <ele>494.79998779297</ele>
        <time>2013-03-12T11:27:34.000Z</time>
      </trkpt>
      <trkpt lat="43.56375" lon="5.55992">
        <ele>494.79998779297</ele>
        <time>2013-03-12T11:27:35.000Z</time>
      </trkpt>
      <trkpt lat="43.56377" lon="5.55999">
        <ele>494.79998779297</ele>
        <time>2013-03-12T11:27:36.000Z</time>
      </trkpt>
      <trkpt lat="43.56379" lon="5.56007">
        <ele>494.79998779297</ele>
        <time>2013-03-12T11:27:37.000Z</time>
      </trkpt>
      <trkpt lat="43.56381" lon="5.56014">
        <ele>494.79998779297</ele>
        <time>2013-03-12T11:27:38.000Z</time>
      </trkpt>
      <trkpt lat="43.56389" lon="5.56038">
        <ele>494.79998779297</ele>
        <time>2013-03-12T11:27:42.000Z</time>
      </trkpt>
      <trkpt lat="43.56424" lon="5.56111">
        <ele>496.20001220703</ele>
        <time>2013-03-12T11:27:54.000Z</time>
      </trkpt>
      <trkpt lat="43.56427" lon="5.56116">
        <ele>496.39999389648</ele>
        <time>2013-03-12T11:27:55.000Z</time>
      </trkpt>
      <trkpt lat="43.56456" lon="5.56175">
        <ele>497.60000610352</ele>
        <time>2013-03-12T11:28:08.000Z</time>
      </trkpt>
      <trkpt lat="43.56464" lon="5.56222">
        <ele>500</ele>
        <time>2013-03-12T11:28:18.000Z</time>
      </trkpt>
      <trkpt lat="43.56474" lon="5.5628">
        <ele>503.60000610352</ele>
        <time>2013-03-12T11:28:31.000Z</time>
      </trkpt>
      <trkpt lat="43.56485" lon="5.56328">
        <ele>506.60000610352</ele>
        <time>2013-03-12T11:28:42.000Z</time>
      </trkpt>
      <trkpt lat="43.56483" lon="5.56362">
        <ele>509.79998779297</ele>
        <time>2013-03-12T11:28:52.000Z</time>
      </trkpt>
      <trkpt lat="43.56483" lon="5.56365">
        <ele>510</ele>
        <time>2013-03-12T11:28:53.000Z</time>
      </trkpt>
      <trkpt lat="43.56492" lon="5.56411">
        <ele>513.20001220703</ele>
        <time>2013-03-12T11:29:08.000Z</time>
      </trkpt>
      <trkpt lat="43.56504" lon="5.5644">
        <ele>515.40002441406</ele>
        <time>2013-03-12T11:29:19.000Z</time>
      </trkpt>
      <trkpt lat="43.56512" lon="5.56461">
        <ele>517</ele>
        <time>2013-03-12T11:29:26.000Z</time>
      </trkpt>
      <trkpt lat="43.5652" lon="5.56497">
        <ele>520</ele>
        <time>2013-03-12T11:29:39.000Z</time>
      </trkpt>
      <trkpt lat="43.56528" lon="5.5653">
        <ele>522.40002441406</ele>
        <time>2013-03-12T11:29:51.000Z</time>
      </trkpt>
      <trkpt lat="43.56539" lon="5.56565">
        <ele>524.40002441406</ele>
        <time>2013-03-12T11:30:04.000Z</time>
      </trkpt>
      <trkpt lat="43.56551" lon="5.56603">
        <ele>526.40002441406</ele>
        <time>2013-03-12T11:30:17.000Z</time>
      </trkpt>
      <trkpt lat="43.56559" lon="5.56633">
        <ele>528</ele>
        <time>2013-03-12T11:30:27.000Z</time>
      </trkpt>
      <trkpt lat="43.56565" lon="5.56661">
        <ele>529.79998779297</ele>
        <time>2013-03-12T11:30:36.000Z</time>
      </trkpt>
      <trkpt lat="43.56575" lon="5.56696">
        <ele>531.40002441406</ele>
        <time>2013-03-12T11:30:47.000Z</time>
      </trkpt>
      <trkpt lat="43.56585" lon="5.56739">
        <ele>534</ele>
        <time>2013-03-12T11:31:01.000Z</time>
      </trkpt>
      <trkpt lat="43.56592" lon="5.56769">
        <ele>536.59997558594</ele>
        <time>2013-03-12T11:31:11.000Z</time>
      </trkpt>
      <trkpt lat="43.56607" lon="5.56798">
        <ele>537</ele>
        <time>2013-03-12T11:31:22.000Z</time>
      </trkpt>
      <trkpt lat="43.56621" lon="5.56835">
        <ele>537.40002441406</ele>
        <time>2013-03-12T11:31:36.000Z</time>
      </trkpt>
      <trkpt lat="43.56627" lon="5.5687">
        <ele>539.59997558594</ele>
        <time>2013-03-12T11:31:48.000Z</time>
      </trkpt>
      <trkpt lat="43.56631" lon="5.56911">
        <ele>543.40002441406</ele>
        <time>2013-03-12T11:32:02.000Z</time>
      </trkpt>
      <trkpt lat="43.56631" lon="5.56919">
        <ele>544.40002441406</ele>
        <time>2013-03-12T11:32:05.000Z</time>
      </trkpt>
      <trkpt lat="43.56631" lon="5.56922">
        <ele>544.79998779297</ele>
        <time>2013-03-12T11:32:06.000Z</time>
      </trkpt>
      <trkpt lat="43.56631" lon="5.56925">
        <ele>545.20001220703</ele>
        <time>2013-03-12T11:32:07.000Z</time>
      </trkpt>
      <trkpt lat="43.56632" lon="5.56928">
        <ele>545.40002441406</ele>
        <time>2013-03-12T11:32:08.000Z</time>
      </trkpt>
      <trkpt lat="43.56631" lon="5.56931">
        <ele>545.79998779297</ele>
        <time>2013-03-12T11:32:09.000Z</time>
      </trkpt>
      <trkpt lat="43.56632" lon="5.56934">
        <ele>546</ele>
        <time>2013-03-12T11:32:10.000Z</time>
      </trkpt>
      <trkpt lat="43.56633" lon="5.56937">
        <ele>546.20001220703</ele>
        <time>2013-03-12T11:32:11.000Z</time>
      </trkpt>
      <trkpt lat="43.56646" lon="5.56969">
        <ele>546.20001220703</ele>
        <time>2013-03-12T11:32:24.000Z</time>
      </trkpt>
      <trkpt lat="43.56656" lon="5.56999">
        <ele>547</ele>
        <time>2013-03-12T11:32:35.000Z</time>
      </trkpt>
      <trkpt lat="43.56658" lon="5.57029">
        <ele>547.40002441406</ele>
        <time>2013-03-12T11:32:46.000Z</time>
      </trkpt>
      <trkpt lat="43.56652" lon="5.57059">
        <ele>550.59997558594</ele>
        <time>2013-03-12T11:32:57.000Z</time>
      </trkpt>
      <trkpt lat="43.56634" lon="5.57086">
        <ele>557.20001220703</ele>
        <time>2013-03-12T11:33:09.000Z</time>
      </trkpt>
      <trkpt lat="43.56633" lon="5.57101">
        <ele>558.59997558594</ele>
        <time>2013-03-12T11:33:14.000Z</time>
      </trkpt>
      <trkpt lat="43.56634" lon="5.57103">
        <ele>558.40002441406</ele>
        <time>2013-03-12T11:33:15.000Z</time>
      </trkpt>
      <trkpt lat="43.56636" lon="5.57106">
        <ele>558.20001220703</ele>
        <time>2013-03-12T11:33:16.000Z</time>
      </trkpt>
      <trkpt lat="43.56648" lon="5.57137">
        <ele>557.40002441406</ele>
        <time>2013-03-12T11:33:28.000Z</time>
      </trkpt>
      <trkpt lat="43.56665" lon="5.57168">
        <ele>555.40002441406</ele>
        <time>2013-03-12T11:33:41.000Z</time>
      </trkpt>
      <trkpt lat="43.56673" lon="5.57206">
        <ele>556</ele>
        <time>2013-03-12T11:33:54.000Z</time>
      </trkpt>
      <trkpt lat="43.56666" lon="5.57243">
        <ele>559.59997558594</ele>
        <time>2013-03-12T11:34:06.000Z</time>
      </trkpt>
      <trkpt lat="43.56646" lon="5.57265">
        <ele>564</ele>
        <time>2013-03-12T11:34:18.000Z</time>
      </trkpt>
      <trkpt lat="43.56624" lon="5.57286">
        <ele>567.79998779297</ele>
        <time>2013-03-12T11:34:31.000Z</time>
      </trkpt>
      <trkpt lat="43.5662" lon="5.57288">
        <ele>568.40002441406</ele>
        <time>2013-03-12T11:34:33.000Z</time>
      </trkpt>
      <trkpt lat="43.56603" lon="5.57317">
        <ele>570</ele>
        <time>2013-03-12T11:34:46.000Z</time>
      </trkpt>
      <trkpt lat="43.56588" lon="5.5734">
        <ele>571</ele>
        <time>2013-03-12T11:34:57.000Z</time>
      </trkpt>
      <trkpt lat="43.5657" lon="5.57368">
        <ele>571.59997558594</ele>
        <time>2013-03-12T11:35:09.000Z</time>
      </trkpt>
      <trkpt lat="43.5654" lon="5.57379">
        <ele>576.40002441406</ele>
        <time>2013-03-12T11:35:20.000Z</time>
      </trkpt>
      <trkpt lat="43.5652" lon="5.57382">
        <ele>580.40002441406</ele>
        <time>2013-03-12T11:35:25.000Z</time>
      </trkpt>
      <trkpt lat="43.56516" lon="5.57385">
        <ele>580.79998779297</ele>
        <time>2013-03-12T11:35:26.000Z</time>
      </trkpt>
      <trkpt lat="43.56512" lon="5.57389">
        <ele>580.79998779297</ele>
        <time>2013-03-12T11:35:27.000Z</time>
      </trkpt>
      <trkpt lat="43.5651" lon="5.57395">
        <ele>580.79998779297</ele>
        <time>2013-03-12T11:35:28.000Z</time>
      </trkpt>
      <trkpt lat="43.56507" lon="5.57401">
        <ele>580.40002441406</ele>
        <time>2013-03-12T11:35:29.000Z</time>
      </trkpt>
      <trkpt lat="43.56505" lon="5.57408">
        <ele>580</ele>
        <time>2013-03-12T11:35:30.000Z</time>
      </trkpt>
      <trkpt lat="43.56491" lon="5.57456">
        <ele>574.40002441406</ele>
        <time>2013-03-12T11:35:37.000Z</time>
      </trkpt>
      <trkpt lat="43.5649" lon="5.57463">
        <ele>573.40002441406</ele>
        <time>2013-03-12T11:35:38.000Z</time>
      </trkpt>
      <trkpt lat="43.56472" lon="5.5754">
        <ele>567.79998779297</ele>
        <time>2013-03-12T11:35:50.000Z</time>
      </trkpt>
      <trkpt lat="43.56461" lon="5.57582">
        <ele>567.59997558594</ele>
        <time>2013-03-12T11:36:00.000Z</time>
      </trkpt>
      <trkpt lat="43.5646" lon="5.57602">
        <ele>570.20001220703</ele>
        <time>2013-03-12T11:36:05.000Z</time>
      </trkpt>
      <trkpt lat="43.56459" lon="5.57604">
        <ele>570.40002441406</ele>
        <time>2013-03-12T11:36:06.000Z</time>
      </trkpt>
      <trkpt lat="43.56458" lon="5.57606">
        <ele>570.59997558594</ele>
        <time>2013-03-12T11:36:07.000Z</time>
      </trkpt>
      <trkpt lat="43.56456" lon="5.57608">
        <ele>570.79998779297</ele>
        <time>2013-03-12T11:36:08.000Z</time>
      </trkpt>
      <trkpt lat="43.56455" lon="5.57609">
        <ele>571</ele>
        <time>2013-03-12T11:36:09.000Z</time>
      </trkpt>
      <trkpt lat="43.56455" lon="5.57611">
        <ele>571.20001220703</ele>
        <time>2013-03-12T11:36:10.000Z</time>
      </trkpt>
      <trkpt lat="43.56455" lon="5.57613">
        <ele>571.59997558594</ele>
        <time>2013-03-12T11:36:11.000Z</time>
      </trkpt>
      <trkpt lat="43.56455" lon="5.57615">
        <ele>571.79998779297</ele>
        <time>2013-03-12T11:36:12.000Z</time>
      </trkpt>
      <trkpt lat="43.56456" lon="5.57617">
        <ele>572.20001220703</ele>
        <time>2013-03-12T11:36:14.000Z</time>
      </trkpt>
      <trkpt lat="43.56456" lon="5.57617">
        <ele>572.20001220703</ele>
        <time>2013-03-12T11:36:24.000Z</time>
      </trkpt>
      <trkpt lat="43.56456" lon="5.57617">
        <ele>572.20001220703</ele>
        <time>2013-03-12T11:36:47.000Z</time>
      </trkpt>
      <trkpt lat="43.56456" lon="5.57618">
        <ele>572.20001220703</ele>
        <time>2013-03-12T11:37:11.000Z</time>
      </trkpt>
      <trkpt lat="43.56456" lon="5.57619">
        <ele>572.40002441406</ele>
        <time>2013-03-12T11:37:18.000Z</time>
      </trkpt>
      <trkpt lat="43.56458" lon="5.57621">
        <ele>572.79998779297</ele>
        <time>2013-03-12T11:37:20.000Z</time>
      </trkpt>
      <trkpt lat="43.56458" lon="5.57623">
        <ele>573.20001220703</ele>
        <time>2013-03-12T11:37:21.000Z</time>
      </trkpt>
      <trkpt lat="43.56458" lon="5.57625">
        <ele>573.40002441406</ele>
        <time>2013-03-12T11:37:22.000Z</time>
      </trkpt>
      <trkpt lat="43.5646" lon="5.57655">
        <ele>577.59997558594</ele>
        <time>2013-03-12T11:37:34.000Z</time>
      </trkpt>
      <trkpt lat="43.56467" lon="5.57668">
        <ele>579.20001220703</ele>
        <time>2013-03-12T11:37:40.000Z</time>
      </trkpt>
      <trkpt lat="43.56468" lon="5.57669">
        <ele>579.20001220703</ele>
        <time>2013-03-12T11:37:41.000Z</time>
      </trkpt>
      <trkpt lat="43.5647" lon="5.57671">
        <ele>579.40002441406</ele>
        <time>2013-03-12T11:37:42.000Z</time>
      </trkpt>
      <trkpt lat="43.56472" lon="5.57673">
        <ele>579.40002441406</ele>
        <time>2013-03-12T11:37:43.000Z</time>
      </trkpt>
      <trkpt lat="43.56473" lon="5.57674">
        <ele>579.40002441406</ele>
        <time>2013-03-12T11:37:44.000Z</time>
      </trkpt>
      <trkpt lat="43.56475" lon="5.57676">
        <ele>579.40002441406</ele>
        <time>2013-03-12T11:37:45.000Z</time>
      </trkpt>
      <trkpt lat="43.56478" lon="5.57678">
        <ele>579.40002441406</ele>
        <time>2013-03-12T11:37:46.000Z</time>
      </trkpt>
      <trkpt lat="43.5648" lon="5.5768">
        <ele>579.40002441406</ele>
        <time>2013-03-12T11:37:47.000Z</time>
      </trkpt>
      <trkpt lat="43.56482" lon="5.57681">
        <ele>579.40002441406</ele>
        <time>2013-03-12T11:37:48.000Z</time>
      </trkpt>
      <trkpt lat="43.56483" lon="5.57683">
        <ele>579.40002441406</ele>
        <time>2013-03-12T11:37:49.000Z</time>
      </trkpt>
      <trkpt lat="43.56492" lon="5.57711">
        <ele>579.59997558594</ele>
        <time>2013-03-12T11:37:59.000Z</time>
      </trkpt>
      <trkpt lat="43.56478" lon="5.57748">
        <ele>584</ele>
        <time>2013-03-12T11:38:10.000Z</time>
      </trkpt>
      <trkpt lat="43.56462" lon="5.57779">
        <ele>586.20001220703</ele>
        <time>2013-03-12T11:38:22.000Z</time>
      </trkpt>
      <trkpt lat="43.56448" lon="5.57806">
        <ele>588.59997558594</ele>
        <time>2013-03-12T11:38:33.000Z</time>
      </trkpt>
      <trkpt lat="43.56437" lon="5.57825">
        <ele>590.79998779297</ele>
        <time>2013-03-12T11:38:41.000Z</time>
      </trkpt>
      <trkpt lat="43.56422" lon="5.57845">
        <ele>595</ele>
        <time>2013-03-12T11:38:51.000Z</time>
      </trkpt>
      <trkpt lat="43.56404" lon="5.57867">
        <ele>598.59997558594</ele>
        <time>2013-03-12T11:39:03.000Z</time>
      </trkpt>
      <trkpt lat="43.56393" lon="5.57889">
        <ele>600.40002441406</ele>
        <time>2013-03-12T11:39:13.000Z</time>
      </trkpt>
      <trkpt lat="43.56383" lon="5.57918">
        <ele>602.20001220703</ele>
        <time>2013-03-12T11:39:25.000Z</time>
      </trkpt>
      <trkpt lat="43.56383" lon="5.57948">
        <ele>602.59997558594</ele>
        <time>2013-03-12T11:39:36.000Z</time>
      </trkpt>
      <trkpt lat="43.56379" lon="5.57973">
        <ele>603.79998779297</ele>
        <time>2013-03-12T11:39:45.000Z</time>
      </trkpt>
      <trkpt lat="43.56362" lon="5.58005">
        <ele>607.20001220703</ele>
        <time>2013-03-12T11:39:58.000Z</time>
      </trkpt>
      <trkpt lat="43.56341" lon="5.58018">
        <ele>610.59997558594</ele>
        <time>2013-03-12T11:40:09.000Z</time>
      </trkpt>
      <trkpt lat="43.56319" lon="5.58037">
        <ele>613.79998779297</ele>
        <time>2013-03-12T11:40:21.000Z</time>
      </trkpt>
      <trkpt lat="43.56308" lon="5.58073">
        <ele>614.79998779297</ele>
        <time>2013-03-12T11:40:32.000Z</time>
      </trkpt>
      <trkpt lat="43.5631" lon="5.58113">
        <ele>613.59997558594</ele>
        <time>2013-03-12T11:40:42.000Z</time>
      </trkpt>
      <trkpt lat="43.56312" lon="5.58171">
        <ele>612.20001220703</ele>
        <time>2013-03-12T11:40:54.000Z</time>
      </trkpt>
      <trkpt lat="43.56322" lon="5.58205">
        <ele>610.59997558594</ele>
        <time>2013-03-12T11:41:00.000Z</time>
      </trkpt>
      <trkpt lat="43.56325" lon="5.58212">
        <ele>610</ele>
        <time>2013-03-12T11:41:01.000Z</time>
      </trkpt>
      <trkpt lat="43.56329" lon="5.58218">
        <ele>609.40002441406</ele>
        <time>2013-03-12T11:41:02.000Z</time>
      </trkpt>
      <trkpt lat="43.56362" lon="5.58269">
        <ele>605.79998779297</ele>
        <time>2013-03-12T11:41:09.000Z</time>
      </trkpt>
      <trkpt lat="43.56366" lon="5.58277">
        <ele>605.40002441406</ele>
        <time>2013-03-12T11:41:10.000Z</time>
      </trkpt>
      <trkpt lat="43.5637" lon="5.58287">
        <ele>605</ele>
        <time>2013-03-12T11:41:11.000Z</time>
      </trkpt>
      <trkpt lat="43.56374" lon="5.58297">
        <ele>604.59997558594</ele>
        <time>2013-03-12T11:41:12.000Z</time>
      </trkpt>
      <trkpt lat="43.56376" lon="5.58307">
        <ele>604.40002441406</ele>
        <time>2013-03-12T11:41:13.000Z</time>
      </trkpt>
      <trkpt lat="43.56379" lon="5.58318">
        <ele>604.20001220703</ele>
        <time>2013-03-12T11:41:14.000Z</time>
      </trkpt>
      <trkpt lat="43.56383" lon="5.58329">
        <ele>603.79998779297</ele>
        <time>2013-03-12T11:41:15.000Z</time>
      </trkpt>
      <trkpt lat="43.56391" lon="5.58351">
        <ele>602.40002441406</ele>
        <time>2013-03-12T11:41:17.000Z</time>
      </trkpt>
      <trkpt lat="43.56397" lon="5.58362">
        <ele>601.40002441406</ele>
        <time>2013-03-12T11:41:18.000Z</time>
      </trkpt>
      <trkpt lat="43.5641" lon="5.58383">
        <ele>599.59997558594</ele>
        <time>2013-03-12T11:41:20.000Z</time>
      </trkpt>
      <trkpt lat="43.56432" lon="5.58414">
        <ele>595.59997558594</ele>
        <time>2013-03-12T11:41:23.000Z</time>
      </trkpt>
      <trkpt lat="43.56437" lon="5.58426">
        <ele>594.40002441406</ele>
        <time>2013-03-12T11:41:24.000Z</time>
      </trkpt>
      <trkpt lat="43.56441" lon="5.58438">
        <ele>593.59997558594</ele>
        <time>2013-03-12T11:41:25.000Z</time>
      </trkpt>
      <trkpt lat="43.56457" lon="5.58486">
        <ele>592</ele>
        <time>2013-03-12T11:41:29.000Z</time>
      </trkpt>
      <trkpt lat="43.56479" lon="5.5854">
        <ele>592.20001220703</ele>
        <time>2013-03-12T11:41:34.000Z</time>
      </trkpt>
      <trkpt lat="43.56518" lon="5.58623">
        <ele>593.59997558594</ele>
        <time>2013-03-12T11:41:43.000Z</time>
      </trkpt>
      <trkpt lat="43.56531" lon="5.58649">
        <ele>594.59997558594</ele>
        <time>2013-03-12T11:41:46.000Z</time>
      </trkpt>
      <trkpt lat="43.56536" lon="5.58657">
        <ele>595</ele>
        <time>2013-03-12T11:41:47.000Z</time>
      </trkpt>
      <trkpt lat="43.56541" lon="5.58664">
        <ele>595.20001220703</ele>
        <time>2013-03-12T11:41:48.000Z</time>
      </trkpt>
      <trkpt lat="43.56587" lon="5.58755">
        <ele>594</ele>
        <time>2013-03-12T11:42:00.000Z</time>
      </trkpt>
      <trkpt lat="43.56615" lon="5.58823">
        <ele>593.59997558594</ele>
        <time>2013-03-12T11:42:09.000Z</time>
      </trkpt>
      <trkpt lat="43.56631" lon="5.58875">
        <ele>594</ele>
        <time>2013-03-12T11:42:16.000Z</time>
      </trkpt>
      <trkpt lat="43.56641" lon="5.58901">
        <ele>594.40002441406</ele>
        <time>2013-03-12T11:42:20.000Z</time>
      </trkpt>
      <trkpt lat="43.56661" lon="5.58941">
        <ele>594.59997558594</ele>
        <time>2013-03-12T11:42:26.000Z</time>
      </trkpt>
      <trkpt lat="43.56671" lon="5.5896">
        <ele>594.59997558594</ele>
        <time>2013-03-12T11:42:29.000Z</time>
      </trkpt>
      <trkpt lat="43.56698" lon="5.59007">
        <ele>593.79998779297</ele>
        <time>2013-03-12T11:42:37.000Z</time>
      </trkpt>
      <trkpt lat="43.56705" lon="5.59028">
        <ele>593.59997558594</ele>
        <time>2013-03-12T11:42:40.000Z</time>
      </trkpt>
      <trkpt lat="43.56709" lon="5.59034">
        <ele>593.59997558594</ele>
        <time>2013-03-12T11:42:41.000Z</time>
      </trkpt>
      <trkpt lat="43.56713" lon="5.5904">
        <ele>593.59997558594</ele>
        <time>2013-03-12T11:42:42.000Z</time>
      </trkpt>
      <trkpt lat="43.56729" lon="5.59063">
        <ele>593.59997558594</ele>
        <time>2013-03-12T11:42:46.000Z</time>
      </trkpt>
      <trkpt lat="43.56733" lon="5.59069">
        <ele>593.59997558594</ele>
        <time>2013-03-12T11:42:47.000Z</time>
      </trkpt>
      <trkpt lat="43.56783" lon="5.59135">
        <ele>594.40002441406</ele>
        <time>2013-03-12T11:42:59.000Z</time>
      </trkpt>
      <trkpt lat="43.56801" lon="5.5916">
        <ele>594.79998779297</ele>
        <time>2013-03-12T11:43:03.000Z</time>
      </trkpt>
      <trkpt lat="43.56804" lon="5.59168">
        <ele>594.79998779297</ele>
        <time>2013-03-12T11:43:04.000Z</time>
      </trkpt>
      <trkpt lat="43.56807" lon="5.59176">
        <ele>595</ele>
        <time>2013-03-12T11:43:05.000Z</time>
      </trkpt>
      <trkpt lat="43.56833" lon="5.59235">
        <ele>595.79998779297</ele>
        <time>2013-03-12T11:43:14.000Z</time>
      </trkpt>
      <trkpt lat="43.56848" lon="5.59264">
        <ele>595.20001220703</ele>
        <time>2013-03-12T11:43:19.000Z</time>
      </trkpt>
      <trkpt lat="43.56851" lon="5.59271">
        <ele>595</ele>
        <time>2013-03-12T11:43:20.000Z</time>
      </trkpt>
      <trkpt lat="43.56878" lon="5.59332">
        <ele>593</ele>
        <time>2013-03-12T11:43:29.000Z</time>
      </trkpt>
      <trkpt lat="43.56883" lon="5.59338">
        <ele>592.79998779297</ele>
        <time>2013-03-12T11:43:30.000Z</time>
      </trkpt>
      <trkpt lat="43.56888" lon="5.59343">
        <ele>592.79998779297</ele>
        <time>2013-03-12T11:43:31.000Z</time>
      </trkpt>
      <trkpt lat="43.56898" lon="5.59354">
        <ele>592.40002441406</ele>
        <time>2013-03-12T11:43:33.000Z</time>
      </trkpt>
      <trkpt lat="43.56903" lon="5.59362">
        <ele>592.20001220703</ele>
        <time>2013-03-12T11:43:34.000Z</time>
      </trkpt>
      <trkpt lat="43.56907" lon="5.5937">
        <ele>592</ele>
        <time>2013-03-12T11:43:35.000Z</time>
      </trkpt>
      <trkpt lat="43.56946" lon="5.59443">
        <ele>589.79998779297</ele>
        <time>2013-03-12T11:43:44.000Z</time>
      </trkpt>
      <trkpt lat="43.56957" lon="5.59459">
        <ele>589.20001220703</ele>
        <time>2013-03-12T11:43:46.000Z</time>
      </trkpt>
      <trkpt lat="43.57003" lon="5.59541">
        <ele>586</ele>
        <time>2013-03-12T11:43:55.000Z</time>
      </trkpt>
      <trkpt lat="43.57013" lon="5.59558">
        <ele>585.59997558594</ele>
        <time>2013-03-12T11:43:57.000Z</time>
      </trkpt>
      <trkpt lat="43.57017" lon="5.59568">
        <ele>585.20001220703</ele>
        <time>2013-03-12T11:43:58.000Z</time>
      </trkpt>
      <trkpt lat="43.57022" lon="5.59588">
        <ele>584.79998779297</ele>
        <time>2013-03-12T11:44:00.000Z</time>
      </trkpt>
      <trkpt lat="43.57035" lon="5.59642">
        <ele>582.40002441406</ele>
        <time>2013-03-12T11:44:05.000Z</time>
      </trkpt>
      <trkpt lat="43.57048" lon="5.59687">
        <ele>581.20001220703</ele>
        <time>2013-03-12T11:44:09.000Z</time>
      </trkpt>
      <trkpt lat="43.57091" lon="5.59802">
        <ele>580.40002441406</ele>
        <time>2013-03-12T11:44:20.000Z</time>
      </trkpt>
      <trkpt lat="43.57112" lon="5.59866">
        <ele>580.20001220703</ele>
        <time>2013-03-12T11:44:27.000Z</time>
      </trkpt>
      <trkpt lat="43.57122" lon="5.5991">
        <ele>580</ele>
        <time>2013-03-12T11:44:32.000Z</time>
      </trkpt>
      <trkpt lat="43.57126" lon="5.59918">
        <ele>580</ele>
        <time>2013-03-12T11:44:33.000Z</time>
      </trkpt>
      <trkpt lat="43.57131" lon="5.59924">
        <ele>580</ele>
        <time>2013-03-12T11:44:34.000Z</time>
      </trkpt>
      <trkpt lat="43.5716" lon="5.59948">
        <ele>580.79998779297</ele>
        <time>2013-03-12T11:44:39.000Z</time>
      </trkpt>
      <trkpt lat="43.57166" lon="5.5995">
        <ele>580.79998779297</ele>
        <time>2013-03-12T11:44:40.000Z</time>
      </trkpt>
      <trkpt lat="43.57172" lon="5.59952">
        <ele>581.20001220703</ele>
        <time>2013-03-12T11:44:41.000Z</time>
      </trkpt>
      <trkpt lat="43.57189" lon="5.59954">
        <ele>581.79998779297</ele>
        <time>2013-03-12T11:44:44.000Z</time>
      </trkpt>
      <trkpt lat="43.57234" lon="5.59972">
        <ele>583.40002441406</ele>
        <time>2013-03-12T11:44:53.000Z</time>
      </trkpt>
      <trkpt lat="43.57238" lon="5.59977">
        <ele>583.40002441406</ele>
        <time>2013-03-12T11:44:54.000Z</time>
      </trkpt>
      <trkpt lat="43.57241" lon="5.59981">
        <ele>583.20001220703</ele>
        <time>2013-03-12T11:44:55.000Z</time>
      </trkpt>
      <trkpt lat="43.57244" lon="5.59987">
        <ele>583.20001220703</ele>
        <time>2013-03-12T11:44:56.000Z</time>
      </trkpt>
      <trkpt lat="43.57246" lon="5.59993">
        <ele>583</ele>
        <time>2013-03-12T11:44:57.000Z</time>
      </trkpt>
      <trkpt lat="43.57248" lon="5.59999">
        <ele>583</ele>
        <time>2013-03-12T11:44:58.000Z</time>
      </trkpt>
      <trkpt lat="43.57267" lon="5.60043">
        <ele>583.20001220703</ele>
        <time>2013-03-12T11:45:06.000Z</time>
      </trkpt>
      <trkpt lat="43.57279" lon="5.60064">
        <ele>583.59997558594</ele>
        <time>2013-03-12T11:45:10.000Z</time>
      </trkpt>
      <trkpt lat="43.57289" lon="5.60087">
        <ele>583.79998779297</ele>
        <time>2013-03-12T11:45:14.000Z</time>
      </trkpt>
      <trkpt lat="43.57295" lon="5.60114">
        <ele>585</ele>
        <time>2013-03-12T11:45:18.000Z</time>
      </trkpt>
      <trkpt lat="43.57296" lon="5.6012">
        <ele>585.20001220703</ele>
        <time>2013-03-12T11:45:19.000Z</time>
      </trkpt>
      <trkpt lat="43.57306" lon="5.60162">
        <ele>587.20001220703</ele>
        <time>2013-03-12T11:45:25.000Z</time>
      </trkpt>
      <trkpt lat="43.57307" lon="5.60183">
        <ele>587</ele>
        <time>2013-03-12T11:45:28.000Z</time>
      </trkpt>
      <trkpt lat="43.57306" lon="5.60191">
        <ele>587</ele>
        <time>2013-03-12T11:45:29.000Z</time>
      </trkpt>
      <trkpt lat="43.57309" lon="5.60257">
        <ele>586.20001220703</ele>
        <time>2013-03-12T11:45:38.000Z</time>
      </trkpt>
      <trkpt lat="43.57309" lon="5.6027">
        <ele>586</ele>
        <time>2013-03-12T11:45:40.000Z</time>
      </trkpt>
      <trkpt lat="43.5731" lon="5.60277">
        <ele>585.79998779297</ele>
        <time>2013-03-12T11:45:41.000Z</time>
      </trkpt>
      <trkpt lat="43.57312" lon="5.60283">
        <ele>585.79998779297</ele>
        <time>2013-03-12T11:45:42.000Z</time>
      </trkpt>
      <trkpt lat="43.57319" lon="5.60317">
        <ele>585</ele>
        <time>2013-03-12T11:45:47.000Z</time>
      </trkpt>
      <trkpt lat="43.57321" lon="5.60324">
        <ele>584.79998779297</ele>
        <time>2013-03-12T11:45:48.000Z</time>
      </trkpt>
      <trkpt lat="43.57324" lon="5.60331">
        <ele>584.79998779297</ele>
        <time>2013-03-12T11:45:49.000Z</time>
      </trkpt>
      <trkpt lat="43.57326" lon="5.60338">
        <ele>584.40002441406</ele>
        <time>2013-03-12T11:45:50.000Z</time>
      </trkpt>
      <trkpt lat="43.57329" lon="5.60345">
        <ele>584.20001220703</ele>
        <time>2013-03-12T11:45:51.000Z</time>
      </trkpt>
      <trkpt lat="43.57352" lon="5.6039">
        <ele>582.59997558594</ele>
        <time>2013-03-12T11:45:57.000Z</time>
      </trkpt>
      <trkpt lat="43.57355" lon="5.604">
        <ele>582.40002441406</ele>
        <time>2013-03-12T11:45:58.000Z</time>
      </trkpt>
      <trkpt lat="43.57359" lon="5.6041">
        <ele>582</ele>
        <time>2013-03-12T11:45:59.000Z</time>
      </trkpt>
      <trkpt lat="43.57361" lon="5.6042">
        <ele>581.79998779297</ele>
        <time>2013-03-12T11:46:00.000Z</time>
      </trkpt>
      <trkpt lat="43.57363" lon="5.6043">
        <ele>581.40002441406</ele>
        <time>2013-03-12T11:46:01.000Z</time>
      </trkpt>
      <trkpt lat="43.57365" lon="5.60441">
        <ele>581.20001220703</ele>
        <time>2013-03-12T11:46:02.000Z</time>
      </trkpt>
      <trkpt lat="43.57376" lon="5.60493">
        <ele>579.79998779297</ele>
        <time>2013-03-12T11:46:07.000Z</time>
      </trkpt>
      <trkpt lat="43.57379" lon="5.60503">
        <ele>579.59997558594</ele>
        <time>2013-03-12T11:46:08.000Z</time>
      </trkpt>
      <trkpt lat="43.57382" lon="5.60513">
        <ele>579.79998779297</ele>
        <time>2013-03-12T11:46:09.000Z</time>
      </trkpt>
      <trkpt lat="43.57383" lon="5.60523">
        <ele>580</ele>
        <time>2013-03-12T11:46:10.000Z</time>
      </trkpt>
      <trkpt lat="43.57383" lon="5.60533">
        <ele>580.20001220703</ele>
        <time>2013-03-12T11:46:11.000Z</time>
      </trkpt>
      <trkpt lat="43.57394" lon="5.60607">
        <ele>582.20001220703</ele>
        <time>2013-03-12T11:46:20.000Z</time>
      </trkpt>
      <trkpt lat="43.574" lon="5.60635">
        <ele>583.59997558594</ele>
        <time>2013-03-12T11:46:24.000Z</time>
      </trkpt>
      <trkpt lat="43.57402" lon="5.60641">
        <ele>584</ele>
        <time>2013-03-12T11:46:25.000Z</time>
      </trkpt>
      <trkpt lat="43.57409" lon="5.60665">
        <ele>585.40002441406</ele>
        <time>2013-03-12T11:46:29.000Z</time>
      </trkpt>
      <trkpt lat="43.57426" lon="5.60722">
        <ele>586</ele>
        <time>2013-03-12T11:46:38.000Z</time>
      </trkpt>
      <trkpt lat="43.57427" lon="5.60729">
        <ele>586</ele>
        <time>2013-03-12T11:46:39.000Z</time>
      </trkpt>
      <trkpt lat="43.57427" lon="5.60736">
        <ele>585.79998779297</ele>
        <time>2013-03-12T11:46:40.000Z</time>
      </trkpt>
      <trkpt lat="43.57426" lon="5.60751">
        <ele>585.59997558594</ele>
        <time>2013-03-12T11:46:42.000Z</time>
      </trkpt>
      <trkpt lat="43.57427" lon="5.60758">
        <ele>585.59997558594</ele>
        <time>2013-03-12T11:46:43.000Z</time>
      </trkpt>
      <trkpt lat="43.57428" lon="5.60764">
        <ele>585.59997558594</ele>
        <time>2013-03-12T11:46:44.000Z</time>
      </trkpt>
      <trkpt lat="43.5743" lon="5.6077">
        <ele>585.59997558594</ele>
        <time>2013-03-12T11:46:45.000Z</time>
      </trkpt>
      <trkpt lat="43.57432" lon="5.60776">
        <ele>585.59997558594</ele>
        <time>2013-03-12T11:46:46.000Z</time>
      </trkpt>
      <trkpt lat="43.57436" lon="5.60788">
        <ele>585.59997558594</ele>
        <time>2013-03-12T11:46:48.000Z</time>
      </trkpt>
      <trkpt lat="43.57437" lon="5.60794">
        <ele>585.59997558594</ele>
        <time>2013-03-12T11:46:49.000Z</time>
      </trkpt>
      <trkpt lat="43.57438" lon="5.60801">
        <ele>585.59997558594</ele>
        <time>2013-03-12T11:46:50.000Z</time>
      </trkpt>
      <trkpt lat="43.57438" lon="5.60808">
        <ele>585.40002441406</ele>
        <time>2013-03-12T11:46:51.000Z</time>
      </trkpt>
      <trkpt lat="43.57438" lon="5.60815">
        <ele>585.40002441406</ele>
        <time>2013-03-12T11:46:52.000Z</time>
      </trkpt>
      <trkpt lat="43.57437" lon="5.60822">
        <ele>585.20001220703</ele>
        <time>2013-03-12T11:46:53.000Z</time>
      </trkpt>
      <trkpt lat="43.57436" lon="5.60828">
        <ele>585</ele>
        <time>2013-03-12T11:46:54.000Z</time>
      </trkpt>
      <trkpt lat="43.57435" lon="5.60835">
        <ele>584.59997558594</ele>
        <time>2013-03-12T11:46:55.000Z</time>
      </trkpt>
      <trkpt lat="43.57435" lon="5.60842">
        <ele>584.59997558594</ele>
        <time>2013-03-12T11:46:56.000Z</time>
      </trkpt>
      <trkpt lat="43.57434" lon="5.60849">
        <ele>584.59997558594</ele>
        <time>2013-03-12T11:46:57.000Z</time>
      </trkpt>
      <trkpt lat="43.57433" lon="5.60857">
        <ele>584.59997558594</ele>
        <time>2013-03-12T11:46:58.000Z</time>
      </trkpt>
      <trkpt lat="43.57433" lon="5.60865">
        <ele>584.59997558594</ele>
        <time>2013-03-12T11:46:59.000Z</time>
      </trkpt>
      <trkpt lat="43.57432" lon="5.60873">
        <ele>584.59997558594</ele>
        <time>2013-03-12T11:47:00.000Z</time>
      </trkpt>
      <trkpt lat="43.57423" lon="5.6096">
        <ele>584.20001220703</ele>
        <time>2013-03-12T11:47:11.000Z</time>
      </trkpt>
      <trkpt lat="43.57406" lon="5.61033">
        <ele>583.20001220703</ele>
        <time>2013-03-12T11:47:20.000Z</time>
      </trkpt>
      <trkpt lat="43.57404" lon="5.61041">
        <ele>583</ele>
        <time>2013-03-12T11:47:21.000Z</time>
      </trkpt>
      <trkpt lat="43.57402" lon="5.61049">
        <ele>582.79998779297</ele>
        <time>2013-03-12T11:47:22.000Z</time>
      </trkpt>
      <trkpt lat="43.574" lon="5.61057">
        <ele>582.59997558594</ele>
        <time>2013-03-12T11:47:23.000Z</time>
      </trkpt>
      <trkpt lat="43.57399" lon="5.61065">
        <ele>582.40002441406</ele>
        <time>2013-03-12T11:47:24.000Z</time>
      </trkpt>
      <trkpt lat="43.57397" lon="5.61073">
        <ele>582.20001220703</ele>
        <time>2013-03-12T11:47:25.000Z</time>
      </trkpt>
      <trkpt lat="43.57396" lon="5.61081">
        <ele>582</ele>
        <time>2013-03-12T11:47:26.000Z</time>
      </trkpt>
      <trkpt lat="43.57378" lon="5.61167">
        <ele>581.20001220703</ele>
        <time>2013-03-12T11:47:37.000Z</time>
      </trkpt>
      <trkpt lat="43.57375" lon="5.61192">
        <ele>580.79998779297</ele>
        <time>2013-03-12T11:47:40.000Z</time>
      </trkpt>
      <trkpt lat="43.57372" lon="5.612">
        <ele>580.79998779297</ele>
        <time>2013-03-12T11:47:41.000Z</time>
      </trkpt>
      <trkpt lat="43.57366" lon="5.61224">
        <ele>581</ele>
        <time>2013-03-12T11:47:44.000Z</time>
      </trkpt>
      <trkpt lat="43.57349" lon="5.61305">
        <ele>579.20001220703</ele>
        <time>2013-03-12T11:47:53.000Z</time>
      </trkpt>
      <trkpt lat="43.57348" lon="5.61314">
        <ele>579</ele>
        <time>2013-03-12T11:47:54.000Z</time>
      </trkpt>
      <trkpt lat="43.57345" lon="5.61385">
        <ele>577</ele>
        <time>2013-03-12T11:48:01.000Z</time>
      </trkpt>
      <trkpt lat="43.57342" lon="5.61407">
        <ele>576.79998779297</ele>
        <time>2013-03-12T11:48:03.000Z</time>
      </trkpt>
      <trkpt lat="43.57342" lon="5.61419">
        <ele>576.40002441406</ele>
        <time>2013-03-12T11:48:04.000Z</time>
      </trkpt>
      <trkpt lat="43.57339" lon="5.61462">
        <ele>574.20001220703</ele>
        <time>2013-03-12T11:48:08.000Z</time>
      </trkpt>
      <trkpt lat="43.57341" lon="5.61472">
        <ele>573.40002441406</ele>
        <time>2013-03-12T11:48:09.000Z</time>
      </trkpt>
      <trkpt lat="43.57343" lon="5.61482">
        <ele>572.59997558594</ele>
        <time>2013-03-12T11:48:10.000Z</time>
      </trkpt>
      <trkpt lat="43.57347" lon="5.61525">
        <ele>569.20001220703</ele>
        <time>2013-03-12T11:48:14.000Z</time>
      </trkpt>
      <trkpt lat="43.57348" lon="5.61536">
        <ele>568.40002441406</ele>
        <time>2013-03-12T11:48:15.000Z</time>
      </trkpt>
      <trkpt lat="43.5735" lon="5.61558">
        <ele>566.79998779297</ele>
        <time>2013-03-12T11:48:17.000Z</time>
      </trkpt>
      <trkpt lat="43.57351" lon="5.61568">
        <ele>566.20001220703</ele>
        <time>2013-03-12T11:48:18.000Z</time>
      </trkpt>
      <trkpt lat="43.57355" lon="5.61599">
        <ele>564</ele>
        <time>2013-03-12T11:48:21.000Z</time>
      </trkpt>
      <trkpt lat="43.57358" lon="5.61637">
        <ele>561.59997558594</ele>
        <time>2013-03-12T11:48:25.000Z</time>
      </trkpt>
      <trkpt lat="43.57359" lon="5.61648">
        <ele>561</ele>
        <time>2013-03-12T11:48:27.000Z</time>
      </trkpt>
      <trkpt lat="43.5736" lon="5.61652">
        <ele>560.79998779297</ele>
        <time>2013-03-12T11:48:28.000Z</time>
      </trkpt>
      <trkpt lat="43.57363" lon="5.61654">
        <ele>560.59997558594</ele>
        <time>2013-03-12T11:48:29.000Z</time>
      </trkpt>
      <trkpt lat="43.57365" lon="5.61654">
        <ele>560.40002441406</ele>
        <time>2013-03-12T11:48:30.000Z</time>
      </trkpt>
      <trkpt lat="43.57368" lon="5.61653">
        <ele>560.40002441406</ele>
        <time>2013-03-12T11:48:31.000Z</time>
      </trkpt>
      <trkpt lat="43.57371" lon="5.6165">
        <ele>560.20001220703</ele>
        <time>2013-03-12T11:48:32.000Z</time>
      </trkpt>
      <trkpt lat="43.57375" lon="5.61646">
        <ele>560.20001220703</ele>
        <time>2013-03-12T11:48:33.000Z</time>
      </trkpt>
      <trkpt lat="43.57378" lon="5.61643">
        <ele>560.20001220703</ele>
        <time>2013-03-12T11:48:34.000Z</time>
      </trkpt>
      <trkpt lat="43.57383" lon="5.61642">
        <ele>560</ele>
        <time>2013-03-12T11:48:35.000Z</time>
      </trkpt>
      <trkpt lat="43.57387" lon="5.61642">
        <ele>559.79998779297</ele>
        <time>2013-03-12T11:48:36.000Z</time>
      </trkpt>
      <trkpt lat="43.57392" lon="5.61643">
        <ele>559.59997558594</ele>
        <time>2013-03-12T11:48:37.000Z</time>
      </trkpt>
      <trkpt lat="43.57396" lon="5.61644">
        <ele>559.20001220703</ele>
        <time>2013-03-12T11:48:38.000Z</time>
      </trkpt>
      <trkpt lat="43.574" lon="5.61646">
        <ele>559</ele>
        <time>2013-03-12T11:48:39.000Z</time>
      </trkpt>
      <trkpt lat="43.57415" lon="5.61652">
        <ele>558.20001220703</ele>
        <time>2013-03-12T11:48:45.000Z</time>
      </trkpt>
      <trkpt lat="43.57417" lon="5.61651">
        <ele>558</ele>
        <time>2013-03-12T11:48:46.000Z</time>
      </trkpt>
      <trkpt lat="43.57418" lon="5.61651">
        <ele>558.40002441406</ele>
        <time>2013-03-12T11:48:47.000Z</time>
      </trkpt>
      <trkpt lat="43.5742" lon="5.61652">
        <ele>558.59997558594</ele>
        <time>2013-03-12T11:48:48.000Z</time>
      </trkpt>
      <trkpt lat="43.57421" lon="5.61653">
        <ele>558.59997558594</ele>
        <time>2013-03-12T11:48:49.000Z</time>
      </trkpt>
      <trkpt lat="43.57416" lon="5.61653">
        <ele>558</ele>
        <time>2013-03-12T11:48:53.000Z</time>
      </trkpt>
      <trkpt lat="43.57397" lon="5.61645">
        <ele>559.20001220703</ele>
        <time>2013-03-12T11:49:07.000Z</time>
      </trkpt>
      <trkpt lat="43.57396" lon="5.61644">
        <ele>559.20001220703</ele>
        <time>2013-03-12T11:49:08.000Z</time>
      </trkpt>
      <trkpt lat="43.57393" lon="5.61645">
        <ele>559.40002441406</ele>
        <time>2013-03-12T11:49:20.000Z</time>
      </trkpt>
      <trkpt lat="43.57393" lon="5.61645">
        <ele>559.40002441406</ele>
        <time>2013-03-12T11:49:32.000Z</time>
      </trkpt>
      <trkpt lat="43.57393" lon="5.61645">
        <ele>559.40002441406</ele>
        <time>2013-03-12T11:50:00.000Z</time>
      </trkpt>
      <trkpt lat="43.57393" lon="5.61645">
        <ele>559.40002441406</ele>
        <time>2013-03-12T11:50:26.000Z</time>
      </trkpt>
      <trkpt lat="43.57393" lon="5.61645">
        <ele>559.40002441406</ele>
        <time>2013-03-12T11:50:27.000Z</time>
      </trkpt>
      <trkpt lat="43.57392" lon="5.61644">
        <ele>559.40002441406</ele>
        <time>2013-03-12T11:50:29.000Z</time>
      </trkpt>
      <trkpt lat="43.57398" lon="5.61645">
        <ele>559.20001220703</ele>
        <time>2013-03-12T11:50:33.000Z</time>
      </trkpt>
      <trkpt lat="43.574" lon="5.61647">
        <ele>559</ele>
        <time>2013-03-12T11:50:34.000Z</time>
      </trkpt>
      <trkpt lat="43.57403" lon="5.61649">
        <ele>558.79998779297</ele>
        <time>2013-03-12T11:50:35.000Z</time>
      </trkpt>
      <trkpt lat="43.57411" lon="5.61652">
        <ele>558.40002441406</ele>
        <time>2013-03-12T11:50:37.000Z</time>
      </trkpt>
      <trkpt lat="43.57415" lon="5.61653">
        <ele>558.20001220703</ele>
        <time>2013-03-12T11:50:38.000Z</time>
      </trkpt>
      <trkpt lat="43.57418" lon="5.61653">
        <ele>558.40002441406</ele>
        <time>2013-03-12T11:50:39.000Z</time>
      </trkpt>
      <trkpt lat="43.57422" lon="5.61654">
        <ele>558.79998779297</ele>
        <time>2013-03-12T11:50:40.000Z</time>
      </trkpt>
      <trkpt lat="43.57425" lon="5.61656">
        <ele>559.20001220703</ele>
        <time>2013-03-12T11:50:41.000Z</time>
      </trkpt>
      <trkpt lat="43.57446" lon="5.6168">
        <ele>562.40002441406</ele>
        <time>2013-03-12T11:50:51.000Z</time>
      </trkpt>
      <trkpt lat="43.57453" lon="5.61724">
        <ele>564</ele>
        <time>2013-03-12T11:51:03.000Z</time>
      </trkpt>
      <trkpt lat="43.57466" lon="5.61774">
        <ele>565.59997558594</ele>
        <time>2013-03-12T11:51:14.000Z</time>
      </trkpt>
      <trkpt lat="43.57484" lon="5.61834">
        <ele>566.59997558594</ele>
        <time>2013-03-12T11:51:24.000Z</time>
      </trkpt>
      <trkpt lat="43.57499" lon="5.61889">
        <ele>569.79998779297</ele>
        <time>2013-03-12T11:51:36.000Z</time>
      </trkpt>
      <trkpt lat="43.575" lon="5.61894">
        <ele>570.20001220703</ele>
        <time>2013-03-12T11:51:37.000Z</time>
      </trkpt>
      <trkpt lat="43.57503" lon="5.61942">
        <ele>573</ele>
        <time>2013-03-12T11:51:49.000Z</time>
      </trkpt>
      <trkpt lat="43.57504" lon="5.61985">
        <ele>575.79998779297</ele>
        <time>2013-03-12T11:52:00.000Z</time>
      </trkpt>
      <trkpt lat="43.575" lon="5.62039">
        <ele>577.40002441406</ele>
        <time>2013-03-12T11:52:13.000Z</time>
      </trkpt>
      <trkpt lat="43.57495" lon="5.6209">
        <ele>578.40002441406</ele>
        <time>2013-03-12T11:52:27.000Z</time>
      </trkpt>
      <trkpt lat="43.57496" lon="5.62137">
        <ele>580.79998779297</ele>
        <time>2013-03-12T11:52:39.000Z</time>
      </trkpt>
      <trkpt lat="43.57513" lon="5.62178">
        <ele>584</ele>
        <time>2013-03-12T11:52:51.000Z</time>
      </trkpt>
      <trkpt lat="43.57534" lon="5.622">
        <ele>585.40002441406</ele>
        <time>2013-03-12T11:53:01.000Z</time>
      </trkpt>
      <trkpt lat="43.57556" lon="5.62207">
        <ele>587.79998779297</ele>
        <time>2013-03-12T11:53:11.000Z</time>
      </trkpt>
      <trkpt lat="43.57584" lon="5.62189">
        <ele>592</ele>
        <time>2013-03-12T11:53:23.000Z</time>
      </trkpt>
      <trkpt lat="43.57609" lon="5.62156">
        <ele>595.59997558594</ele>
        <time>2013-03-12T11:53:36.000Z</time>
      </trkpt>
      <trkpt lat="43.57634" lon="5.62111">
        <ele>598.79998779297</ele>
        <time>2013-03-12T11:53:51.000Z</time>
      </trkpt>
      <trkpt lat="43.57658" lon="5.62069">
        <ele>600.59997558594</ele>
        <time>2013-03-12T11:54:05.000Z</time>
      </trkpt>
      <trkpt lat="43.57685" lon="5.6202">
        <ele>602.20001220703</ele>
        <time>2013-03-12T11:54:21.000Z</time>
      </trkpt>
      <trkpt lat="43.57704" lon="5.61989">
        <ele>602.59997558594</ele>
        <time>2013-03-12T11:54:31.000Z</time>
      </trkpt>
      <trkpt lat="43.57729" lon="5.61965">
        <ele>603.40002441406</ele>
        <time>2013-03-12T11:54:42.000Z</time>
      </trkpt>
      <trkpt lat="43.57745" lon="5.61957">
        <ele>604.20001220703</ele>
        <time>2013-03-12T11:54:48.000Z</time>
      </trkpt>
      <trkpt lat="43.57779" lon="5.6195">
        <ele>607.40002441406</ele>
        <time>2013-03-12T11:54:59.000Z</time>
      </trkpt>
      <trkpt lat="43.57824" lon="5.61948">
        <ele>612.20001220703</ele>
        <time>2013-03-12T11:55:12.000Z</time>
      </trkpt>
      <trkpt lat="43.57869" lon="5.61963">
        <ele>613.20001220703</ele>
        <time>2013-03-12T11:55:25.000Z</time>
      </trkpt>
      <trkpt lat="43.57881" lon="5.61968">
        <ele>613.40002441406</ele>
        <time>2013-03-12T11:55:29.000Z</time>
      </trkpt>
      <trkpt lat="43.57906" lon="5.61984">
        <ele>613.59997558594</ele>
        <time>2013-03-12T11:55:37.000Z</time>
      </trkpt>
      <trkpt lat="43.57909" lon="5.6199">
        <ele>613.79998779297</ele>
        <time>2013-03-12T11:55:38.000Z</time>
      </trkpt>
      <trkpt lat="43.57911" lon="5.61997">
        <ele>613.79998779297</ele>
        <time>2013-03-12T11:55:39.000Z</time>
      </trkpt>
      <trkpt lat="43.57913" lon="5.62004">
        <ele>614</ele>
        <time>2013-03-12T11:55:40.000Z</time>
      </trkpt>
      <trkpt lat="43.57914" lon="5.62012">
        <ele>614.59997558594</ele>
        <time>2013-03-12T11:55:41.000Z</time>
      </trkpt>
      <trkpt lat="43.57914" lon="5.62021">
        <ele>615</ele>
        <time>2013-03-12T11:55:42.000Z</time>
      </trkpt>
      <trkpt lat="43.57916" lon="5.6204">
        <ele>616.20001220703</ele>
        <time>2013-03-12T11:55:44.000Z</time>
      </trkpt>
      <trkpt lat="43.5792" lon="5.62066">
        <ele>617.20001220703</ele>
        <time>2013-03-12T11:55:47.000Z</time>
      </trkpt>
      <trkpt lat="43.57923" lon="5.62072">
        <ele>617.20001220703</ele>
        <time>2013-03-12T11:55:48.000Z</time>
      </trkpt>
      <trkpt lat="43.57926" lon="5.62074">
        <ele>616.59997558594</ele>
        <time>2013-03-12T11:55:49.000Z</time>
      </trkpt>
      <trkpt lat="43.5793" lon="5.62072">
        <ele>615.79998779297</ele>
        <time>2013-03-12T11:55:50.000Z</time>
      </trkpt>
      <trkpt lat="43.57932" lon="5.62065">
        <ele>615</ele>
        <time>2013-03-12T11:55:51.000Z</time>
      </trkpt>
      <trkpt lat="43.57931" lon="5.62054">
        <ele>614.40002441406</ele>
        <time>2013-03-12T11:55:52.000Z</time>
      </trkpt>
      <trkpt lat="43.5793" lon="5.62041">
        <ele>613.59997558594</ele>
        <time>2013-03-12T11:55:53.000Z</time>
      </trkpt>
      <trkpt lat="43.5793" lon="5.62028">
        <ele>612.59997558594</ele>
        <time>2013-03-12T11:55:54.000Z</time>
      </trkpt>
      <trkpt lat="43.57931" lon="5.62015">
        <ele>611.59997558594</ele>
        <time>2013-03-12T11:55:55.000Z</time>
      </trkpt>
      <trkpt lat="43.57932" lon="5.62002">
        <ele>610.20001220703</ele>
        <time>2013-03-12T11:55:56.000Z</time>
      </trkpt>
      <trkpt lat="43.57935" lon="5.6199">
        <ele>609.40002441406</ele>
        <time>2013-03-12T11:55:57.000Z</time>
      </trkpt>
      <trkpt lat="43.57946" lon="5.61955">
        <ele>606.40002441406</ele>
        <time>2013-03-12T11:56:00.000Z</time>
      </trkpt>
      <trkpt lat="43.57951" lon="5.61944">
        <ele>605</ele>
        <time>2013-03-12T11:56:01.000Z</time>
      </trkpt>
      <trkpt lat="43.57972" lon="5.61888">
        <ele>604.20001220703</ele>
        <time>2013-03-12T11:56:06.000Z</time>
      </trkpt>
      <trkpt lat="43.57977" lon="5.61881">
        <ele>604.40002441406</ele>
        <time>2013-03-12T11:56:07.000Z</time>
      </trkpt>
      <trkpt lat="43.57982" lon="5.61878">
        <ele>603.59997558594</ele>
        <time>2013-03-12T11:56:08.000Z</time>
      </trkpt>
      <trkpt lat="43.57986" lon="5.6188">
        <ele>602</ele>
        <time>2013-03-12T11:56:09.000Z</time>
      </trkpt>
      <trkpt lat="43.5799" lon="5.61889">
        <ele>599.79998779297</ele>
        <time>2013-03-12T11:56:10.000Z</time>
      </trkpt>
      <trkpt lat="43.57991" lon="5.61899">
        <ele>597.40002441406</ele>
        <time>2013-03-12T11:56:11.000Z</time>
      </trkpt>
      <trkpt lat="43.57992" lon="5.6191">
        <ele>595.20001220703</ele>
        <time>2013-03-12T11:56:12.000Z</time>
      </trkpt>
      <trkpt lat="43.57993" lon="5.61921">
        <ele>593.79998779297</ele>
        <time>2013-03-12T11:56:13.000Z</time>
      </trkpt>
      <trkpt lat="43.57992" lon="5.61933">
        <ele>594.20001220703</ele>
        <time>2013-03-12T11:56:14.000Z</time>
      </trkpt>
      <trkpt lat="43.57986" lon="5.61971">
        <ele>596.20001220703</ele>
        <time>2013-03-12T11:56:17.000Z</time>
      </trkpt>
      <trkpt lat="43.57983" lon="5.61997">
        <ele>597.20001220703</ele>
        <time>2013-03-12T11:56:19.000Z</time>
      </trkpt>
      <trkpt lat="43.57983" lon="5.6201">
        <ele>598.40002441406</ele>
        <time>2013-03-12T11:56:20.000Z</time>
      </trkpt>
      <trkpt lat="43.57987" lon="5.62021">
        <ele>599</ele>
        <time>2013-03-12T11:56:21.000Z</time>
      </trkpt>
      <trkpt lat="43.57993" lon="5.62027">
        <ele>598.40002441406</ele>
        <time>2013-03-12T11:56:22.000Z</time>
      </trkpt>
      <trkpt lat="43.58001" lon="5.62029">
        <ele>596.79998779297</ele>
        <time>2013-03-12T11:56:23.000Z</time>
      </trkpt>
      <trkpt lat="43.58011" lon="5.6203">
        <ele>595</ele>
        <time>2013-03-12T11:56:24.000Z</time>
      </trkpt>
      <trkpt lat="43.58021" lon="5.62028">
        <ele>592.59997558594</ele>
        <time>2013-03-12T11:56:25.000Z</time>
      </trkpt>
      <trkpt lat="43.58032" lon="5.62025">
        <ele>590</ele>
        <time>2013-03-12T11:56:26.000Z</time>
      </trkpt>
      <trkpt lat="43.58054" lon="5.62022">
        <ele>585.20001220703</ele>
        <time>2013-03-12T11:56:28.000Z</time>
      </trkpt>
      <trkpt lat="43.58064" lon="5.62025">
        <ele>583.40002441406</ele>
        <time>2013-03-12T11:56:29.000Z</time>
      </trkpt>
      <trkpt lat="43.58073" lon="5.62032">
        <ele>582</ele>
        <time>2013-03-12T11:56:30.000Z</time>
      </trkpt>
      <trkpt lat="43.58083" lon="5.62042">
        <ele>581.20001220703</ele>
        <time>2013-03-12T11:56:31.000Z</time>
      </trkpt>
      <trkpt lat="43.58091" lon="5.62052">
        <ele>581</ele>
        <time>2013-03-12T11:56:32.000Z</time>
      </trkpt>
      <trkpt lat="43.58118" lon="5.62081">
        <ele>580.59997558594</ele>
        <time>2013-03-12T11:56:35.000Z</time>
      </trkpt>
      <trkpt lat="43.58159" lon="5.62113">
        <ele>574.40002441406</ele>
        <time>2013-03-12T11:56:39.000Z</time>
      </trkpt>
      <trkpt lat="43.5819" lon="5.62138">
        <ele>571.20001220703</ele>
        <time>2013-03-12T11:56:42.000Z</time>
      </trkpt>
      <trkpt lat="43.58198" lon="5.62149">
        <ele>570.59997558594</ele>
        <time>2013-03-12T11:56:43.000Z</time>
      </trkpt>
      <trkpt lat="43.58205" lon="5.62163">
        <ele>570</ele>
        <time>2013-03-12T11:56:44.000Z</time>
      </trkpt>
      <trkpt lat="43.5821" lon="5.62178">
        <ele>569.20001220703</ele>
        <time>2013-03-12T11:56:45.000Z</time>
      </trkpt>
      <trkpt lat="43.58214" lon="5.62194">
        <ele>568.40002441406</ele>
        <time>2013-03-12T11:56:46.000Z</time>
      </trkpt>
      <trkpt lat="43.58217" lon="5.6221">
        <ele>567.40002441406</ele>
        <time>2013-03-12T11:56:47.000Z</time>
      </trkpt>
      <trkpt lat="43.58219" lon="5.62226">
        <ele>566.20001220703</ele>
        <time>2013-03-12T11:56:48.000Z</time>
      </trkpt>
      <trkpt lat="43.58224" lon="5.62274">
        <ele>563.40002441406</ele>
        <time>2013-03-12T11:56:51.000Z</time>
      </trkpt>
      <trkpt lat="43.58224" lon="5.62289">
        <ele>562.59997558594</ele>
        <time>2013-03-12T11:56:52.000Z</time>
      </trkpt>
      <trkpt lat="43.58223" lon="5.62304">
        <ele>562</ele>
        <time>2013-03-12T11:56:53.000Z</time>
      </trkpt>
      <trkpt lat="43.58221" lon="5.62335">
        <ele>561</ele>
        <time>2013-03-12T11:56:55.000Z</time>
      </trkpt>
      <trkpt lat="43.58221" lon="5.6235">
        <ele>560</ele>
        <time>2013-03-12T11:56:56.000Z</time>
      </trkpt>
      <trkpt lat="43.58223" lon="5.62366">
        <ele>558.59997558594</ele>
        <time>2013-03-12T11:56:57.000Z</time>
      </trkpt>
      <trkpt lat="43.58226" lon="5.62381">
        <ele>556.79998779297</ele>
        <time>2013-03-12T11:56:58.000Z</time>
      </trkpt>
      <trkpt lat="43.5823" lon="5.62397">
        <ele>555</ele>
        <time>2013-03-12T11:56:59.000Z</time>
      </trkpt>
      <trkpt lat="43.58241" lon="5.62443">
        <ele>551</ele>
        <time>2013-03-12T11:57:02.000Z</time>
      </trkpt>
      <trkpt lat="43.58257" lon="5.62504">
        <ele>548.20001220703</ele>
        <time>2013-03-12T11:57:06.000Z</time>
      </trkpt>
      <trkpt lat="43.58267" lon="5.6255">
        <ele>548.20001220703</ele>
        <time>2013-03-12T11:57:09.000Z</time>
      </trkpt>
      <trkpt lat="43.58275" lon="5.62581">
        <ele>548.20001220703</ele>
        <time>2013-03-12T11:57:11.000Z</time>
      </trkpt>
      <trkpt lat="43.58284" lon="5.62613">
        <ele>546.59997558594</ele>
        <time>2013-03-12T11:57:13.000Z</time>
      </trkpt>
      <trkpt lat="43.58294" lon="5.62643">
        <ele>544.20001220703</ele>
        <time>2013-03-12T11:57:15.000Z</time>
      </trkpt>
      <trkpt lat="43.58299" lon="5.62659">
        <ele>543</ele>
        <time>2013-03-12T11:57:16.000Z</time>
      </trkpt>
      <trkpt lat="43.58301" lon="5.62675">
        <ele>541.40002441406</ele>
        <time>2013-03-12T11:57:17.000Z</time>
      </trkpt>
      <trkpt lat="43.583" lon="5.62692">
        <ele>539.79998779297</ele>
        <time>2013-03-12T11:57:18.000Z</time>
      </trkpt>
      <trkpt lat="43.58295" lon="5.62707">
        <ele>538.79998779297</ele>
        <time>2013-03-12T11:57:19.000Z</time>
      </trkpt>
      <trkpt lat="43.58289" lon="5.62721">
        <ele>538.40002441406</ele>
        <time>2013-03-12T11:57:20.000Z</time>
      </trkpt>
      <trkpt lat="43.58282" lon="5.62735">
        <ele>538.20001220703</ele>
        <time>2013-03-12T11:57:21.000Z</time>
      </trkpt>
      <trkpt lat="43.58276" lon="5.6275">
        <ele>537.79998779297</ele>
        <time>2013-03-12T11:57:22.000Z</time>
      </trkpt>
      <trkpt lat="43.58272" lon="5.62766">
        <ele>537.20001220703</ele>
        <time>2013-03-12T11:57:23.000Z</time>
      </trkpt>
      <trkpt lat="43.58271" lon="5.62783">
        <ele>535.79998779297</ele>
        <time>2013-03-12T11:57:24.000Z</time>
      </trkpt>
      <trkpt lat="43.58271" lon="5.62818">
        <ele>532.59997558594</ele>
        <time>2013-03-12T11:57:26.000Z</time>
      </trkpt>
      <trkpt lat="43.58272" lon="5.62853">
        <ele>530.40002441406</ele>
        <time>2013-03-12T11:57:28.000Z</time>
      </trkpt>
      <trkpt lat="43.58274" lon="5.6287">
        <ele>529.40002441406</ele>
        <time>2013-03-12T11:57:29.000Z</time>
      </trkpt>
      <trkpt lat="43.58277" lon="5.62887">
        <ele>528</ele>
        <time>2013-03-12T11:57:30.000Z</time>
      </trkpt>
      <trkpt lat="43.58288" lon="5.62939">
        <ele>523.79998779297</ele>
        <time>2013-03-12T11:57:33.000Z</time>
      </trkpt>
      <trkpt lat="43.58289" lon="5.62957">
        <ele>523.20001220703</ele>
        <time>2013-03-12T11:57:34.000Z</time>
      </trkpt>
      <trkpt lat="43.58288" lon="5.62975">
        <ele>523.20001220703</ele>
        <time>2013-03-12T11:57:35.000Z</time>
      </trkpt>
      <trkpt lat="43.58286" lon="5.62994">
        <ele>523</ele>
        <time>2013-03-12T11:57:36.000Z</time>
      </trkpt>
      <trkpt lat="43.58287" lon="5.63012">
        <ele>522.79998779297</ele>
        <time>2013-03-12T11:57:37.000Z</time>
      </trkpt>
      <trkpt lat="43.5829" lon="5.6303">
        <ele>522</ele>
        <time>2013-03-12T11:57:38.000Z</time>
      </trkpt>
      <trkpt lat="43.58297" lon="5.63047">
        <ele>520</ele>
        <time>2013-03-12T11:57:39.000Z</time>
      </trkpt>
      <trkpt lat="43.58302" lon="5.63065">
        <ele>518</ele>
        <time>2013-03-12T11:57:40.000Z</time>
      </trkpt>
      <trkpt lat="43.58306" lon="5.63083">
        <ele>516.79998779297</ele>
        <time>2013-03-12T11:57:41.000Z</time>
      </trkpt>
      <trkpt lat="43.58312" lon="5.63139">
        <ele>512.20001220703</ele>
        <time>2013-03-12T11:57:44.000Z</time>
      </trkpt>
      <trkpt lat="43.58316" lon="5.63176">
        <ele>509.39999389648</ele>
        <time>2013-03-12T11:57:46.000Z</time>
      </trkpt>
      <trkpt lat="43.58314" lon="5.63194">
        <ele>509.20001220703</ele>
        <time>2013-03-12T11:57:47.000Z</time>
      </trkpt>
      <trkpt lat="43.58313" lon="5.63213">
        <ele>509.20001220703</ele>
        <time>2013-03-12T11:57:48.000Z</time>
      </trkpt>
      <trkpt lat="43.58314" lon="5.63232">
        <ele>508.20001220703</ele>
        <time>2013-03-12T11:57:49.000Z</time>
      </trkpt>
      <trkpt lat="43.58318" lon="5.6325">
        <ele>506.20001220703</ele>
        <time>2013-03-12T11:57:50.000Z</time>
      </trkpt>
      <trkpt lat="43.58323" lon="5.63266">
        <ele>504.60000610352</ele>
        <time>2013-03-12T11:57:51.000Z</time>
      </trkpt>
      <trkpt lat="43.5833" lon="5.63281">
        <ele>502.60000610352</ele>
        <time>2013-03-12T11:57:52.000Z</time>
      </trkpt>
      <trkpt lat="43.58335" lon="5.63296">
        <ele>501</ele>
        <time>2013-03-12T11:57:53.000Z</time>
      </trkpt>
      <trkpt lat="43.5834" lon="5.63312">
        <ele>500</ele>
        <time>2013-03-12T11:57:54.000Z</time>
      </trkpt>
      <trkpt lat="43.58343" lon="5.63329">
        <ele>499.39999389648</ele>
        <time>2013-03-12T11:57:55.000Z</time>
      </trkpt>
      <trkpt lat="43.58345" lon="5.63346">
        <ele>498.60000610352</ele>
        <time>2013-03-12T11:57:56.000Z</time>
      </trkpt>
      <trkpt lat="43.58346" lon="5.63363">
        <ele>498.20001220703</ele>
        <time>2013-03-12T11:57:57.000Z</time>
      </trkpt>
      <trkpt lat="43.58345" lon="5.6338">
        <ele>498.20001220703</ele>
        <time>2013-03-12T11:57:58.000Z</time>
      </trkpt>
      <trkpt lat="43.58343" lon="5.63395">
        <ele>498.79998779297</ele>
        <time>2013-03-12T11:57:59.000Z</time>
      </trkpt>
      <trkpt lat="43.58338" lon="5.6341">
        <ele>499.79998779297</ele>
        <time>2013-03-12T11:58:00.000Z</time>
      </trkpt>
      <trkpt lat="43.58334" lon="5.63423">
        <ele>500.79998779297</ele>
        <time>2013-03-12T11:58:01.000Z</time>
      </trkpt>
      <trkpt lat="43.58332" lon="5.63438">
        <ele>501.20001220703</ele>
        <time>2013-03-12T11:58:02.000Z</time>
      </trkpt>
      <trkpt lat="43.58336" lon="5.63451">
        <ele>500.39999389648</ele>
        <time>2013-03-12T11:58:03.000Z</time>
      </trkpt>
      <trkpt lat="43.58343" lon="5.63462">
        <ele>498.20001220703</ele>
        <time>2013-03-12T11:58:04.000Z</time>
      </trkpt>
      <trkpt lat="43.58352" lon="5.6347">
        <ele>496</ele>
        <time>2013-03-12T11:58:05.000Z</time>
      </trkpt>
      <trkpt lat="43.5836" lon="5.6348">
        <ele>494</ele>
        <time>2013-03-12T11:58:06.000Z</time>
      </trkpt>
      <trkpt lat="43.58366" lon="5.63493">
        <ele>492.20001220703</ele>
        <time>2013-03-12T11:58:07.000Z</time>
      </trkpt>
      <trkpt lat="43.58371" lon="5.63506">
        <ele>491.20001220703</ele>
        <time>2013-03-12T11:58:08.000Z</time>
      </trkpt>
      <trkpt lat="43.58374" lon="5.63521">
        <ele>491</ele>
        <time>2013-03-12T11:58:09.000Z</time>
      </trkpt>
      <trkpt lat="43.58377" lon="5.63536">
        <ele>490.79998779297</ele>
        <time>2013-03-12T11:58:10.000Z</time>
      </trkpt>
      <trkpt lat="43.58381" lon="5.6355">
        <ele>490.60000610352</ele>
        <time>2013-03-12T11:58:11.000Z</time>
      </trkpt>
      <trkpt lat="43.58385" lon="5.63564">
        <ele>490</ele>
        <time>2013-03-12T11:58:12.000Z</time>
      </trkpt>
      <trkpt lat="43.58389" lon="5.63579">
        <ele>489.79998779297</ele>
        <time>2013-03-12T11:58:13.000Z</time>
      </trkpt>
      <trkpt lat="43.58391" lon="5.63595">
        <ele>489</ele>
        <time>2013-03-12T11:58:14.000Z</time>
      </trkpt>
      <trkpt lat="43.58393" lon="5.63611">
        <ele>488.20001220703</ele>
        <time>2013-03-12T11:58:15.000Z</time>
      </trkpt>
      <trkpt lat="43.58395" lon="5.63642">
        <ele>487</ele>
        <time>2013-03-12T11:58:17.000Z</time>
      </trkpt>
      <trkpt lat="43.58396" lon="5.63673">
        <ele>485.79998779297</ele>
        <time>2013-03-12T11:58:19.000Z</time>
      </trkpt>
      <trkpt lat="43.58396" lon="5.63719">
        <ele>483.20001220703</ele>
        <time>2013-03-12T11:58:22.000Z</time>
      </trkpt>
      <trkpt lat="43.58385" lon="5.63805">
        <ele>482</ele>
        <time>2013-03-12T11:58:28.000Z</time>
      </trkpt>
      <trkpt lat="43.58381" lon="5.63833">
        <ele>481.79998779297</ele>
        <time>2013-03-12T11:58:30.000Z</time>
      </trkpt>
      <trkpt lat="43.58382" lon="5.63845">
        <ele>480.79998779297</ele>
        <time>2013-03-12T11:58:31.000Z</time>
      </trkpt>
      <trkpt lat="43.58386" lon="5.63854">
        <ele>479</ele>
        <time>2013-03-12T11:58:32.000Z</time>
      </trkpt>
      <trkpt lat="43.58394" lon="5.63857">
        <ele>477.20001220703</ele>
        <time>2013-03-12T11:58:33.000Z</time>
      </trkpt>
      <trkpt lat="43.58407" lon="5.63846">
        <ele>474.60000610352</ele>
        <time>2013-03-12T11:58:35.000Z</time>
      </trkpt>
      <trkpt lat="43.58409" lon="5.63834">
        <ele>474.60000610352</ele>
        <time>2013-03-12T11:58:36.000Z</time>
      </trkpt>
      <trkpt lat="43.58409" lon="5.63822">
        <ele>475.20001220703</ele>
        <time>2013-03-12T11:58:37.000Z</time>
      </trkpt>
      <trkpt lat="43.58412" lon="5.63796">
        <ele>475.60000610352</ele>
        <time>2013-03-12T11:58:39.000Z</time>
      </trkpt>
      <trkpt lat="43.58415" lon="5.63784">
        <ele>475.20001220703</ele>
        <time>2013-03-12T11:58:40.000Z</time>
      </trkpt>
      <trkpt lat="43.58418" lon="5.63773">
        <ele>474.79998779297</ele>
        <time>2013-03-12T11:58:41.000Z</time>
      </trkpt>
      <trkpt lat="43.58443" lon="5.637">
        <ele>474.20001220703</ele>
        <time>2013-03-12T11:58:47.000Z</time>
      </trkpt>
      <trkpt lat="43.58449" lon="5.6369">
        <ele>473.60000610352</ele>
        <time>2013-03-12T11:58:48.000Z</time>
      </trkpt>
      <trkpt lat="43.58458" lon="5.63685">
        <ele>472.39999389648</ele>
        <time>2013-03-12T11:58:49.000Z</time>
      </trkpt>
      <trkpt lat="43.58467" lon="5.63686">
        <ele>470.79998779297</ele>
        <time>2013-03-12T11:58:50.000Z</time>
      </trkpt>
      <trkpt lat="43.58476" lon="5.63691">
        <ele>469</ele>
        <time>2013-03-12T11:58:51.000Z</time>
      </trkpt>
      <trkpt lat="43.58482" lon="5.63702">
        <ele>467.39999389648</ele>
        <time>2013-03-12T11:58:52.000Z</time>
      </trkpt>
      <trkpt lat="43.58487" lon="5.63714">
        <ele>465.79998779297</ele>
        <time>2013-03-12T11:58:53.000Z</time>
      </trkpt>
      <trkpt lat="43.5849" lon="5.63727">
        <ele>464.60000610352</ele>
        <time>2013-03-12T11:58:54.000Z</time>
      </trkpt>
      <trkpt lat="43.58493" lon="5.63741">
        <ele>463.60000610352</ele>
        <time>2013-03-12T11:58:55.000Z</time>
      </trkpt>
      <trkpt lat="43.58495" lon="5.63755">
        <ele>462.39999389648</ele>
        <time>2013-03-12T11:58:56.000Z</time>
      </trkpt>
      <trkpt lat="43.58497" lon="5.63768">
        <ele>461.20001220703</ele>
        <time>2013-03-12T11:58:57.000Z</time>
      </trkpt>
      <trkpt lat="43.58498" lon="5.63783">
        <ele>460.39999389648</ele>
        <time>2013-03-12T11:58:58.000Z</time>
      </trkpt>
      <trkpt lat="43.58496" lon="5.63797">
        <ele>459.79998779297</ele>
        <time>2013-03-12T11:58:59.000Z</time>
      </trkpt>
      <trkpt lat="43.58493" lon="5.6381">
        <ele>459.60000610352</ele>
        <time>2013-03-12T11:59:00.000Z</time>
      </trkpt>
      <trkpt lat="43.58487" lon="5.63822">
        <ele>460</ele>
        <time>2013-03-12T11:59:01.000Z</time>
      </trkpt>
      <trkpt lat="43.58481" lon="5.63834">
        <ele>460.39999389648</ele>
        <time>2013-03-12T11:59:02.000Z</time>
      </trkpt>
      <trkpt lat="43.58477" lon="5.63847">
        <ele>460.60000610352</ele>
        <time>2013-03-12T11:59:03.000Z</time>
      </trkpt>
      <trkpt lat="43.58477" lon="5.63861">
        <ele>460</ele>
        <time>2013-03-12T11:59:04.000Z</time>
      </trkpt>
      <trkpt lat="43.5848" lon="5.63874">
        <ele>459</ele>
        <time>2013-03-12T11:59:05.000Z</time>
      </trkpt>
      <trkpt lat="43.58484" lon="5.63888">
        <ele>457.79998779297</ele>
        <time>2013-03-12T11:59:06.000Z</time>
      </trkpt>
      <trkpt lat="43.58487" lon="5.63902">
        <ele>456.60000610352</ele>
        <time>2013-03-12T11:59:07.000Z</time>
      </trkpt>
      <trkpt lat="43.58489" lon="5.63915">
        <ele>455.79998779297</ele>
        <time>2013-03-12T11:59:08.000Z</time>
      </trkpt>
      <trkpt lat="43.58491" lon="5.63929">
        <ele>455</ele>
        <time>2013-03-12T11:59:09.000Z</time>
      </trkpt>
      <trkpt lat="43.58493" lon="5.63942">
        <ele>454.20001220703</ele>
        <time>2013-03-12T11:59:10.000Z</time>
      </trkpt>
      <trkpt lat="43.58511" lon="5.64007">
        <ele>451.60000610352</ele>
        <time>2013-03-12T11:59:15.000Z</time>
      </trkpt>
      <trkpt lat="43.58517" lon="5.64018">
        <ele>451.20001220703</ele>
        <time>2013-03-12T11:59:16.000Z</time>
      </trkpt>
      <trkpt lat="43.58524" lon="5.64028">
        <ele>450.79998779297</ele>
        <time>2013-03-12T11:59:17.000Z</time>
      </trkpt>
      <trkpt lat="43.58569" lon="5.64085">
        <ele>447.79998779297</ele>
        <time>2013-03-12T11:59:23.000Z</time>
      </trkpt>
      <trkpt lat="43.58577" lon="5.64092">
        <ele>447.39999389648</ele>
        <time>2013-03-12T11:59:24.000Z</time>
      </trkpt>
      <trkpt lat="43.58587" lon="5.64096">
        <ele>446.60000610352</ele>
        <time>2013-03-12T11:59:25.000Z</time>
      </trkpt>
      <trkpt lat="43.58597" lon="5.64096">
        <ele>445.20001220703</ele>
        <time>2013-03-12T11:59:26.000Z</time>
      </trkpt>
      <trkpt lat="43.58608" lon="5.64094">
        <ele>444</ele>
        <time>2013-03-12T11:59:27.000Z</time>
      </trkpt>
      <trkpt lat="43.58618" lon="5.6409">
        <ele>442.79998779297</ele>
        <time>2013-03-12T11:59:28.000Z</time>
      </trkpt>
      <trkpt lat="43.58626" lon="5.64083">
        <ele>441.79998779297</ele>
        <time>2013-03-12T11:59:29.000Z</time>
      </trkpt>
      <trkpt lat="43.58634" lon="5.64073">
        <ele>441.20001220703</ele>
        <time>2013-03-12T11:59:30.000Z</time>
      </trkpt>
      <trkpt lat="43.5864" lon="5.64061">
        <ele>440.79998779297</ele>
        <time>2013-03-12T11:59:31.000Z</time>
      </trkpt>
      <trkpt lat="43.58646" lon="5.64049">
        <ele>440.39999389648</ele>
        <time>2013-03-12T11:59:32.000Z</time>
      </trkpt>
      <trkpt lat="43.58651" lon="5.64035">
        <ele>440.20001220703</ele>
        <time>2013-03-12T11:59:33.000Z</time>
      </trkpt>
      <trkpt lat="43.58655" lon="5.64022">
        <ele>440</ele>
        <time>2013-03-12T11:59:34.000Z</time>
      </trkpt>
      <trkpt lat="43.58657" lon="5.64007">
        <ele>440.20001220703</ele>
        <time>2013-03-12T11:59:35.000Z</time>
      </trkpt>
      <trkpt lat="43.5866" lon="5.63962">
        <ele>439.39999389648</ele>
        <time>2013-03-12T11:59:38.000Z</time>
      </trkpt>
      <trkpt lat="43.58665" lon="5.63889">
        <ele>438.39999389648</ele>
        <time>2013-03-12T11:59:43.000Z</time>
      </trkpt>
      <trkpt lat="43.58669" lon="5.63877">
        <ele>438.39999389648</ele>
        <time>2013-03-12T11:59:44.000Z</time>
      </trkpt>
      <trkpt lat="43.58677" lon="5.6387">
        <ele>438.39999389648</ele>
        <time>2013-03-12T11:59:45.000Z</time>
      </trkpt>
      <trkpt lat="43.58686" lon="5.63869">
        <ele>438.60000610352</ele>
        <time>2013-03-12T11:59:46.000Z</time>
      </trkpt>
      <trkpt lat="43.58696" lon="5.63874">
        <ele>438.39999389648</ele>
        <time>2013-03-12T11:59:47.000Z</time>
      </trkpt>
      <trkpt lat="43.58704" lon="5.63883">
        <ele>438</ele>
        <time>2013-03-12T11:59:48.000Z</time>
      </trkpt>
      <trkpt lat="43.5871" lon="5.63894">
        <ele>437.39999389648</ele>
        <time>2013-03-12T11:59:49.000Z</time>
      </trkpt>
      <trkpt lat="43.58716" lon="5.63907">
        <ele>436.60000610352</ele>
        <time>2013-03-12T11:59:50.000Z</time>
      </trkpt>
      <trkpt lat="43.58719" lon="5.6392">
        <ele>435.79998779297</ele>
        <time>2013-03-12T11:59:51.000Z</time>
      </trkpt>
      <trkpt lat="43.5872" lon="5.63933">
        <ele>435</ele>
        <time>2013-03-12T11:59:52.000Z</time>
      </trkpt>
      <trkpt lat="43.5872" lon="5.63947">
        <ele>434.20001220703</ele>
        <time>2013-03-12T11:59:53.000Z</time>
      </trkpt>
      <trkpt lat="43.5872" lon="5.63961">
        <ele>433.39999389648</ele>
        <time>2013-03-12T11:59:54.000Z</time>
      </trkpt>
      <trkpt lat="43.58719" lon="5.63974">
        <ele>432.79998779297</ele>
        <time>2013-03-12T11:59:55.000Z</time>
      </trkpt>
      <trkpt lat="43.58721" lon="5.63988">
        <ele>431.79998779297</ele>
        <time>2013-03-12T11:59:56.000Z</time>
      </trkpt>
      <trkpt lat="43.58726" lon="5.64">
        <ele>430.39999389648</ele>
        <time>2013-03-12T11:59:57.000Z</time>
      </trkpt>
      <trkpt lat="43.58733" lon="5.6401">
        <ele>428.79998779297</ele>
        <time>2013-03-12T11:59:58.000Z</time>
      </trkpt>
      <trkpt lat="43.58772" lon="5.6406">
        <ele>425.39999389648</ele>
        <time>2013-03-12T12:00:03.000Z</time>
      </trkpt>
      <trkpt lat="43.58779" lon="5.64071">
        <ele>425.20001220703</ele>
        <time>2013-03-12T12:00:04.000Z</time>
      </trkpt>
      <trkpt lat="43.58785" lon="5.64084">
        <ele>425</ele>
        <time>2013-03-12T12:00:05.000Z</time>
      </trkpt>
      <trkpt lat="43.5879" lon="5.64097">
        <ele>424.60000610352</ele>
        <time>2013-03-12T12:00:06.000Z</time>
      </trkpt>
      <trkpt lat="43.58793" lon="5.64111">
        <ele>424</ele>
        <time>2013-03-12T12:00:07.000Z</time>
      </trkpt>
      <trkpt lat="43.58796" lon="5.64126">
        <ele>423.20001220703</ele>
        <time>2013-03-12T12:00:08.000Z</time>
      </trkpt>
      <trkpt lat="43.588" lon="5.64139">
        <ele>422.39999389648</ele>
        <time>2013-03-12T12:00:09.000Z</time>
      </trkpt>
      <trkpt lat="43.58804" lon="5.64152">
        <ele>421.60000610352</ele>
        <time>2013-03-12T12:00:10.000Z</time>
      </trkpt>
      <trkpt lat="43.5881" lon="5.64165">
        <ele>420.60000610352</ele>
        <time>2013-03-12T12:00:11.000Z</time>
      </trkpt>
      <trkpt lat="43.58818" lon="5.64176">
        <ele>419.79998779297</ele>
        <time>2013-03-12T12:00:12.000Z</time>
      </trkpt>
      <trkpt lat="43.58826" lon="5.64186">
        <ele>418.79998779297</ele>
        <time>2013-03-12T12:00:13.000Z</time>
      </trkpt>
      <trkpt lat="43.58836" lon="5.64194">
        <ele>418</ele>
        <time>2013-03-12T12:00:14.000Z</time>
      </trkpt>
      <trkpt lat="43.58845" lon="5.64201">
        <ele>417.39999389648</ele>
        <time>2013-03-12T12:00:15.000Z</time>
      </trkpt>
      <trkpt lat="43.58874" lon="5.64222">
        <ele>415.60000610352</ele>
        <time>2013-03-12T12:00:18.000Z</time>
      </trkpt>
      <trkpt lat="43.58904" lon="5.64238">
        <ele>414</ele>
        <time>2013-03-12T12:00:21.000Z</time>
      </trkpt>
      <trkpt lat="43.58915" lon="5.6424">
        <ele>413.79998779297</ele>
        <time>2013-03-12T12:00:22.000Z</time>
      </trkpt>
      <trkpt lat="43.58925" lon="5.64242">
        <ele>412.79998779297</ele>
        <time>2013-03-12T12:00:23.000Z</time>
      </trkpt>
      <trkpt lat="43.58967" lon="5.64246">
        <ele>408.79998779297</ele>
        <time>2013-03-12T12:00:27.000Z</time>
      </trkpt>
      <trkpt lat="43.58977" lon="5.64244">
        <ele>408.20001220703</ele>
        <time>2013-03-12T12:00:28.000Z</time>
      </trkpt>
      <trkpt lat="43.58986" lon="5.64236">
        <ele>407.79998779297</ele>
        <time>2013-03-12T12:00:29.000Z</time>
      </trkpt>
      <trkpt lat="43.58991" lon="5.64225">
        <ele>407.60000610352</ele>
        <time>2013-03-12T12:00:30.000Z</time>
      </trkpt>
      <trkpt lat="43.58993" lon="5.64211">
        <ele>408</ele>
        <time>2013-03-12T12:00:31.000Z</time>
      </trkpt>
      <trkpt lat="43.58994" lon="5.64198">
        <ele>408.39999389648</ele>
        <time>2013-03-12T12:00:32.000Z</time>
      </trkpt>
      <trkpt lat="43.58997" lon="5.64186">
        <ele>408.60000610352</ele>
        <time>2013-03-12T12:00:33.000Z</time>
      </trkpt>
      <trkpt lat="43.59003" lon="5.64179">
        <ele>408.60000610352</ele>
        <time>2013-03-12T12:00:34.000Z</time>
      </trkpt>
      <trkpt lat="43.59009" lon="5.64177">
        <ele>408.79998779297</ele>
        <time>2013-03-12T12:00:35.000Z</time>
      </trkpt>
      <trkpt lat="43.59016" lon="5.64181">
        <ele>409</ele>
        <time>2013-03-12T12:00:36.000Z</time>
      </trkpt>
      <trkpt lat="43.59021" lon="5.64187">
        <ele>408.79998779297</ele>
        <time>2013-03-12T12:00:37.000Z</time>
      </trkpt>
      <trkpt lat="43.59026" lon="5.64195">
        <ele>408.60000610352</ele>
        <time>2013-03-12T12:00:38.000Z</time>
      </trkpt>
      <trkpt lat="43.59031" lon="5.64203">
        <ele>408.20001220703</ele>
        <time>2013-03-12T12:00:39.000Z</time>
      </trkpt>
      <trkpt lat="43.59036" lon="5.6421">
        <ele>408</ele>
        <time>2013-03-12T12:00:40.000Z</time>
      </trkpt>
      <trkpt lat="43.59042" lon="5.64217">
        <ele>407.60000610352</ele>
        <time>2013-03-12T12:00:41.000Z</time>
      </trkpt>
      <trkpt lat="43.59059" lon="5.64237">
        <ele>406.20001220703</ele>
        <time>2013-03-12T12:00:44.000Z</time>
      </trkpt>
      <trkpt lat="43.59077" lon="5.64264">
        <ele>404.39999389648</ele>
        <time>2013-03-12T12:00:49.000Z</time>
      </trkpt>
      <trkpt lat="43.5908" lon="5.64264">
        <ele>404.20001220703</ele>
        <time>2013-03-12T12:00:50.000Z</time>
      </trkpt>
      <trkpt lat="43.59083" lon="5.64263">
        <ele>404.20001220703</ele>
        <time>2013-03-12T12:00:51.000Z</time>
      </trkpt>
      <trkpt lat="43.59086" lon="5.64261">
        <ele>404.60000610352</ele>
        <time>2013-03-12T12:00:52.000Z</time>
      </trkpt>
      <trkpt lat="43.59087" lon="5.64258">
        <ele>404.79998779297</ele>
        <time>2013-03-12T12:00:59.000Z</time>
      </trkpt>
      <trkpt lat="43.5909" lon="5.64255">
        <ele>405.39999389648</ele>
        <time>2013-03-12T12:01:17.000Z</time>
      </trkpt>
      <trkpt lat="43.59097" lon="5.6425">
        <ele>406.20001220703</ele>
        <time>2013-03-12T12:01:25.000Z</time>
      </trkpt>
      <trkpt lat="43.59101" lon="5.64249">
        <ele>406.79998779297</ele>
        <time>2013-03-12T12:01:36.000Z</time>
      </trkpt>
      <trkpt lat="43.59101" lon="5.64249">
        <ele>406.79998779297</ele>
        <time>2013-03-12T12:01:37.000Z</time>
      </trkpt>
      <trkpt lat="43.59112" lon="5.64236">
        <ele>408.79998779297</ele>
        <time>2013-03-12T12:01:45.000Z</time>
      </trkpt>
      <trkpt lat="43.59139" lon="5.6422">
        <ele>412</ele>
        <time>2013-03-12T12:01:56.000Z</time>
      </trkpt>
      <trkpt lat="43.59149" lon="5.64213">
        <ele>413</ele>
        <time>2013-03-12T12:02:00.000Z</time>
      </trkpt>
      <trkpt lat="43.59169" lon="5.64202">
        <ele>414.60000610352</ele>
        <time>2013-03-12T12:02:09.000Z</time>
      </trkpt>
      <trkpt lat="43.59186" lon="5.64191">
        <ele>415.39999389648</ele>
        <time>2013-03-12T12:02:17.000Z</time>
      </trkpt>
      <trkpt lat="43.59196" lon="5.64184">
        <ele>415.79998779297</ele>
        <time>2013-03-12T12:02:22.000Z</time>
      </trkpt>
      <trkpt lat="43.59212" lon="5.64171">
        <ele>416.39999389648</ele>
        <time>2013-03-12T12:02:31.000Z</time>
      </trkpt>
      <trkpt lat="43.59224" lon="5.64147">
        <ele>418</ele>
        <time>2013-03-12T12:02:41.000Z</time>
      </trkpt>
      <trkpt lat="43.59239" lon="5.64124">
        <ele>419.20001220703</ele>
        <time>2013-03-12T12:02:51.000Z</time>
      </trkpt>
      <trkpt lat="43.59252" lon="5.64108">
        <ele>419.60000610352</ele>
        <time>2013-03-12T12:02:58.000Z</time>
      </trkpt>
      <trkpt lat="43.59252" lon="5.64104">
        <ele>419.79998779297</ele>
        <time>2013-03-12T12:02:59.000Z</time>
      </trkpt>
      <trkpt lat="43.59251" lon="5.64101">
        <ele>420</ele>
        <time>2013-03-12T12:03:00.000Z</time>
      </trkpt>
      <trkpt lat="43.5925" lon="5.64099">
        <ele>420.20001220703</ele>
        <time>2013-03-12T12:03:01.000Z</time>
      </trkpt>
      <trkpt lat="43.59249" lon="5.64096">
        <ele>420.39999389648</ele>
        <time>2013-03-12T12:03:02.000Z</time>
      </trkpt>
      <trkpt lat="43.59248" lon="5.64094">
        <ele>420.60000610352</ele>
        <time>2013-03-12T12:03:03.000Z</time>
      </trkpt>
      <trkpt lat="43.59228" lon="5.64068">
        <ele>423.39999389648</ele>
        <time>2013-03-12T12:03:15.000Z</time>
      </trkpt>
      <trkpt lat="43.59215" lon="5.64029">
        <ele>427.39999389648</ele>
        <time>2013-03-12T12:03:28.000Z</time>
      </trkpt>
      <trkpt lat="43.59196" lon="5.64008">
        <ele>430.79998779297</ele>
        <time>2013-03-12T12:03:39.000Z</time>
      </trkpt>
      <trkpt lat="43.59179" lon="5.63998">
        <ele>433</ele>
        <time>2013-03-12T12:03:48.000Z</time>
      </trkpt>
      <trkpt lat="43.59167" lon="5.63976">
        <ele>435.20001220703</ele>
        <time>2013-03-12T12:03:57.000Z</time>
      </trkpt>
      <trkpt lat="43.59163" lon="5.63965">
        <ele>435.79998779297</ele>
        <time>2013-03-12T12:04:01.000Z</time>
      </trkpt>
      <trkpt lat="43.59154" lon="5.63933">
        <ele>437</ele>
        <time>2013-03-12T12:04:12.000Z</time>
      </trkpt>
      <trkpt lat="43.59158" lon="5.63898">
        <ele>438.60000610352</ele>
        <time>2013-03-12T12:04:22.000Z</time>
      </trkpt>
      <trkpt lat="43.59162" lon="5.63852">
        <ele>440</ele>
        <time>2013-03-12T12:04:34.000Z</time>
      </trkpt>
      <trkpt lat="43.59182" lon="5.63823">
        <ele>441.20001220703</ele>
        <time>2013-03-12T12:04:45.000Z</time>
      </trkpt>
      <trkpt lat="43.592" lon="5.63797">
        <ele>442</ele>
        <time>2013-03-12T12:04:55.000Z</time>
      </trkpt>
      <trkpt lat="43.59211" lon="5.63753">
        <ele>443.79998779297</ele>
        <time>2013-03-12T12:05:07.000Z</time>
      </trkpt>
      <trkpt lat="43.59212" lon="5.63708">
        <ele>444.79998779297</ele>
        <time>2013-03-12T12:05:18.000Z</time>
      </trkpt>
      <trkpt lat="43.59205" lon="5.63675">
        <ele>446</ele>
        <time>2013-03-12T12:05:28.000Z</time>
      </trkpt>
      <trkpt lat="43.59191" lon="5.63649">
        <ele>447.20001220703</ele>
        <time>2013-03-12T12:05:39.000Z</time>
      </trkpt>
      <trkpt lat="43.5918" lon="5.63625">
        <ele>448.20001220703</ele>
        <time>2013-03-12T12:05:49.000Z</time>
      </trkpt>
      <trkpt lat="43.59174" lon="5.63617">
        <ele>448.79998779297</ele>
        <time>2013-03-12T12:05:53.000Z</time>
      </trkpt>
      <trkpt lat="43.59158" lon="5.63583">
        <ele>449.79998779297</ele>
        <time>2013-03-12T12:06:04.000Z</time>
      </trkpt>
      <trkpt lat="43.59147" lon="5.6357">
        <ele>450.39999389648</ele>
        <time>2013-03-12T12:06:08.000Z</time>
      </trkpt>
      <trkpt lat="43.59139" lon="5.63559">
        <ele>451.39999389648</ele>
        <time>2013-03-12T12:06:10.000Z</time>
      </trkpt>
      <trkpt lat="43.59135" lon="5.63553">
        <ele>452</ele>
        <time>2013-03-12T12:06:11.000Z</time>
      </trkpt>
      <trkpt lat="43.59132" lon="5.63546">
        <ele>452.79998779297</ele>
        <time>2013-03-12T12:06:12.000Z</time>
      </trkpt>
      <trkpt lat="43.59122" lon="5.63523">
        <ele>455.60000610352</ele>
        <time>2013-03-12T12:06:19.000Z</time>
      </trkpt>
      <trkpt lat="43.59117" lon="5.63515">
        <ele>456.79998779297</ele>
        <time>2013-03-12T12:06:23.000Z</time>
      </trkpt>
      <trkpt lat="43.59106" lon="5.63497">
        <ele>460.20001220703</ele>
        <time>2013-03-12T12:06:33.000Z</time>
      </trkpt>
      <trkpt lat="43.59102" lon="5.63489">
        <ele>461.79998779297</ele>
        <time>2013-03-12T12:06:37.000Z</time>
      </trkpt>
      <trkpt lat="43.59089" lon="5.63469">
        <ele>466.39999389648</ele>
        <time>2013-03-12T12:06:47.000Z</time>
      </trkpt>
      <trkpt lat="43.59071" lon="5.63442">
        <ele>472.39999389648</ele>
        <time>2013-03-12T12:07:01.000Z</time>
      </trkpt>
      <trkpt lat="43.59062" lon="5.63435">
        <ele>474</ele>
        <time>2013-03-12T12:07:07.000Z</time>
      </trkpt>
      <trkpt lat="43.59061" lon="5.63434">
        <ele>474.39999389648</ele>
        <time>2013-03-12T12:07:08.000Z</time>
      </trkpt>
      <trkpt lat="43.59059" lon="5.63433">
        <ele>474.60000610352</ele>
        <time>2013-03-12T12:07:09.000Z</time>
      </trkpt>
      <trkpt lat="43.59057" lon="5.63433">
        <ele>474.79998779297</ele>
        <time>2013-03-12T12:07:10.000Z</time>
      </trkpt>
      <trkpt lat="43.59055" lon="5.63432">
        <ele>475</ele>
        <time>2013-03-12T12:07:11.000Z</time>
      </trkpt>
      <trkpt lat="43.59038" lon="5.63432">
        <ele>476</ele>
        <time>2013-03-12T12:07:21.000Z</time>
      </trkpt>
      <trkpt lat="43.59017" lon="5.63434">
        <ele>477</ele>
        <time>2013-03-12T12:07:34.000Z</time>
      </trkpt>
      <trkpt lat="43.58999" lon="5.63439">
        <ele>477</ele>
        <time>2013-03-12T12:07:45.000Z</time>
      </trkpt>
      <trkpt lat="43.58986" lon="5.63437">
        <ele>476.79998779297</ele>
        <time>2013-03-12T12:07:55.000Z</time>
      </trkpt>
      <trkpt lat="43.58984" lon="5.63435">
        <ele>477</ele>
        <time>2013-03-12T12:07:56.000Z</time>
      </trkpt>
      <trkpt lat="43.58983" lon="5.63434">
        <ele>477.20001220703</ele>
        <time>2013-03-12T12:07:57.000Z</time>
      </trkpt>
      <trkpt lat="43.58982" lon="5.63432">
        <ele>477.39999389648</ele>
        <time>2013-03-12T12:07:58.000Z</time>
      </trkpt>
      <trkpt lat="43.58981" lon="5.63431">
        <ele>477.60000610352</ele>
        <time>2013-03-12T12:07:59.000Z</time>
      </trkpt>
      <trkpt lat="43.58981" lon="5.63429">
        <ele>478</ele>
        <time>2013-03-12T12:08:00.000Z</time>
      </trkpt>
      <trkpt lat="43.58977" lon="5.63413">
        <ele>480.79998779297</ele>
        <time>2013-03-12T12:08:09.000Z</time>
      </trkpt>
      <trkpt lat="43.58977" lon="5.63411">
        <ele>481</ele>
        <time>2013-03-12T12:08:10.000Z</time>
      </trkpt>
      <trkpt lat="43.58976" lon="5.63409">
        <ele>481.20001220703</ele>
        <time>2013-03-12T12:08:11.000Z</time>
      </trkpt>
      <trkpt lat="43.58975" lon="5.63403">
        <ele>482.20001220703</ele>
        <time>2013-03-12T12:08:15.000Z</time>
      </trkpt>
      <trkpt lat="43.58974" lon="5.63401">
        <ele>482.39999389648</ele>
        <time>2013-03-12T12:08:16.000Z</time>
      </trkpt>
      <trkpt lat="43.58973" lon="5.634">
        <ele>482.79998779297</ele>
        <time>2013-03-12T12:08:17.000Z</time>
      </trkpt>
      <trkpt lat="43.58973" lon="5.63398">
        <ele>483</ele>
        <time>2013-03-12T12:08:18.000Z</time>
      </trkpt>
      <trkpt lat="43.58971" lon="5.63397">
        <ele>483</ele>
        <time>2013-03-12T12:08:19.000Z</time>
      </trkpt>
      <trkpt lat="43.5897" lon="5.63396">
        <ele>483.20001220703</ele>
        <time>2013-03-12T12:08:20.000Z</time>
      </trkpt>
      <trkpt lat="43.58969" lon="5.63394">
        <ele>483.39999389648</ele>
        <time>2013-03-12T12:08:21.000Z</time>
      </trkpt>
      <trkpt lat="43.58969" lon="5.63393">
        <ele>483.79998779297</ele>
        <time>2013-03-12T12:08:22.000Z</time>
      </trkpt>
      <trkpt lat="43.58968" lon="5.6339">
        <ele>484.20001220703</ele>
        <time>2013-03-12T12:08:23.000Z</time>
      </trkpt>
      <trkpt lat="43.58968" lon="5.63388">
        <ele>484.39999389648</ele>
        <time>2013-03-12T12:08:24.000Z</time>
      </trkpt>
      <trkpt lat="43.58967" lon="5.63386">
        <ele>484.79998779297</ele>
        <time>2013-03-12T12:08:25.000Z</time>
      </trkpt>
      <trkpt lat="43.58966" lon="5.63384">
        <ele>485</ele>
        <time>2013-03-12T12:08:26.000Z</time>
      </trkpt>
      <trkpt lat="43.58965" lon="5.63383">
        <ele>485.20001220703</ele>
        <time>2013-03-12T12:08:27.000Z</time>
      </trkpt>
      <trkpt lat="43.58965" lon="5.63381">
        <ele>485.60000610352</ele>
        <time>2013-03-12T12:08:28.000Z</time>
      </trkpt>
      <trkpt lat="43.58963" lon="5.6338">
        <ele>485.79998779297</ele>
        <time>2013-03-12T12:08:29.000Z</time>
      </trkpt>
      <trkpt lat="43.58955" lon="5.63363">
        <ele>488.39999389648</ele>
        <time>2013-03-12T12:08:39.000Z</time>
      </trkpt>
      <trkpt lat="43.58955" lon="5.63358">
        <ele>489.20001220703</ele>
        <time>2013-03-12T12:08:41.000Z</time>
      </trkpt>
      <trkpt lat="43.58966" lon="5.63355">
        <ele>490</ele>
        <time>2013-03-12T12:08:50.000Z</time>
      </trkpt>
      <trkpt lat="43.5898" lon="5.63344">
        <ele>491.79998779297</ele>
        <time>2013-03-12T12:09:01.000Z</time>
      </trkpt>
      <trkpt lat="43.58981" lon="5.6334">
        <ele>492.60000610352</ele>
        <time>2013-03-12T12:09:03.000Z</time>
      </trkpt>
      <trkpt lat="43.58983" lon="5.63328">
        <ele>494.20001220703</ele>
        <time>2013-03-12T12:09:09.000Z</time>
      </trkpt>
      <trkpt lat="43.58976" lon="5.63323">
        <ele>494.79998779297</ele>
        <time>2013-03-12T12:09:15.000Z</time>
      </trkpt>
      <trkpt lat="43.58959" lon="5.63327">
        <ele>494.20001220703</ele>
        <time>2013-03-12T12:09:25.000Z</time>
      </trkpt>
      <trkpt lat="43.58961" lon="5.63308">
        <ele>496.60000610352</ele>
        <time>2013-03-12T12:09:35.000Z</time>
      </trkpt>
      <trkpt lat="43.58964" lon="5.63306">
        <ele>496.79998779297</ele>
        <time>2013-03-12T12:09:37.000Z</time>
      </trkpt>
      <trkpt lat="43.58979" lon="5.63284">
        <ele>498.79998779297</ele>
        <time>2013-03-12T12:09:49.000Z</time>
      </trkpt>
      <trkpt lat="43.58984" lon="5.63256">
        <ele>501.39999389648</ele>
        <time>2013-03-12T12:10:01.000Z</time>
      </trkpt>
      <trkpt lat="43.58984" lon="5.63249">
        <ele>502</ele>
        <time>2013-03-12T12:10:04.000Z</time>
      </trkpt>
      <trkpt lat="43.58983" lon="5.63247">
        <ele>502.20001220703</ele>
        <time>2013-03-12T12:10:05.000Z</time>
      </trkpt>
      <trkpt lat="43.58982" lon="5.63245">
        <ele>502.20001220703</ele>
        <time>2013-03-12T12:10:06.000Z</time>
      </trkpt>
      <trkpt lat="43.58981" lon="5.63243">
        <ele>502.39999389648</ele>
        <time>2013-03-12T12:10:07.000Z</time>
      </trkpt>
      <trkpt lat="43.58979" lon="5.63242">
        <ele>502.60000610352</ele>
        <time>2013-03-12T12:10:08.000Z</time>
      </trkpt>
      <trkpt lat="43.58966" lon="5.63228">
        <ele>504.20001220703</ele>
        <time>2013-03-12T12:10:18.000Z</time>
      </trkpt>
      <trkpt lat="43.58951" lon="5.63212">
        <ele>506.60000610352</ele>
        <time>2013-03-12T12:10:30.000Z</time>
      </trkpt>
      <trkpt lat="43.5895" lon="5.63211">
        <ele>506.79998779297</ele>
        <time>2013-03-12T12:10:31.000Z</time>
      </trkpt>
      <trkpt lat="43.58949" lon="5.63209">
        <ele>507</ele>
        <time>2013-03-12T12:10:32.000Z</time>
      </trkpt>
      <trkpt lat="43.58949" lon="5.63207">
        <ele>507.20001220703</ele>
        <time>2013-03-12T12:10:33.000Z</time>
      </trkpt>
      <trkpt lat="43.58948" lon="5.63206">
        <ele>507.39999389648</ele>
        <time>2013-03-12T12:10:34.000Z</time>
      </trkpt>
      <trkpt lat="43.58947" lon="5.63204">
        <ele>507.60000610352</ele>
        <time>2013-03-12T12:10:35.000Z</time>
      </trkpt>
      <trkpt lat="43.58946" lon="5.63202">
        <ele>507.79998779297</ele>
        <time>2013-03-12T12:10:36.000Z</time>
      </trkpt>
      <trkpt lat="43.58945" lon="5.632">
        <ele>508</ele>
        <time>2013-03-12T12:10:37.000Z</time>
      </trkpt>
      <trkpt lat="43.58945" lon="5.63198">
        <ele>508.20001220703</ele>
        <time>2013-03-12T12:10:38.000Z</time>
      </trkpt>
      <trkpt lat="43.58943" lon="5.63193">
        <ele>508.79998779297</ele>
        <time>2013-03-12T12:10:41.000Z</time>
      </trkpt>
      <trkpt lat="43.58942" lon="5.63192">
        <ele>509</ele>
        <time>2013-03-12T12:10:42.000Z</time>
      </trkpt>
      <trkpt lat="43.58941" lon="5.6319">
        <ele>509.20001220703</ele>
        <time>2013-03-12T12:10:43.000Z</time>
      </trkpt>
      <trkpt lat="43.5894" lon="5.63188">
        <ele>509.39999389648</ele>
        <time>2013-03-12T12:10:44.000Z</time>
      </trkpt>
      <trkpt lat="43.5894" lon="5.63186">
        <ele>509.60000610352</ele>
        <time>2013-03-12T12:10:45.000Z</time>
      </trkpt>
      <trkpt lat="43.58939" lon="5.63184">
        <ele>510</ele>
        <time>2013-03-12T12:10:46.000Z</time>
      </trkpt>
      <trkpt lat="43.58938" lon="5.63183">
        <ele>510.20001220703</ele>
        <time>2013-03-12T12:10:47.000Z</time>
      </trkpt>
      <trkpt lat="43.58937" lon="5.63181">
        <ele>510.39999389648</ele>
        <time>2013-03-12T12:10:48.000Z</time>
      </trkpt>
      <trkpt lat="43.58937" lon="5.63179">
        <ele>510.60000610352</ele>
        <time>2013-03-12T12:10:49.000Z</time>
      </trkpt>
      <trkpt lat="43.58934" lon="5.63175">
        <ele>511.20001220703</ele>
        <time>2013-03-12T12:10:52.000Z</time>
      </trkpt>
      <trkpt lat="43.58933" lon="5.63174">
        <ele>511.60000610352</ele>
        <time>2013-03-12T12:10:53.000Z</time>
      </trkpt>
      <trkpt lat="43.58925" lon="5.63151">
        <ele>514.20001220703</ele>
        <time>2013-03-12T12:11:05.000Z</time>
      </trkpt>
      <trkpt lat="43.58921" lon="5.63142">
        <ele>515.59997558594</ele>
        <time>2013-03-12T12:11:10.000Z</time>
      </trkpt>
      <trkpt lat="43.5892" lon="5.6314">
        <ele>516</ele>
        <time>2013-03-12T12:11:11.000Z</time>
      </trkpt>
      <trkpt lat="43.58919" lon="5.63139">
        <ele>516.20001220703</ele>
        <time>2013-03-12T12:11:12.000Z</time>
      </trkpt>
      <trkpt lat="43.58907" lon="5.63119">
        <ele>517.20001220703</ele>
        <time>2013-03-12T12:11:24.000Z</time>
      </trkpt>
      <trkpt lat="43.58897" lon="5.631">
        <ele>518.59997558594</ele>
        <time>2013-03-12T12:11:34.000Z</time>
      </trkpt>
      <trkpt lat="43.58882" lon="5.63065">
        <ele>521.20001220703</ele>
        <time>2013-03-12T12:11:50.000Z</time>
      </trkpt>
      <trkpt lat="43.58875" lon="5.63045">
        <ele>522.79998779297</ele>
        <time>2013-03-12T12:12:00.000Z</time>
      </trkpt>
      <trkpt lat="43.58865" lon="5.6302">
        <ele>525.59997558594</ele>
        <time>2013-03-12T12:12:10.000Z</time>
      </trkpt>
      <trkpt lat="43.58853" lon="5.6299">
        <ele>528.59997558594</ele>
        <time>2013-03-12T12:12:24.000Z</time>
      </trkpt>
      <trkpt lat="43.58838" lon="5.62965">
        <ele>530.59997558594</ele>
        <time>2013-03-12T12:12:38.000Z</time>
      </trkpt>
      <trkpt lat="43.58826" lon="5.62947">
        <ele>531</ele>
        <time>2013-03-12T12:12:48.000Z</time>
      </trkpt>
      <trkpt lat="43.58812" lon="5.62927">
        <ele>530.79998779297</ele>
        <time>2013-03-12T12:12:59.000Z</time>
      </trkpt>
      <trkpt lat="43.58797" lon="5.62904">
        <ele>531.20001220703</ele>
        <time>2013-03-12T12:13:11.000Z</time>
      </trkpt>
      <trkpt lat="43.58778" lon="5.62874">
        <ele>533.40002441406</ele>
        <time>2013-03-12T12:13:26.000Z</time>
      </trkpt>
      <trkpt lat="43.58763" lon="5.62843">
        <ele>537</ele>
        <time>2013-03-12T12:13:38.000Z</time>
      </trkpt>
      <trkpt lat="43.58749" lon="5.62803">
        <ele>540.79998779297</ele>
        <time>2013-03-12T12:13:51.000Z</time>
      </trkpt>
      <trkpt lat="43.58741" lon="5.62776">
        <ele>540.20001220703</ele>
        <time>2013-03-12T12:14:01.000Z</time>
      </trkpt>
      <trkpt lat="43.58734" lon="5.62746">
        <ele>541.20001220703</ele>
        <time>2013-03-12T12:14:13.000Z</time>
      </trkpt>
      <trkpt lat="43.58727" lon="5.62712">
        <ele>544.20001220703</ele>
        <time>2013-03-12T12:14:26.000Z</time>
      </trkpt>
      <trkpt lat="43.5872" lon="5.62682">
        <ele>546.79998779297</ele>
        <time>2013-03-12T12:14:38.000Z</time>
      </trkpt>
      <trkpt lat="43.58718" lon="5.62648">
        <ele>550.20001220703</ele>
        <time>2013-03-12T12:14:52.000Z</time>
      </trkpt>
      <trkpt lat="43.58715" lon="5.62626">
        <ele>552</ele>
        <time>2013-03-12T12:15:01.000Z</time>
      </trkpt>
      <trkpt lat="43.58714" lon="5.62624">
        <ele>552.20001220703</ele>
        <time>2013-03-12T12:15:02.000Z</time>
      </trkpt>
      <trkpt lat="43.58714" lon="5.62622">
        <ele>552.40002441406</ele>
        <time>2013-03-12T12:15:03.000Z</time>
      </trkpt>
      <trkpt lat="43.58713" lon="5.6262">
        <ele>552.59997558594</ele>
        <time>2013-03-12T12:15:04.000Z</time>
      </trkpt>
      <trkpt lat="43.58713" lon="5.62618">
        <ele>552.79998779297</ele>
        <time>2013-03-12T12:15:05.000Z</time>
      </trkpt>
      <trkpt lat="43.58713" lon="5.62616">
        <ele>553</ele>
        <time>2013-03-12T12:15:06.000Z</time>
      </trkpt>
      <trkpt lat="43.58711" lon="5.62587">
        <ele>555.79998779297</ele>
        <time>2013-03-12T12:15:19.000Z</time>
      </trkpt>
      <trkpt lat="43.5871" lon="5.62567">
        <ele>558</ele>
        <time>2013-03-12T12:15:28.000Z</time>
      </trkpt>
      <trkpt lat="43.5871" lon="5.62566">
        <ele>558.20001220703</ele>
        <time>2013-03-12T12:15:29.000Z</time>
      </trkpt>
      <trkpt lat="43.5871" lon="5.62564">
        <ele>558.40002441406</ele>
        <time>2013-03-12T12:15:30.000Z</time>
      </trkpt>
      <trkpt lat="43.5871" lon="5.62562">
        <ele>558.59997558594</ele>
        <time>2013-03-12T12:15:31.000Z</time>
      </trkpt>
      <trkpt lat="43.5871" lon="5.62559">
        <ele>558.79998779297</ele>
        <time>2013-03-12T12:15:32.000Z</time>
      </trkpt>
      <trkpt lat="43.5871" lon="5.62557">
        <ele>559.20001220703</ele>
        <time>2013-03-12T12:15:33.000Z</time>
      </trkpt>
      <trkpt lat="43.5871" lon="5.62555">
        <ele>559.40002441406</ele>
        <time>2013-03-12T12:15:34.000Z</time>
      </trkpt>
      <trkpt lat="43.5871" lon="5.62553">
        <ele>559.59997558594</ele>
        <time>2013-03-12T12:15:35.000Z</time>
      </trkpt>
      <trkpt lat="43.5871" lon="5.62532">
        <ele>562</ele>
        <time>2013-03-12T12:15:46.000Z</time>
      </trkpt>
      <trkpt lat="43.5871" lon="5.62529">
        <ele>562.59997558594</ele>
        <time>2013-03-12T12:15:48.000Z</time>
      </trkpt>
      <trkpt lat="43.58713" lon="5.62518">
        <ele>563.79998779297</ele>
        <time>2013-03-12T12:15:53.000Z</time>
      </trkpt>
      <trkpt lat="43.58713" lon="5.62516">
        <ele>564</ele>
        <time>2013-03-12T12:15:54.000Z</time>
      </trkpt>
      <trkpt lat="43.58713" lon="5.62514">
        <ele>564.40002441406</ele>
        <time>2013-03-12T12:15:55.000Z</time>
      </trkpt>
      <trkpt lat="43.58714" lon="5.62512">
        <ele>564.59997558594</ele>
        <time>2013-03-12T12:15:56.000Z</time>
      </trkpt>
      <trkpt lat="43.58714" lon="5.6251">
        <ele>564.79998779297</ele>
        <time>2013-03-12T12:15:57.000Z</time>
      </trkpt>
      <trkpt lat="43.58714" lon="5.62508">
        <ele>565.20001220703</ele>
        <time>2013-03-12T12:15:58.000Z</time>
      </trkpt>
      <trkpt lat="43.58718" lon="5.62484">
        <ele>568.20001220703</ele>
        <time>2013-03-12T12:16:10.000Z</time>
      </trkpt>
      <trkpt lat="43.58719" lon="5.62476">
        <ele>569.20001220703</ele>
        <time>2013-03-12T12:16:14.000Z</time>
      </trkpt>
      <trkpt lat="43.5872" lon="5.62474">
        <ele>569.40002441406</ele>
        <time>2013-03-12T12:16:15.000Z</time>
      </trkpt>
      <trkpt lat="43.5872" lon="5.62472">
        <ele>569.79998779297</ele>
        <time>2013-03-12T12:16:16.000Z</time>
      </trkpt>
      <trkpt lat="43.5872" lon="5.6247">
        <ele>570</ele>
        <time>2013-03-12T12:16:17.000Z</time>
      </trkpt>
      <trkpt lat="43.58721" lon="5.62468">
        <ele>570.20001220703</ele>
        <time>2013-03-12T12:16:18.000Z</time>
      </trkpt>
      <trkpt lat="43.58721" lon="5.62466">
        <ele>570.59997558594</ele>
        <time>2013-03-12T12:16:19.000Z</time>
      </trkpt>
      <trkpt lat="43.58721" lon="5.62464">
        <ele>570.79998779297</ele>
        <time>2013-03-12T12:16:20.000Z</time>
      </trkpt>
      <trkpt lat="43.58722" lon="5.62463">
        <ele>571</ele>
        <time>2013-03-12T12:16:21.000Z</time>
      </trkpt>
      <trkpt lat="43.58722" lon="5.62461">
        <ele>571.20001220703</ele>
        <time>2013-03-12T12:16:22.000Z</time>
      </trkpt>
      <trkpt lat="43.58723" lon="5.62459">
        <ele>571.59997558594</ele>
        <time>2013-03-12T12:16:23.000Z</time>
      </trkpt>
      <trkpt lat="43.58723" lon="5.62457">
        <ele>571.79998779297</ele>
        <time>2013-03-12T12:16:24.000Z</time>
      </trkpt>
      <trkpt lat="43.58729" lon="5.62433">
        <ele>574.79998779297</ele>
        <time>2013-03-12T12:16:36.000Z</time>
      </trkpt>
      <trkpt lat="43.58735" lon="5.62407">
        <ele>578.40002441406</ele>
        <time>2013-03-12T12:16:49.000Z</time>
      </trkpt>
      <trkpt lat="43.58743" lon="5.62381">
        <ele>582.40002441406</ele>
        <time>2013-03-12T12:17:02.000Z</time>
      </trkpt>
      <trkpt lat="43.58747" lon="5.62361">
        <ele>585.59997558594</ele>
        <time>2013-03-12T12:17:12.000Z</time>
      </trkpt>
      <trkpt lat="43.58753" lon="5.62336">
        <ele>588.79998779297</ele>
        <time>2013-03-12T12:17:24.000Z</time>
      </trkpt>
      <trkpt lat="43.58754" lon="5.62327">
        <ele>589.79998779297</ele>
        <time>2013-03-12T12:17:29.000Z</time>
      </trkpt>
      <trkpt lat="43.58755" lon="5.62324">
        <ele>590</ele>
        <time>2013-03-12T12:17:30.000Z</time>
      </trkpt>
      <trkpt lat="43.58755" lon="5.62322">
        <ele>590.20001220703</ele>
        <time>2013-03-12T12:17:31.000Z</time>
      </trkpt>
      <trkpt lat="43.58756" lon="5.6232">
        <ele>590.59997558594</ele>
        <time>2013-03-12T12:17:32.000Z</time>
      </trkpt>
      <trkpt lat="43.58756" lon="5.62318">
        <ele>590.79998779297</ele>
        <time>2013-03-12T12:17:33.000Z</time>
      </trkpt>
      <trkpt lat="43.58756" lon="5.62316">
        <ele>591</ele>
        <time>2013-03-12T12:17:34.000Z</time>
      </trkpt>
      <trkpt lat="43.58757" lon="5.62314">
        <ele>591.20001220703</ele>
        <time>2013-03-12T12:17:35.000Z</time>
      </trkpt>
      <trkpt lat="43.58757" lon="5.62312">
        <ele>591.40002441406</ele>
        <time>2013-03-12T12:17:36.000Z</time>
      </trkpt>
      <trkpt lat="43.58758" lon="5.6231">
        <ele>591.59997558594</ele>
        <time>2013-03-12T12:17:37.000Z</time>
      </trkpt>
      <trkpt lat="43.58758" lon="5.62308">
        <ele>592</ele>
        <time>2013-03-12T12:17:38.000Z</time>
      </trkpt>
      <trkpt lat="43.58759" lon="5.62297">
        <ele>593.40002441406</ele>
        <time>2013-03-12T12:17:43.000Z</time>
      </trkpt>
      <trkpt lat="43.58759" lon="5.62295">
        <ele>593.59997558594</ele>
        <time>2013-03-12T12:17:44.000Z</time>
      </trkpt>
      <trkpt lat="43.5876" lon="5.62293">
        <ele>594</ele>
        <time>2013-03-12T12:17:45.000Z</time>
      </trkpt>
      <trkpt lat="43.5876" lon="5.62291">
        <ele>594.20001220703</ele>
        <time>2013-03-12T12:17:46.000Z</time>
      </trkpt>
      <trkpt lat="43.58761" lon="5.62288">
        <ele>594.40002441406</ele>
        <time>2013-03-12T12:17:47.000Z</time>
      </trkpt>
      <trkpt lat="43.58761" lon="5.62286">
        <ele>594.59997558594</ele>
        <time>2013-03-12T12:17:48.000Z</time>
      </trkpt>
      <trkpt lat="43.58761" lon="5.62284">
        <ele>595</ele>
        <time>2013-03-12T12:17:49.000Z</time>
      </trkpt>
      <trkpt lat="43.58762" lon="5.62282">
        <ele>595.20001220703</ele>
        <time>2013-03-12T12:17:50.000Z</time>
      </trkpt>
      <trkpt lat="43.58762" lon="5.6228">
        <ele>595.40002441406</ele>
        <time>2013-03-12T12:17:51.000Z</time>
      </trkpt>
      <trkpt lat="43.58762" lon="5.62278">
        <ele>595.79998779297</ele>
        <time>2013-03-12T12:17:52.000Z</time>
      </trkpt>
      <trkpt lat="43.58762" lon="5.62276">
        <ele>596</ele>
        <time>2013-03-12T12:17:53.000Z</time>
      </trkpt>
      <trkpt lat="43.58763" lon="5.62274">
        <ele>596.40002441406</ele>
        <time>2013-03-12T12:17:54.000Z</time>
      </trkpt>
      <trkpt lat="43.58763" lon="5.62272">
        <ele>596.59997558594</ele>
        <time>2013-03-12T12:17:55.000Z</time>
      </trkpt>
      <trkpt lat="43.58763" lon="5.6227">
        <ele>596.79998779297</ele>
        <time>2013-03-12T12:17:56.000Z</time>
      </trkpt>
      <trkpt lat="43.58764" lon="5.62268">
        <ele>597.20001220703</ele>
        <time>2013-03-12T12:17:57.000Z</time>
      </trkpt>
      <trkpt lat="43.58764" lon="5.62266">
        <ele>597.40002441406</ele>
        <time>2013-03-12T12:17:58.000Z</time>
      </trkpt>
      <trkpt lat="43.58764" lon="5.62264">
        <ele>597.79998779297</ele>
        <time>2013-03-12T12:17:59.000Z</time>
      </trkpt>
      <trkpt lat="43.58764" lon="5.62262">
        <ele>598.20001220703</ele>
        <time>2013-03-12T12:18:00.000Z</time>
      </trkpt>
      <trkpt lat="43.58764" lon="5.6226">
        <ele>598.40002441406</ele>
        <time>2013-03-12T12:18:01.000Z</time>
      </trkpt>
      <trkpt lat="43.58764" lon="5.62258">
        <ele>598.59997558594</ele>
        <time>2013-03-12T12:18:02.000Z</time>
      </trkpt>
      <trkpt lat="43.58765" lon="5.62256">
        <ele>599</ele>
        <time>2013-03-12T12:18:03.000Z</time>
      </trkpt>
      <trkpt lat="43.58765" lon="5.62253">
        <ele>599.40002441406</ele>
        <time>2013-03-12T12:18:04.000Z</time>
      </trkpt>
      <trkpt lat="43.58765" lon="5.62251">
        <ele>599.59997558594</ele>
        <time>2013-03-12T12:18:05.000Z</time>
      </trkpt>
      <trkpt lat="43.58765" lon="5.62249">
        <ele>599.79998779297</ele>
        <time>2013-03-12T12:18:06.000Z</time>
      </trkpt>
      <trkpt lat="43.58765" lon="5.62247">
        <ele>600</ele>
        <time>2013-03-12T12:18:07.000Z</time>
      </trkpt>
      <trkpt lat="43.58769" lon="5.62221">
        <ele>602.40002441406</ele>
        <time>2013-03-12T12:18:19.000Z</time>
      </trkpt>
      <trkpt lat="43.5877" lon="5.62219">
        <ele>602.40002441406</ele>
        <time>2013-03-12T12:18:20.000Z</time>
      </trkpt>
      <trkpt lat="43.58771" lon="5.62216">
        <ele>602.59997558594</ele>
        <time>2013-03-12T12:18:21.000Z</time>
      </trkpt>
      <trkpt lat="43.58771" lon="5.62214">
        <ele>602.79998779297</ele>
        <time>2013-03-12T12:18:22.000Z</time>
      </trkpt>
      <trkpt lat="43.58772" lon="5.62212">
        <ele>602.79998779297</ele>
        <time>2013-03-12T12:18:23.000Z</time>
      </trkpt>
      <trkpt lat="43.58772" lon="5.6221">
        <ele>603</ele>
        <time>2013-03-12T12:18:24.000Z</time>
      </trkpt>
      <trkpt lat="43.58773" lon="5.62208">
        <ele>603.20001220703</ele>
        <time>2013-03-12T12:18:25.000Z</time>
      </trkpt>
      <trkpt lat="43.58773" lon="5.62206">
        <ele>603.40002441406</ele>
        <time>2013-03-12T12:18:26.000Z</time>
      </trkpt>
      <trkpt lat="43.58773" lon="5.62204">
        <ele>603.59997558594</ele>
        <time>2013-03-12T12:18:27.000Z</time>
      </trkpt>
      <trkpt lat="43.58774" lon="5.62202">
        <ele>603.79998779297</ele>
        <time>2013-03-12T12:18:28.000Z</time>
      </trkpt>
      <trkpt lat="43.58774" lon="5.622">
        <ele>604</ele>
        <time>2013-03-12T12:18:29.000Z</time>
      </trkpt>
      <trkpt lat="43.58775" lon="5.62198">
        <ele>604.20001220703</ele>
        <time>2013-03-12T12:18:30.000Z</time>
      </trkpt>
      <trkpt lat="43.5878" lon="5.62173">
        <ele>606.40002441406</ele>
        <time>2013-03-12T12:18:42.000Z</time>
      </trkpt>
      <trkpt lat="43.58784" lon="5.62153">
        <ele>609.20001220703</ele>
        <time>2013-03-12T12:18:51.000Z</time>
      </trkpt>
      <trkpt lat="43.58784" lon="5.62151">
        <ele>609.40002441406</ele>
        <time>2013-03-12T12:18:52.000Z</time>
      </trkpt>
      <trkpt lat="43.58787" lon="5.62124">
        <ele>614</ele>
        <time>2013-03-12T12:19:04.000Z</time>
      </trkpt>
      <trkpt lat="43.58789" lon="5.62118">
        <ele>615.20001220703</ele>
        <time>2013-03-12T12:19:07.000Z</time>
      </trkpt>
      <trkpt lat="43.58789" lon="5.62116">
        <ele>615.59997558594</ele>
        <time>2013-03-12T12:19:08.000Z</time>
      </trkpt>
      <trkpt lat="43.5879" lon="5.62114">
        <ele>616</ele>
        <time>2013-03-12T12:19:09.000Z</time>
      </trkpt>
      <trkpt lat="43.58791" lon="5.62112">
        <ele>616.40002441406</ele>
        <time>2013-03-12T12:19:10.000Z</time>
      </trkpt>
      <trkpt lat="43.58791" lon="5.6211">
        <ele>616.79998779297</ele>
        <time>2013-03-12T12:19:11.000Z</time>
      </trkpt>
      <trkpt lat="43.58792" lon="5.62108">
        <ele>617.20001220703</ele>
        <time>2013-03-12T12:19:12.000Z</time>
      </trkpt>
      <trkpt lat="43.58793" lon="5.62106">
        <ele>617.59997558594</ele>
        <time>2013-03-12T12:19:13.000Z</time>
      </trkpt>
      <trkpt lat="43.58794" lon="5.62104">
        <ele>618</ele>
        <time>2013-03-12T12:19:14.000Z</time>
      </trkpt>
      <trkpt lat="43.58795" lon="5.621">
        <ele>619</ele>
        <time>2013-03-12T12:19:16.000Z</time>
      </trkpt>
      <trkpt lat="43.58794" lon="5.62098">
        <ele>619.40002441406</ele>
        <time>2013-03-12T12:19:17.000Z</time>
      </trkpt>
      <trkpt lat="43.58791" lon="5.62091">
        <ele>620.20001220703</ele>
        <time>2013-03-12T12:19:21.000Z</time>
      </trkpt>
      <trkpt lat="43.58789" lon="5.62091">
        <ele>620.20001220703</ele>
        <time>2013-03-12T12:19:22.000Z</time>
      </trkpt>
      <trkpt lat="43.58788" lon="5.62092">
        <ele>619.79998779297</ele>
        <time>2013-03-12T12:19:23.000Z</time>
      </trkpt>
      <trkpt lat="43.58786" lon="5.62093">
        <ele>619.40002441406</ele>
        <time>2013-03-12T12:19:24.000Z</time>
      </trkpt>
      <trkpt lat="43.58785" lon="5.62095">
        <ele>619</ele>
        <time>2013-03-12T12:19:25.000Z</time>
      </trkpt>
      <trkpt lat="43.58784" lon="5.62097">
        <ele>618.59997558594</ele>
        <time>2013-03-12T12:19:26.000Z</time>
      </trkpt>
      <trkpt lat="43.58783" lon="5.62098">
        <ele>618.40002441406</ele>
        <time>2013-03-12T12:19:27.000Z</time>
      </trkpt>
      <trkpt lat="43.58782" lon="5.62099">
        <ele>618.20001220703</ele>
        <time>2013-03-12T12:19:28.000Z</time>
      </trkpt>
      <trkpt lat="43.58781" lon="5.62101">
        <ele>617.79998779297</ele>
        <time>2013-03-12T12:19:29.000Z</time>
      </trkpt>
      <trkpt lat="43.5878" lon="5.62104">
        <ele>617.40002441406</ele>
        <time>2013-03-12T12:19:30.000Z</time>
      </trkpt>
      <trkpt lat="43.58779" lon="5.62106">
        <ele>616.79998779297</ele>
        <time>2013-03-12T12:19:31.000Z</time>
      </trkpt>
      <trkpt lat="43.58779" lon="5.62108">
        <ele>616.40002441406</ele>
        <time>2013-03-12T12:19:32.000Z</time>
      </trkpt>
      <trkpt lat="43.58779" lon="5.62111">
        <ele>616.20001220703</ele>
        <time>2013-03-12T12:19:33.000Z</time>
      </trkpt>
      <trkpt lat="43.58774" lon="5.6212">
        <ele>614.59997558594</ele>
        <time>2013-03-12T12:19:38.000Z</time>
      </trkpt>
      <trkpt lat="43.58772" lon="5.6212">
        <ele>614.59997558594</ele>
        <time>2013-03-12T12:19:39.000Z</time>
      </trkpt>
      <trkpt lat="43.5877" lon="5.62119">
        <ele>614.59997558594</ele>
        <time>2013-03-12T12:19:40.000Z</time>
      </trkpt>
      <trkpt lat="43.58768" lon="5.62118">
        <ele>614.79998779297</ele>
        <time>2013-03-12T12:19:41.000Z</time>
      </trkpt>
      <trkpt lat="43.58767" lon="5.62117">
        <ele>615</ele>
        <time>2013-03-12T12:19:42.000Z</time>
      </trkpt>
      <trkpt lat="43.58767" lon="5.62114">
        <ele>615.20001220703</ele>
        <time>2013-03-12T12:19:43.000Z</time>
      </trkpt>
      <trkpt lat="43.58767" lon="5.62112">
        <ele>615.40002441406</ele>
        <time>2013-03-12T12:19:44.000Z</time>
      </trkpt>
      <trkpt lat="43.58767" lon="5.6211">
        <ele>615.79998779297</ele>
        <time>2013-03-12T12:19:45.000Z</time>
      </trkpt>
      <trkpt lat="43.5877" lon="5.62087">
        <ele>618.79998779297</ele>
        <time>2013-03-12T12:19:55.000Z</time>
      </trkpt>
      <trkpt lat="43.58774" lon="5.62058">
        <ele>619.59997558594</ele>
        <time>2013-03-12T12:20:08.000Z</time>
      </trkpt>
      <trkpt lat="43.58786" lon="5.62041">
        <ele>622.40002441406</ele>
        <time>2013-03-12T12:20:18.000Z</time>
      </trkpt>
      <trkpt lat="43.58788" lon="5.62041">
        <ele>622.79998779297</ele>
        <time>2013-03-12T12:20:19.000Z</time>
      </trkpt>
      <trkpt lat="43.58789" lon="5.62041">
        <ele>623.40002441406</ele>
        <time>2013-03-12T12:20:20.000Z</time>
      </trkpt>
      <trkpt lat="43.58791" lon="5.62041">
        <ele>623.59997558594</ele>
        <time>2013-03-12T12:20:21.000Z</time>
      </trkpt>
      <trkpt lat="43.58792" lon="5.62042">
        <ele>624</ele>
        <time>2013-03-12T12:20:22.000Z</time>
      </trkpt>
      <trkpt lat="43.58794" lon="5.62042">
        <ele>624.40002441406</ele>
        <time>2013-03-12T12:20:23.000Z</time>
      </trkpt>
      <trkpt lat="43.58811" lon="5.62048">
        <ele>628</ele>
        <time>2013-03-12T12:20:33.000Z</time>
      </trkpt>
      <trkpt lat="43.58825" lon="5.62045">
        <ele>632</ele>
        <time>2013-03-12T12:20:43.000Z</time>
      </trkpt>
      <trkpt lat="43.58827" lon="5.62043">
        <ele>632.40002441406</ele>
        <time>2013-03-12T12:20:44.000Z</time>
      </trkpt>
      <trkpt lat="43.58828" lon="5.62043">
        <ele>633</ele>
        <time>2013-03-12T12:20:45.000Z</time>
      </trkpt>
      <trkpt lat="43.5883" lon="5.62042">
        <ele>633.40002441406</ele>
        <time>2013-03-12T12:20:46.000Z</time>
      </trkpt>
      <trkpt lat="43.58831" lon="5.62042">
        <ele>634</ele>
        <time>2013-03-12T12:20:47.000Z</time>
      </trkpt>
      <trkpt lat="43.58833" lon="5.62042">
        <ele>634.40002441406</ele>
        <time>2013-03-12T12:20:48.000Z</time>
      </trkpt>
      <trkpt lat="43.58849" lon="5.62039">
        <ele>640</ele>
        <time>2013-03-12T12:21:00.000Z</time>
      </trkpt>
      <trkpt lat="43.58865" lon="5.62043">
        <ele>644.20001220703</ele>
        <time>2013-03-12T12:21:11.000Z</time>
      </trkpt>
      <trkpt lat="43.58882" lon="5.62055">
        <ele>646.79998779297</ele>
        <time>2013-03-12T12:21:24.000Z</time>
      </trkpt>
      <trkpt lat="43.58888" lon="5.6206">
        <ele>647.59997558594</ele>
        <time>2013-03-12T12:21:29.000Z</time>
      </trkpt>
      <trkpt lat="43.58889" lon="5.62061">
        <ele>647.59997558594</ele>
        <time>2013-03-12T12:21:30.000Z</time>
      </trkpt>
      <trkpt lat="43.58891" lon="5.62062">
        <ele>647.79998779297</ele>
        <time>2013-03-12T12:21:31.000Z</time>
      </trkpt>
      <trkpt lat="43.58892" lon="5.62063">
        <ele>648</ele>
        <time>2013-03-12T12:21:32.000Z</time>
      </trkpt>
      <trkpt lat="43.58893" lon="5.62064">
        <ele>648</ele>
        <time>2013-03-12T12:21:33.000Z</time>
      </trkpt>
      <trkpt lat="43.58904" lon="5.62074">
        <ele>648.79998779297</ele>
        <time>2013-03-12T12:21:43.000Z</time>
      </trkpt>
      <trkpt lat="43.58905" lon="5.62075">
        <ele>648.79998779297</ele>
        <time>2013-03-12T12:21:44.000Z</time>
      </trkpt>
      <trkpt lat="43.58907" lon="5.62076">
        <ele>649</ele>
        <time>2013-03-12T12:21:45.000Z</time>
      </trkpt>
      <trkpt lat="43.58908" lon="5.62077">
        <ele>649</ele>
        <time>2013-03-12T12:21:46.000Z</time>
      </trkpt>
      <trkpt lat="43.58908" lon="5.62078">
        <ele>648.79998779297</ele>
        <time>2013-03-12T12:21:47.000Z</time>
      </trkpt>
      <trkpt lat="43.58909" lon="5.6208">
        <ele>648.59997558594</ele>
        <time>2013-03-12T12:21:48.000Z</time>
      </trkpt>
      <trkpt lat="43.5891" lon="5.62081">
        <ele>648.59997558594</ele>
        <time>2013-03-12T12:21:49.000Z</time>
      </trkpt>
      <trkpt lat="43.58911" lon="5.62082">
        <ele>648.79998779297</ele>
        <time>2013-03-12T12:21:50.000Z</time>
      </trkpt>
      <trkpt lat="43.58912" lon="5.62082">
        <ele>648.79998779297</ele>
        <time>2013-03-12T12:21:51.000Z</time>
      </trkpt>
      <trkpt lat="43.58918" lon="5.62089">
        <ele>649</ele>
        <time>2013-03-12T12:21:57.000Z</time>
      </trkpt>
      <trkpt lat="43.58926" lon="5.62097">
        <ele>648.40002441406</ele>
        <time>2013-03-12T12:22:04.000Z</time>
      </trkpt>
      <trkpt lat="43.58927" lon="5.62099">
        <ele>648.40002441406</ele>
        <time>2013-03-12T12:22:05.000Z</time>
      </trkpt>
      <trkpt lat="43.58928" lon="5.621">
        <ele>648.40002441406</ele>
        <time>2013-03-12T12:22:06.000Z</time>
      </trkpt>
      <trkpt lat="43.58938" lon="5.62111">
        <ele>648</ele>
        <time>2013-03-12T12:22:17.000Z</time>
      </trkpt>
      <trkpt lat="43.58946" lon="5.62118">
        <ele>647.79998779297</ele>
        <time>2013-03-12T12:22:26.000Z</time>
      </trkpt>
      <trkpt lat="43.58947" lon="5.62119">
        <ele>647.79998779297</ele>
        <time>2013-03-12T12:22:27.000Z</time>
      </trkpt>
      <trkpt lat="43.58948" lon="5.6212">
        <ele>648</ele>
        <time>2013-03-12T12:22:28.000Z</time>
      </trkpt>
      <trkpt lat="43.58949" lon="5.6212">
        <ele>648</ele>
        <time>2013-03-12T12:22:29.000Z</time>
      </trkpt>
      <trkpt lat="43.58952" lon="5.62123">
        <ele>648.20001220703</ele>
        <time>2013-03-12T12:22:33.000Z</time>
      </trkpt>
      <trkpt lat="43.58954" lon="5.62123">
        <ele>648.40002441406</ele>
        <time>2013-03-12T12:22:34.000Z</time>
      </trkpt>
      <trkpt lat="43.58958" lon="5.62128">
        <ele>648.20001220703</ele>
        <time>2013-03-12T12:22:40.000Z</time>
      </trkpt>
      <trkpt lat="43.58961" lon="5.6213">
        <ele>648.40002441406</ele>
        <time>2013-03-12T12:22:43.000Z</time>
      </trkpt>
      <trkpt lat="43.58962" lon="5.62131">
        <ele>648.40002441406</ele>
        <time>2013-03-12T12:22:44.000Z</time>
      </trkpt>
      <trkpt lat="43.58964" lon="5.62131">
        <ele>648.79998779297</ele>
        <time>2013-03-12T12:22:45.000Z</time>
      </trkpt>
      <trkpt lat="43.58965" lon="5.62131">
        <ele>648.79998779297</ele>
        <time>2013-03-12T12:22:46.000Z</time>
      </trkpt>
      <trkpt lat="43.58967" lon="5.62132">
        <ele>649</ele>
        <time>2013-03-12T12:22:48.000Z</time>
      </trkpt>
      <trkpt lat="43.58968" lon="5.62133">
        <ele>649.20001220703</ele>
        <time>2013-03-12T12:22:49.000Z</time>
      </trkpt>
      <trkpt lat="43.58977" lon="5.62131">
        <ele>651.40002441406</ele>
        <time>2013-03-12T12:22:58.000Z</time>
      </trkpt>
      <trkpt lat="43.58987" lon="5.62116">
        <ele>656.59997558594</ele>
        <time>2013-03-12T12:23:11.000Z</time>
      </trkpt>
      <trkpt lat="43.58989" lon="5.6211">
        <ele>658.40002441406</ele>
        <time>2013-03-12T12:23:15.000Z</time>
      </trkpt>
      <trkpt lat="43.5899" lon="5.62109">
        <ele>658.79998779297</ele>
        <time>2013-03-12T12:23:16.000Z</time>
      </trkpt>
      <trkpt lat="43.5899" lon="5.62107">
        <ele>659</ele>
        <time>2013-03-12T12:23:17.000Z</time>
      </trkpt>
      <trkpt lat="43.5899" lon="5.62106">
        <ele>659.40002441406</ele>
        <time>2013-03-12T12:23:18.000Z</time>
      </trkpt>
      <trkpt lat="43.58991" lon="5.62104">
        <ele>659.79998779297</ele>
        <time>2013-03-12T12:23:19.000Z</time>
      </trkpt>
      <trkpt lat="43.58991" lon="5.62102">
        <ele>660.40002441406</ele>
        <time>2013-03-12T12:23:20.000Z</time>
      </trkpt>
      <trkpt lat="43.58992" lon="5.62101">
        <ele>660.79998779297</ele>
        <time>2013-03-12T12:23:21.000Z</time>
      </trkpt>
      <trkpt lat="43.58992" lon="5.62099">
        <ele>661.20001220703</ele>
        <time>2013-03-12T12:23:22.000Z</time>
      </trkpt>
      <trkpt lat="43.58993" lon="5.62098">
        <ele>661.59997558594</ele>
        <time>2013-03-12T12:23:23.000Z</time>
      </trkpt>
      <trkpt lat="43.58993" lon="5.62096">
        <ele>662</ele>
        <time>2013-03-12T12:23:24.000Z</time>
      </trkpt>
      <trkpt lat="43.58993" lon="5.62094">
        <ele>662.40002441406</ele>
        <time>2013-03-12T12:23:25.000Z</time>
      </trkpt>
      <trkpt lat="43.58993" lon="5.62093">
        <ele>662.59997558594</ele>
        <time>2013-03-12T12:23:26.000Z</time>
      </trkpt>
      <trkpt lat="43.58994" lon="5.6209">
        <ele>663.40002441406</ele>
        <time>2013-03-12T12:23:28.000Z</time>
      </trkpt>
      <trkpt lat="43.58997" lon="5.62074">
        <ele>667.20001220703</ele>
        <time>2013-03-12T12:23:38.000Z</time>
      </trkpt>
      <trkpt lat="43.59003" lon="5.62051">
        <ele>671.59997558594</ele>
        <time>2013-03-12T12:23:53.000Z</time>
      </trkpt>
      <trkpt lat="43.59012" lon="5.6203">
        <ele>674.79998779297</ele>
        <time>2013-03-12T12:24:06.000Z</time>
      </trkpt>
      <trkpt lat="43.59013" lon="5.62026">
        <ele>675.59997558594</ele>
        <time>2013-03-12T12:24:09.000Z</time>
      </trkpt>
      <trkpt lat="43.59014" lon="5.62024">
        <ele>675.79998779297</ele>
        <time>2013-03-12T12:24:10.000Z</time>
      </trkpt>
      <trkpt lat="43.59015" lon="5.62022">
        <ele>676</ele>
        <time>2013-03-12T12:24:11.000Z</time>
      </trkpt>
      <trkpt lat="43.59015" lon="5.62021">
        <ele>676.20001220703</ele>
        <time>2013-03-12T12:24:12.000Z</time>
      </trkpt>
      <trkpt lat="43.59016" lon="5.62019">
        <ele>676.40002441406</ele>
        <time>2013-03-12T12:24:13.000Z</time>
      </trkpt>
      <trkpt lat="43.59017" lon="5.62017">
        <ele>676.59997558594</ele>
        <time>2013-03-12T12:24:14.000Z</time>
      </trkpt>
      <trkpt lat="43.59024" lon="5.62004">
        <ele>678.20001220703</ele>
        <time>2013-03-12T12:24:23.000Z</time>
      </trkpt>
      <trkpt lat="43.59033" lon="5.61997">
        <ele>678.40002441406</ele>
        <time>2013-03-12T12:24:31.000Z</time>
      </trkpt>
      <trkpt lat="43.59035" lon="5.61996">
        <ele>678.40002441406</ele>
        <time>2013-03-12T12:24:32.000Z</time>
      </trkpt>
      <trkpt lat="43.59036" lon="5.61995">
        <ele>678.40002441406</ele>
        <time>2013-03-12T12:24:33.000Z</time>
      </trkpt>
      <trkpt lat="43.59037" lon="5.61994">
        <ele>678.40002441406</ele>
        <time>2013-03-12T12:24:34.000Z</time>
      </trkpt>
      <trkpt lat="43.59038" lon="5.61994">
        <ele>678.40002441406</ele>
        <time>2013-03-12T12:24:35.000Z</time>
      </trkpt>
      <trkpt lat="43.59039" lon="5.61994">
        <ele>678.40002441406</ele>
        <time>2013-03-12T12:24:36.000Z</time>
      </trkpt>
      <trkpt lat="43.5904" lon="5.61993">
        <ele>678.40002441406</ele>
        <time>2013-03-12T12:24:37.000Z</time>
      </trkpt>
      <trkpt lat="43.59041" lon="5.61992">
        <ele>678.40002441406</ele>
        <time>2013-03-12T12:24:38.000Z</time>
      </trkpt>
      <trkpt lat="43.59042" lon="5.61991">
        <ele>678.40002441406</ele>
        <time>2013-03-12T12:24:39.000Z</time>
      </trkpt>
      <trkpt lat="43.59043" lon="5.61991">
        <ele>678.40002441406</ele>
        <time>2013-03-12T12:24:40.000Z</time>
      </trkpt>
      <trkpt lat="43.59044" lon="5.6199">
        <ele>678.20001220703</ele>
        <time>2013-03-12T12:24:41.000Z</time>
      </trkpt>
      <trkpt lat="43.59045" lon="5.6199">
        <ele>678.20001220703</ele>
        <time>2013-03-12T12:24:42.000Z</time>
      </trkpt>
      <trkpt lat="43.59046" lon="5.61989">
        <ele>678.20001220703</ele>
        <time>2013-03-12T12:24:43.000Z</time>
      </trkpt>
      <trkpt lat="43.59051" lon="5.61985">
        <ele>678.40002441406</ele>
        <time>2013-03-12T12:24:47.000Z</time>
      </trkpt>
      <trkpt lat="43.59052" lon="5.61984">
        <ele>678.40002441406</ele>
        <time>2013-03-12T12:24:48.000Z</time>
      </trkpt>
      <trkpt lat="43.59058" lon="5.61976">
        <ele>679.20001220703</ele>
        <time>2013-03-12T12:24:53.000Z</time>
      </trkpt>
      <trkpt lat="43.59058" lon="5.61974">
        <ele>679.40002441406</ele>
        <time>2013-03-12T12:24:54.000Z</time>
      </trkpt>
      <trkpt lat="43.59059" lon="5.61972">
        <ele>679.79998779297</ele>
        <time>2013-03-12T12:24:55.000Z</time>
      </trkpt>
      <trkpt lat="43.59059" lon="5.6197">
        <ele>680</ele>
        <time>2013-03-12T12:24:56.000Z</time>
      </trkpt>
      <trkpt lat="43.5906" lon="5.61968">
        <ele>680.20001220703</ele>
        <time>2013-03-12T12:24:57.000Z</time>
      </trkpt>
      <trkpt lat="43.5906" lon="5.61966">
        <ele>680.40002441406</ele>
        <time>2013-03-12T12:24:58.000Z</time>
      </trkpt>
      <trkpt lat="43.5906" lon="5.61964">
        <ele>680.79998779297</ele>
        <time>2013-03-12T12:24:59.000Z</time>
      </trkpt>
      <trkpt lat="43.5906" lon="5.61961">
        <ele>681.20001220703</ele>
        <time>2013-03-12T12:25:00.000Z</time>
      </trkpt>
      <trkpt lat="43.5906" lon="5.61959">
        <ele>681.59997558594</ele>
        <time>2013-03-12T12:25:01.000Z</time>
      </trkpt>
      <trkpt lat="43.5906" lon="5.61957">
        <ele>682</ele>
        <time>2013-03-12T12:25:02.000Z</time>
      </trkpt>
      <trkpt lat="43.5906" lon="5.61949">
        <ele>683.40002441406</ele>
        <time>2013-03-12T12:25:06.000Z</time>
      </trkpt>
      <trkpt lat="43.5906" lon="5.61946">
        <ele>684</ele>
        <time>2013-03-12T12:25:07.000Z</time>
      </trkpt>
      <trkpt lat="43.5906" lon="5.61944">
        <ele>684.20001220703</ele>
        <time>2013-03-12T12:25:08.000Z</time>
      </trkpt>
      <trkpt lat="43.59059" lon="5.61942">
        <ele>684.79998779297</ele>
        <time>2013-03-12T12:25:09.000Z</time>
      </trkpt>
      <trkpt lat="43.59058" lon="5.6194">
        <ele>685.20001220703</ele>
        <time>2013-03-12T12:25:10.000Z</time>
      </trkpt>
      <trkpt lat="43.59056" lon="5.6194">
        <ele>685.40002441406</ele>
        <time>2013-03-12T12:25:11.000Z</time>
      </trkpt>
      <trkpt lat="43.59055" lon="5.6194">
        <ele>685.59997558594</ele>
        <time>2013-03-12T12:25:12.000Z</time>
      </trkpt>
      <trkpt lat="43.59054" lon="5.6194">
        <ele>685.79998779297</ele>
        <time>2013-03-12T12:25:13.000Z</time>
      </trkpt>
      <trkpt lat="43.59053" lon="5.61939">
        <ele>686</ele>
        <time>2013-03-12T12:25:14.000Z</time>
      </trkpt>
      <trkpt lat="43.59052" lon="5.61939">
        <ele>686.20001220703</ele>
        <time>2013-03-12T12:25:15.000Z</time>
      </trkpt>
      <trkpt lat="43.59051" lon="5.61939">
        <ele>686.40002441406</ele>
        <time>2013-03-12T12:25:16.000Z</time>
      </trkpt>
      <trkpt lat="43.59039" lon="5.61942">
        <ele>687.20001220703</ele>
        <time>2013-03-12T12:25:27.000Z</time>
      </trkpt>
      <trkpt lat="43.59025" lon="5.61939">
        <ele>689.59997558594</ele>
        <time>2013-03-12T12:25:38.000Z</time>
      </trkpt>
      <trkpt lat="43.59012" lon="5.61935">
        <ele>692</ele>
        <time>2013-03-12T12:25:50.000Z</time>
      </trkpt>
      <trkpt lat="43.59003" lon="5.61933">
        <ele>693.59997558594</ele>
        <time>2013-03-12T12:25:58.000Z</time>
      </trkpt>
      <trkpt lat="43.59002" lon="5.61933">
        <ele>693.79998779297</ele>
        <time>2013-03-12T12:25:59.000Z</time>
      </trkpt>
      <trkpt lat="43.59" lon="5.61932">
        <ele>694</ele>
        <time>2013-03-12T12:26:00.000Z</time>
      </trkpt>
      <trkpt lat="43.58999" lon="5.61932">
        <ele>694</ele>
        <time>2013-03-12T12:26:01.000Z</time>
      </trkpt>
      <trkpt lat="43.58998" lon="5.61932">
        <ele>693.79998779297</ele>
        <time>2013-03-12T12:26:02.000Z</time>
      </trkpt>
      <trkpt lat="43.58991" lon="5.61929">
        <ele>693</ele>
        <time>2013-03-12T12:26:09.000Z</time>
      </trkpt>
      <trkpt lat="43.5899" lon="5.61929">
        <ele>692.79998779297</ele>
        <time>2013-03-12T12:26:10.000Z</time>
      </trkpt>
      <trkpt lat="43.58988" lon="5.61928">
        <ele>692.79998779297</ele>
        <time>2013-03-12T12:26:11.000Z</time>
      </trkpt>
      <trkpt lat="43.58987" lon="5.61927">
        <ele>692.59997558594</ele>
        <time>2013-03-12T12:26:12.000Z</time>
      </trkpt>
      <trkpt lat="43.58986" lon="5.61927">
        <ele>692.40002441406</ele>
        <time>2013-03-12T12:26:13.000Z</time>
      </trkpt>
      <trkpt lat="43.58984" lon="5.61926">
        <ele>692.20001220703</ele>
        <time>2013-03-12T12:26:14.000Z</time>
      </trkpt>
      <trkpt lat="43.58983" lon="5.61926">
        <ele>692.20001220703</ele>
        <time>2013-03-12T12:26:15.000Z</time>
      </trkpt>
      <trkpt lat="43.58982" lon="5.61925">
        <ele>692</ele>
        <time>2013-03-12T12:26:16.000Z</time>
      </trkpt>
      <trkpt lat="43.58981" lon="5.61924">
        <ele>692</ele>
        <time>2013-03-12T12:26:17.000Z</time>
      </trkpt>
      <trkpt lat="43.5898" lon="5.61923">
        <ele>692</ele>
        <time>2013-03-12T12:26:18.000Z</time>
      </trkpt>
      <trkpt lat="43.58978" lon="5.61923">
        <ele>691.79998779297</ele>
        <time>2013-03-12T12:26:19.000Z</time>
      </trkpt>
      <trkpt lat="43.58971" lon="5.6191">
        <ele>691.20001220703</ele>
        <time>2013-03-12T12:26:29.000Z</time>
      </trkpt>
      <trkpt lat="43.5897" lon="5.61908">
        <ele>691</ele>
        <time>2013-03-12T12:26:30.000Z</time>
      </trkpt>
      <trkpt lat="43.5897" lon="5.61906">
        <ele>691</ele>
        <time>2013-03-12T12:26:31.000Z</time>
      </trkpt>
      <trkpt lat="43.58971" lon="5.61903">
        <ele>691.20001220703</ele>
        <time>2013-03-12T12:26:33.000Z</time>
      </trkpt>
      <trkpt lat="43.58972" lon="5.61902">
        <ele>691.40002441406</ele>
        <time>2013-03-12T12:26:34.000Z</time>
      </trkpt>
      <trkpt lat="43.58973" lon="5.61901">
        <ele>691.59997558594</ele>
        <time>2013-03-12T12:26:35.000Z</time>
      </trkpt>
      <trkpt lat="43.58974" lon="5.61899">
        <ele>691.79998779297</ele>
        <time>2013-03-12T12:26:36.000Z</time>
      </trkpt>
      <trkpt lat="43.58975" lon="5.61898">
        <ele>692</ele>
        <time>2013-03-12T12:26:37.000Z</time>
      </trkpt>
      <trkpt lat="43.58976" lon="5.61897">
        <ele>692.20001220703</ele>
        <time>2013-03-12T12:26:38.000Z</time>
      </trkpt>
      <trkpt lat="43.58977" lon="5.61897">
        <ele>692.59997558594</ele>
        <time>2013-03-12T12:26:39.000Z</time>
      </trkpt>
      <trkpt lat="43.58978" lon="5.61897">
        <ele>692.79998779297</ele>
        <time>2013-03-12T12:26:40.000Z</time>
      </trkpt>
      <trkpt lat="43.58979" lon="5.61897">
        <ele>693</ele>
        <time>2013-03-12T12:26:41.000Z</time>
      </trkpt>
      <trkpt lat="43.58981" lon="5.61896">
        <ele>693.40002441406</ele>
        <time>2013-03-12T12:26:42.000Z</time>
      </trkpt>
      <trkpt lat="43.58982" lon="5.61895">
        <ele>693.59997558594</ele>
        <time>2013-03-12T12:26:43.000Z</time>
      </trkpt>
      <trkpt lat="43.58983" lon="5.61894">
        <ele>693.79998779297</ele>
        <time>2013-03-12T12:26:44.000Z</time>
      </trkpt>
      <trkpt lat="43.58992" lon="5.61879">
        <ele>696.40002441406</ele>
        <time>2013-03-12T12:26:55.000Z</time>
      </trkpt>
      <trkpt lat="43.59002" lon="5.61854">
        <ele>699.79998779297</ele>
        <time>2013-03-12T12:27:06.000Z</time>
      </trkpt>
      <trkpt lat="43.59014" lon="5.61827">
        <ele>699.40002441406</ele>
        <time>2013-03-12T12:27:17.000Z</time>
      </trkpt>
      <trkpt lat="43.59015" lon="5.61824">
        <ele>699.20001220703</ele>
        <time>2013-03-12T12:27:18.000Z</time>
      </trkpt>
      <trkpt lat="43.59017" lon="5.61822">
        <ele>699</ele>
        <time>2013-03-12T12:27:19.000Z</time>
      </trkpt>
      <trkpt lat="43.59019" lon="5.6182">
        <ele>698.59997558594</ele>
        <time>2013-03-12T12:27:20.000Z</time>
      </trkpt>
      <trkpt lat="43.59021" lon="5.61818">
        <ele>698.40002441406</ele>
        <time>2013-03-12T12:27:21.000Z</time>
      </trkpt>
      <trkpt lat="43.59049" lon="5.61804">
        <ele>699.20001220703</ele>
        <time>2013-03-12T12:27:33.000Z</time>
      </trkpt>
      <trkpt lat="43.59072" lon="5.61791">
        <ele>702.59997558594</ele>
        <time>2013-03-12T12:27:47.000Z</time>
      </trkpt>
      <trkpt lat="43.59098" lon="5.6178">
        <ele>707.20001220703</ele>
        <time>2013-03-12T12:28:01.000Z</time>
      </trkpt>
      <trkpt lat="43.59121" lon="5.61772">
        <ele>711.59997558594</ele>
        <time>2013-03-12T12:28:14.000Z</time>
      </trkpt>
      <trkpt lat="43.59147" lon="5.61763">
        <ele>717.20001220703</ele>
        <time>2013-03-12T12:28:27.000Z</time>
      </trkpt>
      <trkpt lat="43.59171" lon="5.61761">
        <ele>720.79998779297</ele>
        <time>2013-03-12T12:28:40.000Z</time>
      </trkpt>
      <trkpt lat="43.59193" lon="5.61756">
        <ele>722.20001220703</ele>
        <time>2013-03-12T12:28:52.000Z</time>
      </trkpt>
      <trkpt lat="43.59215" lon="5.6174">
        <ele>725.20001220703</ele>
        <time>2013-03-12T12:29:06.000Z</time>
      </trkpt>
      <trkpt lat="43.59239" lon="5.61722">
        <ele>728.40002441406</ele>
        <time>2013-03-12T12:29:21.000Z</time>
      </trkpt>
      <trkpt lat="43.59259" lon="5.61713">
        <ele>730.20001220703</ele>
        <time>2013-03-12T12:29:33.000Z</time>
      </trkpt>
      <trkpt lat="43.59263" lon="5.61711">
        <ele>730.59997558594</ele>
        <time>2013-03-12T12:29:35.000Z</time>
      </trkpt>
      <trkpt lat="43.59288" lon="5.61694">
        <ele>733.59997558594</ele>
        <time>2013-03-12T12:29:49.000Z</time>
      </trkpt>
      <trkpt lat="43.593" lon="5.61689">
        <ele>734.59997558594</ele>
        <time>2013-03-12T12:29:56.000Z</time>
      </trkpt>
      <trkpt lat="43.59325" lon="5.61688">
        <ele>735</ele>
        <time>2013-03-12T12:30:08.000Z</time>
      </trkpt>
      <trkpt lat="43.59358" lon="5.61694">
        <ele>734.79998779297</ele>
        <time>2013-03-12T12:30:22.000Z</time>
      </trkpt>
      <trkpt lat="43.59385" lon="5.61699">
        <ele>734.59997558594</ele>
        <time>2013-03-12T12:30:34.000Z</time>
      </trkpt>
      <trkpt lat="43.59417" lon="5.6169">
        <ele>736.79998779297</ele>
        <time>2013-03-12T12:30:46.000Z</time>
      </trkpt>
      <trkpt lat="43.59431" lon="5.61662">
        <ele>736.79998779297</ele>
        <time>2013-03-12T12:30:55.000Z</time>
      </trkpt>
      <trkpt lat="43.59427" lon="5.61612">
        <ele>744.59997558594</ele>
        <time>2013-03-12T12:31:06.000Z</time>
      </trkpt>
      <trkpt lat="43.59437" lon="5.61576">
        <ele>746.59997558594</ele>
        <time>2013-03-12T12:31:13.000Z</time>
      </trkpt>
      <trkpt lat="43.59439" lon="5.61571">
        <ele>746.59997558594</ele>
        <time>2013-03-12T12:31:14.000Z</time>
      </trkpt>
      <trkpt lat="43.59442" lon="5.61566">
        <ele>746.59997558594</ele>
        <time>2013-03-12T12:31:15.000Z</time>
      </trkpt>
      <trkpt lat="43.59456" lon="5.6154">
        <ele>747.59997558594</ele>
        <time>2013-03-12T12:31:20.000Z</time>
      </trkpt>
      <trkpt lat="43.59459" lon="5.61535">
        <ele>747.79998779297</ele>
        <time>2013-03-12T12:31:21.000Z</time>
      </trkpt>
      <trkpt lat="43.59461" lon="5.61531">
        <ele>747.79998779297</ele>
        <time>2013-03-12T12:31:22.000Z</time>
      </trkpt>
      <trkpt lat="43.59486" lon="5.61497">
        <ele>748.40002441406</ele>
        <time>2013-03-12T12:31:33.000Z</time>
      </trkpt>
      <trkpt lat="43.59493" lon="5.61489">
        <ele>748.20001220703</ele>
        <time>2013-03-12T12:31:37.000Z</time>
      </trkpt>
      <trkpt lat="43.59521" lon="5.61459">
        <ele>749.40002441406</ele>
        <time>2013-03-12T12:31:52.000Z</time>
      </trkpt>
      <trkpt lat="43.59545" lon="5.6143">
        <ele>752.40002441406</ele>
        <time>2013-03-12T12:32:06.000Z</time>
      </trkpt>
      <trkpt lat="43.59567" lon="5.61409">
        <ele>752.40002441406</ele>
        <time>2013-03-12T12:32:18.000Z</time>
      </trkpt>
      <trkpt lat="43.5959" lon="5.61392">
        <ele>750.79998779297</ele>
        <time>2013-03-12T12:32:31.000Z</time>
      </trkpt>
      <trkpt lat="43.59605" lon="5.61375">
        <ele>751.59997558594</ele>
        <time>2013-03-12T12:32:42.000Z</time>
      </trkpt>
      <trkpt lat="43.59616" lon="5.61364">
        <ele>752.40002441406</ele>
        <time>2013-03-12T12:32:49.000Z</time>
      </trkpt>
      <trkpt lat="43.59632" lon="5.61348">
        <ele>754</ele>
        <time>2013-03-12T12:33:01.000Z</time>
      </trkpt>
      <trkpt lat="43.59651" lon="5.61334">
        <ele>756.20001220703</ele>
        <time>2013-03-12T12:33:14.000Z</time>
      </trkpt>
      <trkpt lat="43.59652" lon="5.61333">
        <ele>756.20001220703</ele>
        <time>2013-03-12T12:33:15.000Z</time>
      </trkpt>
      <trkpt lat="43.59654" lon="5.61333">
        <ele>756</ele>
        <time>2013-03-12T12:33:16.000Z</time>
      </trkpt>
      <trkpt lat="43.59655" lon="5.61332">
        <ele>755.79998779297</ele>
        <time>2013-03-12T12:33:17.000Z</time>
      </trkpt>
      <trkpt lat="43.59656" lon="5.6133">
        <ele>755.40002441406</ele>
        <time>2013-03-12T12:33:18.000Z</time>
      </trkpt>
      <trkpt lat="43.59657" lon="5.61328">
        <ele>754.79998779297</ele>
        <time>2013-03-12T12:33:19.000Z</time>
      </trkpt>
      <trkpt lat="43.59657" lon="5.61326">
        <ele>754.40002441406</ele>
        <time>2013-03-12T12:33:20.000Z</time>
      </trkpt>
      <trkpt lat="43.59657" lon="5.61324">
        <ele>754</ele>
        <time>2013-03-12T12:33:21.000Z</time>
      </trkpt>
      <trkpt lat="43.59656" lon="5.61323">
        <ele>753.79998779297</ele>
        <time>2013-03-12T12:33:22.000Z</time>
      </trkpt>
      <trkpt lat="43.59654" lon="5.61323">
        <ele>753.59997558594</ele>
        <time>2013-03-12T12:33:23.000Z</time>
      </trkpt>
      <trkpt lat="43.59651" lon="5.61323">
        <ele>753.79998779297</ele>
        <time>2013-03-12T12:33:24.000Z</time>
      </trkpt>
      <trkpt lat="43.59649" lon="5.61324">
        <ele>754</ele>
        <time>2013-03-12T12:33:25.000Z</time>
      </trkpt>
      <trkpt lat="43.59627" lon="5.61333">
        <ele>756.79998779297</ele>
        <time>2013-03-12T12:33:34.000Z</time>
      </trkpt>
      <trkpt lat="43.59589" lon="5.61347">
        <ele>756.20001220703</ele>
        <time>2013-03-12T12:33:47.000Z</time>
      </trkpt>
      <trkpt lat="43.59549" lon="5.61367">
        <ele>754.40002441406</ele>
        <time>2013-03-12T12:34:01.000Z</time>
      </trkpt>
      <trkpt lat="43.59521" lon="5.61384">
        <ele>756.79998779297</ele>
        <time>2013-03-12T12:34:12.000Z</time>
      </trkpt>
      <trkpt lat="43.59499" lon="5.61386">
        <ele>758.40002441406</ele>
        <time>2013-03-12T12:34:23.000Z</time>
      </trkpt>
      <trkpt lat="43.59497" lon="5.61387">
        <ele>758.59997558594</ele>
        <time>2013-03-12T12:34:24.000Z</time>
      </trkpt>
      <trkpt lat="43.59496" lon="5.61389">
        <ele>758.79998779297</ele>
        <time>2013-03-12T12:34:25.000Z</time>
      </trkpt>
      <trkpt lat="43.59494" lon="5.61391">
        <ele>759</ele>
        <time>2013-03-12T12:34:26.000Z</time>
      </trkpt>
      <trkpt lat="43.59492" lon="5.61392">
        <ele>759.20001220703</ele>
        <time>2013-03-12T12:34:27.000Z</time>
      </trkpt>
      <trkpt lat="43.5949" lon="5.61394">
        <ele>759.40002441406</ele>
        <time>2013-03-12T12:34:28.000Z</time>
      </trkpt>
      <trkpt lat="43.59469" lon="5.6141">
        <ele>762.20001220703</ele>
        <time>2013-03-12T12:34:39.000Z</time>
      </trkpt>
      <trkpt lat="43.59468" lon="5.61413">
        <ele>763.20001220703</ele>
        <time>2013-03-12T12:34:49.000Z</time>
      </trkpt>
      <trkpt lat="43.59468" lon="5.61413">
        <ele>763</ele>
        <time>2013-03-12T12:35:03.000Z</time>
      </trkpt>
      <trkpt lat="43.59468" lon="5.61413">
        <ele>763</ele>
        <time>2013-03-12T12:35:24.000Z</time>
      </trkpt>
      <trkpt lat="43.59468" lon="5.61413">
        <ele>763</ele>
        <time>2013-03-12T12:35:46.000Z</time>
      </trkpt>
      <trkpt lat="43.59468" lon="5.61413">
        <ele>763</ele>
        <time>2013-03-12T12:36:09.000Z</time>
      </trkpt>
      <trkpt lat="43.59468" lon="5.61412">
        <ele>763</ele>
        <time>2013-03-12T12:36:31.000Z</time>
      </trkpt>
      <trkpt lat="43.59464" lon="5.61415">
        <ele>763.59997558594</ele>
        <time>2013-03-12T12:36:41.000Z</time>
      </trkpt>
      <trkpt lat="43.59462" lon="5.61412">
        <ele>762.59997558594</ele>
        <time>2013-03-12T12:37:05.000Z</time>
      </trkpt>
      <trkpt lat="43.59463" lon="5.61413">
        <ele>763</ele>
        <time>2013-03-12T12:37:20.000Z</time>
      </trkpt>
      <trkpt lat="43.59464" lon="5.6141">
        <ele>762</ele>
        <time>2013-03-12T12:37:49.000Z</time>
      </trkpt>
      <trkpt lat="43.59461" lon="5.61409">
        <ele>761.79998779297</ele>
        <time>2013-03-12T12:38:19.000Z</time>
      </trkpt>
      <trkpt lat="43.59462" lon="5.61408">
        <ele>761.40002441406</ele>
        <time>2013-03-12T12:38:53.000Z</time>
      </trkpt>
      <trkpt lat="43.59463" lon="5.6141">
        <ele>762.20001220703</ele>
        <time>2013-03-12T12:39:17.000Z</time>
      </trkpt>
      <trkpt lat="43.59463" lon="5.61411">
        <ele>762.40002441406</ele>
        <time>2013-03-12T12:39:39.000Z</time>
      </trkpt>
      <trkpt lat="43.59462" lon="5.6141">
        <ele>762</ele>
        <time>2013-03-12T12:39:55.000Z</time>
      </trkpt>
      <trkpt lat="43.59462" lon="5.61409">
        <ele>761.59997558594</ele>
        <time>2013-03-12T12:40:19.000Z</time>
      </trkpt>
      <trkpt lat="43.59462" lon="5.61409">
        <ele>761.79998779297</ele>
        <time>2013-03-12T12:40:42.000Z</time>
      </trkpt>
      <trkpt lat="43.59462" lon="5.6141">
        <ele>762</ele>
        <time>2013-03-12T12:41:11.000Z</time>
      </trkpt>
      <trkpt lat="43.59463" lon="5.61411">
        <ele>762.20001220703</ele>
        <time>2013-03-12T12:41:36.000Z</time>
      </trkpt>
      <trkpt lat="43.59463" lon="5.61409">
        <ele>761.79998779297</ele>
        <time>2013-03-12T12:42:05.000Z</time>
      </trkpt>
      <trkpt lat="43.59463" lon="5.6141">
        <ele>761.79998779297</ele>
        <time>2013-03-12T12:42:31.000Z</time>
      </trkpt>
      <trkpt lat="43.59463" lon="5.6141">
        <ele>762</ele>
        <time>2013-03-12T12:42:58.000Z</time>
      </trkpt>
      <trkpt lat="43.59463" lon="5.61411">
        <ele>762.20001220703</ele>
        <time>2013-03-12T12:43:34.000Z</time>
      </trkpt>
      <trkpt lat="43.59463" lon="5.61411">
        <ele>762.40002441406</ele>
        <time>2013-03-12T12:43:57.000Z</time>
      </trkpt>
      <trkpt lat="43.59463" lon="5.61411">
        <ele>762.40002441406</ele>
        <time>2013-03-12T12:44:24.000Z</time>
      </trkpt>
      <trkpt lat="43.59464" lon="5.61412">
        <ele>762.79998779297</ele>
        <time>2013-03-12T12:44:49.000Z</time>
      </trkpt>
      <trkpt lat="43.59464" lon="5.61412">
        <ele>762.79998779297</ele>
        <time>2013-03-12T12:45:15.000Z</time>
      </trkpt>
      <trkpt lat="43.59465" lon="5.61412">
        <ele>762.79998779297</ele>
        <time>2013-03-12T12:45:42.000Z</time>
      </trkpt>
      <trkpt lat="43.59464" lon="5.61411">
        <ele>762.40002441406</ele>
        <time>2013-03-12T12:46:09.000Z</time>
      </trkpt>
      <trkpt lat="43.59464" lon="5.6141">
        <ele>762</ele>
        <time>2013-03-12T12:46:36.000Z</time>
      </trkpt>
      <trkpt lat="43.59463" lon="5.61409">
        <ele>761.59997558594</ele>
        <time>2013-03-12T12:47:06.000Z</time>
      </trkpt>
      <trkpt lat="43.59463" lon="5.61409">
        <ele>762</ele>
        <time>2013-03-12T12:47:26.000Z</time>
      </trkpt>
      <trkpt lat="43.59463" lon="5.6141">
        <ele>762</ele>
        <time>2013-03-12T12:47:50.000Z</time>
      </trkpt>
      <trkpt lat="43.59463" lon="5.6141">
        <ele>762</ele>
        <time>2013-03-12T12:48:16.000Z</time>
      </trkpt>
      <trkpt lat="43.59463" lon="5.6141">
        <ele>762.20001220703</ele>
        <time>2013-03-12T12:48:43.000Z</time>
      </trkpt>
      <trkpt lat="43.59463" lon="5.61411">
        <ele>762.20001220703</ele>
        <time>2013-03-12T12:49:13.000Z</time>
      </trkpt>
      <trkpt lat="43.59463" lon="5.6141">
        <ele>762.20001220703</ele>
        <time>2013-03-12T12:49:40.000Z</time>
      </trkpt>
      <trkpt lat="43.59463" lon="5.6141">
        <ele>762</ele>
        <time>2013-03-12T12:50:12.000Z</time>
      </trkpt>
      <trkpt lat="43.59463" lon="5.61411">
        <ele>762.20001220703</ele>
        <time>2013-03-12T12:50:44.000Z</time>
      </trkpt>
      <trkpt lat="43.59463" lon="5.61412">
        <ele>762.79998779297</ele>
        <time>2013-03-12T12:51:12.000Z</time>
      </trkpt>
      <trkpt lat="43.59462" lon="5.61411">
        <ele>762.20001220703</ele>
        <time>2013-03-12T12:51:44.000Z</time>
      </trkpt>
      <trkpt lat="43.59462" lon="5.61409">
        <ele>761.59997558594</ele>
        <time>2013-03-12T12:52:09.000Z</time>
      </trkpt>
      <trkpt lat="43.59462" lon="5.61407">
        <ele>761</ele>
        <time>2013-03-12T12:52:34.000Z</time>
      </trkpt>
      <trkpt lat="43.59461" lon="5.61408">
        <ele>761.40002441406</ele>
        <time>2013-03-12T12:52:59.000Z</time>
      </trkpt>
      <trkpt lat="43.59461" lon="5.61409">
        <ele>761.59997558594</ele>
        <time>2013-03-12T12:53:31.000Z</time>
      </trkpt>
      <trkpt lat="43.59462" lon="5.6141">
        <ele>762.20001220703</ele>
        <time>2013-03-12T12:54:03.000Z</time>
      </trkpt>
      <trkpt lat="43.59462" lon="5.6141">
        <ele>762.20001220703</ele>
        <time>2013-03-12T12:54:35.000Z</time>
      </trkpt>
      <trkpt lat="43.59463" lon="5.61411">
        <ele>762.40002441406</ele>
        <time>2013-03-12T12:54:58.000Z</time>
      </trkpt>
      <trkpt lat="43.59462" lon="5.6141">
        <ele>762</ele>
        <time>2013-03-12T12:55:22.000Z</time>
      </trkpt>
      <trkpt lat="43.59461" lon="5.61409">
        <ele>761.79998779297</ele>
        <time>2013-03-12T12:55:47.000Z</time>
      </trkpt>
      <trkpt lat="43.59461" lon="5.6141">
        <ele>762.20001220703</ele>
        <time>2013-03-12T12:56:17.000Z</time>
      </trkpt>
      <trkpt lat="43.59461" lon="5.6141">
        <ele>761.79998779297</ele>
        <time>2013-03-12T12:56:40.000Z</time>
      </trkpt>
      <trkpt lat="43.59462" lon="5.61413">
        <ele>763</ele>
        <time>2013-03-12T12:57:10.000Z</time>
      </trkpt>
      <trkpt lat="43.59465" lon="5.61417">
        <ele>764</ele>
        <time>2013-03-12T12:57:42.000Z</time>
      </trkpt>
      <trkpt lat="43.59464" lon="5.61416">
        <ele>764</ele>
        <time>2013-03-12T12:58:11.000Z</time>
      </trkpt>
      <trkpt lat="43.59464" lon="5.61416">
        <ele>763.79998779297</ele>
        <time>2013-03-12T12:58:40.000Z</time>
      </trkpt>
      <trkpt lat="43.59463" lon="5.61416">
        <ele>763.59997558594</ele>
        <time>2013-03-12T12:59:10.000Z</time>
      </trkpt>
      <trkpt lat="43.59465" lon="5.61417">
        <ele>764</ele>
        <time>2013-03-12T12:59:46.000Z</time>
      </trkpt>
      <trkpt lat="43.59463" lon="5.61415">
        <ele>763.40002441406</ele>
        <time>2013-03-12T13:00:19.000Z</time>
      </trkpt>
      <trkpt lat="43.59463" lon="5.61416">
        <ele>763.79998779297</ele>
        <time>2013-03-12T13:00:47.000Z</time>
      </trkpt>
      <trkpt lat="43.59463" lon="5.61415">
        <ele>763.59997558594</ele>
        <time>2013-03-12T13:01:11.000Z</time>
      </trkpt>
      <trkpt lat="43.59463" lon="5.61415">
        <ele>763.40002441406</ele>
        <time>2013-03-12T13:01:40.000Z</time>
      </trkpt>
      <trkpt lat="43.59462" lon="5.61413">
        <ele>762.79998779297</ele>
        <time>2013-03-12T13:02:10.000Z</time>
      </trkpt>
      <trkpt lat="43.59462" lon="5.61412">
        <ele>762.59997558594</ele>
        <time>2013-03-12T13:02:37.000Z</time>
      </trkpt>
      <trkpt lat="43.59462" lon="5.61411">
        <ele>762.40002441406</ele>
        <time>2013-03-12T13:03:08.000Z</time>
      </trkpt>
      <trkpt lat="43.59463" lon="5.61412">
        <ele>762.59997558594</ele>
        <time>2013-03-12T13:03:39.000Z</time>
      </trkpt>
      <trkpt lat="43.59462" lon="5.6141">
        <ele>762</ele>
        <time>2013-03-12T13:04:08.000Z</time>
      </trkpt>
      <trkpt lat="43.59461" lon="5.61409">
        <ele>761.79998779297</ele>
        <time>2013-03-12T13:04:33.000Z</time>
      </trkpt>
      <trkpt lat="43.5946" lon="5.61408">
        <ele>761.20001220703</ele>
        <time>2013-03-12T13:05:05.000Z</time>
      </trkpt>
      <trkpt lat="43.5946" lon="5.61407">
        <ele>761</ele>
        <time>2013-03-12T13:05:31.000Z</time>
      </trkpt>
      <trkpt lat="43.59461" lon="5.61409">
        <ele>761.79998779297</ele>
        <time>2013-03-12T13:06:06.000Z</time>
      </trkpt>
      <trkpt lat="43.59461" lon="5.61412">
        <ele>762.40002441406</ele>
        <time>2013-03-12T13:06:35.000Z</time>
      </trkpt>
      <trkpt lat="43.59462" lon="5.61414">
        <ele>763</ele>
        <time>2013-03-12T13:07:03.000Z</time>
      </trkpt>
      <trkpt lat="43.59463" lon="5.61413">
        <ele>763</ele>
        <time>2013-03-12T13:07:33.000Z</time>
      </trkpt>
      <trkpt lat="43.59463" lon="5.61413">
        <ele>763</ele>
        <time>2013-03-12T13:08:10.000Z</time>
      </trkpt>
      <trkpt lat="43.59463" lon="5.61413">
        <ele>763</ele>
        <time>2013-03-12T13:08:39.000Z</time>
      </trkpt>
      <trkpt lat="43.59462" lon="5.61414">
        <ele>763.20001220703</ele>
        <time>2013-03-12T13:09:10.000Z</time>
      </trkpt>
      <trkpt lat="43.59462" lon="5.61413">
        <ele>763</ele>
        <time>2013-03-12T13:09:33.000Z</time>
      </trkpt>
      <trkpt lat="43.59462" lon="5.61414">
        <ele>763.20001220703</ele>
        <time>2013-03-12T13:09:56.000Z</time>
      </trkpt>
      <trkpt lat="43.59464" lon="5.61415">
        <ele>763.59997558594</ele>
        <time>2013-03-12T13:10:23.000Z</time>
      </trkpt>
      <trkpt lat="43.59464" lon="5.61415">
        <ele>763.59997558594</ele>
        <time>2013-03-12T13:10:43.000Z</time>
      </trkpt>
      <trkpt lat="43.59465" lon="5.61415">
        <ele>763.40002441406</ele>
        <time>2013-03-12T13:11:04.000Z</time>
      </trkpt>
      <trkpt lat="43.59463" lon="5.61413">
        <ele>763</ele>
        <time>2013-03-12T13:11:35.000Z</time>
      </trkpt>
      <trkpt lat="43.59463" lon="5.61414">
        <ele>763</ele>
        <time>2013-03-12T13:12:10.000Z</time>
      </trkpt>
      <trkpt lat="43.5946" lon="5.61412">
        <ele>762.59997558594</ele>
        <time>2013-03-12T13:12:47.000Z</time>
      </trkpt>
      <trkpt lat="43.59461" lon="5.61412">
        <ele>762.59997558594</ele>
        <time>2013-03-12T13:13:19.000Z</time>
      </trkpt>
      <trkpt lat="43.59461" lon="5.6141">
        <ele>762</ele>
        <time>2013-03-12T13:13:48.000Z</time>
      </trkpt>
      <trkpt lat="43.5946" lon="5.6141">
        <ele>762</ele>
        <time>2013-03-12T13:14:14.000Z</time>
      </trkpt>
      <trkpt lat="43.59459" lon="5.61411">
        <ele>762</ele>
        <time>2013-03-12T13:14:42.000Z</time>
      </trkpt>
      <trkpt lat="43.59461" lon="5.61412">
        <ele>762.40002441406</ele>
        <time>2013-03-12T13:15:17.000Z</time>
      </trkpt>
      <trkpt lat="43.59464" lon="5.61415">
        <ele>763.40002441406</ele>
        <time>2013-03-12T13:15:52.000Z</time>
      </trkpt>
      <trkpt lat="43.59464" lon="5.61414">
        <ele>763.20001220703</ele>
        <time>2013-03-12T13:16:28.000Z</time>
      </trkpt>
      <trkpt lat="43.59463" lon="5.61414">
        <ele>763.40002441406</ele>
        <time>2013-03-12T13:17:01.000Z</time>
      </trkpt>
      <trkpt lat="43.59464" lon="5.61416">
        <ele>763.59997558594</ele>
        <time>2013-03-12T13:17:38.000Z</time>
      </trkpt>
      <trkpt lat="43.59463" lon="5.61417">
        <ele>764</ele>
        <time>2013-03-12T13:18:15.000Z</time>
      </trkpt>
      <trkpt lat="43.59464" lon="5.61417">
        <ele>764</ele>
        <time>2013-03-12T13:18:51.000Z</time>
      </trkpt>
      <trkpt lat="43.59464" lon="5.61415">
        <ele>763.59997558594</ele>
        <time>2013-03-12T13:19:21.000Z</time>
      </trkpt>
      <trkpt lat="43.59464" lon="5.61417">
        <ele>764</ele>
        <time>2013-03-12T13:20:03.000Z</time>
      </trkpt>
      <trkpt lat="43.59464" lon="5.61416">
        <ele>764</ele>
        <time>2013-03-12T13:20:39.000Z</time>
      </trkpt>
      <trkpt lat="43.59464" lon="5.61417">
        <ele>764</ele>
        <time>2013-03-12T13:21:11.000Z</time>
      </trkpt>
      <trkpt lat="43.59463" lon="5.61417">
        <ele>764</ele>
        <time>2013-03-12T13:21:47.000Z</time>
      </trkpt>
      <trkpt lat="43.59464" lon="5.61417">
        <ele>764</ele>
        <time>2013-03-12T13:22:19.000Z</time>
      </trkpt>
      <trkpt lat="43.59462" lon="5.61416">
        <ele>763.79998779297</ele>
        <time>2013-03-12T13:22:46.000Z</time>
      </trkpt>
      <trkpt lat="43.59462" lon="5.61417">
        <ele>764</ele>
        <time>2013-03-12T13:23:18.000Z</time>
      </trkpt>
      <trkpt lat="43.59462" lon="5.61416">
        <ele>764</ele>
        <time>2013-03-12T13:23:54.000Z</time>
      </trkpt>
      <trkpt lat="43.59459" lon="5.61416">
        <ele>763.59997558594</ele>
        <time>2013-03-12T13:24:25.000Z</time>
      </trkpt>
      <trkpt lat="43.5946" lon="5.61416">
        <ele>763.79998779297</ele>
        <time>2013-03-12T13:24:50.000Z</time>
      </trkpt>
      <trkpt lat="43.5946" lon="5.61416">
        <ele>763.79998779297</ele>
        <time>2013-03-12T13:25:06.000Z</time>
      </trkpt>
      <trkpt lat="43.5946" lon="5.61416">
        <ele>763.79998779297</ele>
        <time>2013-03-12T13:25:33.000Z</time>
      </trkpt>
      <trkpt lat="43.5946" lon="5.61416">
        <ele>763.59997558594</ele>
        <time>2013-03-12T13:26:01.000Z</time>
      </trkpt>
      <trkpt lat="43.59459" lon="5.61414">
        <ele>763.20001220703</ele>
        <time>2013-03-12T13:26:39.000Z</time>
      </trkpt>
      <trkpt lat="43.59458" lon="5.61414">
        <ele>763</ele>
        <time>2013-03-12T13:27:04.000Z</time>
      </trkpt>
      <trkpt lat="43.59458" lon="5.61412">
        <ele>762.40002441406</ele>
        <time>2013-03-12T13:27:37.000Z</time>
      </trkpt>
      <trkpt lat="43.59457" lon="5.61412">
        <ele>762.40002441406</ele>
        <time>2013-03-12T13:28:13.000Z</time>
      </trkpt>
      <trkpt lat="43.59455" lon="5.61412">
        <ele>762.20001220703</ele>
        <time>2013-03-12T13:28:40.000Z</time>
      </trkpt>
      <trkpt lat="43.59455" lon="5.61411">
        <ele>762</ele>
        <time>2013-03-12T13:29:15.000Z</time>
      </trkpt>
      <trkpt lat="43.59455" lon="5.61411">
        <ele>762</ele>
        <time>2013-03-12T13:29:45.000Z</time>
      </trkpt>
      <trkpt lat="43.59457" lon="5.61412">
        <ele>762.40002441406</ele>
        <time>2013-03-12T13:30:23.000Z</time>
      </trkpt>
      <trkpt lat="43.59459" lon="5.61414">
        <ele>763.20001220703</ele>
        <time>2013-03-12T13:30:46.000Z</time>
      </trkpt>
      <trkpt lat="43.5946" lon="5.61413">
        <ele>762.79998779297</ele>
        <time>2013-03-12T13:31:09.000Z</time>
      </trkpt>
      <trkpt lat="43.59462" lon="5.61411">
        <ele>762.40002441406</ele>
        <time>2013-03-12T13:31:34.000Z</time>
      </trkpt>
      <trkpt lat="43.59462" lon="5.61411">
        <ele>762.20001220703</ele>
        <time>2013-03-12T13:31:54.000Z</time>
      </trkpt>
      <trkpt lat="43.59463" lon="5.61411">
        <ele>762.20001220703</ele>
        <time>2013-03-12T13:32:08.000Z</time>
      </trkpt>
      <trkpt lat="43.59464" lon="5.61411">
        <ele>762.20001220703</ele>
        <time>2013-03-12T13:32:25.000Z</time>
      </trkpt>
      <trkpt lat="43.59466" lon="5.61408">
        <ele>761.59997558594</ele>
        <time>2013-03-12T13:32:43.000Z</time>
      </trkpt>
      <trkpt lat="43.59467" lon="5.61406">
        <ele>761</ele>
        <time>2013-03-12T13:32:45.000Z</time>
      </trkpt>
      <trkpt lat="43.59468" lon="5.61404">
        <ele>760.59997558594</ele>
        <time>2013-03-12T13:32:46.000Z</time>
      </trkpt>
      <trkpt lat="43.5947" lon="5.61402">
        <ele>760.20001220703</ele>
        <time>2013-03-12T13:32:47.000Z</time>
      </trkpt>
      <trkpt lat="43.59492" lon="5.61389">
        <ele>758.40002441406</ele>
        <time>2013-03-12T13:32:55.000Z</time>
      </trkpt>
      <trkpt lat="43.59499" lon="5.61384">
        <ele>758</ele>
        <time>2013-03-12T13:32:57.000Z</time>
      </trkpt>
      <trkpt lat="43.59502" lon="5.61382">
        <ele>757.59997558594</ele>
        <time>2013-03-12T13:32:58.000Z</time>
      </trkpt>
      <trkpt lat="43.59507" lon="5.61381">
        <ele>757.20001220703</ele>
        <time>2013-03-12T13:32:59.000Z</time>
      </trkpt>
      <trkpt lat="43.59512" lon="5.61382">
        <ele>757</ele>
        <time>2013-03-12T13:33:00.000Z</time>
      </trkpt>
      <trkpt lat="43.59517" lon="5.61382">
        <ele>756.79998779297</ele>
        <time>2013-03-12T13:33:01.000Z</time>
      </trkpt>
      <trkpt lat="43.59522" lon="5.61381">
        <ele>756.40002441406</ele>
        <time>2013-03-12T13:33:02.000Z</time>
      </trkpt>
      <trkpt lat="43.59527" lon="5.61379">
        <ele>755.79998779297</ele>
        <time>2013-03-12T13:33:03.000Z</time>
      </trkpt>
      <trkpt lat="43.59533" lon="5.61376">
        <ele>755.20001220703</ele>
        <time>2013-03-12T13:33:04.000Z</time>
      </trkpt>
      <trkpt lat="43.59539" lon="5.61372">
        <ele>754.79998779297</ele>
        <time>2013-03-12T13:33:05.000Z</time>
      </trkpt>
      <trkpt lat="43.59545" lon="5.61368">
        <ele>754.59997558594</ele>
        <time>2013-03-12T13:33:06.000Z</time>
      </trkpt>
      <trkpt lat="43.59564" lon="5.61354">
        <ele>754.79998779297</ele>
        <time>2013-03-12T13:33:09.000Z</time>
      </trkpt>
      <trkpt lat="43.59571" lon="5.6135">
        <ele>755.40002441406</ele>
        <time>2013-03-12T13:33:10.000Z</time>
      </trkpt>
      <trkpt lat="43.59578" lon="5.61348">
        <ele>756</ele>
        <time>2013-03-12T13:33:11.000Z</time>
      </trkpt>
      <trkpt lat="43.59648" lon="5.61323">
        <ele>753.59997558594</ele>
        <time>2013-03-12T13:33:22.000Z</time>
      </trkpt>
      <trkpt lat="43.59655" lon="5.61321">
        <ele>753.20001220703</ele>
        <time>2013-03-12T13:33:24.000Z</time>
      </trkpt>
      <trkpt lat="43.59657" lon="5.61326">
        <ele>754.40002441406</ele>
        <time>2013-03-12T13:33:26.000Z</time>
      </trkpt>
      <trkpt lat="43.59655" lon="5.61329">
        <ele>755.20001220703</ele>
        <time>2013-03-12T13:33:27.000Z</time>
      </trkpt>
      <trkpt lat="43.59653" lon="5.61333">
        <ele>756</ele>
        <time>2013-03-12T13:33:28.000Z</time>
      </trkpt>
      <trkpt lat="43.5965" lon="5.61335">
        <ele>755.79998779297</ele>
        <time>2013-03-12T13:33:29.000Z</time>
      </trkpt>
      <trkpt lat="43.59646" lon="5.61337">
        <ele>755.59997558594</ele>
        <time>2013-03-12T13:33:30.000Z</time>
      </trkpt>
      <trkpt lat="43.59642" lon="5.61339">
        <ele>755.40002441406</ele>
        <time>2013-03-12T13:33:31.000Z</time>
      </trkpt>
      <trkpt lat="43.59638" lon="5.61342">
        <ele>755</ele>
        <time>2013-03-12T13:33:32.000Z</time>
      </trkpt>
      <trkpt lat="43.59634" lon="5.61345">
        <ele>754.59997558594</ele>
        <time>2013-03-12T13:33:33.000Z</time>
      </trkpt>
      <trkpt lat="43.59629" lon="5.61349">
        <ele>754</ele>
        <time>2013-03-12T13:33:34.000Z</time>
      </trkpt>
      <trkpt lat="43.596" lon="5.61378">
        <ele>751.59997558594</ele>
        <time>2013-03-12T13:33:39.000Z</time>
      </trkpt>
      <trkpt lat="43.59587" lon="5.61393">
        <ele>751</ele>
        <time>2013-03-12T13:33:41.000Z</time>
      </trkpt>
      <trkpt lat="43.59572" lon="5.61407">
        <ele>751.79998779297</ele>
        <time>2013-03-12T13:33:43.000Z</time>
      </trkpt>
      <trkpt lat="43.59564" lon="5.61413">
        <ele>752.79998779297</ele>
        <time>2013-03-12T13:33:44.000Z</time>
      </trkpt>
      <trkpt lat="43.59532" lon="5.61441">
        <ele>752</ele>
        <time>2013-03-12T13:33:48.000Z</time>
      </trkpt>
      <trkpt lat="43.59498" lon="5.61484">
        <ele>748.20001220703</ele>
        <time>2013-03-12T13:33:53.000Z</time>
      </trkpt>
      <trkpt lat="43.59475" lon="5.61509">
        <ele>748.59997558594</ele>
        <time>2013-03-12T13:33:56.000Z</time>
      </trkpt>
      <trkpt lat="43.59468" lon="5.61519">
        <ele>748.40002441406</ele>
        <time>2013-03-12T13:33:57.000Z</time>
      </trkpt>
      <trkpt lat="43.59461" lon="5.61528">
        <ele>748.40002441406</ele>
        <time>2013-03-12T13:33:58.000Z</time>
      </trkpt>
      <trkpt lat="43.59454" lon="5.61538">
        <ele>748.59997558594</ele>
        <time>2013-03-12T13:33:59.000Z</time>
      </trkpt>
      <trkpt lat="43.59447" lon="5.61548">
        <ele>748.59997558594</ele>
        <time>2013-03-12T13:34:00.000Z</time>
      </trkpt>
      <trkpt lat="43.59441" lon="5.61559">
        <ele>748.20001220703</ele>
        <time>2013-03-12T13:34:01.000Z</time>
      </trkpt>
      <trkpt lat="43.59436" lon="5.6157">
        <ele>747.79998779297</ele>
        <time>2013-03-12T13:34:02.000Z</time>
      </trkpt>
      <trkpt lat="43.59431" lon="5.6158">
        <ele>747.79998779297</ele>
        <time>2013-03-12T13:34:03.000Z</time>
      </trkpt>
      <trkpt lat="43.59427" lon="5.6159">
        <ele>747.59997558594</ele>
        <time>2013-03-12T13:34:04.000Z</time>
      </trkpt>
      <trkpt lat="43.59425" lon="5.616">
        <ele>747</ele>
        <time>2013-03-12T13:34:05.000Z</time>
      </trkpt>
      <trkpt lat="43.59423" lon="5.61611">
        <ele>746.20001220703</ele>
        <time>2013-03-12T13:34:06.000Z</time>
      </trkpt>
      <trkpt lat="43.59422" lon="5.61621">
        <ele>745</ele>
        <time>2013-03-12T13:34:07.000Z</time>
      </trkpt>
      <trkpt lat="43.59423" lon="5.61631">
        <ele>743.40002441406</ele>
        <time>2013-03-12T13:34:08.000Z</time>
      </trkpt>
      <trkpt lat="43.59425" lon="5.61641">
        <ele>741.59997558594</ele>
        <time>2013-03-12T13:34:09.000Z</time>
      </trkpt>
      <trkpt lat="43.59427" lon="5.61649">
        <ele>739.79998779297</ele>
        <time>2013-03-12T13:34:10.000Z</time>
      </trkpt>
      <trkpt lat="43.59429" lon="5.61658">
        <ele>738</ele>
        <time>2013-03-12T13:34:11.000Z</time>
      </trkpt>
      <trkpt lat="43.59429" lon="5.61666">
        <ele>736.79998779297</ele>
        <time>2013-03-12T13:34:12.000Z</time>
      </trkpt>
      <trkpt lat="43.59427" lon="5.61674">
        <ele>736.20001220703</ele>
        <time>2013-03-12T13:34:13.000Z</time>
      </trkpt>
      <trkpt lat="43.59424" lon="5.61682">
        <ele>736.20001220703</ele>
        <time>2013-03-12T13:34:14.000Z</time>
      </trkpt>
      <trkpt lat="43.59419" lon="5.61688">
        <ele>736.59997558594</ele>
        <time>2013-03-12T13:34:15.000Z</time>
      </trkpt>
      <trkpt lat="43.59413" lon="5.61694">
        <ele>736.20001220703</ele>
        <time>2013-03-12T13:34:16.000Z</time>
      </trkpt>
      <trkpt lat="43.59407" lon="5.61697">
        <ele>735.40002441406</ele>
        <time>2013-03-12T13:34:17.000Z</time>
      </trkpt>
      <trkpt lat="43.594" lon="5.61699">
        <ele>735</ele>
        <time>2013-03-12T13:34:18.000Z</time>
      </trkpt>
      <trkpt lat="43.59393" lon="5.617">
        <ele>734.59997558594</ele>
        <time>2013-03-12T13:34:19.000Z</time>
      </trkpt>
      <trkpt lat="43.59387" lon="5.61701">
        <ele>734.40002441406</ele>
        <time>2013-03-12T13:34:20.000Z</time>
      </trkpt>
      <trkpt lat="43.5938" lon="5.61701">
        <ele>734.20001220703</ele>
        <time>2013-03-12T13:34:21.000Z</time>
      </trkpt>
      <trkpt lat="43.59374" lon="5.617">
        <ele>734.20001220703</ele>
        <time>2013-03-12T13:34:22.000Z</time>
      </trkpt>
      <trkpt lat="43.59367" lon="5.61697">
        <ele>734.40002441406</ele>
        <time>2013-03-12T13:34:23.000Z</time>
      </trkpt>
      <trkpt lat="43.59311" lon="5.61687">
        <ele>735</ele>
        <time>2013-03-12T13:34:30.000Z</time>
      </trkpt>
      <trkpt lat="43.59302" lon="5.61688">
        <ele>734.79998779297</ele>
        <time>2013-03-12T13:34:31.000Z</time>
      </trkpt>
      <trkpt lat="43.59293" lon="5.6169">
        <ele>734.40002441406</ele>
        <time>2013-03-12T13:34:32.000Z</time>
      </trkpt>
      <trkpt lat="43.59285" lon="5.61694">
        <ele>733.59997558594</ele>
        <time>2013-03-12T13:34:33.000Z</time>
      </trkpt>
      <trkpt lat="43.59277" lon="5.61699">
        <ele>732.79998779297</ele>
        <time>2013-03-12T13:34:34.000Z</time>
      </trkpt>
      <trkpt lat="43.59269" lon="5.61704">
        <ele>731.59997558594</ele>
        <time>2013-03-12T13:34:35.000Z</time>
      </trkpt>
      <trkpt lat="43.59261" lon="5.6171">
        <ele>730.59997558594</ele>
        <time>2013-03-12T13:34:36.000Z</time>
      </trkpt>
      <trkpt lat="43.59252" lon="5.61716">
        <ele>729.59997558594</ele>
        <time>2013-03-12T13:34:37.000Z</time>
      </trkpt>
      <trkpt lat="43.59233" lon="5.61726">
        <ele>727.59997558594</ele>
        <time>2013-03-12T13:34:39.000Z</time>
      </trkpt>
      <trkpt lat="43.59225" lon="5.61733">
        <ele>726.40002441406</ele>
        <time>2013-03-12T13:34:40.000Z</time>
      </trkpt>
      <trkpt lat="43.5919" lon="5.61759">
        <ele>721.20001220703</ele>
        <time>2013-03-12T13:34:44.000Z</time>
      </trkpt>
      <trkpt lat="43.5918" lon="5.61762">
        <ele>720.40002441406</ele>
        <time>2013-03-12T13:34:45.000Z</time>
      </trkpt>
      <trkpt lat="43.59171" lon="5.61764">
        <ele>719.79998779297</ele>
        <time>2013-03-12T13:34:46.000Z</time>
      </trkpt>
      <trkpt lat="43.59161" lon="5.61765">
        <ele>718.79998779297</ele>
        <time>2013-03-12T13:34:47.000Z</time>
      </trkpt>
      <trkpt lat="43.59151" lon="5.61765">
        <ele>717.40002441406</ele>
        <time>2013-03-12T13:34:48.000Z</time>
      </trkpt>
      <trkpt lat="43.59141" lon="5.61766">
        <ele>715.59997558594</ele>
        <time>2013-03-12T13:34:49.000Z</time>
      </trkpt>
      <trkpt lat="43.59131" lon="5.61769">
        <ele>713.59997558594</ele>
        <time>2013-03-12T13:34:50.000Z</time>
      </trkpt>
      <trkpt lat="43.59089" lon="5.61785">
        <ele>705.40002441406</ele>
        <time>2013-03-12T13:34:54.000Z</time>
      </trkpt>
      <trkpt lat="43.59048" lon="5.61805">
        <ele>699.20001220703</ele>
        <time>2013-03-12T13:34:58.000Z</time>
      </trkpt>
      <trkpt lat="43.59029" lon="5.61812">
        <ele>698.20001220703</ele>
        <time>2013-03-12T13:35:00.000Z</time>
      </trkpt>
      <trkpt lat="43.5902" lon="5.61816">
        <ele>698.20001220703</ele>
        <time>2013-03-12T13:35:01.000Z</time>
      </trkpt>
      <trkpt lat="43.59013" lon="5.61823">
        <ele>699</ele>
        <time>2013-03-12T13:35:02.000Z</time>
      </trkpt>
      <trkpt lat="43.59008" lon="5.61832">
        <ele>700.40002441406</ele>
        <time>2013-03-12T13:35:03.000Z</time>
      </trkpt>
      <trkpt lat="43.59004" lon="5.61842">
        <ele>700.40002441406</ele>
        <time>2013-03-12T13:35:04.000Z</time>
      </trkpt>
      <trkpt lat="43.58983" lon="5.61889">
        <ele>694.20001220703</ele>
        <time>2013-03-12T13:35:09.000Z</time>
      </trkpt>
      <trkpt lat="43.58979" lon="5.61897">
        <ele>693</ele>
        <time>2013-03-12T13:35:10.000Z</time>
      </trkpt>
      <trkpt lat="43.58975" lon="5.61902">
        <ele>692</ele>
        <time>2013-03-12T13:35:11.000Z</time>
      </trkpt>
      <trkpt lat="43.58967" lon="5.61912">
        <ele>690.59997558594</ele>
        <time>2013-03-12T13:35:14.000Z</time>
      </trkpt>
      <trkpt lat="43.58968" lon="5.61916">
        <ele>690.79998779297</ele>
        <time>2013-03-12T13:35:15.000Z</time>
      </trkpt>
      <trkpt lat="43.5897" lon="5.61919">
        <ele>691</ele>
        <time>2013-03-12T13:35:16.000Z</time>
      </trkpt>
      <trkpt lat="43.58974" lon="5.61922">
        <ele>691.20001220703</ele>
        <time>2013-03-12T13:35:17.000Z</time>
      </trkpt>
      <trkpt lat="43.58979" lon="5.61925">
        <ele>691.59997558594</ele>
        <time>2013-03-12T13:35:18.000Z</time>
      </trkpt>
      <trkpt lat="43.58985" lon="5.61928">
        <ele>692</ele>
        <time>2013-03-12T13:35:19.000Z</time>
      </trkpt>
      <trkpt lat="43.58991" lon="5.61932">
        <ele>692.59997558594</ele>
        <time>2013-03-12T13:35:20.000Z</time>
      </trkpt>
      <trkpt lat="43.58998" lon="5.61934">
        <ele>693.40002441406</ele>
        <time>2013-03-12T13:35:21.000Z</time>
      </trkpt>
      <trkpt lat="43.59005" lon="5.61935">
        <ele>692.79998779297</ele>
        <time>2013-03-12T13:35:22.000Z</time>
      </trkpt>
      <trkpt lat="43.59028" lon="5.61939">
        <ele>689.20001220703</ele>
        <time>2013-03-12T13:35:25.000Z</time>
      </trkpt>
      <trkpt lat="43.59042" lon="5.61941">
        <ele>687.20001220703</ele>
        <time>2013-03-12T13:35:27.000Z</time>
      </trkpt>
      <trkpt lat="43.59047" lon="5.61941">
        <ele>686.40002441406</ele>
        <time>2013-03-12T13:35:28.000Z</time>
      </trkpt>
      <trkpt lat="43.59051" lon="5.6194">
        <ele>686</ele>
        <time>2013-03-12T13:35:29.000Z</time>
      </trkpt>
      <trkpt lat="43.59055" lon="5.6194">
        <ele>685.59997558594</ele>
        <time>2013-03-12T13:35:30.000Z</time>
      </trkpt>
      <trkpt lat="43.59058" lon="5.61942">
        <ele>684.79998779297</ele>
        <time>2013-03-12T13:35:31.000Z</time>
      </trkpt>
      <trkpt lat="43.5906" lon="5.61946">
        <ele>683.79998779297</ele>
        <time>2013-03-12T13:35:32.000Z</time>
      </trkpt>
      <trkpt lat="43.5906" lon="5.61952">
        <ele>682.79998779297</ele>
        <time>2013-03-12T13:35:33.000Z</time>
      </trkpt>
      <trkpt lat="43.5906" lon="5.6196">
        <ele>681.59997558594</ele>
        <time>2013-03-12T13:35:34.000Z</time>
      </trkpt>
      <trkpt lat="43.59059" lon="5.61967">
        <ele>680.40002441406</ele>
        <time>2013-03-12T13:35:35.000Z</time>
      </trkpt>
      <trkpt lat="43.59057" lon="5.61974">
        <ele>679.40002441406</ele>
        <time>2013-03-12T13:35:36.000Z</time>
      </trkpt>
      <trkpt lat="43.59055" lon="5.6198">
        <ele>678.59997558594</ele>
        <time>2013-03-12T13:35:37.000Z</time>
      </trkpt>
      <trkpt lat="43.5905" lon="5.61986">
        <ele>678.40002441406</ele>
        <time>2013-03-12T13:35:38.000Z</time>
      </trkpt>
      <trkpt lat="43.59044" lon="5.61991">
        <ele>678.20001220703</ele>
        <time>2013-03-12T13:35:39.000Z</time>
      </trkpt>
      <trkpt lat="43.59038" lon="5.61995">
        <ele>678.20001220703</ele>
        <time>2013-03-12T13:35:40.000Z</time>
      </trkpt>
      <trkpt lat="43.59031" lon="5.61999">
        <ele>678.40002441406</ele>
        <time>2013-03-12T13:35:41.000Z</time>
      </trkpt>
      <trkpt lat="43.59025" lon="5.62004">
        <ele>678.20001220703</ele>
        <time>2013-03-12T13:35:42.000Z</time>
      </trkpt>
      <trkpt lat="43.59019" lon="5.62011">
        <ele>677.59997558594</ele>
        <time>2013-03-12T13:35:43.000Z</time>
      </trkpt>
      <trkpt lat="43.59014" lon="5.62019">
        <ele>676.59997558594</ele>
        <time>2013-03-12T13:35:44.000Z</time>
      </trkpt>
      <trkpt lat="43.5901" lon="5.62029">
        <ele>675.40002441406</ele>
        <time>2013-03-12T13:35:45.000Z</time>
      </trkpt>
      <trkpt lat="43.59005" lon="5.62039">
        <ele>673.79998779297</ele>
        <time>2013-03-12T13:35:46.000Z</time>
      </trkpt>
      <trkpt lat="43.59" lon="5.6205">
        <ele>672.20001220703</ele>
        <time>2013-03-12T13:35:47.000Z</time>
      </trkpt>
      <trkpt lat="43.58996" lon="5.62063">
        <ele>669.20001220703</ele>
        <time>2013-03-12T13:35:48.000Z</time>
      </trkpt>
      <trkpt lat="43.58993" lon="5.62076">
        <ele>666</ele>
        <time>2013-03-12T13:35:49.000Z</time>
      </trkpt>
      <trkpt lat="43.58989" lon="5.62099">
        <ele>660.59997558594</ele>
        <time>2013-03-12T13:35:51.000Z</time>
      </trkpt>
      <trkpt lat="43.58984" lon="5.62116">
        <ele>656</ele>
        <time>2013-03-12T13:35:53.000Z</time>
      </trkpt>
      <trkpt lat="43.58981" lon="5.62124">
        <ele>653.59997558594</ele>
        <time>2013-03-12T13:35:54.000Z</time>
      </trkpt>
      <trkpt lat="43.58976" lon="5.6213">
        <ele>651.40002441406</ele>
        <time>2013-03-12T13:35:55.000Z</time>
      </trkpt>
      <trkpt lat="43.58972" lon="5.62135">
        <ele>649.40002441406</ele>
        <time>2013-03-12T13:35:56.000Z</time>
      </trkpt>
      <trkpt lat="43.58967" lon="5.62138">
        <ele>648</ele>
        <time>2013-03-12T13:35:57.000Z</time>
      </trkpt>
      <trkpt lat="43.58963" lon="5.62138">
        <ele>647</ele>
        <time>2013-03-12T13:35:58.000Z</time>
      </trkpt>
      <trkpt lat="43.58959" lon="5.62136">
        <ele>646.59997558594</ele>
        <time>2013-03-12T13:35:59.000Z</time>
      </trkpt>
      <trkpt lat="43.58955" lon="5.62133">
        <ele>646.40002441406</ele>
        <time>2013-03-12T13:36:00.000Z</time>
      </trkpt>
      <trkpt lat="43.58951" lon="5.62129">
        <ele>646.59997558594</ele>
        <time>2013-03-12T13:36:01.000Z</time>
      </trkpt>
      <trkpt lat="43.58946" lon="5.62123">
        <ele>646.79998779297</ele>
        <time>2013-03-12T13:36:02.000Z</time>
      </trkpt>
      <trkpt lat="43.58941" lon="5.62117">
        <ele>647.20001220703</ele>
        <time>2013-03-12T13:36:03.000Z</time>
      </trkpt>
      <trkpt lat="43.58935" lon="5.6211">
        <ele>647.40002441406</ele>
        <time>2013-03-12T13:36:04.000Z</time>
      </trkpt>
      <trkpt lat="43.58916" lon="5.62089">
        <ele>648.20001220703</ele>
        <time>2013-03-12T13:36:07.000Z</time>
      </trkpt>
      <trkpt lat="43.58892" lon="5.62066">
        <ele>647.20001220703</ele>
        <time>2013-03-12T13:36:10.000Z</time>
      </trkpt>
      <trkpt lat="43.58869" lon="5.62048">
        <ele>644.40002441406</ele>
        <time>2013-03-12T13:36:13.000Z</time>
      </trkpt>
      <trkpt lat="43.58861" lon="5.62043">
        <ele>642.79998779297</ele>
        <time>2013-03-12T13:36:14.000Z</time>
      </trkpt>
      <trkpt lat="43.58852" lon="5.6204">
        <ele>640.79998779297</ele>
        <time>2013-03-12T13:36:15.000Z</time>
      </trkpt>
      <trkpt lat="43.58844" lon="5.62038">
        <ele>638.40002441406</ele>
        <time>2013-03-12T13:36:16.000Z</time>
      </trkpt>
      <trkpt lat="43.58835" lon="5.62039">
        <ele>635.20001220703</ele>
        <time>2013-03-12T13:36:17.000Z</time>
      </trkpt>
      <trkpt lat="43.58826" lon="5.62042">
        <ele>632.59997558594</ele>
        <time>2013-03-12T13:36:18.000Z</time>
      </trkpt>
      <trkpt lat="43.58819" lon="5.62045">
        <ele>630.40002441406</ele>
        <time>2013-03-12T13:36:19.000Z</time>
      </trkpt>
      <trkpt lat="43.58806" lon="5.62048">
        <ele>626.79998779297</ele>
        <time>2013-03-12T13:36:21.000Z</time>
      </trkpt>
      <trkpt lat="43.58801" lon="5.62048">
        <ele>625.59997558594</ele>
        <time>2013-03-12T13:36:22.000Z</time>
      </trkpt>
      <trkpt lat="43.58795" lon="5.62046">
        <ele>624.59997558594</ele>
        <time>2013-03-12T13:36:23.000Z</time>
      </trkpt>
      <trkpt lat="43.58789" lon="5.62044">
        <ele>623.20001220703</ele>
        <time>2013-03-12T13:36:24.000Z</time>
      </trkpt>
      <trkpt lat="43.58784" lon="5.62043">
        <ele>621.79998779297</ele>
        <time>2013-03-12T13:36:25.000Z</time>
      </trkpt>
      <trkpt lat="43.5878" lon="5.62045">
        <ele>620.79998779297</ele>
        <time>2013-03-12T13:36:26.000Z</time>
      </trkpt>
      <trkpt lat="43.58777" lon="5.62049">
        <ele>620</ele>
        <time>2013-03-12T13:36:27.000Z</time>
      </trkpt>
      <trkpt lat="43.58774" lon="5.62052">
        <ele>619.40002441406</ele>
        <time>2013-03-12T13:36:28.000Z</time>
      </trkpt>
      <trkpt lat="43.58771" lon="5.62057">
        <ele>619</ele>
        <time>2013-03-12T13:36:29.000Z</time>
      </trkpt>
      <trkpt lat="43.5877" lon="5.62061">
        <ele>618.79998779297</ele>
        <time>2013-03-12T13:36:30.000Z</time>
      </trkpt>
      <trkpt lat="43.58769" lon="5.62066">
        <ele>618.79998779297</ele>
        <time>2013-03-12T13:36:31.000Z</time>
      </trkpt>
      <trkpt lat="43.58768" lon="5.62072">
        <ele>618.79998779297</ele>
        <time>2013-03-12T13:36:32.000Z</time>
      </trkpt>
      <trkpt lat="43.58767" lon="5.62077">
        <ele>618.79998779297</ele>
        <time>2013-03-12T13:36:33.000Z</time>
      </trkpt>
      <trkpt lat="43.58766" lon="5.62099">
        <ele>617</ele>
        <time>2013-03-12T13:36:36.000Z</time>
      </trkpt>
      <trkpt lat="43.58765" lon="5.62116">
        <ele>615</ele>
        <time>2013-03-12T13:36:39.000Z</time>
      </trkpt>
      <trkpt lat="43.58767" lon="5.62118">
        <ele>614.59997558594</ele>
        <time>2013-03-12T13:36:40.000Z</time>
      </trkpt>
      <trkpt lat="43.58769" lon="5.62119">
        <ele>614.59997558594</ele>
        <time>2013-03-12T13:36:41.000Z</time>
      </trkpt>
      <trkpt lat="43.58771" lon="5.62117">
        <ele>615</ele>
        <time>2013-03-12T13:36:42.000Z</time>
      </trkpt>
      <trkpt lat="43.58774" lon="5.62113">
        <ele>615.59997558594</ele>
        <time>2013-03-12T13:36:43.000Z</time>
      </trkpt>
      <trkpt lat="43.58776" lon="5.62109">
        <ele>616.40002441406</ele>
        <time>2013-03-12T13:36:44.000Z</time>
      </trkpt>
      <trkpt lat="43.58778" lon="5.62103">
        <ele>617.20001220703</ele>
        <time>2013-03-12T13:36:45.000Z</time>
      </trkpt>
      <trkpt lat="43.5878" lon="5.62097">
        <ele>618.20001220703</ele>
        <time>2013-03-12T13:36:46.000Z</time>
      </trkpt>
      <trkpt lat="43.58783" lon="5.62092">
        <ele>619.40002441406</ele>
        <time>2013-03-12T13:36:47.000Z</time>
      </trkpt>
      <trkpt lat="43.58787" lon="5.6209">
        <ele>620.20001220703</ele>
        <time>2013-03-12T13:36:48.000Z</time>
      </trkpt>
      <trkpt lat="43.58791" lon="5.62091">
        <ele>620.40002441406</ele>
        <time>2013-03-12T13:36:49.000Z</time>
      </trkpt>
      <trkpt lat="43.58793" lon="5.62095">
        <ele>619.79998779297</ele>
        <time>2013-03-12T13:36:50.000Z</time>
      </trkpt>
      <trkpt lat="43.58793" lon="5.62101">
        <ele>618.59997558594</ele>
        <time>2013-03-12T13:36:51.000Z</time>
      </trkpt>
      <trkpt lat="43.58792" lon="5.62107">
        <ele>617.40002441406</ele>
        <time>2013-03-12T13:36:52.000Z</time>
      </trkpt>
      <trkpt lat="43.5879" lon="5.62113">
        <ele>616.20001220703</ele>
        <time>2013-03-12T13:36:53.000Z</time>
      </trkpt>
      <trkpt lat="43.58785" lon="5.62129">
        <ele>613.20001220703</ele>
        <time>2013-03-12T13:36:55.000Z</time>
      </trkpt>
      <trkpt lat="43.5878" lon="5.62167">
        <ele>607.20001220703</ele>
        <time>2013-03-12T13:36:59.000Z</time>
      </trkpt>
      <trkpt lat="43.58771" lon="5.6221">
        <ele>603.20001220703</ele>
        <time>2013-03-12T13:37:03.000Z</time>
      </trkpt>
      <trkpt lat="43.58763" lon="5.6225">
        <ele>600.40002441406</ele>
        <time>2013-03-12T13:37:06.000Z</time>
      </trkpt>
      <trkpt lat="43.58757" lon="5.62294">
        <ele>594.59997558594</ele>
        <time>2013-03-12T13:37:09.000Z</time>
      </trkpt>
      <trkpt lat="43.58749" lon="5.62337">
        <ele>589.40002441406</ele>
        <time>2013-03-12T13:37:12.000Z</time>
      </trkpt>
      <trkpt lat="43.58743" lon="5.62364">
        <ele>585</ele>
        <time>2013-03-12T13:37:14.000Z</time>
      </trkpt>
      <trkpt lat="43.58736" lon="5.62392">
        <ele>580.59997558594</ele>
        <time>2013-03-12T13:37:16.000Z</time>
      </trkpt>
      <trkpt lat="43.58724" lon="5.62437">
        <ele>574.20001220703</ele>
        <time>2013-03-12T13:37:19.000Z</time>
      </trkpt>
      <trkpt lat="43.58718" lon="5.62466">
        <ele>570.40002441406</ele>
        <time>2013-03-12T13:37:21.000Z</time>
      </trkpt>
      <trkpt lat="43.58712" lon="5.62508">
        <ele>565</ele>
        <time>2013-03-12T13:37:24.000Z</time>
      </trkpt>
      <trkpt lat="43.58708" lon="5.62533">
        <ele>562</ele>
        <time>2013-03-12T13:37:26.000Z</time>
      </trkpt>
      <trkpt lat="43.58706" lon="5.62566">
        <ele>557.79998779297</ele>
        <time>2013-03-12T13:37:29.000Z</time>
      </trkpt>
      <trkpt lat="43.58708" lon="5.62606">
        <ele>553.59997558594</ele>
        <time>2013-03-12T13:37:32.000Z</time>
      </trkpt>
      <trkpt lat="43.58713" lon="5.62647">
        <ele>549.79998779297</ele>
        <time>2013-03-12T13:37:35.000Z</time>
      </trkpt>
      <trkpt lat="43.58719" lon="5.62691">
        <ele>545.79998779297</ele>
        <time>2013-03-12T13:37:38.000Z</time>
      </trkpt>
      <trkpt lat="43.58728" lon="5.62736">
        <ele>541.59997558594</ele>
        <time>2013-03-12T13:37:41.000Z</time>
      </trkpt>
      <trkpt lat="43.58744" lon="5.62796">
        <ele>539.79998779297</ele>
        <time>2013-03-12T13:37:45.000Z</time>
      </trkpt>
      <trkpt lat="43.5877" lon="5.62866">
        <ele>534.59997558594</ele>
        <time>2013-03-12T13:37:50.000Z</time>
      </trkpt>
      <trkpt lat="43.58777" lon="5.62877">
        <ele>533.40002441406</ele>
        <time>2013-03-12T13:37:51.000Z</time>
      </trkpt>
      <trkpt lat="43.58812" lon="5.6293">
        <ele>530.79998779297</ele>
        <time>2013-03-12T13:37:56.000Z</time>
      </trkpt>
      <trkpt lat="43.58834" lon="5.62961">
        <ele>531.40002441406</ele>
        <time>2013-03-12T13:37:59.000Z</time>
      </trkpt>
      <trkpt lat="43.58854" lon="5.62998">
        <ele>529</ele>
        <time>2013-03-12T13:38:02.000Z</time>
      </trkpt>
      <trkpt lat="43.58871" lon="5.6304">
        <ele>523.40002441406</ele>
        <time>2013-03-12T13:38:05.000Z</time>
      </trkpt>
      <trkpt lat="43.58885" lon="5.63079">
        <ele>520.40002441406</ele>
        <time>2013-03-12T13:38:08.000Z</time>
      </trkpt>
      <trkpt lat="43.58896" lon="5.63102">
        <ele>518.40002441406</ele>
        <time>2013-03-12T13:38:10.000Z</time>
      </trkpt>
      <trkpt lat="43.58902" lon="5.63112">
        <ele>517.59997558594</ele>
        <time>2013-03-12T13:38:11.000Z</time>
      </trkpt>
      <trkpt lat="43.58921" lon="5.63143">
        <ele>515.59997558594</ele>
        <time>2013-03-12T13:38:14.000Z</time>
      </trkpt>
      <trkpt lat="43.58926" lon="5.63154">
        <ele>514</ele>
        <time>2013-03-12T13:38:15.000Z</time>
      </trkpt>
      <trkpt lat="43.58934" lon="5.63178">
        <ele>511</ele>
        <time>2013-03-12T13:38:17.000Z</time>
      </trkpt>
      <trkpt lat="43.58952" lon="5.63214">
        <ele>506.39999389648</ele>
        <time>2013-03-12T13:38:20.000Z</time>
      </trkpt>
      <trkpt lat="43.58959" lon="5.63223">
        <ele>505.20001220703</ele>
        <time>2013-03-12T13:38:21.000Z</time>
      </trkpt>
      <trkpt lat="43.58966" lon="5.63231">
        <ele>504.20001220703</ele>
        <time>2013-03-12T13:38:22.000Z</time>
      </trkpt>
      <trkpt lat="43.58978" lon="5.63243">
        <ele>502.60000610352</ele>
        <time>2013-03-12T13:38:24.000Z</time>
      </trkpt>
      <trkpt lat="43.58982" lon="5.63249">
        <ele>502.20001220703</ele>
        <time>2013-03-12T13:38:25.000Z</time>
      </trkpt>
      <trkpt lat="43.58985" lon="5.63254">
        <ele>501.60000610352</ele>
        <time>2013-03-12T13:38:26.000Z</time>
      </trkpt>
      <trkpt lat="43.58985" lon="5.6326">
        <ele>501</ele>
        <time>2013-03-12T13:38:27.000Z</time>
      </trkpt>
      <trkpt lat="43.58984" lon="5.63265">
        <ele>500.39999389648</ele>
        <time>2013-03-12T13:38:28.000Z</time>
      </trkpt>
      <trkpt lat="43.58983" lon="5.63271">
        <ele>500</ele>
        <time>2013-03-12T13:38:29.000Z</time>
      </trkpt>
      <trkpt lat="43.5898" lon="5.63277">
        <ele>499.39999389648</ele>
        <time>2013-03-12T13:38:30.000Z</time>
      </trkpt>
      <trkpt lat="43.58978" lon="5.63284">
        <ele>499</ele>
        <time>2013-03-12T13:38:31.000Z</time>
      </trkpt>
      <trkpt lat="43.58975" lon="5.63291">
        <ele>498.20001220703</ele>
        <time>2013-03-12T13:38:32.000Z</time>
      </trkpt>
      <trkpt lat="43.58971" lon="5.63298">
        <ele>497.60000610352</ele>
        <time>2013-03-12T13:38:33.000Z</time>
      </trkpt>
      <trkpt lat="43.58967" lon="5.63304">
        <ele>497</ele>
        <time>2013-03-12T13:38:34.000Z</time>
      </trkpt>
      <trkpt lat="43.58963" lon="5.63309">
        <ele>496.39999389648</ele>
        <time>2013-03-12T13:38:35.000Z</time>
      </trkpt>
      <trkpt lat="43.5896" lon="5.63313">
        <ele>496</ele>
        <time>2013-03-12T13:38:36.000Z</time>
      </trkpt>
      <trkpt lat="43.58957" lon="5.63316">
        <ele>495.60000610352</ele>
        <time>2013-03-12T13:38:37.000Z</time>
      </trkpt>
      <trkpt lat="43.58955" lon="5.6332">
        <ele>495.20001220703</ele>
        <time>2013-03-12T13:38:38.000Z</time>
      </trkpt>
      <trkpt lat="43.58955" lon="5.63323">
        <ele>494.60000610352</ele>
        <time>2013-03-12T13:38:39.000Z</time>
      </trkpt>
      <trkpt lat="43.58957" lon="5.63326">
        <ele>494.20001220703</ele>
        <time>2013-03-12T13:38:40.000Z</time>
      </trkpt>
      <trkpt lat="43.5896" lon="5.63329">
        <ele>494</ele>
        <time>2013-03-12T13:38:41.000Z</time>
      </trkpt>
      <trkpt lat="43.58964" lon="5.6333">
        <ele>494</ele>
        <time>2013-03-12T13:38:42.000Z</time>
      </trkpt>
      <trkpt lat="43.58968" lon="5.63328">
        <ele>494.20001220703</ele>
        <time>2013-03-12T13:38:43.000Z</time>
      </trkpt>
      <trkpt lat="43.58973" lon="5.63326">
        <ele>494.39999389648</ele>
        <time>2013-03-12T13:38:44.000Z</time>
      </trkpt>
      <trkpt lat="43.58977" lon="5.63326">
        <ele>494.39999389648</ele>
        <time>2013-03-12T13:38:45.000Z</time>
      </trkpt>
      <trkpt lat="43.58979" lon="5.63328">
        <ele>494.20001220703</ele>
        <time>2013-03-12T13:38:46.000Z</time>
      </trkpt>
      <trkpt lat="43.58982" lon="5.63333">
        <ele>493.79998779297</ele>
        <time>2013-03-12T13:38:47.000Z</time>
      </trkpt>
      <trkpt lat="43.58982" lon="5.63338">
        <ele>493</ele>
        <time>2013-03-12T13:38:48.000Z</time>
      </trkpt>
      <trkpt lat="43.58981" lon="5.63344">
        <ele>492</ele>
        <time>2013-03-12T13:38:49.000Z</time>
      </trkpt>
      <trkpt lat="43.58977" lon="5.6335">
        <ele>491</ele>
        <time>2013-03-12T13:38:50.000Z</time>
      </trkpt>
      <trkpt lat="43.58973" lon="5.63354">
        <ele>490.20001220703</ele>
        <time>2013-03-12T13:38:51.000Z</time>
      </trkpt>
      <trkpt lat="43.58969" lon="5.63357">
        <ele>489.60000610352</ele>
        <time>2013-03-12T13:38:52.000Z</time>
      </trkpt>
      <trkpt lat="43.58963" lon="5.63358">
        <ele>489.39999389648</ele>
        <time>2013-03-12T13:38:53.000Z</time>
      </trkpt>
      <trkpt lat="43.58959" lon="5.63357">
        <ele>489.60000610352</ele>
        <time>2013-03-12T13:38:54.000Z</time>
      </trkpt>
      <trkpt lat="43.58956" lon="5.63356">
        <ele>489.60000610352</ele>
        <time>2013-03-12T13:38:55.000Z</time>
      </trkpt>
      <trkpt lat="43.58953" lon="5.63357">
        <ele>489.39999389648</ele>
        <time>2013-03-12T13:38:56.000Z</time>
      </trkpt>
      <trkpt lat="43.58952" lon="5.6336">
        <ele>488.79998779297</ele>
        <time>2013-03-12T13:38:57.000Z</time>
      </trkpt>
      <trkpt lat="43.58952" lon="5.63365">
        <ele>488</ele>
        <time>2013-03-12T13:38:58.000Z</time>
      </trkpt>
      <trkpt lat="43.58954" lon="5.6337">
        <ele>487.20001220703</ele>
        <time>2013-03-12T13:38:59.000Z</time>
      </trkpt>
      <trkpt lat="43.58956" lon="5.63376">
        <ele>486.20001220703</ele>
        <time>2013-03-12T13:39:00.000Z</time>
      </trkpt>
      <trkpt lat="43.5896" lon="5.63382">
        <ele>485.20001220703</ele>
        <time>2013-03-12T13:39:01.000Z</time>
      </trkpt>
      <trkpt lat="43.58965" lon="5.63389">
        <ele>484.20001220703</ele>
        <time>2013-03-12T13:39:02.000Z</time>
      </trkpt>
      <trkpt lat="43.58968" lon="5.63397">
        <ele>483</ele>
        <time>2013-03-12T13:39:03.000Z</time>
      </trkpt>
      <trkpt lat="43.58972" lon="5.63406">
        <ele>481.60000610352</ele>
        <time>2013-03-12T13:39:04.000Z</time>
      </trkpt>
      <trkpt lat="43.58974" lon="5.63414">
        <ele>480.39999389648</ele>
        <time>2013-03-12T13:39:05.000Z</time>
      </trkpt>
      <trkpt lat="43.58976" lon="5.63422">
        <ele>479.20001220703</ele>
        <time>2013-03-12T13:39:06.000Z</time>
      </trkpt>
      <trkpt lat="43.58978" lon="5.63428">
        <ele>478</ele>
        <time>2013-03-12T13:39:07.000Z</time>
      </trkpt>
      <trkpt lat="43.58981" lon="5.63434">
        <ele>477</ele>
        <time>2013-03-12T13:39:08.000Z</time>
      </trkpt>
      <trkpt lat="43.58985" lon="5.63438">
        <ele>476.60000610352</ele>
        <time>2013-03-12T13:39:09.000Z</time>
      </trkpt>
      <trkpt lat="43.58991" lon="5.6344">
        <ele>476.39999389648</ele>
        <time>2013-03-12T13:39:10.000Z</time>
      </trkpt>
      <trkpt lat="43.58998" lon="5.6344">
        <ele>477</ele>
        <time>2013-03-12T13:39:11.000Z</time>
      </trkpt>
      <trkpt lat="43.59005" lon="5.63437">
        <ele>477.20001220703</ele>
        <time>2013-03-12T13:39:12.000Z</time>
      </trkpt>
      <trkpt lat="43.59013" lon="5.63434">
        <ele>477.20001220703</ele>
        <time>2013-03-12T13:39:13.000Z</time>
      </trkpt>
      <trkpt lat="43.5902" lon="5.63432">
        <ele>477</ele>
        <time>2013-03-12T13:39:14.000Z</time>
      </trkpt>
      <trkpt lat="43.59037" lon="5.6343">
        <ele>476.39999389648</ele>
        <time>2013-03-12T13:39:16.000Z</time>
      </trkpt>
      <trkpt lat="43.59054" lon="5.63431">
        <ele>475.20001220703</ele>
        <time>2013-03-12T13:39:18.000Z</time>
      </trkpt>
      <trkpt lat="43.59061" lon="5.63434">
        <ele>474.39999389648</ele>
        <time>2013-03-12T13:39:19.000Z</time>
      </trkpt>
      <trkpt lat="43.59068" lon="5.63439">
        <ele>473.20001220703</ele>
        <time>2013-03-12T13:39:20.000Z</time>
      </trkpt>
      <trkpt lat="43.59074" lon="5.63446">
        <ele>471.60000610352</ele>
        <time>2013-03-12T13:39:21.000Z</time>
      </trkpt>
      <trkpt lat="43.59081" lon="5.63454">
        <ele>469.79998779297</ele>
        <time>2013-03-12T13:39:22.000Z</time>
      </trkpt>
      <trkpt lat="43.59087" lon="5.63463">
        <ele>467.60000610352</ele>
        <time>2013-03-12T13:39:23.000Z</time>
      </trkpt>
      <trkpt lat="43.59092" lon="5.63474">
        <ele>465.39999389648</ele>
        <time>2013-03-12T13:39:24.000Z</time>
      </trkpt>
      <trkpt lat="43.59098" lon="5.63484">
        <ele>463.20001220703</ele>
        <time>2013-03-12T13:39:25.000Z</time>
      </trkpt>
      <trkpt lat="43.59116" lon="5.63513">
        <ele>457.20001220703</ele>
        <time>2013-03-12T13:39:28.000Z</time>
      </trkpt>
      <trkpt lat="43.59124" lon="5.63529">
        <ele>454.79998779297</ele>
        <time>2013-03-12T13:39:30.000Z</time>
      </trkpt>
      <trkpt lat="43.59127" lon="5.63534">
        <ele>454.20001220703</ele>
        <time>2013-03-12T13:39:31.000Z</time>
      </trkpt>
      <trkpt lat="43.5913" lon="5.63538">
        <ele>453.60000610352</ele>
        <time>2013-03-12T13:39:32.000Z</time>
      </trkpt>
      <trkpt lat="43.59131" lon="5.6354">
        <ele>453.20001220703</ele>
        <time>2013-03-12T13:39:33.000Z</time>
      </trkpt>
      <trkpt lat="43.59137" lon="5.63544">
        <ele>452.79998779297</ele>
        <time>2013-03-12T13:39:41.000Z</time>
      </trkpt>
      <trkpt lat="43.59135" lon="5.63544">
        <ele>452.79998779297</ele>
        <time>2013-03-12T13:40:08.000Z</time>
      </trkpt>
      <trkpt lat="43.59136" lon="5.63544">
        <ele>452.79998779297</ele>
        <time>2013-03-12T13:40:27.000Z</time>
      </trkpt>
      <trkpt lat="43.59134" lon="5.63546">
        <ele>452.60000610352</ele>
        <time>2013-03-12T13:40:51.000Z</time>
      </trkpt>
      <trkpt lat="43.59136" lon="5.63545">
        <ele>452.79998779297</ele>
        <time>2013-03-12T13:41:16.000Z</time>
      </trkpt>
      <trkpt lat="43.59137" lon="5.63544">
        <ele>452.79998779297</ele>
        <time>2013-03-12T13:41:44.000Z</time>
      </trkpt>
      <trkpt lat="43.59149" lon="5.63546">
        <ele>452.20001220703</ele>
        <time>2013-03-12T13:41:49.000Z</time>
      </trkpt>
      <trkpt lat="43.59152" lon="5.63542">
        <ele>452.39999389648</ele>
        <time>2013-03-12T13:41:50.000Z</time>
      </trkpt>
      <trkpt lat="43.59154" lon="5.63536">
        <ele>452.60000610352</ele>
        <time>2013-03-12T13:41:51.000Z</time>
      </trkpt>
      <trkpt lat="43.59157" lon="5.6353">
        <ele>453</ele>
        <time>2013-03-12T13:41:52.000Z</time>
      </trkpt>
      <trkpt lat="43.59159" lon="5.63524">
        <ele>453.20001220703</ele>
        <time>2013-03-12T13:41:53.000Z</time>
      </trkpt>
      <trkpt lat="43.5916" lon="5.63517">
        <ele>453.60000610352</ele>
        <time>2013-03-12T13:41:54.000Z</time>
      </trkpt>
      <trkpt lat="43.59162" lon="5.63511">
        <ele>453.79998779297</ele>
        <time>2013-03-12T13:41:55.000Z</time>
      </trkpt>
      <trkpt lat="43.59164" lon="5.63506">
        <ele>453.79998779297</ele>
        <time>2013-03-12T13:41:56.000Z</time>
      </trkpt>
      <trkpt lat="43.59168" lon="5.63502">
        <ele>453.60000610352</ele>
        <time>2013-03-12T13:41:57.000Z</time>
      </trkpt>
      <trkpt lat="43.59172" lon="5.635">
        <ele>453.60000610352</ele>
        <time>2013-03-12T13:41:58.000Z</time>
      </trkpt>
      <trkpt lat="43.59177" lon="5.635">
        <ele>453.20001220703</ele>
        <time>2013-03-12T13:41:59.000Z</time>
      </trkpt>
      <trkpt lat="43.59183" lon="5.63502">
        <ele>452.60000610352</ele>
        <time>2013-03-12T13:42:00.000Z</time>
      </trkpt>
      <trkpt lat="43.59188" lon="5.63506">
        <ele>452</ele>
        <time>2013-03-12T13:42:01.000Z</time>
      </trkpt>
      <trkpt lat="43.59194" lon="5.63513">
        <ele>451.20001220703</ele>
        <time>2013-03-12T13:42:02.000Z</time>
      </trkpt>
      <trkpt lat="43.59215" lon="5.63534">
        <ele>448</ele>
        <time>2013-03-12T13:42:05.000Z</time>
      </trkpt>
      <trkpt lat="43.59231" lon="5.63548">
        <ele>445.60000610352</ele>
        <time>2013-03-12T13:42:07.000Z</time>
      </trkpt>
      <trkpt lat="43.59248" lon="5.63558">
        <ele>443.20001220703</ele>
        <time>2013-03-12T13:42:09.000Z</time>
      </trkpt>
      <trkpt lat="43.59258" lon="5.63562">
        <ele>441.79998779297</ele>
        <time>2013-03-12T13:42:10.000Z</time>
      </trkpt>
      <trkpt lat="43.59295" lon="5.63572">
        <ele>436.60000610352</ele>
        <time>2013-03-12T13:42:14.000Z</time>
      </trkpt>
      <trkpt lat="43.59302" lon="5.63573">
        <ele>435.79998779297</ele>
        <time>2013-03-12T13:42:15.000Z</time>
      </trkpt>
      <trkpt lat="43.59309" lon="5.63573">
        <ele>435</ele>
        <time>2013-03-12T13:42:16.000Z</time>
      </trkpt>
      <trkpt lat="43.59316" lon="5.63571">
        <ele>434.39999389648</ele>
        <time>2013-03-12T13:42:17.000Z</time>
      </trkpt>
      <trkpt lat="43.59323" lon="5.63568">
        <ele>434</ele>
        <time>2013-03-12T13:42:18.000Z</time>
      </trkpt>
      <trkpt lat="43.59327" lon="5.63565">
        <ele>433.79998779297</ele>
        <time>2013-03-12T13:42:19.000Z</time>
      </trkpt>
      <trkpt lat="43.5933" lon="5.63563">
        <ele>433.79998779297</ele>
        <time>2013-03-12T13:42:20.000Z</time>
      </trkpt>
      <trkpt lat="43.5933" lon="5.63561">
        <ele>433.79998779297</ele>
        <time>2013-03-12T13:42:21.000Z</time>
      </trkpt>
      <trkpt lat="43.59331" lon="5.6356">
        <ele>434</ele>
        <time>2013-03-12T13:42:22.000Z</time>
      </trkpt>
      <trkpt lat="43.59336" lon="5.63557">
        <ele>434.20001220703</ele>
        <time>2013-03-12T13:42:33.000Z</time>
      </trkpt>
      <trkpt lat="43.59341" lon="5.63551">
        <ele>435.20001220703</ele>
        <time>2013-03-12T13:42:42.000Z</time>
      </trkpt>
      <trkpt lat="43.59342" lon="5.63551">
        <ele>435.39999389648</ele>
        <time>2013-03-12T13:42:43.000Z</time>
      </trkpt>
      <trkpt lat="43.59344" lon="5.6355">
        <ele>435.60000610352</ele>
        <time>2013-03-12T13:42:45.000Z</time>
      </trkpt>
      <trkpt lat="43.59354" lon="5.63546">
        <ele>436.39999389648</ele>
        <time>2013-03-12T13:42:53.000Z</time>
      </trkpt>
      <trkpt lat="43.59368" lon="5.63538">
        <ele>437.79998779297</ele>
        <time>2013-03-12T13:43:01.000Z</time>
      </trkpt>
      <trkpt lat="43.59375" lon="5.63529">
        <ele>438.79998779297</ele>
        <time>2013-03-12T13:43:06.000Z</time>
      </trkpt>
      <trkpt lat="43.59393" lon="5.6351">
        <ele>440.39999389648</ele>
        <time>2013-03-12T13:43:16.000Z</time>
      </trkpt>
      <trkpt lat="43.5941" lon="5.63496">
        <ele>441.39999389648</ele>
        <time>2013-03-12T13:43:24.000Z</time>
      </trkpt>
      <trkpt lat="43.59435" lon="5.63484">
        <ele>441.39999389648</ele>
        <time>2013-03-12T13:43:35.000Z</time>
      </trkpt>
      <trkpt lat="43.59437" lon="5.63482">
        <ele>441.39999389648</ele>
        <time>2013-03-12T13:43:36.000Z</time>
      </trkpt>
      <trkpt lat="43.59452" lon="5.63472">
        <ele>441.20001220703</ele>
        <time>2013-03-12T13:43:41.000Z</time>
      </trkpt>
      <trkpt lat="43.59463" lon="5.63468">
        <ele>440.79998779297</ele>
        <time>2013-03-12T13:43:43.000Z</time>
      </trkpt>
      <trkpt lat="43.59468" lon="5.63467">
        <ele>440.39999389648</ele>
        <time>2013-03-12T13:43:44.000Z</time>
      </trkpt>
      <trkpt lat="43.59474" lon="5.63466">
        <ele>440</ele>
        <time>2013-03-12T13:43:45.000Z</time>
      </trkpt>
      <trkpt lat="43.5948" lon="5.63467">
        <ele>439.39999389648</ele>
        <time>2013-03-12T13:43:46.000Z</time>
      </trkpt>
      <trkpt lat="43.59485" lon="5.63469">
        <ele>439</ele>
        <time>2013-03-12T13:43:47.000Z</time>
      </trkpt>
      <trkpt lat="43.59491" lon="5.63471">
        <ele>438.39999389648</ele>
        <time>2013-03-12T13:43:48.000Z</time>
      </trkpt>
      <trkpt lat="43.59496" lon="5.63474">
        <ele>437.79998779297</ele>
        <time>2013-03-12T13:43:49.000Z</time>
      </trkpt>
      <trkpt lat="43.59502" lon="5.63478">
        <ele>437</ele>
        <time>2013-03-12T13:43:50.000Z</time>
      </trkpt>
      <trkpt lat="43.59508" lon="5.63481">
        <ele>436.20001220703</ele>
        <time>2013-03-12T13:43:51.000Z</time>
      </trkpt>
      <trkpt lat="43.59514" lon="5.63482">
        <ele>435.39999389648</ele>
        <time>2013-03-12T13:43:52.000Z</time>
      </trkpt>
      <trkpt lat="43.5952" lon="5.63481">
        <ele>435</ele>
        <time>2013-03-12T13:43:53.000Z</time>
      </trkpt>
      <trkpt lat="43.59533" lon="5.63472">
        <ele>433.79998779297</ele>
        <time>2013-03-12T13:43:55.000Z</time>
      </trkpt>
      <trkpt lat="43.59559" lon="5.63457">
        <ele>431</ele>
        <time>2013-03-12T13:43:58.000Z</time>
      </trkpt>
      <trkpt lat="43.59587" lon="5.63441">
        <ele>427.60000610352</ele>
        <time>2013-03-12T13:44:01.000Z</time>
      </trkpt>
      <trkpt lat="43.59613" lon="5.63426">
        <ele>424.60000610352</ele>
        <time>2013-03-12T13:44:04.000Z</time>
      </trkpt>
      <trkpt lat="43.59641" lon="5.6341">
        <ele>421.60000610352</ele>
        <time>2013-03-12T13:44:07.000Z</time>
      </trkpt>
      <trkpt lat="43.59662" lon="5.63399">
        <ele>420</ele>
        <time>2013-03-12T13:44:09.000Z</time>
      </trkpt>
      <trkpt lat="43.59683" lon="5.63387">
        <ele>419</ele>
        <time>2013-03-12T13:44:11.000Z</time>
      </trkpt>
      <trkpt lat="43.59705" lon="5.63374">
        <ele>417.39999389648</ele>
        <time>2013-03-12T13:44:13.000Z</time>
      </trkpt>
      <trkpt lat="43.59737" lon="5.63355">
        <ele>413</ele>
        <time>2013-03-12T13:44:16.000Z</time>
      </trkpt>
      <trkpt lat="43.59758" lon="5.6334">
        <ele>409.79998779297</ele>
        <time>2013-03-12T13:44:18.000Z</time>
      </trkpt>
      <trkpt lat="43.59785" lon="5.63322">
        <ele>407.39999389648</ele>
        <time>2013-03-12T13:44:21.000Z</time>
      </trkpt>
      <trkpt lat="43.59797" lon="5.63311">
        <ele>406.20001220703</ele>
        <time>2013-03-12T13:44:23.000Z</time>
      </trkpt>
      <trkpt lat="43.59803" lon="5.63304">
        <ele>405.39999389648</ele>
        <time>2013-03-12T13:44:24.000Z</time>
      </trkpt>
      <trkpt lat="43.59808" lon="5.63296">
        <ele>404.39999389648</ele>
        <time>2013-03-12T13:44:25.000Z</time>
      </trkpt>
      <trkpt lat="43.59818" lon="5.63279">
        <ele>402</ele>
        <time>2013-03-12T13:44:27.000Z</time>
      </trkpt>
      <trkpt lat="43.59829" lon="5.63262">
        <ele>398.79998779297</ele>
        <time>2013-03-12T13:44:29.000Z</time>
      </trkpt>
      <trkpt lat="43.59853" lon="5.6322">
        <ele>394</ele>
        <time>2013-03-12T13:44:33.000Z</time>
      </trkpt>
      <trkpt lat="43.59866" lon="5.63198">
        <ele>390.79998779297</ele>
        <time>2013-03-12T13:44:35.000Z</time>
      </trkpt>
      <trkpt lat="43.59879" lon="5.63179">
        <ele>387.39999389648</ele>
        <time>2013-03-12T13:44:37.000Z</time>
      </trkpt>
      <trkpt lat="43.59895" lon="5.63162">
        <ele>384.39999389648</ele>
        <time>2013-03-12T13:44:40.000Z</time>
      </trkpt>
      <trkpt lat="43.59896" lon="5.6316">
        <ele>384.39999389648</ele>
        <time>2013-03-12T13:44:41.000Z</time>
      </trkpt>
      <trkpt lat="43.59898" lon="5.6316">
        <ele>384.20001220703</ele>
        <time>2013-03-12T13:44:42.000Z</time>
      </trkpt>
      <trkpt lat="43.59915" lon="5.6316">
        <ele>383</ele>
        <time>2013-03-12T13:44:50.000Z</time>
      </trkpt>
      <trkpt lat="43.59919" lon="5.63159">
        <ele>382.79998779297</ele>
        <time>2013-03-12T13:44:51.000Z</time>
      </trkpt>
      <trkpt lat="43.59928" lon="5.63155">
        <ele>382.79998779297</ele>
        <time>2013-03-12T13:44:53.000Z</time>
      </trkpt>
      <trkpt lat="43.59936" lon="5.63153">
        <ele>383</ele>
        <time>2013-03-12T13:44:55.000Z</time>
      </trkpt>
      <trkpt lat="43.59941" lon="5.63152">
        <ele>382.79998779297</ele>
        <time>2013-03-12T13:44:56.000Z</time>
      </trkpt>
      <trkpt lat="43.59964" lon="5.63144">
        <ele>382.60000610352</ele>
        <time>2013-03-12T13:45:01.000Z</time>
      </trkpt>
      <trkpt lat="43.59968" lon="5.63144">
        <ele>382.60000610352</ele>
        <time>2013-03-12T13:45:02.000Z</time>
      </trkpt>
      <trkpt lat="43.59972" lon="5.63144">
        <ele>382.60000610352</ele>
        <time>2013-03-12T13:45:03.000Z</time>
      </trkpt>
      <trkpt lat="43.59976" lon="5.63142">
        <ele>382.39999389648</ele>
        <time>2013-03-12T13:45:04.000Z</time>
      </trkpt>
      <trkpt lat="43.59979" lon="5.63138">
        <ele>382</ele>
        <time>2013-03-12T13:45:05.000Z</time>
      </trkpt>
      <trkpt lat="43.59982" lon="5.63133">
        <ele>381.60000610352</ele>
        <time>2013-03-12T13:45:06.000Z</time>
      </trkpt>
      <trkpt lat="43.59985" lon="5.63127">
        <ele>381</ele>
        <time>2013-03-12T13:45:07.000Z</time>
      </trkpt>
      <trkpt lat="43.59987" lon="5.63121">
        <ele>380.39999389648</ele>
        <time>2013-03-12T13:45:08.000Z</time>
      </trkpt>
      <trkpt lat="43.59989" lon="5.63114">
        <ele>379.60000610352</ele>
        <time>2013-03-12T13:45:09.000Z</time>
      </trkpt>
      <trkpt lat="43.59996" lon="5.63089">
        <ele>376.79998779297</ele>
        <time>2013-03-12T13:45:13.000Z</time>
      </trkpt>
      <trkpt lat="43.59999" lon="5.63083">
        <ele>376</ele>
        <time>2013-03-12T13:45:14.000Z</time>
      </trkpt>
      <trkpt lat="43.60002" lon="5.63077">
        <ele>376.39999389648</ele>
        <time>2013-03-12T13:45:15.000Z</time>
      </trkpt>
      <trkpt lat="43.60013" lon="5.63064">
        <ele>377.20001220703</ele>
        <time>2013-03-12T13:45:18.000Z</time>
      </trkpt>
      <trkpt lat="43.60017" lon="5.6306">
        <ele>377.60000610352</ele>
        <time>2013-03-12T13:45:19.000Z</time>
      </trkpt>
      <trkpt lat="43.60022" lon="5.63056">
        <ele>377.60000610352</ele>
        <time>2013-03-12T13:45:20.000Z</time>
      </trkpt>
      <trkpt lat="43.60027" lon="5.63053">
        <ele>377.79998779297</ele>
        <time>2013-03-12T13:45:21.000Z</time>
      </trkpt>
      <trkpt lat="43.60031" lon="5.63049">
        <ele>378.20001220703</ele>
        <time>2013-03-12T13:45:22.000Z</time>
      </trkpt>
      <trkpt lat="43.60035" lon="5.63044">
        <ele>378.39999389648</ele>
        <time>2013-03-12T13:45:23.000Z</time>
      </trkpt>
      <trkpt lat="43.60038" lon="5.6304">
        <ele>378.60000610352</ele>
        <time>2013-03-12T13:45:24.000Z</time>
      </trkpt>
      <trkpt lat="43.60056" lon="5.63023">
        <ele>379.60000610352</ele>
        <time>2013-03-12T13:45:29.000Z</time>
      </trkpt>
      <trkpt lat="43.6006" lon="5.6302">
        <ele>379.79998779297</ele>
        <time>2013-03-12T13:45:30.000Z</time>
      </trkpt>
      <trkpt lat="43.60065" lon="5.6302">
        <ele>379.60000610352</ele>
        <time>2013-03-12T13:45:31.000Z</time>
      </trkpt>
      <trkpt lat="43.60069" lon="5.63022">
        <ele>379.39999389648</ele>
        <time>2013-03-12T13:45:32.000Z</time>
      </trkpt>
      <trkpt lat="43.60072" lon="5.63026">
        <ele>378.79998779297</ele>
        <time>2013-03-12T13:45:33.000Z</time>
      </trkpt>
      <trkpt lat="43.60074" lon="5.63032">
        <ele>378.20001220703</ele>
        <time>2013-03-12T13:45:34.000Z</time>
      </trkpt>
      <trkpt lat="43.60077" lon="5.63039">
        <ele>377.39999389648</ele>
        <time>2013-03-12T13:45:35.000Z</time>
      </trkpt>
      <trkpt lat="43.60082" lon="5.63046">
        <ele>376.60000610352</ele>
        <time>2013-03-12T13:45:36.000Z</time>
      </trkpt>
      <trkpt lat="43.60088" lon="5.63052">
        <ele>376</ele>
        <time>2013-03-12T13:45:37.000Z</time>
      </trkpt>
      <trkpt lat="43.60094" lon="5.63057">
        <ele>375.39999389648</ele>
        <time>2013-03-12T13:45:38.000Z</time>
      </trkpt>
      <trkpt lat="43.601" lon="5.63063">
        <ele>374.79998779297</ele>
        <time>2013-03-12T13:45:39.000Z</time>
      </trkpt>
      <trkpt lat="43.60105" lon="5.6307">
        <ele>373.79998779297</ele>
        <time>2013-03-12T13:45:40.000Z</time>
      </trkpt>
      <trkpt lat="43.60122" lon="5.63089">
        <ele>371.60000610352</ele>
        <time>2013-03-12T13:45:43.000Z</time>
      </trkpt>
      <trkpt lat="43.60128" lon="5.63094">
        <ele>371.60000610352</ele>
        <time>2013-03-12T13:45:44.000Z</time>
      </trkpt>
      <trkpt lat="43.60134" lon="5.63099">
        <ele>371.39999389648</ele>
        <time>2013-03-12T13:45:45.000Z</time>
      </trkpt>
      <trkpt lat="43.60147" lon="5.63107">
        <ele>370.79998779297</ele>
        <time>2013-03-12T13:45:47.000Z</time>
      </trkpt>
      <trkpt lat="43.60154" lon="5.63111">
        <ele>370.20001220703</ele>
        <time>2013-03-12T13:45:48.000Z</time>
      </trkpt>
      <trkpt lat="43.60161" lon="5.63113">
        <ele>369.39999389648</ele>
        <time>2013-03-12T13:45:49.000Z</time>
      </trkpt>
      <trkpt lat="43.60175" lon="5.63117">
        <ele>368.20001220703</ele>
        <time>2013-03-12T13:45:51.000Z</time>
      </trkpt>
      <trkpt lat="43.60182" lon="5.6312">
        <ele>367.79998779297</ele>
        <time>2013-03-12T13:45:52.000Z</time>
      </trkpt>
      <trkpt lat="43.60188" lon="5.63123">
        <ele>367.20001220703</ele>
        <time>2013-03-12T13:45:53.000Z</time>
      </trkpt>
      <trkpt lat="43.60201" lon="5.63129">
        <ele>366.20001220703</ele>
        <time>2013-03-12T13:45:55.000Z</time>
      </trkpt>
      <trkpt lat="43.60207" lon="5.6313">
        <ele>365.60000610352</ele>
        <time>2013-03-12T13:45:56.000Z</time>
      </trkpt>
      <trkpt lat="43.60213" lon="5.63128">
        <ele>365.20001220703</ele>
        <time>2013-03-12T13:45:57.000Z</time>
      </trkpt>
      <trkpt lat="43.60219" lon="5.63124">
        <ele>364.79998779297</ele>
        <time>2013-03-12T13:45:58.000Z</time>
      </trkpt>
      <trkpt lat="43.60224" lon="5.6312">
        <ele>364.60000610352</ele>
        <time>2013-03-12T13:45:59.000Z</time>
      </trkpt>
      <trkpt lat="43.6023" lon="5.63117">
        <ele>364.20001220703</ele>
        <time>2013-03-12T13:46:00.000Z</time>
      </trkpt>
      <trkpt lat="43.60236" lon="5.63116">
        <ele>363.79998779297</ele>
        <time>2013-03-12T13:46:01.000Z</time>
      </trkpt>
      <trkpt lat="43.60242" lon="5.63118">
        <ele>363.20001220703</ele>
        <time>2013-03-12T13:46:02.000Z</time>
      </trkpt>
      <trkpt lat="43.60248" lon="5.63122">
        <ele>362.60000610352</ele>
        <time>2013-03-12T13:46:03.000Z</time>
      </trkpt>
      <trkpt lat="43.60253" lon="5.63126">
        <ele>362.20001220703</ele>
        <time>2013-03-12T13:46:04.000Z</time>
      </trkpt>
      <trkpt lat="43.60258" lon="5.63131">
        <ele>362</ele>
        <time>2013-03-12T13:46:05.000Z</time>
      </trkpt>
      <trkpt lat="43.60263" lon="5.63133">
        <ele>361.79998779297</ele>
        <time>2013-03-12T13:46:06.000Z</time>
      </trkpt>
      <trkpt lat="43.60268" lon="5.63132">
        <ele>361.60000610352</ele>
        <time>2013-03-12T13:46:07.000Z</time>
      </trkpt>
      <trkpt lat="43.60272" lon="5.63129">
        <ele>361.60000610352</ele>
        <time>2013-03-12T13:46:08.000Z</time>
      </trkpt>
      <trkpt lat="43.60275" lon="5.63124">
        <ele>361.60000610352</ele>
        <time>2013-03-12T13:46:09.000Z</time>
      </trkpt>
      <trkpt lat="43.60278" lon="5.63119">
        <ele>361.39999389648</ele>
        <time>2013-03-12T13:46:10.000Z</time>
      </trkpt>
      <trkpt lat="43.60289" lon="5.63102">
        <ele>361.20001220703</ele>
        <time>2013-03-12T13:46:13.000Z</time>
      </trkpt>
      <trkpt lat="43.60298" lon="5.63091">
        <ele>361</ele>
        <time>2013-03-12T13:46:15.000Z</time>
      </trkpt>
      <trkpt lat="43.60304" lon="5.63088">
        <ele>360.60000610352</ele>
        <time>2013-03-12T13:46:16.000Z</time>
      </trkpt>
      <trkpt lat="43.6031" lon="5.63087">
        <ele>360.39999389648</ele>
        <time>2013-03-12T13:46:17.000Z</time>
      </trkpt>
      <trkpt lat="43.60333" lon="5.63085">
        <ele>359</ele>
        <time>2013-03-12T13:46:21.000Z</time>
      </trkpt>
      <trkpt lat="43.6035" lon="5.63082">
        <ele>358</ele>
        <time>2013-03-12T13:46:24.000Z</time>
      </trkpt>
      <trkpt lat="43.60356" lon="5.6308">
        <ele>357.79998779297</ele>
        <time>2013-03-12T13:46:25.000Z</time>
      </trkpt>
      <trkpt lat="43.60362" lon="5.63076">
        <ele>357.79998779297</ele>
        <time>2013-03-12T13:46:26.000Z</time>
      </trkpt>
      <trkpt lat="43.60367" lon="5.63071">
        <ele>357.79998779297</ele>
        <time>2013-03-12T13:46:27.000Z</time>
      </trkpt>
      <trkpt lat="43.60371" lon="5.63065">
        <ele>357.79998779297</ele>
        <time>2013-03-12T13:46:28.000Z</time>
      </trkpt>
      <trkpt lat="43.60395" lon="5.63036">
        <ele>356</ele>
        <time>2013-03-12T13:46:33.000Z</time>
      </trkpt>
      <trkpt lat="43.60408" lon="5.63018">
        <ele>353.79998779297</ele>
        <time>2013-03-12T13:46:36.000Z</time>
      </trkpt>
      <trkpt lat="43.60433" lon="5.62992">
        <ele>351.79998779297</ele>
        <time>2013-03-12T13:46:41.000Z</time>
      </trkpt>
      <trkpt lat="43.60442" lon="5.62981">
        <ele>352.39999389648</ele>
        <time>2013-03-12T13:46:43.000Z</time>
      </trkpt>
      <trkpt lat="43.60455" lon="5.62963">
        <ele>353.20001220703</ele>
        <time>2013-03-12T13:46:46.000Z</time>
      </trkpt>
      <trkpt lat="43.6046" lon="5.62958">
        <ele>353.20001220703</ele>
        <time>2013-03-12T13:46:47.000Z</time>
      </trkpt>
      <trkpt lat="43.60466" lon="5.62955">
        <ele>353.20001220703</ele>
        <time>2013-03-12T13:46:48.000Z</time>
      </trkpt>
      <trkpt lat="43.60472" lon="5.62954">
        <ele>353</ele>
        <time>2013-03-12T13:46:49.000Z</time>
      </trkpt>
      <trkpt lat="43.60478" lon="5.62952">
        <ele>352.79998779297</ele>
        <time>2013-03-12T13:46:50.000Z</time>
      </trkpt>
      <trkpt lat="43.60484" lon="5.6295">
        <ele>352.60000610352</ele>
        <time>2013-03-12T13:46:51.000Z</time>
      </trkpt>
      <trkpt lat="43.605" lon="5.62944">
        <ele>352.20001220703</ele>
        <time>2013-03-12T13:46:54.000Z</time>
      </trkpt>
      <trkpt lat="43.6051" lon="5.62942">
        <ele>352</ele>
        <time>2013-03-12T13:46:56.000Z</time>
      </trkpt>
      <trkpt lat="43.60516" lon="5.6294">
        <ele>352</ele>
        <time>2013-03-12T13:46:57.000Z</time>
      </trkpt>
      <trkpt lat="43.60521" lon="5.62937">
        <ele>352</ele>
        <time>2013-03-12T13:46:58.000Z</time>
      </trkpt>
      <trkpt lat="43.60536" lon="5.6293">
        <ele>352.20001220703</ele>
        <time>2013-03-12T13:47:01.000Z</time>
      </trkpt>
      <trkpt lat="43.6054" lon="5.6293">
        <ele>352</ele>
        <time>2013-03-12T13:47:02.000Z</time>
      </trkpt>
      <trkpt lat="43.60544" lon="5.6293">
        <ele>352</ele>
        <time>2013-03-12T13:47:03.000Z</time>
      </trkpt>
      <trkpt lat="43.60548" lon="5.62932">
        <ele>351.79998779297</ele>
        <time>2013-03-12T13:47:04.000Z</time>
      </trkpt>
      <trkpt lat="43.60552" lon="5.62935">
        <ele>351.39999389648</ele>
        <time>2013-03-12T13:47:05.000Z</time>
      </trkpt>
      <trkpt lat="43.60555" lon="5.62939">
        <ele>351</ele>
        <time>2013-03-12T13:47:06.000Z</time>
      </trkpt>
      <trkpt lat="43.60558" lon="5.62944">
        <ele>350.60000610352</ele>
        <time>2013-03-12T13:47:07.000Z</time>
      </trkpt>
      <trkpt lat="43.6056" lon="5.62949">
        <ele>350.20001220703</ele>
        <time>2013-03-12T13:47:08.000Z</time>
      </trkpt>
      <trkpt lat="43.60566" lon="5.62959">
        <ele>349.39999389648</ele>
        <time>2013-03-12T13:47:10.000Z</time>
      </trkpt>
      <trkpt lat="43.6058" lon="5.62977">
        <ele>347.60000610352</ele>
        <time>2013-03-12T13:47:14.000Z</time>
      </trkpt>
      <trkpt lat="43.60594" lon="5.62996">
        <ele>345.60000610352</ele>
        <time>2013-03-12T13:47:18.000Z</time>
      </trkpt>
      <trkpt lat="43.60597" lon="5.63002">
        <ele>345.20001220703</ele>
        <time>2013-03-12T13:47:19.000Z</time>
      </trkpt>
      <trkpt lat="43.60599" lon="5.63008">
        <ele>345.20001220703</ele>
        <time>2013-03-12T13:47:20.000Z</time>
      </trkpt>
      <trkpt lat="43.606" lon="5.63015">
        <ele>345.39999389648</ele>
        <time>2013-03-12T13:47:21.000Z</time>
      </trkpt>
      <trkpt lat="43.60601" lon="5.63021">
        <ele>345.60000610352</ele>
        <time>2013-03-12T13:47:22.000Z</time>
      </trkpt>
      <trkpt lat="43.60602" lon="5.63027">
        <ele>345.60000610352</ele>
        <time>2013-03-12T13:47:23.000Z</time>
      </trkpt>
      <trkpt lat="43.60603" lon="5.63072">
        <ele>347</ele>
        <time>2013-03-12T13:47:31.000Z</time>
      </trkpt>
      <trkpt lat="43.60602" lon="5.63111">
        <ele>347.79998779297</ele>
        <time>2013-03-12T13:47:38.000Z</time>
      </trkpt>
      <trkpt lat="43.6059" lon="5.63171">
        <ele>350</ele>
        <time>2013-03-12T13:47:49.000Z</time>
      </trkpt>
      <trkpt lat="43.60588" lon="5.63186">
        <ele>350</ele>
        <time>2013-03-12T13:47:52.000Z</time>
      </trkpt>
      <trkpt lat="43.6059" lon="5.632">
        <ele>349.79998779297</ele>
        <time>2013-03-12T13:47:56.000Z</time>
      </trkpt>
      <trkpt lat="43.60591" lon="5.63201">
        <ele>349.79998779297</ele>
        <time>2013-03-12T13:47:57.000Z</time>
      </trkpt>
      <trkpt lat="43.60592" lon="5.63202">
        <ele>349.60000610352</ele>
        <time>2013-03-12T13:47:58.000Z</time>
      </trkpt>
      <trkpt lat="43.60595" lon="5.63204">
        <ele>349.39999389648</ele>
        <time>2013-03-12T13:48:03.000Z</time>
      </trkpt>
      <trkpt lat="43.60595" lon="5.63203">
        <ele>349.20001220703</ele>
        <time>2013-03-12T13:48:04.000Z</time>
      </trkpt>
      <trkpt lat="43.60597" lon="5.63201">
        <ele>349.20001220703</ele>
        <time>2013-03-12T13:48:05.000Z</time>
      </trkpt>
      <trkpt lat="43.60599" lon="5.63201">
        <ele>349</ele>
        <time>2013-03-12T13:48:06.000Z</time>
      </trkpt>
      <trkpt lat="43.60601" lon="5.632">
        <ele>348.79998779297</ele>
        <time>2013-03-12T13:48:07.000Z</time>
      </trkpt>
      <trkpt lat="43.60603" lon="5.632">
        <ele>348.60000610352</ele>
        <time>2013-03-12T13:48:08.000Z</time>
      </trkpt>
      <trkpt lat="43.60614" lon="5.63197">
        <ele>347.20001220703</ele>
        <time>2013-03-12T13:48:16.000Z</time>
      </trkpt>
      <trkpt lat="43.60616" lon="5.63196">
        <ele>347</ele>
        <time>2013-03-12T13:48:27.000Z</time>
      </trkpt>
      <trkpt lat="43.6062" lon="5.63195">
        <ele>346.60000610352</ele>
        <time>2013-03-12T13:48:49.000Z</time>
      </trkpt>
      <trkpt lat="43.60619" lon="5.63195">
        <ele>346.79998779297</ele>
        <time>2013-03-12T13:49:08.000Z</time>
      </trkpt>
      <trkpt lat="43.60615" lon="5.63198">
        <ele>347.20001220703</ele>
        <time>2013-03-12T13:49:21.000Z</time>
      </trkpt>
      <trkpt lat="43.60612" lon="5.63198">
        <ele>347.60000610352</ele>
        <time>2013-03-12T13:49:33.000Z</time>
      </trkpt>
      <trkpt lat="43.60611" lon="5.63198">
        <ele>347.60000610352</ele>
        <time>2013-03-12T13:49:39.000Z</time>
      </trkpt>
      <trkpt lat="43.60609" lon="5.63198">
        <ele>347.79998779297</ele>
        <time>2013-03-12T13:49:40.000Z</time>
      </trkpt>
      <trkpt lat="43.60608" lon="5.63199">
        <ele>348</ele>
        <time>2013-03-12T13:49:41.000Z</time>
      </trkpt>
      <trkpt lat="43.60606" lon="5.63198">
        <ele>348.20001220703</ele>
        <time>2013-03-12T13:49:42.000Z</time>
      </trkpt>
      <trkpt lat="43.60603" lon="5.63198">
        <ele>348.39999389648</ele>
        <time>2013-03-12T13:49:43.000Z</time>
      </trkpt>
      <trkpt lat="43.606" lon="5.63199">
        <ele>348.79998779297</ele>
        <time>2013-03-12T13:49:44.000Z</time>
      </trkpt>
      <trkpt lat="43.60598" lon="5.632">
        <ele>349</ele>
        <time>2013-03-12T13:49:45.000Z</time>
      </trkpt>
      <trkpt lat="43.60588" lon="5.63221">
        <ele>349.79998779297</ele>
        <time>2013-03-12T13:49:52.000Z</time>
      </trkpt>
      <trkpt lat="43.60576" lon="5.63244">
        <ele>351.39999389648</ele>
        <time>2013-03-12T13:50:01.000Z</time>
      </trkpt>
      <trkpt lat="43.6055" lon="5.63277">
        <ele>355.79998779297</ele>
        <time>2013-03-12T13:50:13.000Z</time>
      </trkpt>
      <trkpt lat="43.60532" lon="5.6331">
        <ele>356.60000610352</ele>
        <time>2013-03-12T13:50:23.000Z</time>
      </trkpt>
      <trkpt lat="43.60514" lon="5.63341">
        <ele>356.79998779297</ele>
        <time>2013-03-12T13:50:32.000Z</time>
      </trkpt>
      <trkpt lat="43.60495" lon="5.63376">
        <ele>356.79998779297</ele>
        <time>2013-03-12T13:50:42.000Z</time>
      </trkpt>
      <trkpt lat="43.60483" lon="5.63404">
        <ele>357.79998779297</ele>
        <time>2013-03-12T13:50:50.000Z</time>
      </trkpt>
      <trkpt lat="43.60468" lon="5.63433">
        <ele>360</ele>
        <time>2013-03-12T13:50:59.000Z</time>
      </trkpt>
      <trkpt lat="43.60452" lon="5.63459">
        <ele>361.60000610352</ele>
        <time>2013-03-12T13:51:07.000Z</time>
      </trkpt>
      <trkpt lat="43.60435" lon="5.63487">
        <ele>361.60000610352</ele>
        <time>2013-03-12T13:51:16.000Z</time>
      </trkpt>
      <trkpt lat="43.60425" lon="5.63503">
        <ele>361</ele>
        <time>2013-03-12T13:51:21.000Z</time>
      </trkpt>
      <trkpt lat="43.60423" lon="5.63505">
        <ele>361.20001220703</ele>
        <time>2013-03-12T13:51:22.000Z</time>
      </trkpt>
      <trkpt lat="43.60396" lon="5.63531">
        <ele>362.60000610352</ele>
        <time>2013-03-12T13:51:32.000Z</time>
      </trkpt>
      <trkpt lat="43.60377" lon="5.63557">
        <ele>362.79998779297</ele>
        <time>2013-03-12T13:51:41.000Z</time>
      </trkpt>
      <trkpt lat="43.6035" lon="5.63588">
        <ele>363.20001220703</ele>
        <time>2013-03-12T13:51:53.000Z</time>
      </trkpt>
      <trkpt lat="43.60341" lon="5.6363">
        <ele>363.20001220703</ele>
        <time>2013-03-12T13:52:04.000Z</time>
      </trkpt>
      <trkpt lat="43.60315" lon="5.63668">
        <ele>365.20001220703</ele>
        <time>2013-03-12T13:52:16.000Z</time>
      </trkpt>
      <trkpt lat="43.60287" lon="5.63706">
        <ele>367.39999389648</ele>
        <time>2013-03-12T13:52:28.000Z</time>
      </trkpt>
      <trkpt lat="43.60254" lon="5.63755">
        <ele>366.60000610352</ele>
        <time>2013-03-12T13:52:41.000Z</time>
      </trkpt>
      <trkpt lat="43.60224" lon="5.63802">
        <ele>367.20001220703</ele>
        <time>2013-03-12T13:52:53.000Z</time>
      </trkpt>
      <trkpt lat="43.60211" lon="5.63816">
        <ele>367.39999389648</ele>
        <time>2013-03-12T13:52:57.000Z</time>
      </trkpt>
      <trkpt lat="43.60186" lon="5.63827">
        <ele>368.20001220703</ele>
        <time>2013-03-12T13:53:05.000Z</time>
      </trkpt>
      <trkpt lat="43.6016" lon="5.63829">
        <ele>369.60000610352</ele>
        <time>2013-03-12T13:53:14.000Z</time>
      </trkpt>
      <trkpt lat="43.60141" lon="5.63855">
        <ele>369.79998779297</ele>
        <time>2013-03-12T13:53:23.000Z</time>
      </trkpt>
      <trkpt lat="43.60121" lon="5.63887">
        <ele>370</ele>
        <time>2013-03-12T13:53:34.000Z</time>
      </trkpt>
      <trkpt lat="43.60092" lon="5.63916">
        <ele>371.20001220703</ele>
        <time>2013-03-12T13:53:45.000Z</time>
      </trkpt>
      <trkpt lat="43.60064" lon="5.63944">
        <ele>371</ele>
        <time>2013-03-12T13:53:54.000Z</time>
      </trkpt>
      <trkpt lat="43.60041" lon="5.63964">
        <ele>371.60000610352</ele>
        <time>2013-03-12T13:54:03.000Z</time>
      </trkpt>
      <trkpt lat="43.60013" lon="5.6399">
        <ele>373</ele>
        <time>2013-03-12T13:54:14.000Z</time>
      </trkpt>
      <trkpt lat="43.59987" lon="5.64015">
        <ele>374</ele>
        <time>2013-03-12T13:54:24.000Z</time>
      </trkpt>
      <trkpt lat="43.59962" lon="5.64046">
        <ele>375.20001220703</ele>
        <time>2013-03-12T13:54:34.000Z</time>
      </trkpt>
      <trkpt lat="43.59936" lon="5.64091">
        <ele>377.79998779297</ele>
        <time>2013-03-12T13:54:46.000Z</time>
      </trkpt>
      <trkpt lat="43.59916" lon="5.64132">
        <ele>378.60000610352</ele>
        <time>2013-03-12T13:54:56.000Z</time>
      </trkpt>
      <trkpt lat="43.59894" lon="5.64169">
        <ele>380</ele>
        <time>2013-03-12T13:55:07.000Z</time>
      </trkpt>
      <trkpt lat="43.59871" lon="5.64201">
        <ele>380.60000610352</ele>
        <time>2013-03-12T13:55:18.000Z</time>
      </trkpt>
      <trkpt lat="43.5985" lon="5.6424">
        <ele>378.60000610352</ele>
        <time>2013-03-12T13:55:29.000Z</time>
      </trkpt>
      <trkpt lat="43.59809" lon="5.64291">
        <ele>380.60000610352</ele>
        <time>2013-03-12T13:55:44.000Z</time>
      </trkpt>
      <trkpt lat="43.59775" lon="5.64321">
        <ele>382</ele>
        <time>2013-03-12T13:55:56.000Z</time>
      </trkpt>
      <trkpt lat="43.59743" lon="5.64343">
        <ele>383.20001220703</ele>
        <time>2013-03-12T13:56:06.000Z</time>
      </trkpt>
      <trkpt lat="43.59705" lon="5.6437">
        <ele>385.60000610352</ele>
        <time>2013-03-12T13:56:18.000Z</time>
      </trkpt>
      <trkpt lat="43.59688" lon="5.64399">
        <ele>384.79998779297</ele>
        <time>2013-03-12T13:56:26.000Z</time>
      </trkpt>
      <trkpt lat="43.59658" lon="5.64425">
        <ele>384.79998779297</ele>
        <time>2013-03-12T13:56:36.000Z</time>
      </trkpt>
      <trkpt lat="43.59621" lon="5.6445">
        <ele>384.60000610352</ele>
        <time>2013-03-12T13:56:48.000Z</time>
      </trkpt>
      <trkpt lat="43.59617" lon="5.64453">
        <ele>384.39999389648</ele>
        <time>2013-03-12T13:56:49.000Z</time>
      </trkpt>
      <trkpt lat="43.59614" lon="5.64458">
        <ele>384.20001220703</ele>
        <time>2013-03-12T13:56:50.000Z</time>
      </trkpt>
      <trkpt lat="43.59612" lon="5.64463">
        <ele>383.79998779297</ele>
        <time>2013-03-12T13:56:51.000Z</time>
      </trkpt>
      <trkpt lat="43.59613" lon="5.64469">
        <ele>383.39999389648</ele>
        <time>2013-03-12T13:56:52.000Z</time>
      </trkpt>
      <trkpt lat="43.59616" lon="5.64474">
        <ele>383.20001220703</ele>
        <time>2013-03-12T13:56:53.000Z</time>
      </trkpt>
      <trkpt lat="43.5962" lon="5.64479">
        <ele>382.79998779297</ele>
        <time>2013-03-12T13:56:54.000Z</time>
      </trkpt>
      <trkpt lat="43.59624" lon="5.64482">
        <ele>382.39999389648</ele>
        <time>2013-03-12T13:56:55.000Z</time>
      </trkpt>
      <trkpt lat="43.59629" lon="5.64485">
        <ele>382.20001220703</ele>
        <time>2013-03-12T13:56:56.000Z</time>
      </trkpt>
      <trkpt lat="43.5968" lon="5.64523">
        <ele>381</ele>
        <time>2013-03-12T13:57:08.000Z</time>
      </trkpt>
      <trkpt lat="43.59693" lon="5.64529">
        <ele>380.79998779297</ele>
        <time>2013-03-12T13:57:11.000Z</time>
      </trkpt>
      <trkpt lat="43.59698" lon="5.64531">
        <ele>380.79998779297</ele>
        <time>2013-03-12T13:57:12.000Z</time>
      </trkpt>
      <trkpt lat="43.59712" lon="5.64531">
        <ele>380.60000610352</ele>
        <time>2013-03-12T13:57:15.000Z</time>
      </trkpt>
      <trkpt lat="43.59717" lon="5.64531">
        <ele>380.60000610352</ele>
        <time>2013-03-12T13:57:16.000Z</time>
      </trkpt>
      <trkpt lat="43.59722" lon="5.6453">
        <ele>380.39999389648</ele>
        <time>2013-03-12T13:57:17.000Z</time>
      </trkpt>
      <trkpt lat="43.59783" lon="5.64518">
        <ele>381.60000610352</ele>
        <time>2013-03-12T13:57:30.000Z</time>
      </trkpt>
      <trkpt lat="43.59847" lon="5.64503">
        <ele>385</ele>
        <time>2013-03-12T13:57:43.000Z</time>
      </trkpt>
      <trkpt lat="43.59861" lon="5.64499">
        <ele>385.79998779297</ele>
        <time>2013-03-12T13:57:46.000Z</time>
      </trkpt>
      <trkpt lat="43.59865" lon="5.64498">
        <ele>386</ele>
        <time>2013-03-12T13:57:47.000Z</time>
      </trkpt>
      <trkpt lat="43.59868" lon="5.64498">
        <ele>386.20001220703</ele>
        <time>2013-03-12T13:57:48.000Z</time>
      </trkpt>
      <trkpt lat="43.5987" lon="5.645">
        <ele>386.60000610352</ele>
        <time>2013-03-12T13:57:49.000Z</time>
      </trkpt>
      <trkpt lat="43.59873" lon="5.64504">
        <ele>387</ele>
        <time>2013-03-12T13:57:50.000Z</time>
      </trkpt>
      <trkpt lat="43.59876" lon="5.64508">
        <ele>387.39999389648</ele>
        <time>2013-03-12T13:57:51.000Z</time>
      </trkpt>
      <trkpt lat="43.5988" lon="5.64517">
        <ele>388.20001220703</ele>
        <time>2013-03-12T13:57:53.000Z</time>
      </trkpt>
      <trkpt lat="43.59886" lon="5.64538">
        <ele>389.60000610352</ele>
        <time>2013-03-12T13:57:57.000Z</time>
      </trkpt>
      <trkpt lat="43.59886" lon="5.64541">
        <ele>389.79998779297</ele>
        <time>2013-03-12T13:57:58.000Z</time>
      </trkpt>
      <trkpt lat="43.59886" lon="5.64544">
        <ele>390</ele>
        <time>2013-03-12T13:57:59.000Z</time>
      </trkpt>
      <trkpt lat="43.59885" lon="5.64556">
        <ele>390.60000610352</ele>
        <time>2013-03-12T13:58:02.000Z</time>
      </trkpt>
      <trkpt lat="43.59883" lon="5.6456">
        <ele>390.39999389648</ele>
        <time>2013-03-12T13:58:03.000Z</time>
      </trkpt>
      <trkpt lat="43.5988" lon="5.64563">
        <ele>390.39999389648</ele>
        <time>2013-03-12T13:58:04.000Z</time>
      </trkpt>
      <trkpt lat="43.59854" lon="5.64599">
        <ele>389.39999389648</ele>
        <time>2013-03-12T13:58:15.000Z</time>
      </trkpt>
      <trkpt lat="43.59848" lon="5.64626">
        <ele>390</ele>
        <time>2013-03-12T13:58:24.000Z</time>
      </trkpt>
      <trkpt lat="43.59849" lon="5.64656">
        <ele>391.20001220703</ele>
        <time>2013-03-12T13:58:31.000Z</time>
      </trkpt>
      <trkpt lat="43.5985" lon="5.64661">
        <ele>391.39999389648</ele>
        <time>2013-03-12T13:58:32.000Z</time>
      </trkpt>
      <trkpt lat="43.59852" lon="5.64665">
        <ele>391.79998779297</ele>
        <time>2013-03-12T13:58:33.000Z</time>
      </trkpt>
      <trkpt lat="43.59865" lon="5.64687">
        <ele>392.79998779297</ele>
        <time>2013-03-12T13:58:38.000Z</time>
      </trkpt>
      <trkpt lat="43.59869" lon="5.64691">
        <ele>393</ele>
        <time>2013-03-12T13:58:39.000Z</time>
      </trkpt>
      <trkpt lat="43.59873" lon="5.64694">
        <ele>393</ele>
        <time>2013-03-12T13:58:40.000Z</time>
      </trkpt>
      <trkpt lat="43.59878" lon="5.64697">
        <ele>393.20001220703</ele>
        <time>2013-03-12T13:58:41.000Z</time>
      </trkpt>
      <trkpt lat="43.59883" lon="5.647">
        <ele>393.20001220703</ele>
        <time>2013-03-12T13:58:42.000Z</time>
      </trkpt>
      <trkpt lat="43.59888" lon="5.64701">
        <ele>393.20001220703</ele>
        <time>2013-03-12T13:58:43.000Z</time>
      </trkpt>
      <trkpt lat="43.59894" lon="5.64702">
        <ele>393.20001220703</ele>
        <time>2013-03-12T13:58:44.000Z</time>
      </trkpt>
      <trkpt lat="43.599" lon="5.64702">
        <ele>393.20001220703</ele>
        <time>2013-03-12T13:58:45.000Z</time>
      </trkpt>
      <trkpt lat="43.59949" lon="5.64695">
        <ele>391.79998779297</ele>
        <time>2013-03-12T13:58:54.000Z</time>
      </trkpt>
      <trkpt lat="43.59967" lon="5.64689">
        <ele>391.20001220703</ele>
        <time>2013-03-12T13:59:01.000Z</time>
      </trkpt>
      <trkpt lat="43.59974" lon="5.64678">
        <ele>391.60000610352</ele>
        <time>2013-03-12T13:59:06.000Z</time>
      </trkpt>
      <trkpt lat="43.6" lon="5.64669">
        <ele>390.79998779297</ele>
        <time>2013-03-12T13:59:14.000Z</time>
      </trkpt>
      <trkpt lat="43.60021" lon="5.64666">
        <ele>389.39999389648</ele>
        <time>2013-03-12T13:59:20.000Z</time>
      </trkpt>
      <trkpt lat="43.6003" lon="5.64668">
        <ele>388.60000610352</ele>
        <time>2013-03-12T13:59:22.000Z</time>
      </trkpt>
      <trkpt lat="43.60033" lon="5.6467">
        <ele>388.20001220703</ele>
        <time>2013-03-12T13:59:23.000Z</time>
      </trkpt>
      <trkpt lat="43.60036" lon="5.64674">
        <ele>387.79998779297</ele>
        <time>2013-03-12T13:59:24.000Z</time>
      </trkpt>
      <trkpt lat="43.60051" lon="5.64694">
        <ele>385.60000610352</ele>
        <time>2013-03-12T13:59:28.000Z</time>
      </trkpt>
      <trkpt lat="43.60054" lon="5.647">
        <ele>385</ele>
        <time>2013-03-12T13:59:29.000Z</time>
      </trkpt>
      <trkpt lat="43.60059" lon="5.64712">
        <ele>384</ele>
        <time>2013-03-12T13:59:31.000Z</time>
      </trkpt>
      <trkpt lat="43.6006" lon="5.64719">
        <ele>383.39999389648</ele>
        <time>2013-03-12T13:59:32.000Z</time>
      </trkpt>
      <trkpt lat="43.60062" lon="5.64726">
        <ele>383</ele>
        <time>2013-03-12T13:59:33.000Z</time>
      </trkpt>
      <trkpt lat="43.60065" lon="5.64732">
        <ele>382.39999389648</ele>
        <time>2013-03-12T13:59:34.000Z</time>
      </trkpt>
      <trkpt lat="43.60069" lon="5.64736">
        <ele>381.79998779297</ele>
        <time>2013-03-12T13:59:35.000Z</time>
      </trkpt>
      <trkpt lat="43.60073" lon="5.64739">
        <ele>381.39999389648</ele>
        <time>2013-03-12T13:59:36.000Z</time>
      </trkpt>
      <trkpt lat="43.60077" lon="5.6474">
        <ele>381</ele>
        <time>2013-03-12T13:59:37.000Z</time>
      </trkpt>
      <trkpt lat="43.60082" lon="5.64741">
        <ele>380.60000610352</ele>
        <time>2013-03-12T13:59:38.000Z</time>
      </trkpt>
      <trkpt lat="43.60085" lon="5.6474">
        <ele>380.39999389648</ele>
        <time>2013-03-12T13:59:39.000Z</time>
      </trkpt>
      <trkpt lat="43.60088" lon="5.64739">
        <ele>380.39999389648</ele>
        <time>2013-03-12T13:59:40.000Z</time>
      </trkpt>
      <trkpt lat="43.60091" lon="5.6474">
        <ele>380.20001220703</ele>
        <time>2013-03-12T13:59:41.000Z</time>
      </trkpt>
      <trkpt lat="43.60093" lon="5.6474">
        <ele>380.20001220703</ele>
        <time>2013-03-12T13:59:42.000Z</time>
      </trkpt>
      <trkpt lat="43.60095" lon="5.64741">
        <ele>380</ele>
        <time>2013-03-12T13:59:43.000Z</time>
      </trkpt>
      <trkpt lat="43.60097" lon="5.64742">
        <ele>380</ele>
        <time>2013-03-12T13:59:44.000Z</time>
      </trkpt>
      <trkpt lat="43.60099" lon="5.64743">
        <ele>379.79998779297</ele>
        <time>2013-03-12T13:59:45.000Z</time>
      </trkpt>
      <trkpt lat="43.60101" lon="5.64744">
        <ele>379.60000610352</ele>
        <time>2013-03-12T13:59:46.000Z</time>
      </trkpt>
      <trkpt lat="43.60104" lon="5.64745">
        <ele>379.39999389648</ele>
        <time>2013-03-12T13:59:47.000Z</time>
      </trkpt>
      <trkpt lat="43.60107" lon="5.64746">
        <ele>379.39999389648</ele>
        <time>2013-03-12T13:59:48.000Z</time>
      </trkpt>
      <trkpt lat="43.6011" lon="5.64745">
        <ele>379.20001220703</ele>
        <time>2013-03-12T13:59:49.000Z</time>
      </trkpt>
      <trkpt lat="43.60112" lon="5.64744">
        <ele>379.20001220703</ele>
        <time>2013-03-12T13:59:50.000Z</time>
      </trkpt>
      <trkpt lat="43.60115" lon="5.64743">
        <ele>379.39999389648</ele>
        <time>2013-03-12T13:59:51.000Z</time>
      </trkpt>
      <trkpt lat="43.60117" lon="5.64743">
        <ele>379.20001220703</ele>
        <time>2013-03-12T13:59:52.000Z</time>
      </trkpt>
      <trkpt lat="43.60118" lon="5.64743">
        <ele>379.20001220703</ele>
        <time>2013-03-12T13:59:53.000Z</time>
      </trkpt>
      <trkpt lat="43.6012" lon="5.64742">
        <ele>379.20001220703</ele>
        <time>2013-03-12T13:59:54.000Z</time>
      </trkpt>
      <trkpt lat="43.60122" lon="5.64741">
        <ele>379.20001220703</ele>
        <time>2013-03-12T13:59:55.000Z</time>
      </trkpt>
      <trkpt lat="43.60123" lon="5.64739">
        <ele>379.39999389648</ele>
        <time>2013-03-12T13:59:56.000Z</time>
      </trkpt>
      <trkpt lat="43.60125" lon="5.64737">
        <ele>379.39999389648</ele>
        <time>2013-03-12T13:59:57.000Z</time>
      </trkpt>
      <trkpt lat="43.60126" lon="5.64736">
        <ele>379.39999389648</ele>
        <time>2013-03-12T13:59:58.000Z</time>
      </trkpt>
      <trkpt lat="43.60128" lon="5.64735">
        <ele>379.60000610352</ele>
        <time>2013-03-12T13:59:59.000Z</time>
      </trkpt>
      <trkpt lat="43.60129" lon="5.64733">
        <ele>379.60000610352</ele>
        <time>2013-03-12T14:00:00.000Z</time>
      </trkpt>
      <trkpt lat="43.60131" lon="5.6473">
        <ele>379.79998779297</ele>
        <time>2013-03-12T14:00:01.000Z</time>
      </trkpt>
      <trkpt lat="43.60136" lon="5.64726">
        <ele>380</ele>
        <time>2013-03-12T14:00:03.000Z</time>
      </trkpt>
      <trkpt lat="43.60139" lon="5.64724">
        <ele>380</ele>
        <time>2013-03-12T14:00:04.000Z</time>
      </trkpt>
      <trkpt lat="43.60142" lon="5.64723">
        <ele>380</ele>
        <time>2013-03-12T14:00:05.000Z</time>
      </trkpt>
      <trkpt lat="43.60154" lon="5.64717">
        <ele>380.39999389648</ele>
        <time>2013-03-12T14:00:08.000Z</time>
      </trkpt>
      <trkpt lat="43.60171" lon="5.64703">
        <ele>380.79998779297</ele>
        <time>2013-03-12T14:00:12.000Z</time>
      </trkpt>
      <trkpt lat="43.60175" lon="5.647">
        <ele>380.60000610352</ele>
        <time>2013-03-12T14:00:13.000Z</time>
      </trkpt>
      <trkpt lat="43.60179" lon="5.64697">
        <ele>380.39999389648</ele>
        <time>2013-03-12T14:00:14.000Z</time>
      </trkpt>
      <trkpt lat="43.60184" lon="5.64694">
        <ele>380.20001220703</ele>
        <time>2013-03-12T14:00:15.000Z</time>
      </trkpt>
      <trkpt lat="43.60188" lon="5.6469">
        <ele>380</ele>
        <time>2013-03-12T14:00:16.000Z</time>
      </trkpt>
      <trkpt lat="43.60191" lon="5.64687">
        <ele>380</ele>
        <time>2013-03-12T14:00:17.000Z</time>
      </trkpt>
      <trkpt lat="43.602" lon="5.6468">
        <ele>379.60000610352</ele>
        <time>2013-03-12T14:00:19.000Z</time>
      </trkpt>
      <trkpt lat="43.6021" lon="5.64674">
        <ele>379</ele>
        <time>2013-03-12T14:00:21.000Z</time>
      </trkpt>
      <trkpt lat="43.60215" lon="5.6467">
        <ele>378.79998779297</ele>
        <time>2013-03-12T14:00:22.000Z</time>
      </trkpt>
      <trkpt lat="43.6022" lon="5.64665">
        <ele>378.60000610352</ele>
        <time>2013-03-12T14:00:23.000Z</time>
      </trkpt>
      <trkpt lat="43.60225" lon="5.6466">
        <ele>378.39999389648</ele>
        <time>2013-03-12T14:00:24.000Z</time>
      </trkpt>
      <trkpt lat="43.6023" lon="5.64655">
        <ele>378.20001220703</ele>
        <time>2013-03-12T14:00:25.000Z</time>
      </trkpt>
      <trkpt lat="43.60263" lon="5.64623">
        <ele>377</ele>
        <time>2013-03-12T14:00:32.000Z</time>
      </trkpt>
      <trkpt lat="43.60269" lon="5.64619">
        <ele>376.60000610352</ele>
        <time>2013-03-12T14:00:33.000Z</time>
      </trkpt>
      <trkpt lat="43.60276" lon="5.64616">
        <ele>376</ele>
        <time>2013-03-12T14:00:34.000Z</time>
      </trkpt>
      <trkpt lat="43.60284" lon="5.64615">
        <ele>375</ele>
        <time>2013-03-12T14:00:35.000Z</time>
      </trkpt>
      <trkpt lat="43.60293" lon="5.64614">
        <ele>374</ele>
        <time>2013-03-12T14:00:36.000Z</time>
      </trkpt>
      <trkpt lat="43.60301" lon="5.64615">
        <ele>372.79998779297</ele>
        <time>2013-03-12T14:00:37.000Z</time>
      </trkpt>
      <trkpt lat="43.60309" lon="5.64617">
        <ele>371.60000610352</ele>
        <time>2013-03-12T14:00:38.000Z</time>
      </trkpt>
      <trkpt lat="43.60332" lon="5.64624">
        <ele>368.60000610352</ele>
        <time>2013-03-12T14:00:41.000Z</time>
      </trkpt>
      <trkpt lat="43.60339" lon="5.64625">
        <ele>368.60000610352</ele>
        <time>2013-03-12T14:00:42.000Z</time>
      </trkpt>
      <trkpt lat="43.60358" lon="5.6463">
        <ele>369.20001220703</ele>
        <time>2013-03-12T14:00:45.000Z</time>
      </trkpt>
      <trkpt lat="43.60364" lon="5.64633">
        <ele>369.20001220703</ele>
        <time>2013-03-12T14:00:46.000Z</time>
      </trkpt>
      <trkpt lat="43.60369" lon="5.64638">
        <ele>369.39999389648</ele>
        <time>2013-03-12T14:00:47.000Z</time>
      </trkpt>
      <trkpt lat="43.60386" lon="5.64662">
        <ele>369.60000610352</ele>
        <time>2013-03-12T14:00:51.000Z</time>
      </trkpt>
      <trkpt lat="43.60389" lon="5.64669">
        <ele>369.60000610352</ele>
        <time>2013-03-12T14:00:52.000Z</time>
      </trkpt>
      <trkpt lat="43.60392" lon="5.64676">
        <ele>369.39999389648</ele>
        <time>2013-03-12T14:00:53.000Z</time>
      </trkpt>
      <trkpt lat="43.60394" lon="5.64685">
        <ele>369.20001220703</ele>
        <time>2013-03-12T14:00:54.000Z</time>
      </trkpt>
      <trkpt lat="43.60395" lon="5.64693">
        <ele>369</ele>
        <time>2013-03-12T14:00:55.000Z</time>
      </trkpt>
      <trkpt lat="43.60397" lon="5.64708">
        <ele>368.79998779297</ele>
        <time>2013-03-12T14:00:57.000Z</time>
      </trkpt>
      <trkpt lat="43.60401" lon="5.6472">
        <ele>368.60000610352</ele>
        <time>2013-03-12T14:00:59.000Z</time>
      </trkpt>
      <trkpt lat="43.60402" lon="5.64727">
        <ele>368.60000610352</ele>
        <time>2013-03-12T14:01:00.000Z</time>
      </trkpt>
      <trkpt lat="43.60402" lon="5.64734">
        <ele>368.39999389648</ele>
        <time>2013-03-12T14:01:01.000Z</time>
      </trkpt>
      <trkpt lat="43.60403" lon="5.64757">
        <ele>367.79998779297</ele>
        <time>2013-03-12T14:01:04.000Z</time>
      </trkpt>
      <trkpt lat="43.60402" lon="5.64765">
        <ele>367.60000610352</ele>
        <time>2013-03-12T14:01:05.000Z</time>
      </trkpt>
      <trkpt lat="43.60402" lon="5.64773">
        <ele>367.39999389648</ele>
        <time>2013-03-12T14:01:06.000Z</time>
      </trkpt>
      <trkpt lat="43.60401" lon="5.64788">
        <ele>367.20001220703</ele>
        <time>2013-03-12T14:01:08.000Z</time>
      </trkpt>
      <trkpt lat="43.60399" lon="5.64809">
        <ele>366.60000610352</ele>
        <time>2013-03-12T14:01:11.000Z</time>
      </trkpt>
      <trkpt lat="43.60401" lon="5.6483">
        <ele>366.39999389648</ele>
        <time>2013-03-12T14:01:14.000Z</time>
      </trkpt>
      <trkpt lat="43.60402" lon="5.64837">
        <ele>366.39999389648</ele>
        <time>2013-03-12T14:01:15.000Z</time>
      </trkpt>
      <trkpt lat="43.60405" lon="5.64851">
        <ele>366.20001220703</ele>
        <time>2013-03-12T14:01:17.000Z</time>
      </trkpt>
      <trkpt lat="43.60409" lon="5.6487">
        <ele>365.79998779297</ele>
        <time>2013-03-12T14:01:20.000Z</time>
      </trkpt>
      <trkpt lat="43.60412" lon="5.64875">
        <ele>366</ele>
        <time>2013-03-12T14:01:21.000Z</time>
      </trkpt>
      <trkpt lat="43.60415" lon="5.64879">
        <ele>366</ele>
        <time>2013-03-12T14:01:22.000Z</time>
      </trkpt>
      <trkpt lat="43.60418" lon="5.64883">
        <ele>366.20001220703</ele>
        <time>2013-03-12T14:01:23.000Z</time>
      </trkpt>
      <trkpt lat="43.60421" lon="5.64886">
        <ele>366.60000610352</ele>
        <time>2013-03-12T14:01:24.000Z</time>
      </trkpt>
      <trkpt lat="43.6044" lon="5.64913">
        <ele>367.79998779297</ele>
        <time>2013-03-12T14:01:32.000Z</time>
      </trkpt>
      <trkpt lat="43.60477" lon="5.64975">
        <ele>369.20001220703</ele>
        <time>2013-03-12T14:01:46.000Z</time>
      </trkpt>
      <trkpt lat="43.60512" lon="5.65031">
        <ele>371</ele>
        <time>2013-03-12T14:01:59.000Z</time>
      </trkpt>
      <trkpt lat="43.60544" lon="5.65056">
        <ele>373.39999389648</ele>
        <time>2013-03-12T14:02:09.000Z</time>
      </trkpt>
      <trkpt lat="43.60588" lon="5.65077">
        <ele>377.39999389648</ele>
        <time>2013-03-12T14:02:19.000Z</time>
      </trkpt>
      <trkpt lat="43.606" lon="5.65084">
        <ele>378</ele>
        <time>2013-03-12T14:02:22.000Z</time>
      </trkpt>
      <trkpt lat="43.60629" lon="5.65087">
        <ele>379.60000610352</ele>
        <time>2013-03-12T14:02:30.000Z</time>
      </trkpt>
      <trkpt lat="43.60667" lon="5.65081">
        <ele>381.79998779297</ele>
        <time>2013-03-12T14:02:40.000Z</time>
      </trkpt>
      <trkpt lat="43.60705" lon="5.65071">
        <ele>379.79998779297</ele>
        <time>2013-03-12T14:02:51.000Z</time>
      </trkpt>
      <trkpt lat="43.6076" lon="5.65062">
        <ele>376.79998779297</ele>
        <time>2013-03-12T14:03:02.000Z</time>
      </trkpt>
      <trkpt lat="43.60773" lon="5.65059">
        <ele>375.79998779297</ele>
        <time>2013-03-12T14:03:04.000Z</time>
      </trkpt>
      <trkpt lat="43.60825" lon="5.65043">
        <ele>371.20001220703</ele>
        <time>2013-03-12T14:03:12.000Z</time>
      </trkpt>
      <trkpt lat="43.60845" lon="5.65034">
        <ele>369</ele>
        <time>2013-03-12T14:03:15.000Z</time>
      </trkpt>
      <trkpt lat="43.60852" lon="5.65029">
        <ele>368.20001220703</ele>
        <time>2013-03-12T14:03:16.000Z</time>
      </trkpt>
      <trkpt lat="43.60859" lon="5.65022">
        <ele>367.60000610352</ele>
        <time>2013-03-12T14:03:17.000Z</time>
      </trkpt>
      <trkpt lat="43.60865" lon="5.65014">
        <ele>367</ele>
        <time>2013-03-12T14:03:18.000Z</time>
      </trkpt>
      <trkpt lat="43.60891" lon="5.64983">
        <ele>365.79998779297</ele>
        <time>2013-03-12T14:03:22.000Z</time>
      </trkpt>
      <trkpt lat="43.60933" lon="5.64934">
        <ele>362.79998779297</ele>
        <time>2013-03-12T14:03:28.000Z</time>
      </trkpt>
      <trkpt lat="43.60955" lon="5.64907">
        <ele>360.39999389648</ele>
        <time>2013-03-12T14:03:31.000Z</time>
      </trkpt>
      <trkpt lat="43.6097" lon="5.64888">
        <ele>359.20001220703</ele>
        <time>2013-03-12T14:03:33.000Z</time>
      </trkpt>
      <trkpt lat="43.60994" lon="5.6486">
        <ele>357.79998779297</ele>
        <time>2013-03-12T14:03:36.000Z</time>
      </trkpt>
      <trkpt lat="43.61009" lon="5.64845">
        <ele>357.39999389648</ele>
        <time>2013-03-12T14:03:38.000Z</time>
      </trkpt>
      <trkpt lat="43.61015" lon="5.64842">
        <ele>357</ele>
        <time>2013-03-12T14:03:39.000Z</time>
      </trkpt>
      <trkpt lat="43.61022" lon="5.64843">
        <ele>356.20001220703</ele>
        <time>2013-03-12T14:03:40.000Z</time>
      </trkpt>
      <trkpt lat="43.6103" lon="5.64847">
        <ele>355.39999389648</ele>
        <time>2013-03-12T14:03:41.000Z</time>
      </trkpt>
      <trkpt lat="43.61036" lon="5.64852">
        <ele>354.39999389648</ele>
        <time>2013-03-12T14:03:42.000Z</time>
      </trkpt>
      <trkpt lat="43.61042" lon="5.64857">
        <ele>353.79998779297</ele>
        <time>2013-03-12T14:03:43.000Z</time>
      </trkpt>
      <trkpt lat="43.61067" lon="5.6488">
        <ele>350.79998779297</ele>
        <time>2013-03-12T14:03:47.000Z</time>
      </trkpt>
      <trkpt lat="43.61086" lon="5.649">
        <ele>349.20001220703</ele>
        <time>2013-03-12T14:03:50.000Z</time>
      </trkpt>
      <trkpt lat="43.61093" lon="5.64903">
        <ele>348.60000610352</ele>
        <time>2013-03-12T14:03:51.000Z</time>
      </trkpt>
      <trkpt lat="43.61101" lon="5.64905">
        <ele>348</ele>
        <time>2013-03-12T14:03:52.000Z</time>
      </trkpt>
      <trkpt lat="43.61108" lon="5.64906">
        <ele>347.60000610352</ele>
        <time>2013-03-12T14:03:53.000Z</time>
      </trkpt>
      <trkpt lat="43.61115" lon="5.64906">
        <ele>347.20001220703</ele>
        <time>2013-03-12T14:03:54.000Z</time>
      </trkpt>
      <trkpt lat="43.61123" lon="5.64908">
        <ele>346.60000610352</ele>
        <time>2013-03-12T14:03:55.000Z</time>
      </trkpt>
      <trkpt lat="43.6113" lon="5.64911">
        <ele>346.20001220703</ele>
        <time>2013-03-12T14:03:56.000Z</time>
      </trkpt>
      <trkpt lat="43.61137" lon="5.64914">
        <ele>345.79998779297</ele>
        <time>2013-03-12T14:03:57.000Z</time>
      </trkpt>
      <trkpt lat="43.61151" lon="5.64918">
        <ele>344.79998779297</ele>
        <time>2013-03-12T14:03:59.000Z</time>
      </trkpt>
      <trkpt lat="43.61192" lon="5.64922">
        <ele>341.79998779297</ele>
        <time>2013-03-12T14:04:04.000Z</time>
      </trkpt>
      <trkpt lat="43.61254" lon="5.64924">
        <ele>337.39999389648</ele>
        <time>2013-03-12T14:04:11.000Z</time>
      </trkpt>
      <trkpt lat="43.61311" lon="5.64933">
        <ele>335.60000610352</ele>
        <time>2013-03-12T14:04:17.000Z</time>
      </trkpt>
      <trkpt lat="43.61353" lon="5.64937">
        <ele>333</ele>
        <time>2013-03-12T14:04:21.000Z</time>
      </trkpt>
      <trkpt lat="43.61363" lon="5.64934">
        <ele>332</ele>
        <time>2013-03-12T14:04:22.000Z</time>
      </trkpt>
      <trkpt lat="43.61373" lon="5.6493">
        <ele>331.20001220703</ele>
        <time>2013-03-12T14:04:23.000Z</time>
      </trkpt>
      <trkpt lat="43.61421" lon="5.64908">
        <ele>326.79998779297</ele>
        <time>2013-03-12T14:04:28.000Z</time>
      </trkpt>
      <trkpt lat="43.6144" lon="5.649">
        <ele>326.20001220703</ele>
        <time>2013-03-12T14:04:30.000Z</time>
      </trkpt>
      <trkpt lat="43.61477" lon="5.64881">
        <ele>324.79998779297</ele>
        <time>2013-03-12T14:04:34.000Z</time>
      </trkpt>
      <trkpt lat="43.61484" lon="5.64874">
        <ele>324.60000610352</ele>
        <time>2013-03-12T14:04:35.000Z</time>
      </trkpt>
      <trkpt lat="43.61536" lon="5.64809">
        <ele>322.39999389648</ele>
        <time>2013-03-12T14:04:44.000Z</time>
      </trkpt>
      <trkpt lat="43.61551" lon="5.64791">
        <ele>321.60000610352</ele>
        <time>2013-03-12T14:04:47.000Z</time>
      </trkpt>
      <trkpt lat="43.61557" lon="5.64787">
        <ele>321.39999389648</ele>
        <time>2013-03-12T14:04:48.000Z</time>
      </trkpt>
      <trkpt lat="43.61564" lon="5.64787">
        <ele>321.20001220703</ele>
        <time>2013-03-12T14:04:49.000Z</time>
      </trkpt>
      <trkpt lat="43.61571" lon="5.64792">
        <ele>321.20001220703</ele>
        <time>2013-03-12T14:04:50.000Z</time>
      </trkpt>
      <trkpt lat="43.61576" lon="5.64799">
        <ele>321.20001220703</ele>
        <time>2013-03-12T14:04:51.000Z</time>
      </trkpt>
      <trkpt lat="43.61581" lon="5.64809">
        <ele>321.39999389648</ele>
        <time>2013-03-12T14:04:52.000Z</time>
      </trkpt>
      <trkpt lat="43.61585" lon="5.64819">
        <ele>321.39999389648</ele>
        <time>2013-03-12T14:04:53.000Z</time>
      </trkpt>
      <trkpt lat="43.61589" lon="5.64829">
        <ele>321.20001220703</ele>
        <time>2013-03-12T14:04:54.000Z</time>
      </trkpt>
      <trkpt lat="43.61595" lon="5.64837">
        <ele>321</ele>
        <time>2013-03-12T14:04:55.000Z</time>
      </trkpt>
      <trkpt lat="43.61601" lon="5.64845">
        <ele>320.39999389648</ele>
        <time>2013-03-12T14:04:56.000Z</time>
      </trkpt>
      <trkpt lat="43.61608" lon="5.6485">
        <ele>319.79998779297</ele>
        <time>2013-03-12T14:04:57.000Z</time>
      </trkpt>
      <trkpt lat="43.61615" lon="5.64855">
        <ele>319.20001220703</ele>
        <time>2013-03-12T14:04:58.000Z</time>
      </trkpt>
      <trkpt lat="43.61623" lon="5.64857">
        <ele>318.60000610352</ele>
        <time>2013-03-12T14:04:59.000Z</time>
      </trkpt>
      <trkpt lat="43.61631" lon="5.64857">
        <ele>318</ele>
        <time>2013-03-12T14:05:00.000Z</time>
      </trkpt>
      <trkpt lat="43.61639" lon="5.64855">
        <ele>317.39999389648</ele>
        <time>2013-03-12T14:05:01.000Z</time>
      </trkpt>
      <trkpt lat="43.61647" lon="5.64852">
        <ele>316.60000610352</ele>
        <time>2013-03-12T14:05:02.000Z</time>
      </trkpt>
      <trkpt lat="43.61703" lon="5.64827">
        <ele>313.20001220703</ele>
        <time>2013-03-12T14:05:10.000Z</time>
      </trkpt>
      <trkpt lat="43.6176" lon="5.64813">
        <ele>310.79998779297</ele>
        <time>2013-03-12T14:05:18.000Z</time>
      </trkpt>
      <trkpt lat="43.61837" lon="5.64802">
        <ele>310.39999389648</ele>
        <time>2013-03-12T14:05:28.000Z</time>
      </trkpt>
      <trkpt lat="43.61868" lon="5.64794">
        <ele>308.60000610352</ele>
        <time>2013-03-12T14:05:32.000Z</time>
      </trkpt>
      <trkpt lat="43.61876" lon="5.6479">
        <ele>308</ele>
        <time>2013-03-12T14:05:33.000Z</time>
      </trkpt>
      <trkpt lat="43.61882" lon="5.64783">
        <ele>307.79998779297</ele>
        <time>2013-03-12T14:05:34.000Z</time>
      </trkpt>
      <trkpt lat="43.61888" lon="5.64775">
        <ele>307.39999389648</ele>
        <time>2013-03-12T14:05:35.000Z</time>
      </trkpt>
      <trkpt lat="43.61894" lon="5.64765">
        <ele>307</ele>
        <time>2013-03-12T14:05:36.000Z</time>
      </trkpt>
      <trkpt lat="43.61899" lon="5.64756">
        <ele>306.79998779297</ele>
        <time>2013-03-12T14:05:37.000Z</time>
      </trkpt>
      <trkpt lat="43.6193" lon="5.64714">
        <ele>304.79998779297</ele>
        <time>2013-03-12T14:05:42.000Z</time>
      </trkpt>
      <trkpt lat="43.61937" lon="5.64707">
        <ele>304.39999389648</ele>
        <time>2013-03-12T14:05:43.000Z</time>
      </trkpt>
      <trkpt lat="43.6196" lon="5.64686">
        <ele>303.39999389648</ele>
        <time>2013-03-12T14:05:46.000Z</time>
      </trkpt>
      <trkpt lat="43.61984" lon="5.64654">
        <ele>302</ele>
        <time>2013-03-12T14:05:50.000Z</time>
      </trkpt>
      <trkpt lat="43.61989" lon="5.64645">
        <ele>302</ele>
        <time>2013-03-12T14:05:51.000Z</time>
      </trkpt>
      <trkpt lat="43.6201" lon="5.64589">
        <ele>301.60000610352</ele>
        <time>2013-03-12T14:05:57.000Z</time>
      </trkpt>
      <trkpt lat="43.62016" lon="5.64582">
        <ele>301.60000610352</ele>
        <time>2013-03-12T14:05:58.000Z</time>
      </trkpt>
      <trkpt lat="43.62023" lon="5.64579">
        <ele>301.39999389648</ele>
        <time>2013-03-12T14:05:59.000Z</time>
      </trkpt>
      <trkpt lat="43.62031" lon="5.64579">
        <ele>301.20001220703</ele>
        <time>2013-03-12T14:06:00.000Z</time>
      </trkpt>
      <trkpt lat="43.62039" lon="5.6458">
        <ele>301</ele>
        <time>2013-03-12T14:06:01.000Z</time>
      </trkpt>
      <trkpt lat="43.62046" lon="5.64584">
        <ele>300.79998779297</ele>
        <time>2013-03-12T14:06:02.000Z</time>
      </trkpt>
      <trkpt lat="43.62053" lon="5.64588">
        <ele>300.79998779297</ele>
        <time>2013-03-12T14:06:03.000Z</time>
      </trkpt>
      <trkpt lat="43.62074" lon="5.64596">
        <ele>300.60000610352</ele>
        <time>2013-03-12T14:06:06.000Z</time>
      </trkpt>
      <trkpt lat="43.62081" lon="5.64597">
        <ele>300.60000610352</ele>
        <time>2013-03-12T14:06:07.000Z</time>
      </trkpt>
      <trkpt lat="43.62088" lon="5.64597">
        <ele>300.39999389648</ele>
        <time>2013-03-12T14:06:08.000Z</time>
      </trkpt>
      <trkpt lat="43.62094" lon="5.64596">
        <ele>300.20001220703</ele>
        <time>2013-03-12T14:06:09.000Z</time>
      </trkpt>
      <trkpt lat="43.62101" lon="5.64594">
        <ele>300</ele>
        <time>2013-03-12T14:06:10.000Z</time>
      </trkpt>
      <trkpt lat="43.62108" lon="5.64593">
        <ele>299.79998779297</ele>
        <time>2013-03-12T14:06:11.000Z</time>
      </trkpt>
      <trkpt lat="43.62114" lon="5.64593">
        <ele>299.60000610352</ele>
        <time>2013-03-12T14:06:12.000Z</time>
      </trkpt>
      <trkpt lat="43.62122" lon="5.64595">
        <ele>299.60000610352</ele>
        <time>2013-03-12T14:06:13.000Z</time>
      </trkpt>
      <trkpt lat="43.62189" lon="5.64624">
        <ele>298.39999389648</ele>
        <time>2013-03-12T14:06:22.000Z</time>
      </trkpt>
      <trkpt lat="43.62197" lon="5.64629">
        <ele>298.20001220703</ele>
        <time>2013-03-12T14:06:23.000Z</time>
      </trkpt>
      <trkpt lat="43.62276" lon="5.64691">
        <ele>297.39999389648</ele>
        <time>2013-03-12T14:06:35.000Z</time>
      </trkpt>
      <trkpt lat="43.62301" lon="5.64707">
        <ele>299.20001220703</ele>
        <time>2013-03-12T14:06:39.000Z</time>
      </trkpt>
      <trkpt lat="43.62307" lon="5.64709">
        <ele>299.39999389648</ele>
        <time>2013-03-12T14:06:40.000Z</time>
      </trkpt>
      <trkpt lat="43.62314" lon="5.64709">
        <ele>299.79998779297</ele>
        <time>2013-03-12T14:06:41.000Z</time>
      </trkpt>
      <trkpt lat="43.6232" lon="5.64708">
        <ele>300</ele>
        <time>2013-03-12T14:06:42.000Z</time>
      </trkpt>
      <trkpt lat="43.62327" lon="5.64706">
        <ele>300</ele>
        <time>2013-03-12T14:06:43.000Z</time>
      </trkpt>
      <trkpt lat="43.62333" lon="5.64704">
        <ele>300</ele>
        <time>2013-03-12T14:06:44.000Z</time>
      </trkpt>
      <trkpt lat="43.62349" lon="5.647">
        <ele>299.79998779297</ele>
        <time>2013-03-12T14:06:47.000Z</time>
      </trkpt>
      <trkpt lat="43.62405" lon="5.64681">
        <ele>298.60000610352</ele>
        <time>2013-03-12T14:06:59.000Z</time>
      </trkpt>
      <trkpt lat="43.62441" lon="5.64671">
        <ele>299.20001220703</ele>
        <time>2013-03-12T14:07:08.000Z</time>
      </trkpt>
      <trkpt lat="43.62446" lon="5.6467">
        <ele>299.20001220703</ele>
        <time>2013-03-12T14:07:09.000Z</time>
      </trkpt>
      <trkpt lat="43.62464" lon="5.64664">
        <ele>300.20001220703</ele>
        <time>2013-03-12T14:07:13.000Z</time>
      </trkpt>
      <trkpt lat="43.62522" lon="5.6466">
        <ele>304.20001220703</ele>
        <time>2013-03-12T14:07:26.000Z</time>
      </trkpt>
      <trkpt lat="43.6257" lon="5.64663">
        <ele>307.79998779297</ele>
        <time>2013-03-12T14:07:37.000Z</time>
      </trkpt>
      <trkpt lat="43.6258" lon="5.64663">
        <ele>308.39999389648</ele>
        <time>2013-03-12T14:07:39.000Z</time>
      </trkpt>
      <trkpt lat="43.62589" lon="5.64663">
        <ele>308.79998779297</ele>
        <time>2013-03-12T14:07:41.000Z</time>
      </trkpt>
      <trkpt lat="43.62603" lon="5.64666">
        <ele>308.79998779297</ele>
        <time>2013-03-12T14:07:44.000Z</time>
      </trkpt>
      <trkpt lat="43.62607" lon="5.64667">
        <ele>309</ele>
        <time>2013-03-12T14:07:45.000Z</time>
      </trkpt>
      <trkpt lat="43.6261" lon="5.6467">
        <ele>309</ele>
        <time>2013-03-12T14:07:46.000Z</time>
      </trkpt>
      <trkpt lat="43.62622" lon="5.64681">
        <ele>309</ele>
        <time>2013-03-12T14:07:49.000Z</time>
      </trkpt>
      <trkpt lat="43.62626" lon="5.64686">
        <ele>308.79998779297</ele>
        <time>2013-03-12T14:07:50.000Z</time>
      </trkpt>
      <trkpt lat="43.62629" lon="5.64691">
        <ele>308.79998779297</ele>
        <time>2013-03-12T14:07:51.000Z</time>
      </trkpt>
      <trkpt lat="43.62652" lon="5.64732">
        <ele>307</ele>
        <time>2013-03-12T14:07:57.000Z</time>
      </trkpt>
      <trkpt lat="43.6266" lon="5.64748">
        <ele>305.60000610352</ele>
        <time>2013-03-12T14:07:59.000Z</time>
      </trkpt>
      <trkpt lat="43.62663" lon="5.64757">
        <ele>305.39999389648</ele>
        <time>2013-03-12T14:08:00.000Z</time>
      </trkpt>
      <trkpt lat="43.62675" lon="5.6481">
        <ele>306.39999389648</ele>
        <time>2013-03-12T14:08:05.000Z</time>
      </trkpt>
      <trkpt lat="43.6268" lon="5.6482">
        <ele>306.79998779297</ele>
        <time>2013-03-12T14:08:06.000Z</time>
      </trkpt>
      <trkpt lat="43.62687" lon="5.64826">
        <ele>307.20001220703</ele>
        <time>2013-03-12T14:08:07.000Z</time>
      </trkpt>
      <trkpt lat="43.62695" lon="5.64829">
        <ele>307.39999389648</ele>
        <time>2013-03-12T14:08:08.000Z</time>
      </trkpt>
      <trkpt lat="43.62704" lon="5.64828">
        <ele>307.60000610352</ele>
        <time>2013-03-12T14:08:09.000Z</time>
      </trkpt>
      <trkpt lat="43.62712" lon="5.64823">
        <ele>307.39999389648</ele>
        <time>2013-03-12T14:08:10.000Z</time>
      </trkpt>
      <trkpt lat="43.62719" lon="5.64815">
        <ele>307.20001220703</ele>
        <time>2013-03-12T14:08:11.000Z</time>
      </trkpt>
      <trkpt lat="43.62725" lon="5.64806">
        <ele>306.79998779297</ele>
        <time>2013-03-12T14:08:12.000Z</time>
      </trkpt>
      <trkpt lat="43.6273" lon="5.64796">
        <ele>306.20001220703</ele>
        <time>2013-03-12T14:08:13.000Z</time>
      </trkpt>
      <trkpt lat="43.62734" lon="5.64786">
        <ele>305.60000610352</ele>
        <time>2013-03-12T14:08:14.000Z</time>
      </trkpt>
      <trkpt lat="43.62747" lon="5.64757">
        <ele>303.39999389648</ele>
        <time>2013-03-12T14:08:17.000Z</time>
      </trkpt>
      <trkpt lat="43.62776" lon="5.64698">
        <ele>302</ele>
        <time>2013-03-12T14:08:23.000Z</time>
      </trkpt>
      <trkpt lat="43.62796" lon="5.64656">
        <ele>300.39999389648</ele>
        <time>2013-03-12T14:08:27.000Z</time>
      </trkpt>
      <trkpt lat="43.62817" lon="5.64612">
        <ele>296.20001220703</ele>
        <time>2013-03-12T14:08:31.000Z</time>
      </trkpt>
      <trkpt lat="43.62843" lon="5.64559">
        <ele>291</ele>
        <time>2013-03-12T14:08:36.000Z</time>
      </trkpt>
      <trkpt lat="43.62856" lon="5.64538">
        <ele>289.60000610352</ele>
        <time>2013-03-12T14:08:38.000Z</time>
      </trkpt>
      <trkpt lat="43.62864" lon="5.64529">
        <ele>288.79998779297</ele>
        <time>2013-03-12T14:08:39.000Z</time>
      </trkpt>
      <trkpt lat="43.62872" lon="5.64521">
        <ele>287.79998779297</ele>
        <time>2013-03-12T14:08:40.000Z</time>
      </trkpt>
      <trkpt lat="43.62917" lon="5.64488">
        <ele>282.79998779297</ele>
        <time>2013-03-12T14:08:45.000Z</time>
      </trkpt>
      <trkpt lat="43.62926" lon="5.64485">
        <ele>282.39999389648</ele>
        <time>2013-03-12T14:08:46.000Z</time>
      </trkpt>
      <trkpt lat="43.62936" lon="5.64483">
        <ele>281.79998779297</ele>
        <time>2013-03-12T14:08:47.000Z</time>
      </trkpt>
      <trkpt lat="43.62967" lon="5.64479">
        <ele>280.39999389648</ele>
        <time>2013-03-12T14:08:50.000Z</time>
      </trkpt>
      <trkpt lat="43.62987" lon="5.64477">
        <ele>279.39999389648</ele>
        <time>2013-03-12T14:08:52.000Z</time>
      </trkpt>
      <trkpt lat="43.63028" lon="5.64473">
        <ele>276.20001220703</ele>
        <time>2013-03-12T14:08:56.000Z</time>
      </trkpt>
      <trkpt lat="43.63048" lon="5.64472">
        <ele>274.60000610352</ele>
        <time>2013-03-12T14:08:58.000Z</time>
      </trkpt>
      <trkpt lat="43.63128" lon="5.64457">
        <ele>269</ele>
        <time>2013-03-12T14:09:07.000Z</time>
      </trkpt>
      <trkpt lat="43.63136" lon="5.64455">
        <ele>268.60000610352</ele>
        <time>2013-03-12T14:09:08.000Z</time>
      </trkpt>
      <trkpt lat="43.63197" lon="5.6442">
        <ele>267</ele>
        <time>2013-03-12T14:09:17.000Z</time>
      </trkpt>
      <trkpt lat="43.63238" lon="5.64388">
        <ele>266.60000610352</ele>
        <time>2013-03-12T14:09:25.000Z</time>
      </trkpt>
      <trkpt lat="43.63243" lon="5.64386">
        <ele>266.60000610352</ele>
        <time>2013-03-12T14:09:26.000Z</time>
      </trkpt>
      <trkpt lat="43.63267" lon="5.64379">
        <ele>267.39999389648</ele>
        <time>2013-03-12T14:09:31.000Z</time>
      </trkpt>
      <trkpt lat="43.63271" lon="5.64377">
        <ele>267.39999389648</ele>
        <time>2013-03-12T14:09:32.000Z</time>
      </trkpt>
      <trkpt lat="43.63275" lon="5.64373">
        <ele>267.60000610352</ele>
        <time>2013-03-12T14:09:33.000Z</time>
      </trkpt>
      <trkpt lat="43.63277" lon="5.64367">
        <ele>267.39999389648</ele>
        <time>2013-03-12T14:09:34.000Z</time>
      </trkpt>
      <trkpt lat="43.63279" lon="5.64362">
        <ele>267.39999389648</ele>
        <time>2013-03-12T14:09:35.000Z</time>
      </trkpt>
      <trkpt lat="43.63307" lon="5.64294">
        <ele>266.60000610352</ele>
        <time>2013-03-12T14:09:46.000Z</time>
      </trkpt>
      <trkpt lat="43.63364" lon="5.6422">
        <ele>267.39999389648</ele>
        <time>2013-03-12T14:10:00.000Z</time>
      </trkpt>
      <trkpt lat="43.63426" lon="5.64178">
        <ele>266.60000610352</ele>
        <time>2013-03-12T14:10:13.000Z</time>
      </trkpt>
      <trkpt lat="43.63484" lon="5.6414">
        <ele>267.60000610352</ele>
        <time>2013-03-12T14:10:25.000Z</time>
      </trkpt>
      <trkpt lat="43.63525" lon="5.64088">
        <ele>268</ele>
        <time>2013-03-12T14:10:36.000Z</time>
      </trkpt>
      <trkpt lat="43.63538" lon="5.64059">
        <ele>267.60000610352</ele>
        <time>2013-03-12T14:10:41.000Z</time>
      </trkpt>
      <trkpt lat="43.6354" lon="5.64053">
        <ele>267.60000610352</ele>
        <time>2013-03-12T14:10:42.000Z</time>
      </trkpt>
      <trkpt lat="43.63552" lon="5.64011">
        <ele>267.60000610352</ele>
        <time>2013-03-12T14:10:49.000Z</time>
      </trkpt>
      <trkpt lat="43.63555" lon="5.64008">
        <ele>267.39999389648</ele>
        <time>2013-03-12T14:10:50.000Z</time>
      </trkpt>
      <trkpt lat="43.63559" lon="5.64007">
        <ele>267.20001220703</ele>
        <time>2013-03-12T14:10:51.000Z</time>
      </trkpt>
      <trkpt lat="43.63564" lon="5.64007">
        <ele>267</ele>
        <time>2013-03-12T14:10:52.000Z</time>
      </trkpt>
      <trkpt lat="43.63568" lon="5.64004">
        <ele>266.79998779297</ele>
        <time>2013-03-12T14:10:53.000Z</time>
      </trkpt>
      <trkpt lat="43.63571" lon="5.63999">
        <ele>266.60000610352</ele>
        <time>2013-03-12T14:10:54.000Z</time>
      </trkpt>
      <trkpt lat="43.63573" lon="5.63993">
        <ele>266.60000610352</ele>
        <time>2013-03-12T14:10:55.000Z</time>
      </trkpt>
      <trkpt lat="43.63574" lon="5.63986">
        <ele>266.39999389648</ele>
        <time>2013-03-12T14:10:56.000Z</time>
      </trkpt>
      <trkpt lat="43.63575" lon="5.63979">
        <ele>266.39999389648</ele>
        <time>2013-03-12T14:10:57.000Z</time>
      </trkpt>
      <trkpt lat="43.63575" lon="5.63972">
        <ele>266.39999389648</ele>
        <time>2013-03-12T14:10:58.000Z</time>
      </trkpt>
      <trkpt lat="43.63581" lon="5.6387">
        <ele>266</ele>
        <time>2013-03-12T14:11:12.000Z</time>
      </trkpt>
      <trkpt lat="43.63585" lon="5.63769">
        <ele>263.60000610352</ele>
        <time>2013-03-12T14:11:27.000Z</time>
      </trkpt>
      <trkpt lat="43.63591" lon="5.63689">
        <ele>263</ele>
        <time>2013-03-12T14:11:38.000Z</time>
      </trkpt>
      <trkpt lat="43.63606" lon="5.63611">
        <ele>263.79998779297</ele>
        <time>2013-03-12T14:11:50.000Z</time>
      </trkpt>
      <trkpt lat="43.63638" lon="5.63522">
        <ele>262.20001220703</ele>
        <time>2013-03-12T14:12:03.000Z</time>
      </trkpt>
      <trkpt lat="43.63642" lon="5.63517">
        <ele>262</ele>
        <time>2013-03-12T14:12:04.000Z</time>
      </trkpt>
      <trkpt lat="43.63646" lon="5.63514">
        <ele>262</ele>
        <time>2013-03-12T14:12:05.000Z</time>
      </trkpt>
      <trkpt lat="43.63651" lon="5.63512">
        <ele>261.79998779297</ele>
        <time>2013-03-12T14:12:06.000Z</time>
      </trkpt>
      <trkpt lat="43.63655" lon="5.63512">
        <ele>261.79998779297</ele>
        <time>2013-03-12T14:12:07.000Z</time>
      </trkpt>
      <trkpt lat="43.6366" lon="5.63514">
        <ele>262</ele>
        <time>2013-03-12T14:12:08.000Z</time>
      </trkpt>
      <trkpt lat="43.63664" lon="5.63517">
        <ele>262.20001220703</ele>
        <time>2013-03-12T14:12:09.000Z</time>
      </trkpt>
      <trkpt lat="43.63667" lon="5.6352">
        <ele>262.39999389648</ele>
        <time>2013-03-12T14:12:10.000Z</time>
      </trkpt>
      <trkpt lat="43.63682" lon="5.63526">
        <ele>264.20001220703</ele>
        <time>2013-03-12T14:12:15.000Z</time>
      </trkpt>
      <trkpt lat="43.63684" lon="5.63524">
        <ele>264.39999389648</ele>
        <time>2013-03-12T14:12:16.000Z</time>
      </trkpt>
      <trkpt lat="43.63686" lon="5.6352">
        <ele>264.20001220703</ele>
        <time>2013-03-12T14:12:17.000Z</time>
      </trkpt>
      <trkpt lat="43.63688" lon="5.63516">
        <ele>264</ele>
        <time>2013-03-12T14:12:18.000Z</time>
      </trkpt>
      <trkpt lat="43.63689" lon="5.63511">
        <ele>263.79998779297</ele>
        <time>2013-03-12T14:12:19.000Z</time>
      </trkpt>
      <trkpt lat="43.63692" lon="5.63501">
        <ele>263.39999389648</ele>
        <time>2013-03-12T14:12:21.000Z</time>
      </trkpt>
      <trkpt lat="43.63695" lon="5.63497">
        <ele>263.60000610352</ele>
        <time>2013-03-12T14:12:22.000Z</time>
      </trkpt>
      <trkpt lat="43.63699" lon="5.63493">
        <ele>263.79998779297</ele>
        <time>2013-03-12T14:12:23.000Z</time>
      </trkpt>
      <trkpt lat="43.63703" lon="5.63489">
        <ele>264</ele>
        <time>2013-03-12T14:12:24.000Z</time>
      </trkpt>
      <trkpt lat="43.63707" lon="5.63486">
        <ele>264.20001220703</ele>
        <time>2013-03-12T14:12:25.000Z</time>
      </trkpt>
      <trkpt lat="43.6371" lon="5.63482">
        <ele>264.39999389648</ele>
        <time>2013-03-12T14:12:26.000Z</time>
      </trkpt>
      <trkpt lat="43.63717" lon="5.63475">
        <ele>264.60000610352</ele>
        <time>2013-03-12T14:12:28.000Z</time>
      </trkpt>
      <trkpt lat="43.6372" lon="5.63472">
        <ele>264.60000610352</ele>
        <time>2013-03-12T14:12:29.000Z</time>
      </trkpt>
      <trkpt lat="43.63724" lon="5.6347">
        <ele>264.79998779297</ele>
        <time>2013-03-12T14:12:30.000Z</time>
      </trkpt>
      <trkpt lat="43.63756" lon="5.63459">
        <ele>265.39999389648</ele>
        <time>2013-03-12T14:12:40.000Z</time>
      </trkpt>
      <trkpt lat="43.63757" lon="5.6346">
        <ele>265.60000610352</ele>
        <time>2013-03-12T14:12:41.000Z</time>
      </trkpt>
      <trkpt lat="43.63758" lon="5.63461">
        <ele>265.60000610352</ele>
        <time>2013-03-12T14:12:42.000Z</time>
      </trkpt>
      <trkpt lat="43.63759" lon="5.63463">
        <ele>265.79998779297</ele>
        <time>2013-03-12T14:12:43.000Z</time>
      </trkpt>
      <trkpt lat="43.6376" lon="5.63465">
        <ele>266</ele>
        <time>2013-03-12T14:12:44.000Z</time>
      </trkpt>
      <trkpt lat="43.63759" lon="5.63474">
        <ele>266.79998779297</ele>
        <time>2013-03-12T14:12:50.000Z</time>
      </trkpt>
      <trkpt lat="43.6376" lon="5.63478">
        <ele>267</ele>
        <time>2013-03-12T14:12:58.000Z</time>
      </trkpt>
      <trkpt lat="43.63762" lon="5.63479">
        <ele>267.20001220703</ele>
        <time>2013-03-12T14:13:12.000Z</time>
      </trkpt>
      <trkpt lat="43.63762" lon="5.63479">
        <ele>267</ele>
        <time>2013-03-12T14:13:29.000Z</time>
      </trkpt>
      <trkpt lat="43.63763" lon="5.63479">
        <ele>267</ele>
        <time>2013-03-12T14:13:41.000Z</time>
      </trkpt>
      <trkpt lat="43.63761" lon="5.63481">
        <ele>267.20001220703</ele>
        <time>2013-03-12T14:14:10.000Z</time>
      </trkpt>
      <trkpt lat="43.63763" lon="5.63481">
        <ele>267.20001220703</ele>
        <time>2013-03-12T14:14:33.000Z</time>
      </trkpt>
      <trkpt lat="43.63765" lon="5.63479">
        <ele>267</ele>
        <time>2013-03-12T14:14:58.000Z</time>
      </trkpt>
      <trkpt lat="43.63763" lon="5.63477">
        <ele>267</ele>
        <time>2013-03-12T14:15:23.000Z</time>
      </trkpt>
      <trkpt lat="43.63761" lon="5.63479">
        <ele>267.20001220703</ele>
        <time>2013-03-12T14:15:48.000Z</time>
      </trkpt>
      <trkpt lat="43.6376" lon="5.63479">
        <ele>267</ele>
        <time>2013-03-12T14:16:11.000Z</time>
      </trkpt>
      <trkpt lat="43.6376" lon="5.63478">
        <ele>267</ele>
        <time>2013-03-12T14:16:35.000Z</time>
      </trkpt>
      <trkpt lat="43.6376" lon="5.63479">
        <ele>267</ele>
        <time>2013-03-12T14:16:56.000Z</time>
      </trkpt>
      <trkpt lat="43.63762" lon="5.63478">
        <ele>267</ele>
        <time>2013-03-12T14:17:19.000Z</time>
      </trkpt>
      <trkpt lat="43.63764" lon="5.63478">
        <ele>267</ele>
        <time>2013-03-12T14:17:48.000Z</time>
      </trkpt>
      <trkpt lat="43.63763" lon="5.6348">
        <ele>267.20001220703</ele>
        <time>2013-03-12T14:18:11.000Z</time>
      </trkpt>
      <trkpt lat="43.63766" lon="5.63479">
        <ele>267</ele>
        <time>2013-03-12T14:18:41.000Z</time>
      </trkpt>
      <trkpt lat="43.63766" lon="5.63479">
        <ele>267</ele>
        <time>2013-03-12T14:19:16.000Z</time>
      </trkpt>
      <trkpt lat="43.63767" lon="5.63478">
        <ele>267</ele>
        <time>2013-03-12T14:19:41.000Z</time>
      </trkpt>
      <trkpt lat="43.63766" lon="5.63477">
        <ele>267</ele>
        <time>2013-03-12T14:20:04.000Z</time>
      </trkpt>
      <trkpt lat="43.63766" lon="5.63478">
        <ele>267</ele>
        <time>2013-03-12T14:20:32.000Z</time>
      </trkpt>
      <trkpt lat="43.63765" lon="5.6348">
        <ele>267.20001220703</ele>
        <time>2013-03-12T14:20:55.000Z</time>
      </trkpt>
      <trkpt lat="43.63762" lon="5.63481">
        <ele>267.20001220703</ele>
        <time>2013-03-12T14:21:14.000Z</time>
      </trkpt>
      <trkpt lat="43.6376" lon="5.63482">
        <ele>267.39999389648</ele>
        <time>2013-03-12T14:21:48.000Z</time>
      </trkpt>
      <trkpt lat="43.63759" lon="5.63483">
        <ele>267.39999389648</ele>
        <time>2013-03-12T14:22:15.000Z</time>
      </trkpt>
      <trkpt lat="43.6376" lon="5.63486">
        <ele>267.60000610352</ele>
        <time>2013-03-12T14:22:46.000Z</time>
      </trkpt>
      <trkpt lat="43.63761" lon="5.63484">
        <ele>267.60000610352</ele>
        <time>2013-03-12T14:23:14.000Z</time>
      </trkpt>
      <trkpt lat="43.6376" lon="5.63483">
        <ele>267.39999389648</ele>
        <time>2013-03-12T14:23:40.000Z</time>
      </trkpt>
      <trkpt lat="43.63758" lon="5.63483">
        <ele>267.39999389648</ele>
        <time>2013-03-12T14:24:15.000Z</time>
      </trkpt>
      <trkpt lat="43.63757" lon="5.63482">
        <ele>267.39999389648</ele>
        <time>2013-03-12T14:24:29.000Z</time>
      </trkpt>
      <trkpt lat="43.63757" lon="5.63481">
        <ele>267.20001220703</ele>
        <time>2013-03-12T14:24:34.000Z</time>
      </trkpt>
      <trkpt lat="43.63757" lon="5.63479">
        <ele>267.20001220703</ele>
        <time>2013-03-12T14:24:35.000Z</time>
      </trkpt>
      <trkpt lat="43.63756" lon="5.63476">
        <ele>267</ele>
        <time>2013-03-12T14:24:36.000Z</time>
      </trkpt>
      <trkpt lat="43.63756" lon="5.63474">
        <ele>266.60000610352</ele>
        <time>2013-03-12T14:24:37.000Z</time>
      </trkpt>
      <trkpt lat="43.63756" lon="5.63471">
        <ele>266.39999389648</ele>
        <time>2013-03-12T14:24:38.000Z</time>
      </trkpt>
      <trkpt lat="43.63755" lon="5.63468">
        <ele>266.20001220703</ele>
        <time>2013-03-12T14:24:40.000Z</time>
      </trkpt>
      <trkpt lat="43.63754" lon="5.63466">
        <ele>266</ele>
        <time>2013-03-12T14:24:41.000Z</time>
      </trkpt>
      <trkpt lat="43.63754" lon="5.63464">
        <ele>266</ele>
        <time>2013-03-12T14:24:42.000Z</time>
      </trkpt>
      <trkpt lat="43.63754" lon="5.63463">
        <ele>265.79998779297</ele>
        <time>2013-03-12T14:24:43.000Z</time>
      </trkpt>
      <trkpt lat="43.63754" lon="5.63461">
        <ele>265.60000610352</ele>
        <time>2013-03-12T14:24:44.000Z</time>
      </trkpt>
      <trkpt lat="43.63754" lon="5.63459">
        <ele>265.39999389648</ele>
        <time>2013-03-12T14:24:45.000Z</time>
      </trkpt>
      <trkpt lat="43.63753" lon="5.63457">
        <ele>265.20001220703</ele>
        <time>2013-03-12T14:24:46.000Z</time>
      </trkpt>
      <trkpt lat="43.6375" lon="5.63457">
        <ele>265.20001220703</ele>
        <time>2013-03-12T14:24:47.000Z</time>
      </trkpt>
      <trkpt lat="43.63747" lon="5.63458">
        <ele>265.20001220703</ele>
        <time>2013-03-12T14:24:48.000Z</time>
      </trkpt>
      <trkpt lat="43.63743" lon="5.6346">
        <ele>265.20001220703</ele>
        <time>2013-03-12T14:24:49.000Z</time>
      </trkpt>
      <trkpt lat="43.63739" lon="5.63462">
        <ele>265.20001220703</ele>
        <time>2013-03-12T14:24:50.000Z</time>
      </trkpt>
      <trkpt lat="43.63735" lon="5.63463">
        <ele>265</ele>
        <time>2013-03-12T14:24:51.000Z</time>
      </trkpt>
      <trkpt lat="43.6373" lon="5.63464">
        <ele>264.79998779297</ele>
        <time>2013-03-12T14:24:52.000Z</time>
      </trkpt>
      <trkpt lat="43.63726" lon="5.63466">
        <ele>264.60000610352</ele>
        <time>2013-03-12T14:24:53.000Z</time>
      </trkpt>
      <trkpt lat="43.63722" lon="5.63468">
        <ele>264.60000610352</ele>
        <time>2013-03-12T14:24:54.000Z</time>
      </trkpt>
      <trkpt lat="43.63707" lon="5.63477">
        <ele>264</ele>
        <time>2013-03-12T14:24:59.000Z</time>
      </trkpt>
      <trkpt lat="43.63704" lon="5.63475">
        <ele>263.79998779297</ele>
        <time>2013-03-12T14:25:00.000Z</time>
      </trkpt>
      <trkpt lat="43.63702" lon="5.63471">
        <ele>263.39999389648</ele>
        <time>2013-03-12T14:25:01.000Z</time>
      </trkpt>
      <trkpt lat="43.63702" lon="5.63467">
        <ele>263.39999389648</ele>
        <time>2013-03-12T14:25:02.000Z</time>
      </trkpt>
      <trkpt lat="43.63702" lon="5.63462">
        <ele>263.20001220703</ele>
        <time>2013-03-12T14:25:03.000Z</time>
      </trkpt>
      <trkpt lat="43.63703" lon="5.63458">
        <ele>263.20001220703</ele>
        <time>2013-03-12T14:25:04.000Z</time>
      </trkpt>
      <trkpt lat="43.6371" lon="5.63429">
        <ele>262.39999389648</ele>
        <time>2013-03-12T14:25:10.000Z</time>
      </trkpt>
      <trkpt lat="43.63722" lon="5.63385">
        <ele>260.20001220703</ele>
        <time>2013-03-12T14:25:18.000Z</time>
      </trkpt>
      <trkpt lat="43.63728" lon="5.63357">
        <ele>258.20001220703</ele>
        <time>2013-03-12T14:25:23.000Z</time>
      </trkpt>
      <trkpt lat="43.63727" lon="5.63351">
        <ele>258</ele>
        <time>2013-03-12T14:25:24.000Z</time>
      </trkpt>
      <trkpt lat="43.63726" lon="5.63346">
        <ele>257.79998779297</ele>
        <time>2013-03-12T14:25:25.000Z</time>
      </trkpt>
      <trkpt lat="43.63723" lon="5.63342">
        <ele>257.60000610352</ele>
        <time>2013-03-12T14:25:26.000Z</time>
      </trkpt>
      <trkpt lat="43.6372" lon="5.63337">
        <ele>257.60000610352</ele>
        <time>2013-03-12T14:25:27.000Z</time>
      </trkpt>
      <trkpt lat="43.63717" lon="5.63333">
        <ele>257.60000610352</ele>
        <time>2013-03-12T14:25:28.000Z</time>
      </trkpt>
      <trkpt lat="43.63714" lon="5.6333">
        <ele>258</ele>
        <time>2013-03-12T14:25:29.000Z</time>
      </trkpt>
      <trkpt lat="43.63681" lon="5.63284">
        <ele>260.20001220703</ele>
        <time>2013-03-12T14:25:40.000Z</time>
      </trkpt>
      <trkpt lat="43.63661" lon="5.63257">
        <ele>261</ele>
        <time>2013-03-12T14:25:46.000Z</time>
      </trkpt>
      <trkpt lat="43.63657" lon="5.63253">
        <ele>260.79998779297</ele>
        <time>2013-03-12T14:25:47.000Z</time>
      </trkpt>
      <trkpt lat="43.63653" lon="5.63249">
        <ele>260.79998779297</ele>
        <time>2013-03-12T14:25:48.000Z</time>
      </trkpt>
      <trkpt lat="43.63649" lon="5.63245">
        <ele>260.60000610352</ele>
        <time>2013-03-12T14:25:49.000Z</time>
      </trkpt>
      <trkpt lat="43.63644" lon="5.63242">
        <ele>260.39999389648</ele>
        <time>2013-03-12T14:25:50.000Z</time>
      </trkpt>
      <trkpt lat="43.63587" lon="5.63196">
        <ele>259.79998779297</ele>
        <time>2013-03-12T14:26:01.000Z</time>
      </trkpt>
      <trkpt lat="43.6353" lon="5.63146">
        <ele>257.39999389648</ele>
        <time>2013-03-12T14:26:11.000Z</time>
      </trkpt>
      <trkpt lat="43.63525" lon="5.6314">
        <ele>257.20001220703</ele>
        <time>2013-03-12T14:26:12.000Z</time>
      </trkpt>
      <trkpt lat="43.63521" lon="5.63132">
        <ele>257</ele>
        <time>2013-03-12T14:26:13.000Z</time>
      </trkpt>
      <trkpt lat="43.63517" lon="5.63124">
        <ele>257</ele>
        <time>2013-03-12T14:26:14.000Z</time>
      </trkpt>
      <trkpt lat="43.63514" lon="5.63115">
        <ele>256.79998779297</ele>
        <time>2013-03-12T14:26:15.000Z</time>
      </trkpt>
      <trkpt lat="43.63512" lon="5.63105">
        <ele>256.79998779297</ele>
        <time>2013-03-12T14:26:16.000Z</time>
      </trkpt>
      <trkpt lat="43.63511" lon="5.63095">
        <ele>257</ele>
        <time>2013-03-12T14:26:17.000Z</time>
      </trkpt>
      <trkpt lat="43.6351" lon="5.63085">
        <ele>257</ele>
        <time>2013-03-12T14:26:18.000Z</time>
      </trkpt>
      <trkpt lat="43.63513" lon="5.63002">
        <ele>254.19999694824</ele>
        <time>2013-03-12T14:26:27.000Z</time>
      </trkpt>
      <trkpt lat="43.63521" lon="5.62878">
        <ele>254.80000305176</ele>
        <time>2013-03-12T14:26:41.000Z</time>
      </trkpt>
      <trkpt lat="43.63528" lon="5.62775">
        <ele>253</ele>
        <time>2013-03-12T14:26:55.000Z</time>
      </trkpt>
      <trkpt lat="43.63532" lon="5.62686">
        <ele>252.39999389648</ele>
        <time>2013-03-12T14:27:06.000Z</time>
      </trkpt>
      <trkpt lat="43.63534" lon="5.62657">
        <ele>252.19999694824</ele>
        <time>2013-03-12T14:27:09.000Z</time>
      </trkpt>
      <trkpt lat="43.63553" lon="5.62582">
        <ele>251.19999694824</ele>
        <time>2013-03-12T14:27:17.000Z</time>
      </trkpt>
      <trkpt lat="43.63555" lon="5.62573">
        <ele>251.39999389648</ele>
        <time>2013-03-12T14:27:18.000Z</time>
      </trkpt>
      <trkpt lat="43.63558" lon="5.62564">
        <ele>251.39999389648</ele>
        <time>2013-03-12T14:27:19.000Z</time>
      </trkpt>
      <trkpt lat="43.6357" lon="5.62527">
        <ele>251</ele>
        <time>2013-03-12T14:27:23.000Z</time>
      </trkpt>
      <trkpt lat="43.63606" lon="5.62416">
        <ele>246.39999389648</ele>
        <time>2013-03-12T14:27:36.000Z</time>
      </trkpt>
      <trkpt lat="43.63635" lon="5.62328">
        <ele>248.39999389648</ele>
        <time>2013-03-12T14:27:48.000Z</time>
      </trkpt>
      <trkpt lat="43.63637" lon="5.62318">
        <ele>248.19999694824</ele>
        <time>2013-03-12T14:27:50.000Z</time>
      </trkpt>
      <trkpt lat="43.63636" lon="5.62312">
        <ele>248.19999694824</ele>
        <time>2013-03-12T14:27:51.000Z</time>
      </trkpt>
      <trkpt lat="43.63634" lon="5.62308">
        <ele>248.39999389648</ele>
        <time>2013-03-12T14:27:52.000Z</time>
      </trkpt>
      <trkpt lat="43.63631" lon="5.62304">
        <ele>248.39999389648</ele>
        <time>2013-03-12T14:27:53.000Z</time>
      </trkpt>
      <trkpt lat="43.63628" lon="5.62301">
        <ele>248.60000610352</ele>
        <time>2013-03-12T14:27:54.000Z</time>
      </trkpt>
      <trkpt lat="43.63625" lon="5.62298">
        <ele>248.60000610352</ele>
        <time>2013-03-12T14:27:55.000Z</time>
      </trkpt>
      <trkpt lat="43.63623" lon="5.62294">
        <ele>248.80000305176</ele>
        <time>2013-03-12T14:27:56.000Z</time>
      </trkpt>
      <trkpt lat="43.63605" lon="5.6227">
        <ele>249.39999389648</ele>
        <time>2013-03-12T14:28:04.000Z</time>
      </trkpt>
      <trkpt lat="43.6357" lon="5.62267">
        <ele>251</ele>
        <time>2013-03-12T14:28:15.000Z</time>
      </trkpt>
      <trkpt lat="43.63541" lon="5.62264">
        <ele>253</ele>
        <time>2013-03-12T14:28:24.000Z</time>
      </trkpt>
      <trkpt lat="43.635" lon="5.62262">
        <ele>256</ele>
        <time>2013-03-12T14:28:37.000Z</time>
      </trkpt>
      <trkpt lat="43.6348" lon="5.62243">
        <ele>257.20001220703</ele>
        <time>2013-03-12T14:28:45.000Z</time>
      </trkpt>
      <trkpt lat="43.6347" lon="5.62196">
        <ele>256.20001220703</ele>
        <time>2013-03-12T14:28:55.000Z</time>
      </trkpt>
      <trkpt lat="43.63448" lon="5.62181">
        <ele>257.39999389648</ele>
        <time>2013-03-12T14:29:01.000Z</time>
      </trkpt>
      <trkpt lat="43.63444" lon="5.62177">
        <ele>257.60000610352</ele>
        <time>2013-03-12T14:29:02.000Z</time>
      </trkpt>
      <trkpt lat="43.63441" lon="5.62173">
        <ele>257.79998779297</ele>
        <time>2013-03-12T14:29:03.000Z</time>
      </trkpt>
      <trkpt lat="43.63439" lon="5.62168">
        <ele>258</ele>
        <time>2013-03-12T14:29:04.000Z</time>
      </trkpt>
      <trkpt lat="43.63436" lon="5.62163">
        <ele>258.20001220703</ele>
        <time>2013-03-12T14:29:05.000Z</time>
      </trkpt>
      <trkpt lat="43.63434" lon="5.62159">
        <ele>258.20001220703</ele>
        <time>2013-03-12T14:29:06.000Z</time>
      </trkpt>
      <trkpt lat="43.63432" lon="5.62154">
        <ele>258</ele>
        <time>2013-03-12T14:29:07.000Z</time>
      </trkpt>
      <trkpt lat="43.63424" lon="5.62135">
        <ele>257.79998779297</ele>
        <time>2013-03-12T14:29:11.000Z</time>
      </trkpt>
      <trkpt lat="43.6342" lon="5.62131">
        <ele>257.79998779297</ele>
        <time>2013-03-12T14:29:12.000Z</time>
      </trkpt>
      <trkpt lat="43.63417" lon="5.62129">
        <ele>258</ele>
        <time>2013-03-12T14:29:13.000Z</time>
      </trkpt>
      <trkpt lat="43.63413" lon="5.62127">
        <ele>258</ele>
        <time>2013-03-12T14:29:14.000Z</time>
      </trkpt>
      <trkpt lat="43.63408" lon="5.62126">
        <ele>258</ele>
        <time>2013-03-12T14:29:15.000Z</time>
      </trkpt>
      <trkpt lat="43.6338" lon="5.62114">
        <ele>257.39999389648</ele>
        <time>2013-03-12T14:29:20.000Z</time>
      </trkpt>
      <trkpt lat="43.63375" lon="5.6211">
        <ele>257.39999389648</ele>
        <time>2013-03-12T14:29:21.000Z</time>
      </trkpt>
      <trkpt lat="43.63364" lon="5.62101">
        <ele>257.20001220703</ele>
        <time>2013-03-12T14:29:23.000Z</time>
      </trkpt>
      <trkpt lat="43.6336" lon="5.62095">
        <ele>257</ele>
        <time>2013-03-12T14:29:24.000Z</time>
      </trkpt>
      <trkpt lat="43.63356" lon="5.62089">
        <ele>256.79998779297</ele>
        <time>2013-03-12T14:29:25.000Z</time>
      </trkpt>
      <trkpt lat="43.63353" lon="5.62082">
        <ele>256.60000610352</ele>
        <time>2013-03-12T14:29:26.000Z</time>
      </trkpt>
      <trkpt lat="43.63351" lon="5.62075">
        <ele>256.39999389648</ele>
        <time>2013-03-12T14:29:27.000Z</time>
      </trkpt>
      <trkpt lat="43.63349" lon="5.62067">
        <ele>256.20001220703</ele>
        <time>2013-03-12T14:29:28.000Z</time>
      </trkpt>
      <trkpt lat="43.63348" lon="5.6206">
        <ele>256</ele>
        <time>2013-03-12T14:29:29.000Z</time>
      </trkpt>
      <trkpt lat="43.63347" lon="5.62052">
        <ele>255.80000305176</ele>
        <time>2013-03-12T14:29:30.000Z</time>
      </trkpt>
      <trkpt lat="43.6334" lon="5.62017">
        <ele>255</ele>
        <time>2013-03-12T14:29:35.000Z</time>
      </trkpt>
      <trkpt lat="43.6333" lon="5.61994">
        <ele>254.80000305176</ele>
        <time>2013-03-12T14:29:38.000Z</time>
      </trkpt>
      <trkpt lat="43.63277" lon="5.61897">
        <ele>253.60000610352</ele>
        <time>2013-03-12T14:29:51.000Z</time>
      </trkpt>
      <trkpt lat="43.63266" lon="5.61877">
        <ele>253.80000305176</ele>
        <time>2013-03-12T14:29:54.000Z</time>
      </trkpt>
      <trkpt lat="43.63251" lon="5.61845">
        <ele>253.19999694824</ele>
        <time>2013-03-12T14:29:59.000Z</time>
      </trkpt>
      <trkpt lat="43.63244" lon="5.61833">
        <ele>253</ele>
        <time>2013-03-12T14:30:01.000Z</time>
      </trkpt>
      <trkpt lat="43.63241" lon="5.61826">
        <ele>253</ele>
        <time>2013-03-12T14:30:02.000Z</time>
      </trkpt>
      <trkpt lat="43.63238" lon="5.61819">
        <ele>253</ele>
        <time>2013-03-12T14:30:03.000Z</time>
      </trkpt>
      <trkpt lat="43.63235" lon="5.61812">
        <ele>253</ele>
        <time>2013-03-12T14:30:04.000Z</time>
      </trkpt>
      <trkpt lat="43.63233" lon="5.61804">
        <ele>253</ele>
        <time>2013-03-12T14:30:05.000Z</time>
      </trkpt>
      <trkpt lat="43.63231" lon="5.61797">
        <ele>253</ele>
        <time>2013-03-12T14:30:06.000Z</time>
      </trkpt>
      <trkpt lat="43.63224" lon="5.61769">
        <ele>253</ele>
        <time>2013-03-12T14:30:10.000Z</time>
      </trkpt>
      <trkpt lat="43.63221" lon="5.61764">
        <ele>253</ele>
        <time>2013-03-12T14:30:11.000Z</time>
      </trkpt>
      <trkpt lat="43.63218" lon="5.6176">
        <ele>253.19999694824</ele>
        <time>2013-03-12T14:30:12.000Z</time>
      </trkpt>
      <trkpt lat="43.63214" lon="5.61757">
        <ele>253.19999694824</ele>
        <time>2013-03-12T14:30:13.000Z</time>
      </trkpt>
      <trkpt lat="43.6321" lon="5.61755">
        <ele>253.39999389648</ele>
        <time>2013-03-12T14:30:14.000Z</time>
      </trkpt>
      <trkpt lat="43.63197" lon="5.6175">
        <ele>253.80000305176</ele>
        <time>2013-03-12T14:30:17.000Z</time>
      </trkpt>
      <trkpt lat="43.63192" lon="5.6175">
        <ele>254</ele>
        <time>2013-03-12T14:30:18.000Z</time>
      </trkpt>
      <trkpt lat="43.63188" lon="5.61751">
        <ele>254.19999694824</ele>
        <time>2013-03-12T14:30:19.000Z</time>
      </trkpt>
      <trkpt lat="43.63184" lon="5.61752">
        <ele>254.19999694824</ele>
        <time>2013-03-12T14:30:20.000Z</time>
      </trkpt>
      <trkpt lat="43.6318" lon="5.61752">
        <ele>254.39999389648</ele>
        <time>2013-03-12T14:30:21.000Z</time>
      </trkpt>
      <trkpt lat="43.63176" lon="5.61753">
        <ele>254.60000610352</ele>
        <time>2013-03-12T14:30:22.000Z</time>
      </trkpt>
      <trkpt lat="43.63173" lon="5.61751">
        <ele>254.60000610352</ele>
        <time>2013-03-12T14:30:23.000Z</time>
      </trkpt>
      <trkpt lat="43.63169" lon="5.61749">
        <ele>254.80000305176</ele>
        <time>2013-03-12T14:30:24.000Z</time>
      </trkpt>
      <trkpt lat="43.63167" lon="5.61744">
        <ele>255</ele>
        <time>2013-03-12T14:30:25.000Z</time>
      </trkpt>
      <trkpt lat="43.63166" lon="5.61739">
        <ele>255.39999389648</ele>
        <time>2013-03-12T14:30:26.000Z</time>
      </trkpt>
      <trkpt lat="43.63167" lon="5.61734">
        <ele>255.39999389648</ele>
        <time>2013-03-12T14:30:27.000Z</time>
      </trkpt>
      <trkpt lat="43.63168" lon="5.6173">
        <ele>255.60000610352</ele>
        <time>2013-03-12T14:30:28.000Z</time>
      </trkpt>
      <trkpt lat="43.6317" lon="5.61727">
        <ele>255.60000610352</ele>
        <time>2013-03-12T14:30:29.000Z</time>
      </trkpt>
      <trkpt lat="43.63172" lon="5.61724">
        <ele>255.60000610352</ele>
        <time>2013-03-12T14:30:30.000Z</time>
      </trkpt>
      <trkpt lat="43.63173" lon="5.61721">
        <ele>255.60000610352</ele>
        <time>2013-03-12T14:30:31.000Z</time>
      </trkpt>
      <trkpt lat="43.63173" lon="5.61718">
        <ele>255.80000305176</ele>
        <time>2013-03-12T14:30:32.000Z</time>
      </trkpt>
      <trkpt lat="43.63173" lon="5.61714">
        <ele>256</ele>
        <time>2013-03-12T14:30:33.000Z</time>
      </trkpt>
      <trkpt lat="43.63171" lon="5.61711">
        <ele>256</ele>
        <time>2013-03-12T14:30:34.000Z</time>
      </trkpt>
      <trkpt lat="43.6317" lon="5.61708">
        <ele>256.20001220703</ele>
        <time>2013-03-12T14:30:35.000Z</time>
      </trkpt>
      <trkpt lat="43.63143" lon="5.61672">
        <ele>260.20001220703</ele>
        <time>2013-03-12T14:30:47.000Z</time>
      </trkpt>
      <trkpt lat="43.63114" lon="5.61629">
        <ele>262.39999389648</ele>
        <time>2013-03-12T14:30:59.000Z</time>
      </trkpt>
      <trkpt lat="43.63088" lon="5.61608">
        <ele>264.39999389648</ele>
        <time>2013-03-12T14:31:07.000Z</time>
      </trkpt>
      <trkpt lat="43.63046" lon="5.61562">
        <ele>266</ele>
        <time>2013-03-12T14:31:21.000Z</time>
      </trkpt>
      <trkpt lat="43.63041" lon="5.61552">
        <ele>266</ele>
        <time>2013-03-12T14:31:23.000Z</time>
      </trkpt>
      <trkpt lat="43.63037" lon="5.61542">
        <ele>265.79998779297</ele>
        <time>2013-03-12T14:31:25.000Z</time>
      </trkpt>
      <trkpt lat="43.63036" lon="5.61537">
        <ele>265.79998779297</ele>
        <time>2013-03-12T14:31:26.000Z</time>
      </trkpt>
      <trkpt lat="43.63029" lon="5.61494">
        <ele>264.60000610352</ele>
        <time>2013-03-12T14:31:34.000Z</time>
      </trkpt>
      <trkpt lat="43.63028" lon="5.61488">
        <ele>264.60000610352</ele>
        <time>2013-03-12T14:31:35.000Z</time>
      </trkpt>
      <trkpt lat="43.63024" lon="5.61475">
        <ele>264.60000610352</ele>
        <time>2013-03-12T14:31:37.000Z</time>
      </trkpt>
      <trkpt lat="43.63023" lon="5.61466">
        <ele>264.39999389648</ele>
        <time>2013-03-12T14:31:38.000Z</time>
      </trkpt>
      <trkpt lat="43.63022" lon="5.61458">
        <ele>264.20001220703</ele>
        <time>2013-03-12T14:31:39.000Z</time>
      </trkpt>
      <trkpt lat="43.63017" lon="5.61398">
        <ele>262.60000610352</ele>
        <time>2013-03-12T14:31:47.000Z</time>
      </trkpt>
      <trkpt lat="43.63015" lon="5.61392">
        <ele>262.39999389648</ele>
        <time>2013-03-12T14:31:48.000Z</time>
      </trkpt>
      <trkpt lat="43.63012" lon="5.61386">
        <ele>262.39999389648</ele>
        <time>2013-03-12T14:31:49.000Z</time>
      </trkpt>
      <trkpt lat="43.63008" lon="5.61379">
        <ele>262</ele>
        <time>2013-03-12T14:31:50.000Z</time>
      </trkpt>
      <trkpt lat="43.63001" lon="5.61365">
        <ele>261.20001220703</ele>
        <time>2013-03-12T14:31:52.000Z</time>
      </trkpt>
      <trkpt lat="43.62999" lon="5.61356">
        <ele>260.60000610352</ele>
        <time>2013-03-12T14:31:53.000Z</time>
      </trkpt>
      <trkpt lat="43.62994" lon="5.61328">
        <ele>259.60000610352</ele>
        <time>2013-03-12T14:31:56.000Z</time>
      </trkpt>
      <trkpt lat="43.62992" lon="5.6131">
        <ele>259.79998779297</ele>
        <time>2013-03-12T14:31:58.000Z</time>
      </trkpt>
      <trkpt lat="43.6299" lon="5.61302">
        <ele>260</ele>
        <time>2013-03-12T14:31:59.000Z</time>
      </trkpt>
      <trkpt lat="43.62987" lon="5.61295">
        <ele>260.20001220703</ele>
        <time>2013-03-12T14:32:00.000Z</time>
      </trkpt>
      <trkpt lat="43.62983" lon="5.61289">
        <ele>260.60000610352</ele>
        <time>2013-03-12T14:32:01.000Z</time>
      </trkpt>
      <trkpt lat="43.6298" lon="5.61283">
        <ele>260.60000610352</ele>
        <time>2013-03-12T14:32:02.000Z</time>
      </trkpt>
      <trkpt lat="43.62977" lon="5.61275">
        <ele>260.79998779297</ele>
        <time>2013-03-12T14:32:03.000Z</time>
      </trkpt>
      <trkpt lat="43.62976" lon="5.61268">
        <ele>260.60000610352</ele>
        <time>2013-03-12T14:32:04.000Z</time>
      </trkpt>
      <trkpt lat="43.62974" lon="5.6126">
        <ele>260.60000610352</ele>
        <time>2013-03-12T14:32:05.000Z</time>
      </trkpt>
      <trkpt lat="43.62974" lon="5.61252">
        <ele>260.60000610352</ele>
        <time>2013-03-12T14:32:06.000Z</time>
      </trkpt>
      <trkpt lat="43.62966" lon="5.61211">
        <ele>262.39999389648</ele>
        <time>2013-03-12T14:32:12.000Z</time>
      </trkpt>
      <trkpt lat="43.62963" lon="5.61205">
        <ele>262.60000610352</ele>
        <time>2013-03-12T14:32:13.000Z</time>
      </trkpt>
      <trkpt lat="43.62959" lon="5.61201">
        <ele>262.60000610352</ele>
        <time>2013-03-12T14:32:14.000Z</time>
      </trkpt>
      <trkpt lat="43.62955" lon="5.61199">
        <ele>262.60000610352</ele>
        <time>2013-03-12T14:32:15.000Z</time>
      </trkpt>
      <trkpt lat="43.6295" lon="5.61196">
        <ele>262.60000610352</ele>
        <time>2013-03-12T14:32:16.000Z</time>
      </trkpt>
      <trkpt lat="43.62929" lon="5.6118">
        <ele>261.79998779297</ele>
        <time>2013-03-12T14:32:21.000Z</time>
      </trkpt>
      <trkpt lat="43.62895" lon="5.61134">
        <ele>262.39999389648</ele>
        <time>2013-03-12T14:32:33.000Z</time>
      </trkpt>
      <trkpt lat="43.62878" lon="5.61085">
        <ele>264.39999389648</ele>
        <time>2013-03-12T14:32:44.000Z</time>
      </trkpt>
      <trkpt lat="43.62882" lon="5.61041">
        <ele>267.39999389648</ele>
        <time>2013-03-12T14:32:55.000Z</time>
      </trkpt>
      <trkpt lat="43.62884" lon="5.61016">
        <ele>269.39999389648</ele>
        <time>2013-03-12T14:33:01.000Z</time>
      </trkpt>
      <trkpt lat="43.62889" lon="5.60971">
        <ele>272.39999389648</ele>
        <time>2013-03-12T14:33:13.000Z</time>
      </trkpt>
      <trkpt lat="43.62886" lon="5.6093">
        <ele>275</ele>
        <time>2013-03-12T14:33:24.000Z</time>
      </trkpt>
      <trkpt lat="43.62879" lon="5.60914">
        <ele>275.79998779297</ele>
        <time>2013-03-12T14:33:30.000Z</time>
      </trkpt>
      <trkpt lat="43.62861" lon="5.60885">
        <ele>276.60000610352</ele>
        <time>2013-03-12T14:33:41.000Z</time>
      </trkpt>
      <trkpt lat="43.6285" lon="5.60859">
        <ele>277.39999389648</ele>
        <time>2013-03-12T14:33:50.000Z</time>
      </trkpt>
      <trkpt lat="43.62851" lon="5.6083">
        <ele>278.60000610352</ele>
        <time>2013-03-12T14:33:57.000Z</time>
      </trkpt>
      <trkpt lat="43.62855" lon="5.60798">
        <ele>277.39999389648</ele>
        <time>2013-03-12T14:34:02.000Z</time>
      </trkpt>
      <trkpt lat="43.62852" lon="5.60763">
        <ele>275.79998779297</ele>
        <time>2013-03-12T14:34:07.000Z</time>
      </trkpt>
      <trkpt lat="43.62849" lon="5.60757">
        <ele>275.60000610352</ele>
        <time>2013-03-12T14:34:08.000Z</time>
      </trkpt>
      <trkpt lat="43.62845" lon="5.60744">
        <ele>275</ele>
        <time>2013-03-12T14:34:10.000Z</time>
      </trkpt>
      <trkpt lat="43.62844" lon="5.60736">
        <ele>274.60000610352</ele>
        <time>2013-03-12T14:34:11.000Z</time>
      </trkpt>
      <trkpt lat="43.62844" lon="5.60728">
        <ele>274.20001220703</ele>
        <time>2013-03-12T14:34:12.000Z</time>
      </trkpt>
      <trkpt lat="43.62846" lon="5.60719">
        <ele>273.79998779297</ele>
        <time>2013-03-12T14:34:13.000Z</time>
      </trkpt>
      <trkpt lat="43.62845" lon="5.60711">
        <ele>273.60000610352</ele>
        <time>2013-03-12T14:34:14.000Z</time>
      </trkpt>
      <trkpt lat="43.62843" lon="5.60704">
        <ele>273.20001220703</ele>
        <time>2013-03-12T14:34:15.000Z</time>
      </trkpt>
      <trkpt lat="43.62839" lon="5.60698">
        <ele>273</ele>
        <time>2013-03-12T14:34:16.000Z</time>
      </trkpt>
      <trkpt lat="43.62829" lon="5.60688">
        <ele>272.60000610352</ele>
        <time>2013-03-12T14:34:18.000Z</time>
      </trkpt>
      <trkpt lat="43.62824" lon="5.60683">
        <ele>272.39999389648</ele>
        <time>2013-03-12T14:34:19.000Z</time>
      </trkpt>
      <trkpt lat="43.62781" lon="5.60638">
        <ele>273.20001220703</ele>
        <time>2013-03-12T14:34:29.000Z</time>
      </trkpt>
      <trkpt lat="43.6277" lon="5.6063">
        <ele>273.60000610352</ele>
        <time>2013-03-12T14:34:32.000Z</time>
      </trkpt>
      <trkpt lat="43.62733" lon="5.60584">
        <ele>275.79998779297</ele>
        <time>2013-03-12T14:34:44.000Z</time>
      </trkpt>
      <trkpt lat="43.627" lon="5.60539">
        <ele>277</ele>
        <time>2013-03-12T14:34:56.000Z</time>
      </trkpt>
      <trkpt lat="43.62677" lon="5.60514">
        <ele>277.60000610352</ele>
        <time>2013-03-12T14:35:04.000Z</time>
      </trkpt>
      <trkpt lat="43.62651" lon="5.60459">
        <ele>280.39999389648</ele>
        <time>2013-03-12T14:35:15.000Z</time>
      </trkpt>
      <trkpt lat="43.62646" lon="5.60449">
        <ele>280.79998779297</ele>
        <time>2013-03-12T14:35:17.000Z</time>
      </trkpt>
      <trkpt lat="43.62639" lon="5.60405">
        <ele>283</ele>
        <time>2013-03-12T14:35:26.000Z</time>
      </trkpt>
      <trkpt lat="43.62627" lon="5.60365">
        <ele>285.79998779297</ele>
        <time>2013-03-12T14:35:35.000Z</time>
      </trkpt>
      <trkpt lat="43.62611" lon="5.60328">
        <ele>288.39999389648</ele>
        <time>2013-03-12T14:35:44.000Z</time>
      </trkpt>
      <trkpt lat="43.62596" lon="5.60291">
        <ele>290.60000610352</ele>
        <time>2013-03-12T14:35:54.000Z</time>
      </trkpt>
      <trkpt lat="43.6257" lon="5.60281">
        <ele>291.79998779297</ele>
        <time>2013-03-12T14:36:04.000Z</time>
      </trkpt>
      <trkpt lat="43.62549" lon="5.60256">
        <ele>293.39999389648</ele>
        <time>2013-03-12T14:36:14.000Z</time>
      </trkpt>
      <trkpt lat="43.62524" lon="5.60229">
        <ele>295.20001220703</ele>
        <time>2013-03-12T14:36:26.000Z</time>
      </trkpt>
      <trkpt lat="43.62505" lon="5.60201">
        <ele>296</ele>
        <time>2013-03-12T14:36:37.000Z</time>
      </trkpt>
      <trkpt lat="43.62491" lon="5.60168">
        <ele>296.79998779297</ele>
        <time>2013-03-12T14:36:48.000Z</time>
      </trkpt>
      <trkpt lat="43.62487" lon="5.60136">
        <ele>297.60000610352</ele>
        <time>2013-03-12T14:36:57.000Z</time>
      </trkpt>
      <trkpt lat="43.62488" lon="5.60133">
        <ele>297.79998779297</ele>
        <time>2013-03-12T14:36:58.000Z</time>
      </trkpt>
      <trkpt lat="43.62488" lon="5.60129">
        <ele>297.79998779297</ele>
        <time>2013-03-12T14:36:59.000Z</time>
      </trkpt>
      <trkpt lat="43.62496" lon="5.6009">
        <ele>299.39999389648</ele>
        <time>2013-03-12T14:37:08.000Z</time>
      </trkpt>
      <trkpt lat="43.62496" lon="5.60084">
        <ele>299.60000610352</ele>
        <time>2013-03-12T14:37:09.000Z</time>
      </trkpt>
      <trkpt lat="43.62495" lon="5.60078">
        <ele>299.39999389648</ele>
        <time>2013-03-12T14:37:10.000Z</time>
      </trkpt>
      <trkpt lat="43.62492" lon="5.60064">
        <ele>299</ele>
        <time>2013-03-12T14:37:12.000Z</time>
      </trkpt>
      <trkpt lat="43.6249" lon="5.60048">
        <ele>298.39999389648</ele>
        <time>2013-03-12T14:37:14.000Z</time>
      </trkpt>
      <trkpt lat="43.62488" lon="5.6004">
        <ele>298</ele>
        <time>2013-03-12T14:37:15.000Z</time>
      </trkpt>
      <trkpt lat="43.62485" lon="5.60032">
        <ele>297.60000610352</ele>
        <time>2013-03-12T14:37:16.000Z</time>
      </trkpt>
      <trkpt lat="43.62483" lon="5.60024">
        <ele>297.20001220703</ele>
        <time>2013-03-12T14:37:17.000Z</time>
      </trkpt>
      <trkpt lat="43.62484" lon="5.60015">
        <ele>297</ele>
        <time>2013-03-12T14:37:18.000Z</time>
      </trkpt>
      <trkpt lat="43.62485" lon="5.60008">
        <ele>296.79998779297</ele>
        <time>2013-03-12T14:37:19.000Z</time>
      </trkpt>
      <trkpt lat="43.62487" lon="5.60001">
        <ele>296.79998779297</ele>
        <time>2013-03-12T14:37:20.000Z</time>
      </trkpt>
      <trkpt lat="43.6249" lon="5.59994">
        <ele>297</ele>
        <time>2013-03-12T14:37:21.000Z</time>
      </trkpt>
      <trkpt lat="43.62494" lon="5.59982">
        <ele>297.20001220703</ele>
        <time>2013-03-12T14:37:23.000Z</time>
      </trkpt>
      <trkpt lat="43.62496" lon="5.59975">
        <ele>297.20001220703</ele>
        <time>2013-03-12T14:37:24.000Z</time>
      </trkpt>
      <trkpt lat="43.62497" lon="5.59969">
        <ele>297.20001220703</ele>
        <time>2013-03-12T14:37:25.000Z</time>
      </trkpt>
      <trkpt lat="43.62497" lon="5.59962">
        <ele>297.20001220703</ele>
        <time>2013-03-12T14:37:26.000Z</time>
      </trkpt>
      <trkpt lat="43.62497" lon="5.59955">
        <ele>297</ele>
        <time>2013-03-12T14:37:27.000Z</time>
      </trkpt>
      <trkpt lat="43.62496" lon="5.59935">
        <ele>296.79998779297</ele>
        <time>2013-03-12T14:37:30.000Z</time>
      </trkpt>
      <trkpt lat="43.62497" lon="5.59928">
        <ele>296.79998779297</ele>
        <time>2013-03-12T14:37:31.000Z</time>
      </trkpt>
      <trkpt lat="43.62498" lon="5.59915">
        <ele>296.79998779297</ele>
        <time>2013-03-12T14:37:33.000Z</time>
      </trkpt>
      <trkpt lat="43.62499" lon="5.59909">
        <ele>296.60000610352</ele>
        <time>2013-03-12T14:37:34.000Z</time>
      </trkpt>
      <trkpt lat="43.625" lon="5.59903">
        <ele>296.60000610352</ele>
        <time>2013-03-12T14:37:35.000Z</time>
      </trkpt>
      <trkpt lat="43.62501" lon="5.59897">
        <ele>296.79998779297</ele>
        <time>2013-03-12T14:37:36.000Z</time>
      </trkpt>
      <trkpt lat="43.62503" lon="5.59892">
        <ele>296.79998779297</ele>
        <time>2013-03-12T14:37:37.000Z</time>
      </trkpt>
      <trkpt lat="43.62505" lon="5.59888">
        <ele>296.79998779297</ele>
        <time>2013-03-12T14:37:38.000Z</time>
      </trkpt>
      <trkpt lat="43.62514" lon="5.59861">
        <ele>297</ele>
        <time>2013-03-12T14:37:44.000Z</time>
      </trkpt>
      <trkpt lat="43.62514" lon="5.59856">
        <ele>297</ele>
        <time>2013-03-12T14:37:45.000Z</time>
      </trkpt>
      <trkpt lat="43.62509" lon="5.59836">
        <ele>296.39999389648</ele>
        <time>2013-03-12T14:37:48.000Z</time>
      </trkpt>
      <trkpt lat="43.62505" lon="5.59832">
        <ele>296.20001220703</ele>
        <time>2013-03-12T14:37:49.000Z</time>
      </trkpt>
      <trkpt lat="43.62501" lon="5.5983">
        <ele>295.79998779297</ele>
        <time>2013-03-12T14:37:50.000Z</time>
      </trkpt>
      <trkpt lat="43.62496" lon="5.59829">
        <ele>295.39999389648</ele>
        <time>2013-03-12T14:37:51.000Z</time>
      </trkpt>
      <trkpt lat="43.62491" lon="5.5983">
        <ele>295</ele>
        <time>2013-03-12T14:37:52.000Z</time>
      </trkpt>
      <trkpt lat="43.62486" lon="5.59829">
        <ele>294.39999389648</ele>
        <time>2013-03-12T14:37:53.000Z</time>
      </trkpt>
      <trkpt lat="43.62482" lon="5.59828">
        <ele>294</ele>
        <time>2013-03-12T14:37:54.000Z</time>
      </trkpt>
      <trkpt lat="43.62478" lon="5.59825">
        <ele>293.79998779297</ele>
        <time>2013-03-12T14:37:55.000Z</time>
      </trkpt>
      <trkpt lat="43.62476" lon="5.59821">
        <ele>293.39999389648</ele>
        <time>2013-03-12T14:37:56.000Z</time>
      </trkpt>
      <trkpt lat="43.62474" lon="5.59816">
        <ele>293.20001220703</ele>
        <time>2013-03-12T14:37:57.000Z</time>
      </trkpt>
      <trkpt lat="43.62468" lon="5.59809">
        <ele>292.60000610352</ele>
        <time>2013-03-12T14:37:59.000Z</time>
      </trkpt>
      <trkpt lat="43.62464" lon="5.59806">
        <ele>292.20001220703</ele>
        <time>2013-03-12T14:38:00.000Z</time>
      </trkpt>
      <trkpt lat="43.6246" lon="5.59804">
        <ele>291.79998779297</ele>
        <time>2013-03-12T14:38:01.000Z</time>
      </trkpt>
      <trkpt lat="43.62446" lon="5.59791">
        <ele>290.20001220703</ele>
        <time>2013-03-12T14:38:04.000Z</time>
      </trkpt>
      <trkpt lat="43.6239" lon="5.59727">
        <ele>290.39999389648</ele>
        <time>2013-03-12T14:38:16.000Z</time>
      </trkpt>
      <trkpt lat="43.62369" lon="5.59704">
        <ele>292.20001220703</ele>
        <time>2013-03-12T14:38:21.000Z</time>
      </trkpt>
      <trkpt lat="43.62311" lon="5.59668">
        <ele>293</ele>
        <time>2013-03-12T14:38:33.000Z</time>
      </trkpt>
      <trkpt lat="43.62297" lon="5.59657">
        <ele>294.60000610352</ele>
        <time>2013-03-12T14:38:36.000Z</time>
      </trkpt>
      <trkpt lat="43.62293" lon="5.59654">
        <ele>295.20001220703</ele>
        <time>2013-03-12T14:38:37.000Z</time>
      </trkpt>
      <trkpt lat="43.62289" lon="5.5965">
        <ele>296</ele>
        <time>2013-03-12T14:38:38.000Z</time>
      </trkpt>
      <trkpt lat="43.62286" lon="5.59646">
        <ele>296.60000610352</ele>
        <time>2013-03-12T14:38:39.000Z</time>
      </trkpt>
      <trkpt lat="43.62282" lon="5.59642">
        <ele>297</ele>
        <time>2013-03-12T14:38:40.000Z</time>
      </trkpt>
      <trkpt lat="43.62235" lon="5.59602">
        <ele>301.79998779297</ele>
        <time>2013-03-12T14:38:53.000Z</time>
      </trkpt>
      <trkpt lat="43.62197" lon="5.59582">
        <ele>302.60000610352</ele>
        <time>2013-03-12T14:39:04.000Z</time>
      </trkpt>
      <trkpt lat="43.62176" lon="5.59587">
        <ele>301</ele>
        <time>2013-03-12T14:39:09.000Z</time>
      </trkpt>
      <trkpt lat="43.6213" lon="5.59594">
        <ele>300.79998779297</ele>
        <time>2013-03-12T14:39:19.000Z</time>
      </trkpt>
      <trkpt lat="43.62113" lon="5.59597">
        <ele>300.79998779297</ele>
        <time>2013-03-12T14:39:23.000Z</time>
      </trkpt>
      <trkpt lat="43.62077" lon="5.5961">
        <ele>300.39999389648</ele>
        <time>2013-03-12T14:39:32.000Z</time>
      </trkpt>
      <trkpt lat="43.62073" lon="5.59609">
        <ele>300.60000610352</ele>
        <time>2013-03-12T14:39:33.000Z</time>
      </trkpt>
      <trkpt lat="43.62068" lon="5.59609">
        <ele>300.60000610352</ele>
        <time>2013-03-12T14:39:34.000Z</time>
      </trkpt>
      <trkpt lat="43.62017" lon="5.59604">
        <ele>301.79998779297</ele>
        <time>2013-03-12T14:39:47.000Z</time>
      </trkpt>
      <trkpt lat="43.61969" lon="5.59603">
        <ele>302.20001220703</ele>
        <time>2013-03-12T14:39:59.000Z</time>
      </trkpt>
      <trkpt lat="43.61906" lon="5.59602">
        <ele>303.79998779297</ele>
        <time>2013-03-12T14:40:16.000Z</time>
      </trkpt>
      <trkpt lat="43.61889" lon="5.59608">
        <ele>306</ele>
        <time>2013-03-12T14:40:22.000Z</time>
      </trkpt>
      <trkpt lat="43.61887" lon="5.59606">
        <ele>306.39999389648</ele>
        <time>2013-03-12T14:40:23.000Z</time>
      </trkpt>
      <trkpt lat="43.61886" lon="5.59604">
        <ele>306.79998779297</ele>
        <time>2013-03-12T14:40:24.000Z</time>
      </trkpt>
      <trkpt lat="43.61886" lon="5.59601">
        <ele>307</ele>
        <time>2013-03-12T14:40:25.000Z</time>
      </trkpt>
      <trkpt lat="43.61888" lon="5.59599">
        <ele>307</ele>
        <time>2013-03-12T14:40:26.000Z</time>
      </trkpt>
      <trkpt lat="43.6189" lon="5.59596">
        <ele>307</ele>
        <time>2013-03-12T14:40:27.000Z</time>
      </trkpt>
      <trkpt lat="43.61899" lon="5.59587">
        <ele>306.20001220703</ele>
        <time>2013-03-12T14:40:31.000Z</time>
      </trkpt>
      <trkpt lat="43.619" lon="5.59583">
        <ele>306.20001220703</ele>
        <time>2013-03-12T14:40:32.000Z</time>
      </trkpt>
      <trkpt lat="43.61901" lon="5.59579">
        <ele>306.39999389648</ele>
        <time>2013-03-12T14:40:33.000Z</time>
      </trkpt>
      <trkpt lat="43.61911" lon="5.59536">
        <ele>310.60000610352</ele>
        <time>2013-03-12T14:40:44.000Z</time>
      </trkpt>
      <trkpt lat="43.61919" lon="5.59485">
        <ele>316.39999389648</ele>
        <time>2013-03-12T14:40:58.000Z</time>
      </trkpt>
      <trkpt lat="43.61933" lon="5.59468">
        <ele>319.20001220703</ele>
        <time>2013-03-12T14:41:08.000Z</time>
      </trkpt>
      <trkpt lat="43.6195" lon="5.59463">
        <ele>320.79998779297</ele>
        <time>2013-03-12T14:41:19.000Z</time>
      </trkpt>
      <trkpt lat="43.61955" lon="5.59463">
        <ele>321.20001220703</ele>
        <time>2013-03-12T14:41:22.000Z</time>
      </trkpt>
      <trkpt lat="43.61961" lon="5.5946">
        <ele>321.79998779297</ele>
        <time>2013-03-12T14:41:26.000Z</time>
      </trkpt>
      <trkpt lat="43.61962" lon="5.59459">
        <ele>322.20001220703</ele>
        <time>2013-03-12T14:41:27.000Z</time>
      </trkpt>
      <trkpt lat="43.61963" lon="5.59457">
        <ele>322.39999389648</ele>
        <time>2013-03-12T14:41:28.000Z</time>
      </trkpt>
      <trkpt lat="43.61963" lon="5.59456">
        <ele>322.60000610352</ele>
        <time>2013-03-12T14:41:29.000Z</time>
      </trkpt>
      <trkpt lat="43.61964" lon="5.59455">
        <ele>322.79998779297</ele>
        <time>2013-03-12T14:41:30.000Z</time>
      </trkpt>
      <trkpt lat="43.61965" lon="5.59453">
        <ele>323</ele>
        <time>2013-03-12T14:41:31.000Z</time>
      </trkpt>
      <trkpt lat="43.61965" lon="5.59451">
        <ele>323.20001220703</ele>
        <time>2013-03-12T14:41:32.000Z</time>
      </trkpt>
      <trkpt lat="43.61964" lon="5.5945">
        <ele>323.20001220703</ele>
        <time>2013-03-12T14:41:33.000Z</time>
      </trkpt>
      <trkpt lat="43.61964" lon="5.59448">
        <ele>323.39999389648</ele>
        <time>2013-03-12T14:41:34.000Z</time>
      </trkpt>
      <trkpt lat="43.61963" lon="5.59446">
        <ele>323.60000610352</ele>
        <time>2013-03-12T14:41:35.000Z</time>
      </trkpt>
      <trkpt lat="43.61963" lon="5.59445">
        <ele>323.79998779297</ele>
        <time>2013-03-12T14:41:36.000Z</time>
      </trkpt>
      <trkpt lat="43.61963" lon="5.59443">
        <ele>324</ele>
        <time>2013-03-12T14:41:37.000Z</time>
      </trkpt>
      <trkpt lat="43.6196" lon="5.5942">
        <ele>326.20001220703</ele>
        <time>2013-03-12T14:41:49.000Z</time>
      </trkpt>
      <trkpt lat="43.61959" lon="5.59415">
        <ele>326.60000610352</ele>
        <time>2013-03-12T14:41:51.000Z</time>
      </trkpt>
      <trkpt lat="43.61959" lon="5.59413">
        <ele>326.60000610352</ele>
        <time>2013-03-12T14:41:52.000Z</time>
      </trkpt>
      <trkpt lat="43.61959" lon="5.59412">
        <ele>326.79998779297</ele>
        <time>2013-03-12T14:41:53.000Z</time>
      </trkpt>
      <trkpt lat="43.6196" lon="5.59407">
        <ele>327.20001220703</ele>
        <time>2013-03-12T14:41:56.000Z</time>
      </trkpt>
      <trkpt lat="43.6196" lon="5.59405">
        <ele>327.20001220703</ele>
        <time>2013-03-12T14:41:57.000Z</time>
      </trkpt>
      <trkpt lat="43.6196" lon="5.59403">
        <ele>327.39999389648</ele>
        <time>2013-03-12T14:41:58.000Z</time>
      </trkpt>
      <trkpt lat="43.6196" lon="5.59401">
        <ele>327.39999389648</ele>
        <time>2013-03-12T14:41:59.000Z</time>
      </trkpt>
      <trkpt lat="43.6196" lon="5.59399">
        <ele>327.60000610352</ele>
        <time>2013-03-12T14:42:00.000Z</time>
      </trkpt>
      <trkpt lat="43.61961" lon="5.59397">
        <ele>327.79998779297</ele>
        <time>2013-03-12T14:42:01.000Z</time>
      </trkpt>
      <trkpt lat="43.61961" lon="5.59395">
        <ele>327.79998779297</ele>
        <time>2013-03-12T14:42:02.000Z</time>
      </trkpt>
      <trkpt lat="43.61961" lon="5.59394">
        <ele>328</ele>
        <time>2013-03-12T14:42:03.000Z</time>
      </trkpt>
      <trkpt lat="43.61962" lon="5.59392">
        <ele>328.20001220703</ele>
        <time>2013-03-12T14:42:04.000Z</time>
      </trkpt>
      <trkpt lat="43.61962" lon="5.59391">
        <ele>328.20001220703</ele>
        <time>2013-03-12T14:42:05.000Z</time>
      </trkpt>
      <trkpt lat="43.61963" lon="5.59384">
        <ele>328.79998779297</ele>
        <time>2013-03-12T14:42:09.000Z</time>
      </trkpt>
      <trkpt lat="43.61963" lon="5.59382">
        <ele>328.79998779297</ele>
        <time>2013-03-12T14:42:10.000Z</time>
      </trkpt>
      <trkpt lat="43.61963" lon="5.5938">
        <ele>329</ele>
        <time>2013-03-12T14:42:11.000Z</time>
      </trkpt>
      <trkpt lat="43.61963" lon="5.59377">
        <ele>329.20001220703</ele>
        <time>2013-03-12T14:42:12.000Z</time>
      </trkpt>
      <trkpt lat="43.61964" lon="5.59375">
        <ele>329.20001220703</ele>
        <time>2013-03-12T14:42:13.000Z</time>
      </trkpt>
      <trkpt lat="43.61964" lon="5.59373">
        <ele>329.39999389648</ele>
        <time>2013-03-12T14:42:14.000Z</time>
      </trkpt>
      <trkpt lat="43.61965" lon="5.59367">
        <ele>329.79998779297</ele>
        <time>2013-03-12T14:42:17.000Z</time>
      </trkpt>
      <trkpt lat="43.61964" lon="5.59365">
        <ele>330</ele>
        <time>2013-03-12T14:42:18.000Z</time>
      </trkpt>
      <trkpt lat="43.61964" lon="5.59362">
        <ele>330</ele>
        <time>2013-03-12T14:42:19.000Z</time>
      </trkpt>
      <trkpt lat="43.61959" lon="5.59324">
        <ele>332</ele>
        <time>2013-03-12T14:42:32.000Z</time>
      </trkpt>
      <trkpt lat="43.61963" lon="5.59283">
        <ele>334.20001220703</ele>
        <time>2013-03-12T14:42:45.000Z</time>
      </trkpt>
      <trkpt lat="43.61972" lon="5.59264">
        <ele>335.60000610352</ele>
        <time>2013-03-12T14:42:55.000Z</time>
      </trkpt>
      <trkpt lat="43.61984" lon="5.59254">
        <ele>336.39999389648</ele>
        <time>2013-03-12T14:43:04.000Z</time>
      </trkpt>
      <trkpt lat="43.61994" lon="5.59236">
        <ele>336.79998779297</ele>
        <time>2013-03-12T14:43:15.000Z</time>
      </trkpt>
      <trkpt lat="43.61992" lon="5.5921">
        <ele>337</ele>
        <time>2013-03-12T14:43:25.000Z</time>
      </trkpt>
      <trkpt lat="43.61976" lon="5.59193">
        <ele>337.79998779297</ele>
        <time>2013-03-12T14:43:35.000Z</time>
      </trkpt>
      <trkpt lat="43.61955" lon="5.59171">
        <ele>339.39999389648</ele>
        <time>2013-03-12T14:43:47.000Z</time>
      </trkpt>
      <trkpt lat="43.61933" lon="5.5915">
        <ele>341.39999389648</ele>
        <time>2013-03-12T14:43:59.000Z</time>
      </trkpt>
      <trkpt lat="43.6191" lon="5.59139">
        <ele>343.60000610352</ele>
        <time>2013-03-12T14:44:09.000Z</time>
      </trkpt>
      <trkpt lat="43.61908" lon="5.59138">
        <ele>343.79998779297</ele>
        <time>2013-03-12T14:44:10.000Z</time>
      </trkpt>
      <trkpt lat="43.61906" lon="5.59137">
        <ele>344</ele>
        <time>2013-03-12T14:44:11.000Z</time>
      </trkpt>
      <trkpt lat="43.61904" lon="5.59136">
        <ele>344.20001220703</ele>
        <time>2013-03-12T14:44:12.000Z</time>
      </trkpt>
      <trkpt lat="43.61876" lon="5.59128">
        <ele>347.20001220703</ele>
        <time>2013-03-12T14:44:24.000Z</time>
      </trkpt>
      <trkpt lat="43.61861" lon="5.5911">
        <ele>349</ele>
        <time>2013-03-12T14:44:33.000Z</time>
      </trkpt>
      <trkpt lat="43.61843" lon="5.59094">
        <ele>351</ele>
        <time>2013-03-12T14:44:43.000Z</time>
      </trkpt>
      <trkpt lat="43.61818" lon="5.59082">
        <ele>352.79998779297</ele>
        <time>2013-03-12T14:44:55.000Z</time>
      </trkpt>
      <trkpt lat="43.61796" lon="5.59072">
        <ele>353.79998779297</ele>
        <time>2013-03-12T14:45:05.000Z</time>
      </trkpt>
      <trkpt lat="43.61767" lon="5.59064">
        <ele>355.39999389648</ele>
        <time>2013-03-12T14:45:14.000Z</time>
      </trkpt>
      <trkpt lat="43.61741" lon="5.59041">
        <ele>356.20001220703</ele>
        <time>2013-03-12T14:45:26.000Z</time>
      </trkpt>
      <trkpt lat="43.61724" lon="5.59013">
        <ele>356.20001220703</ele>
        <time>2013-03-12T14:45:35.000Z</time>
      </trkpt>
      <trkpt lat="43.61696" lon="5.58995">
        <ele>357.39999389648</ele>
        <time>2013-03-12T14:45:45.000Z</time>
      </trkpt>
      <trkpt lat="43.61667" lon="5.58994">
        <ele>360</ele>
        <time>2013-03-12T14:45:55.000Z</time>
      </trkpt>
      <trkpt lat="43.61629" lon="5.58996">
        <ele>362.20001220703</ele>
        <time>2013-03-12T14:46:09.000Z</time>
      </trkpt>
      <trkpt lat="43.61589" lon="5.58997">
        <ele>364.20001220703</ele>
        <time>2013-03-12T14:46:23.000Z</time>
      </trkpt>
      <trkpt lat="43.61567" lon="5.58981">
        <ele>363.39999389648</ele>
        <time>2013-03-12T14:46:34.000Z</time>
      </trkpt>
      <trkpt lat="43.61541" lon="5.58966">
        <ele>363.20001220703</ele>
        <time>2013-03-12T14:46:45.000Z</time>
      </trkpt>
      <trkpt lat="43.61514" lon="5.58952">
        <ele>364.20001220703</ele>
        <time>2013-03-12T14:46:55.000Z</time>
      </trkpt>
      <trkpt lat="43.61487" lon="5.58941">
        <ele>366.39999389648</ele>
        <time>2013-03-12T14:47:05.000Z</time>
      </trkpt>
      <trkpt lat="43.61464" lon="5.58931">
        <ele>368.39999389648</ele>
        <time>2013-03-12T14:47:16.000Z</time>
      </trkpt>
      <trkpt lat="43.61435" lon="5.58927">
        <ele>370.60000610352</ele>
        <time>2013-03-12T14:47:31.000Z</time>
      </trkpt>
      <trkpt lat="43.61408" lon="5.58918">
        <ele>373.20001220703</ele>
        <time>2013-03-12T14:47:46.000Z</time>
      </trkpt>
      <trkpt lat="43.6139" lon="5.589">
        <ele>376</ele>
        <time>2013-03-12T14:47:59.000Z</time>
      </trkpt>
      <trkpt lat="43.61383" lon="5.58887">
        <ele>377</ele>
        <time>2013-03-12T14:48:06.000Z</time>
      </trkpt>
      <trkpt lat="43.61381" lon="5.58886">
        <ele>377.20001220703</ele>
        <time>2013-03-12T14:48:07.000Z</time>
      </trkpt>
      <trkpt lat="43.61377" lon="5.58883">
        <ele>377.79998779297</ele>
        <time>2013-03-12T14:48:10.000Z</time>
      </trkpt>
      <trkpt lat="43.61376" lon="5.58881">
        <ele>378</ele>
        <time>2013-03-12T14:48:11.000Z</time>
      </trkpt>
      <trkpt lat="43.61375" lon="5.5888">
        <ele>378.20001220703</ele>
        <time>2013-03-12T14:48:12.000Z</time>
      </trkpt>
      <trkpt lat="43.61373" lon="5.58879">
        <ele>378.39999389648</ele>
        <time>2013-03-12T14:48:13.000Z</time>
      </trkpt>
      <trkpt lat="43.61372" lon="5.58878">
        <ele>378.60000610352</ele>
        <time>2013-03-12T14:48:14.000Z</time>
      </trkpt>
      <trkpt lat="43.61371" lon="5.58877">
        <ele>378.79998779297</ele>
        <time>2013-03-12T14:48:15.000Z</time>
      </trkpt>
      <trkpt lat="43.61369" lon="5.58876">
        <ele>379</ele>
        <time>2013-03-12T14:48:16.000Z</time>
      </trkpt>
      <trkpt lat="43.61368" lon="5.58875">
        <ele>379.20001220703</ele>
        <time>2013-03-12T14:48:17.000Z</time>
      </trkpt>
      <trkpt lat="43.61366" lon="5.58875">
        <ele>379.39999389648</ele>
        <time>2013-03-12T14:48:18.000Z</time>
      </trkpt>
      <trkpt lat="43.61353" lon="5.58871">
        <ele>381.20001220703</ele>
        <time>2013-03-12T14:48:27.000Z</time>
      </trkpt>
      <trkpt lat="43.61341" lon="5.58868">
        <ele>383</ele>
        <time>2013-03-12T14:48:36.000Z</time>
      </trkpt>
      <trkpt lat="43.61339" lon="5.58868">
        <ele>383</ele>
        <time>2013-03-12T14:48:37.000Z</time>
      </trkpt>
      <trkpt lat="43.61338" lon="5.58868">
        <ele>383.20001220703</ele>
        <time>2013-03-12T14:48:38.000Z</time>
      </trkpt>
      <trkpt lat="43.61337" lon="5.58867">
        <ele>383.39999389648</ele>
        <time>2013-03-12T14:48:39.000Z</time>
      </trkpt>
      <trkpt lat="43.61335" lon="5.58867">
        <ele>383.60000610352</ele>
        <time>2013-03-12T14:48:40.000Z</time>
      </trkpt>
      <trkpt lat="43.61322" lon="5.58862">
        <ele>385.20001220703</ele>
        <time>2013-03-12T14:48:49.000Z</time>
      </trkpt>
      <trkpt lat="43.61308" lon="5.58854">
        <ele>387</ele>
        <time>2013-03-12T14:48:59.000Z</time>
      </trkpt>
      <trkpt lat="43.61307" lon="5.58854">
        <ele>387.20001220703</ele>
        <time>2013-03-12T14:49:00.000Z</time>
      </trkpt>
      <trkpt lat="43.61305" lon="5.58854">
        <ele>387.39999389648</ele>
        <time>2013-03-12T14:49:01.000Z</time>
      </trkpt>
      <trkpt lat="43.61304" lon="5.58853">
        <ele>387.60000610352</ele>
        <time>2013-03-12T14:49:02.000Z</time>
      </trkpt>
      <trkpt lat="43.61303" lon="5.58852">
        <ele>387.79998779297</ele>
        <time>2013-03-12T14:49:03.000Z</time>
      </trkpt>
      <trkpt lat="43.61301" lon="5.58851">
        <ele>388</ele>
        <time>2013-03-12T14:49:04.000Z</time>
      </trkpt>
      <trkpt lat="43.61283" lon="5.58843">
        <ele>390.60000610352</ele>
        <time>2013-03-12T14:49:16.000Z</time>
      </trkpt>
      <trkpt lat="43.61268" lon="5.58834">
        <ele>393.39999389648</ele>
        <time>2013-03-12T14:49:26.000Z</time>
      </trkpt>
      <trkpt lat="43.61255" lon="5.5882">
        <ele>394.79998779297</ele>
        <time>2013-03-12T14:49:36.000Z</time>
      </trkpt>
      <trkpt lat="43.61254" lon="5.58819">
        <ele>394.79998779297</ele>
        <time>2013-03-12T14:49:37.000Z</time>
      </trkpt>
      <trkpt lat="43.61253" lon="5.58817">
        <ele>394.79998779297</ele>
        <time>2013-03-12T14:49:38.000Z</time>
      </trkpt>
      <trkpt lat="43.61252" lon="5.58815">
        <ele>395</ele>
        <time>2013-03-12T14:49:39.000Z</time>
      </trkpt>
      <trkpt lat="43.61251" lon="5.58814">
        <ele>395</ele>
        <time>2013-03-12T14:49:40.000Z</time>
      </trkpt>
      <trkpt lat="43.6125" lon="5.58812">
        <ele>395.20001220703</ele>
        <time>2013-03-12T14:49:41.000Z</time>
      </trkpt>
      <trkpt lat="43.61249" lon="5.58811">
        <ele>395.20001220703</ele>
        <time>2013-03-12T14:49:42.000Z</time>
      </trkpt>
      <trkpt lat="43.61247" lon="5.58811">
        <ele>395.20001220703</ele>
        <time>2013-03-12T14:49:43.000Z</time>
      </trkpt>
      <trkpt lat="43.61246" lon="5.5881">
        <ele>395.39999389648</ele>
        <time>2013-03-12T14:49:44.000Z</time>
      </trkpt>
      <trkpt lat="43.61229" lon="5.58801">
        <ele>396.20001220703</ele>
        <time>2013-03-12T14:49:56.000Z</time>
      </trkpt>
      <trkpt lat="43.61217" lon="5.58797">
        <ele>397</ele>
        <time>2013-03-12T14:50:04.000Z</time>
      </trkpt>
      <trkpt lat="43.61215" lon="5.58796">
        <ele>397.20001220703</ele>
        <time>2013-03-12T14:50:05.000Z</time>
      </trkpt>
      <trkpt lat="43.61214" lon="5.58796">
        <ele>397.20001220703</ele>
        <time>2013-03-12T14:50:06.000Z</time>
      </trkpt>
      <trkpt lat="43.61193" lon="5.58788">
        <ele>398.79998779297</ele>
        <time>2013-03-12T14:50:19.000Z</time>
      </trkpt>
      <trkpt lat="43.61176" lon="5.58775">
        <ele>400.39999389648</ele>
        <time>2013-03-12T14:50:31.000Z</time>
      </trkpt>
      <trkpt lat="43.61159" lon="5.58769">
        <ele>401.79998779297</ele>
        <time>2013-03-12T14:50:42.000Z</time>
      </trkpt>
      <trkpt lat="43.61142" lon="5.58757">
        <ele>403.79998779297</ele>
        <time>2013-03-12T14:50:53.000Z</time>
      </trkpt>
      <trkpt lat="43.61119" lon="5.58741">
        <ele>406.79998779297</ele>
        <time>2013-03-12T14:51:09.000Z</time>
      </trkpt>
      <trkpt lat="43.611" lon="5.58731">
        <ele>409.20001220703</ele>
        <time>2013-03-12T14:51:22.000Z</time>
      </trkpt>
      <trkpt lat="43.61086" lon="5.58723">
        <ele>411.20001220703</ele>
        <time>2013-03-12T14:51:35.000Z</time>
      </trkpt>
      <trkpt lat="43.61085" lon="5.58722">
        <ele>411.39999389648</ele>
        <time>2013-03-12T14:51:36.000Z</time>
      </trkpt>
      <trkpt lat="43.61084" lon="5.58721">
        <ele>411.60000610352</ele>
        <time>2013-03-12T14:51:37.000Z</time>
      </trkpt>
      <trkpt lat="43.61076" lon="5.58711">
        <ele>412.79998779297</ele>
        <time>2013-03-12T14:51:48.000Z</time>
      </trkpt>
      <trkpt lat="43.61069" lon="5.58698">
        <ele>414.20001220703</ele>
        <time>2013-03-12T14:52:00.000Z</time>
      </trkpt>
      <trkpt lat="43.61068" lon="5.58698">
        <ele>414.39999389648</ele>
        <time>2013-03-12T14:52:01.000Z</time>
      </trkpt>
      <trkpt lat="43.61061" lon="5.58687">
        <ele>416</ele>
        <time>2013-03-12T14:52:12.000Z</time>
      </trkpt>
      <trkpt lat="43.61057" lon="5.58684">
        <ele>416.79998779297</ele>
        <time>2013-03-12T14:52:17.000Z</time>
      </trkpt>
      <trkpt lat="43.61056" lon="5.58683">
        <ele>417</ele>
        <time>2013-03-12T14:52:18.000Z</time>
      </trkpt>
      <trkpt lat="43.61045" lon="5.58676">
        <ele>419.20001220703</ele>
        <time>2013-03-12T14:52:30.000Z</time>
      </trkpt>
      <trkpt lat="43.61038" lon="5.58668">
        <ele>421.39999389648</ele>
        <time>2013-03-12T14:52:40.000Z</time>
      </trkpt>
      <trkpt lat="43.61035" lon="5.58661">
        <ele>422.20001220703</ele>
        <time>2013-03-12T14:52:45.000Z</time>
      </trkpt>
      <trkpt lat="43.61034" lon="5.58654">
        <ele>423</ele>
        <time>2013-03-12T14:52:50.000Z</time>
      </trkpt>
      <trkpt lat="43.61032" lon="5.58645">
        <ele>424.20001220703</ele>
        <time>2013-03-12T14:52:57.000Z</time>
      </trkpt>
      <trkpt lat="43.61029" lon="5.58631">
        <ele>425.60000610352</ele>
        <time>2013-03-12T14:53:07.000Z</time>
      </trkpt>
      <trkpt lat="43.61029" lon="5.58629">
        <ele>425.79998779297</ele>
        <time>2013-03-12T14:53:08.000Z</time>
      </trkpt>
      <trkpt lat="43.61029" lon="5.58628">
        <ele>426</ele>
        <time>2013-03-12T14:53:09.000Z</time>
      </trkpt>
      <trkpt lat="43.61029" lon="5.58626">
        <ele>426</ele>
        <time>2013-03-12T14:53:10.000Z</time>
      </trkpt>
      <trkpt lat="43.61028" lon="5.58625">
        <ele>426.20001220703</ele>
        <time>2013-03-12T14:53:11.000Z</time>
      </trkpt>
      <trkpt lat="43.61028" lon="5.58624">
        <ele>426.39999389648</ele>
        <time>2013-03-12T14:53:12.000Z</time>
      </trkpt>
      <trkpt lat="43.61027" lon="5.58615">
        <ele>427.39999389648</ele>
        <time>2013-03-12T14:53:18.000Z</time>
      </trkpt>
      <trkpt lat="43.61026" lon="5.58614">
        <ele>427.60000610352</ele>
        <time>2013-03-12T14:53:19.000Z</time>
      </trkpt>
      <trkpt lat="43.61025" lon="5.58613">
        <ele>427.79998779297</ele>
        <time>2013-03-12T14:53:20.000Z</time>
      </trkpt>
      <trkpt lat="43.61024" lon="5.58612">
        <ele>428</ele>
        <time>2013-03-12T14:53:21.000Z</time>
      </trkpt>
      <trkpt lat="43.61024" lon="5.58611">
        <ele>428.20001220703</ele>
        <time>2013-03-12T14:53:22.000Z</time>
      </trkpt>
      <trkpt lat="43.61023" lon="5.5861">
        <ele>428.39999389648</ele>
        <time>2013-03-12T14:53:23.000Z</time>
      </trkpt>
      <trkpt lat="43.61023" lon="5.58609">
        <ele>428.60000610352</ele>
        <time>2013-03-12T14:53:24.000Z</time>
      </trkpt>
      <trkpt lat="43.61022" lon="5.58607">
        <ele>428.79998779297</ele>
        <time>2013-03-12T14:53:25.000Z</time>
      </trkpt>
      <trkpt lat="43.6101" lon="5.58597">
        <ele>431.79998779297</ele>
        <time>2013-03-12T14:53:38.000Z</time>
      </trkpt>
      <trkpt lat="43.61009" lon="5.58597">
        <ele>432</ele>
        <time>2013-03-12T14:53:39.000Z</time>
      </trkpt>
      <trkpt lat="43.61003" lon="5.58596">
        <ele>433</ele>
        <time>2013-03-12T14:53:44.000Z</time>
      </trkpt>
      <trkpt lat="43.60994" lon="5.58596">
        <ele>434</ele>
        <time>2013-03-12T14:53:52.000Z</time>
      </trkpt>
      <trkpt lat="43.60993" lon="5.58596">
        <ele>434.20001220703</ele>
        <time>2013-03-12T14:53:53.000Z</time>
      </trkpt>
      <trkpt lat="43.60992" lon="5.58596">
        <ele>434.20001220703</ele>
        <time>2013-03-12T14:53:54.000Z</time>
      </trkpt>
      <trkpt lat="43.60991" lon="5.58597">
        <ele>434.20001220703</ele>
        <time>2013-03-12T14:53:55.000Z</time>
      </trkpt>
      <trkpt lat="43.60989" lon="5.58597">
        <ele>434.39999389648</ele>
        <time>2013-03-12T14:53:56.000Z</time>
      </trkpt>
      <trkpt lat="43.60988" lon="5.58597">
        <ele>434.39999389648</ele>
        <time>2013-03-12T14:53:57.000Z</time>
      </trkpt>
      <trkpt lat="43.60987" lon="5.58598">
        <ele>434.39999389648</ele>
        <time>2013-03-12T14:53:58.000Z</time>
      </trkpt>
      <trkpt lat="43.60976" lon="5.58605">
        <ele>434.39999389648</ele>
        <time>2013-03-12T14:54:08.000Z</time>
      </trkpt>
      <trkpt lat="43.60975" lon="5.58605">
        <ele>434.39999389648</ele>
        <time>2013-03-12T14:54:09.000Z</time>
      </trkpt>
      <trkpt lat="43.60974" lon="5.58606">
        <ele>434.39999389648</ele>
        <time>2013-03-12T14:54:10.000Z</time>
      </trkpt>
      <trkpt lat="43.60973" lon="5.58606">
        <ele>434.60000610352</ele>
        <time>2013-03-12T14:54:11.000Z</time>
      </trkpt>
      <trkpt lat="43.60957" lon="5.58607">
        <ele>435.39999389648</ele>
        <time>2013-03-12T14:54:25.000Z</time>
      </trkpt>
      <trkpt lat="43.60953" lon="5.58606">
        <ele>435.79998779297</ele>
        <time>2013-03-12T14:54:28.000Z</time>
      </trkpt>
      <trkpt lat="43.60952" lon="5.58605">
        <ele>436</ele>
        <time>2013-03-12T14:54:29.000Z</time>
      </trkpt>
      <trkpt lat="43.60946" lon="5.58603">
        <ele>436.60000610352</ele>
        <time>2013-03-12T14:54:33.000Z</time>
      </trkpt>
      <trkpt lat="43.60945" lon="5.58602">
        <ele>436.79998779297</ele>
        <time>2013-03-12T14:54:35.000Z</time>
      </trkpt>
      <trkpt lat="43.60939" lon="5.58592">
        <ele>438.20001220703</ele>
        <time>2013-03-12T14:54:42.000Z</time>
      </trkpt>
      <trkpt lat="43.60938" lon="5.58591">
        <ele>438.39999389648</ele>
        <time>2013-03-12T14:54:43.000Z</time>
      </trkpt>
      <trkpt lat="43.60928" lon="5.58576">
        <ele>441</ele>
        <time>2013-03-12T14:54:55.000Z</time>
      </trkpt>
      <trkpt lat="43.60916" lon="5.58557">
        <ele>444.39999389648</ele>
        <time>2013-03-12T14:55:10.000Z</time>
      </trkpt>
      <trkpt lat="43.60915" lon="5.58555">
        <ele>444.60000610352</ele>
        <time>2013-03-12T14:55:12.000Z</time>
      </trkpt>
      <trkpt lat="43.60914" lon="5.58553">
        <ele>444.79998779297</ele>
        <time>2013-03-12T14:55:13.000Z</time>
      </trkpt>
      <trkpt lat="43.60913" lon="5.58552">
        <ele>444.79998779297</ele>
        <time>2013-03-12T14:55:14.000Z</time>
      </trkpt>
      <trkpt lat="43.60912" lon="5.58551">
        <ele>445</ele>
        <time>2013-03-12T14:55:15.000Z</time>
      </trkpt>
      <trkpt lat="43.60911" lon="5.5855">
        <ele>445</ele>
        <time>2013-03-12T14:55:16.000Z</time>
      </trkpt>
      <trkpt lat="43.6091" lon="5.58549">
        <ele>445.20001220703</ele>
        <time>2013-03-12T14:55:17.000Z</time>
      </trkpt>
      <trkpt lat="43.60909" lon="5.58548">
        <ele>445.20001220703</ele>
        <time>2013-03-12T14:55:18.000Z</time>
      </trkpt>
      <trkpt lat="43.60908" lon="5.58547">
        <ele>445.20001220703</ele>
        <time>2013-03-12T14:55:19.000Z</time>
      </trkpt>
      <trkpt lat="43.60907" lon="5.58546">
        <ele>445.39999389648</ele>
        <time>2013-03-12T14:55:20.000Z</time>
      </trkpt>
      <trkpt lat="43.60906" lon="5.58544">
        <ele>445.39999389648</ele>
        <time>2013-03-12T14:55:21.000Z</time>
      </trkpt>
      <trkpt lat="43.60905" lon="5.58543">
        <ele>445.60000610352</ele>
        <time>2013-03-12T14:55:22.000Z</time>
      </trkpt>
      <trkpt lat="43.60904" lon="5.58542">
        <ele>445.60000610352</ele>
        <time>2013-03-12T14:55:23.000Z</time>
      </trkpt>
      <trkpt lat="43.60903" lon="5.58541">
        <ele>445.79998779297</ele>
        <time>2013-03-12T14:55:24.000Z</time>
      </trkpt>
      <trkpt lat="43.60902" lon="5.58541">
        <ele>445.79998779297</ele>
        <time>2013-03-12T14:55:25.000Z</time>
      </trkpt>
      <trkpt lat="43.60901" lon="5.5854">
        <ele>445.79998779297</ele>
        <time>2013-03-12T14:55:26.000Z</time>
      </trkpt>
      <trkpt lat="43.60895" lon="5.58534">
        <ele>446.20001220703</ele>
        <time>2013-03-12T14:55:31.000Z</time>
      </trkpt>
      <trkpt lat="43.60893" lon="5.58533">
        <ele>446.20001220703</ele>
        <time>2013-03-12T14:55:32.000Z</time>
      </trkpt>
      <trkpt lat="43.60891" lon="5.58532">
        <ele>446.20001220703</ele>
        <time>2013-03-12T14:55:33.000Z</time>
      </trkpt>
      <trkpt lat="43.6089" lon="5.58531">
        <ele>446.20001220703</ele>
        <time>2013-03-12T14:55:34.000Z</time>
      </trkpt>
      <trkpt lat="43.60888" lon="5.58529">
        <ele>446.39999389648</ele>
        <time>2013-03-12T14:55:35.000Z</time>
      </trkpt>
      <trkpt lat="43.60886" lon="5.58528">
        <ele>446.39999389648</ele>
        <time>2013-03-12T14:55:36.000Z</time>
      </trkpt>
      <trkpt lat="43.60884" lon="5.58526">
        <ele>446.39999389648</ele>
        <time>2013-03-12T14:55:37.000Z</time>
      </trkpt>
      <trkpt lat="43.60882" lon="5.58524">
        <ele>446.60000610352</ele>
        <time>2013-03-12T14:55:38.000Z</time>
      </trkpt>
      <trkpt lat="43.60861" lon="5.58506">
        <ele>447.20001220703</ele>
        <time>2013-03-12T14:55:48.000Z</time>
      </trkpt>
      <trkpt lat="43.60839" lon="5.58486">
        <ele>448.20001220703</ele>
        <time>2013-03-12T14:55:55.000Z</time>
      </trkpt>
      <trkpt lat="43.60836" lon="5.58482">
        <ele>448.60000610352</ele>
        <time>2013-03-12T14:55:56.000Z</time>
      </trkpt>
      <trkpt lat="43.60833" lon="5.58478">
        <ele>449</ele>
        <time>2013-03-12T14:55:57.000Z</time>
      </trkpt>
      <trkpt lat="43.60831" lon="5.58474">
        <ele>449.79998779297</ele>
        <time>2013-03-12T14:55:58.000Z</time>
      </trkpt>
      <trkpt lat="43.60828" lon="5.5847">
        <ele>450.39999389648</ele>
        <time>2013-03-12T14:55:59.000Z</time>
      </trkpt>
      <trkpt lat="43.60825" lon="5.58466">
        <ele>451</ele>
        <time>2013-03-12T14:56:00.000Z</time>
      </trkpt>
      <trkpt lat="43.60823" lon="5.58462">
        <ele>451.60000610352</ele>
        <time>2013-03-12T14:56:01.000Z</time>
      </trkpt>
      <trkpt lat="43.60795" lon="5.58427">
        <ele>454.39999389648</ele>
        <time>2013-03-12T14:56:12.000Z</time>
      </trkpt>
      <trkpt lat="43.60762" lon="5.58402">
        <ele>453</ele>
        <time>2013-03-12T14:56:24.000Z</time>
      </trkpt>
      <trkpt lat="43.60746" lon="5.58376">
        <ele>452.79998779297</ele>
        <time>2013-03-12T14:56:37.000Z</time>
      </trkpt>
      <trkpt lat="43.60727" lon="5.58372">
        <ele>455.39999389648</ele>
        <time>2013-03-12T14:56:50.000Z</time>
      </trkpt>
      <trkpt lat="43.60726" lon="5.58371">
        <ele>455.60000610352</ele>
        <time>2013-03-12T14:56:51.000Z</time>
      </trkpt>
      <trkpt lat="43.60707" lon="5.58365">
        <ele>458</ele>
        <time>2013-03-12T14:57:05.000Z</time>
      </trkpt>
      <trkpt lat="43.6069" lon="5.58361">
        <ele>460.20001220703</ele>
        <time>2013-03-12T14:57:17.000Z</time>
      </trkpt>
      <trkpt lat="43.60672" lon="5.58357">
        <ele>462.60000610352</ele>
        <time>2013-03-12T14:57:30.000Z</time>
      </trkpt>
      <trkpt lat="43.60654" lon="5.58355">
        <ele>466.60000610352</ele>
        <time>2013-03-12T14:57:43.000Z</time>
      </trkpt>
      <trkpt lat="43.60652" lon="5.58355">
        <ele>467</ele>
        <time>2013-03-12T14:57:44.000Z</time>
      </trkpt>
      <trkpt lat="43.60651" lon="5.58355">
        <ele>467.20001220703</ele>
        <time>2013-03-12T14:57:45.000Z</time>
      </trkpt>
      <trkpt lat="43.6065" lon="5.58354">
        <ele>467.60000610352</ele>
        <time>2013-03-12T14:57:46.000Z</time>
      </trkpt>
      <trkpt lat="43.60649" lon="5.58353">
        <ele>467.79998779297</ele>
        <time>2013-03-12T14:57:47.000Z</time>
      </trkpt>
      <trkpt lat="43.60648" lon="5.58352">
        <ele>468.20001220703</ele>
        <time>2013-03-12T14:57:48.000Z</time>
      </trkpt>
      <trkpt lat="43.60648" lon="5.5835">
        <ele>468.20001220703</ele>
        <time>2013-03-12T14:57:49.000Z</time>
      </trkpt>
      <trkpt lat="43.60648" lon="5.58348">
        <ele>468.20001220703</ele>
        <time>2013-03-12T14:57:50.000Z</time>
      </trkpt>
      <trkpt lat="43.60648" lon="5.58346">
        <ele>468.39999389648</ele>
        <time>2013-03-12T14:57:51.000Z</time>
      </trkpt>
      <trkpt lat="43.60648" lon="5.58344">
        <ele>468.20001220703</ele>
        <time>2013-03-12T14:57:52.000Z</time>
      </trkpt>
      <trkpt lat="43.60649" lon="5.58342">
        <ele>468</ele>
        <time>2013-03-12T14:57:53.000Z</time>
      </trkpt>
      <trkpt lat="43.6065" lon="5.5834">
        <ele>468</ele>
        <time>2013-03-12T14:57:54.000Z</time>
      </trkpt>
      <trkpt lat="43.6065" lon="5.58339">
        <ele>467.79998779297</ele>
        <time>2013-03-12T14:57:55.000Z</time>
      </trkpt>
      <trkpt lat="43.60651" lon="5.58337">
        <ele>467.79998779297</ele>
        <time>2013-03-12T14:57:56.000Z</time>
      </trkpt>
      <trkpt lat="43.60655" lon="5.58311">
        <ele>467.20001220703</ele>
        <time>2013-03-12T14:58:09.000Z</time>
      </trkpt>
      <trkpt lat="43.60651" lon="5.58291">
        <ele>468.39999389648</ele>
        <time>2013-03-12T14:58:21.000Z</time>
      </trkpt>
      <trkpt lat="43.6065" lon="5.5829">
        <ele>468.79998779297</ele>
        <time>2013-03-12T14:58:22.000Z</time>
      </trkpt>
      <trkpt lat="43.60649" lon="5.5829">
        <ele>469</ele>
        <time>2013-03-12T14:58:23.000Z</time>
      </trkpt>
      <trkpt lat="43.60648" lon="5.5829">
        <ele>469.20001220703</ele>
        <time>2013-03-12T14:58:24.000Z</time>
      </trkpt>
      <trkpt lat="43.60646" lon="5.5829">
        <ele>469.60000610352</ele>
        <time>2013-03-12T14:58:25.000Z</time>
      </trkpt>
      <trkpt lat="43.60645" lon="5.58292">
        <ele>469.79998779297</ele>
        <time>2013-03-12T14:58:26.000Z</time>
      </trkpt>
      <trkpt lat="43.60644" lon="5.58293">
        <ele>470</ele>
        <time>2013-03-12T14:58:27.000Z</time>
      </trkpt>
      <trkpt lat="43.60643" lon="5.58294">
        <ele>470.20001220703</ele>
        <time>2013-03-12T14:58:28.000Z</time>
      </trkpt>
      <trkpt lat="43.60642" lon="5.58296">
        <ele>470.60000610352</ele>
        <time>2013-03-12T14:58:29.000Z</time>
      </trkpt>
      <trkpt lat="43.60641" lon="5.58297">
        <ele>470.79998779297</ele>
        <time>2013-03-12T14:58:30.000Z</time>
      </trkpt>
      <trkpt lat="43.60636" lon="5.58304">
        <ele>471.79998779297</ele>
        <time>2013-03-12T14:58:35.000Z</time>
      </trkpt>
      <trkpt lat="43.60635" lon="5.58305">
        <ele>472</ele>
        <time>2013-03-12T14:58:36.000Z</time>
      </trkpt>
      <trkpt lat="43.60634" lon="5.58307">
        <ele>472.20001220703</ele>
        <time>2013-03-12T14:58:37.000Z</time>
      </trkpt>
      <trkpt lat="43.60619" lon="5.58322">
        <ele>475.79998779297</ele>
        <time>2013-03-12T14:58:50.000Z</time>
      </trkpt>
      <trkpt lat="43.60618" lon="5.58323">
        <ele>476</ele>
        <time>2013-03-12T14:58:51.000Z</time>
      </trkpt>
      <trkpt lat="43.60617" lon="5.58325">
        <ele>476.39999389648</ele>
        <time>2013-03-12T14:58:52.000Z</time>
      </trkpt>
      <trkpt lat="43.60616" lon="5.58326">
        <ele>476.60000610352</ele>
        <time>2013-03-12T14:58:53.000Z</time>
      </trkpt>
      <trkpt lat="43.6061" lon="5.58335">
        <ele>478.20001220703</ele>
        <time>2013-03-12T14:58:59.000Z</time>
      </trkpt>
      <trkpt lat="43.60609" lon="5.58336">
        <ele>478.39999389648</ele>
        <time>2013-03-12T14:59:00.000Z</time>
      </trkpt>
      <trkpt lat="43.60607" lon="5.58336">
        <ele>478.79998779297</ele>
        <time>2013-03-12T14:59:01.000Z</time>
      </trkpt>
      <trkpt lat="43.60606" lon="5.58337">
        <ele>479.20001220703</ele>
        <time>2013-03-12T14:59:02.000Z</time>
      </trkpt>
      <trkpt lat="43.60605" lon="5.58336">
        <ele>479.39999389648</ele>
        <time>2013-03-12T14:59:03.000Z</time>
      </trkpt>
      <trkpt lat="43.60603" lon="5.58336">
        <ele>479.79998779297</ele>
        <time>2013-03-12T14:59:04.000Z</time>
      </trkpt>
      <trkpt lat="43.60602" lon="5.58335">
        <ele>480.20001220703</ele>
        <time>2013-03-12T14:59:05.000Z</time>
      </trkpt>
      <trkpt lat="43.60601" lon="5.58334">
        <ele>480.39999389648</ele>
        <time>2013-03-12T14:59:06.000Z</time>
      </trkpt>
      <trkpt lat="43.606" lon="5.58333">
        <ele>480.79998779297</ele>
        <time>2013-03-12T14:59:07.000Z</time>
      </trkpt>
      <trkpt lat="43.60599" lon="5.58331">
        <ele>481</ele>
        <time>2013-03-12T14:59:08.000Z</time>
      </trkpt>
      <trkpt lat="43.60599" lon="5.58329">
        <ele>481</ele>
        <time>2013-03-12T14:59:09.000Z</time>
      </trkpt>
      <trkpt lat="43.60599" lon="5.58326">
        <ele>481</ele>
        <time>2013-03-12T14:59:10.000Z</time>
      </trkpt>
      <trkpt lat="43.60599" lon="5.58324">
        <ele>480.79998779297</ele>
        <time>2013-03-12T14:59:11.000Z</time>
      </trkpt>
      <trkpt lat="43.606" lon="5.58322">
        <ele>480.60000610352</ele>
        <time>2013-03-12T14:59:12.000Z</time>
      </trkpt>
      <trkpt lat="43.606" lon="5.58319">
        <ele>480.39999389648</ele>
        <time>2013-03-12T14:59:13.000Z</time>
      </trkpt>
      <trkpt lat="43.60601" lon="5.58317">
        <ele>480.39999389648</ele>
        <time>2013-03-12T14:59:14.000Z</time>
      </trkpt>
      <trkpt lat="43.60604" lon="5.58294">
        <ele>479.20001220703</ele>
        <time>2013-03-12T14:59:26.000Z</time>
      </trkpt>
      <trkpt lat="43.60607" lon="5.58272">
        <ele>478.39999389648</ele>
        <time>2013-03-12T14:59:37.000Z</time>
      </trkpt>
      <trkpt lat="43.60607" lon="5.58268">
        <ele>478.20001220703</ele>
        <time>2013-03-12T14:59:39.000Z</time>
      </trkpt>
      <trkpt lat="43.60607" lon="5.58266">
        <ele>478.20001220703</ele>
        <time>2013-03-12T14:59:40.000Z</time>
      </trkpt>
      <trkpt lat="43.60607" lon="5.58264">
        <ele>478.20001220703</ele>
        <time>2013-03-12T14:59:41.000Z</time>
      </trkpt>
      <trkpt lat="43.60608" lon="5.58235">
        <ele>476.60000610352</ele>
        <time>2013-03-12T14:59:55.000Z</time>
      </trkpt>
      <trkpt lat="43.60607" lon="5.58223">
        <ele>475.79998779297</ele>
        <time>2013-03-12T15:00:01.000Z</time>
      </trkpt>
      <trkpt lat="43.60607" lon="5.58221">
        <ele>475.79998779297</ele>
        <time>2013-03-12T15:00:02.000Z</time>
      </trkpt>
      <trkpt lat="43.60606" lon="5.5822">
        <ele>475.60000610352</ele>
        <time>2013-03-12T15:00:03.000Z</time>
      </trkpt>
      <trkpt lat="43.60606" lon="5.58218">
        <ele>475.60000610352</ele>
        <time>2013-03-12T15:00:04.000Z</time>
      </trkpt>
      <trkpt lat="43.60605" lon="5.58216">
        <ele>475.60000610352</ele>
        <time>2013-03-12T15:00:05.000Z</time>
      </trkpt>
      <trkpt lat="43.60604" lon="5.58215">
        <ele>475.60000610352</ele>
        <time>2013-03-12T15:00:06.000Z</time>
      </trkpt>
      <trkpt lat="43.60604" lon="5.58213">
        <ele>475.60000610352</ele>
        <time>2013-03-12T15:00:07.000Z</time>
      </trkpt>
      <trkpt lat="43.60603" lon="5.58212">
        <ele>475.60000610352</ele>
        <time>2013-03-12T15:00:08.000Z</time>
      </trkpt>
      <trkpt lat="43.60601" lon="5.58211">
        <ele>475.60000610352</ele>
        <time>2013-03-12T15:00:09.000Z</time>
      </trkpt>
      <trkpt lat="43.60588" lon="5.58212">
        <ele>477.60000610352</ele>
        <time>2013-03-12T15:00:18.000Z</time>
      </trkpt>
      <trkpt lat="43.60587" lon="5.58214">
        <ele>478</ele>
        <time>2013-03-12T15:00:19.000Z</time>
      </trkpt>
      <trkpt lat="43.60586" lon="5.58216">
        <ele>478.39999389648</ele>
        <time>2013-03-12T15:00:20.000Z</time>
      </trkpt>
      <trkpt lat="43.60572" lon="5.58239">
        <ele>480.79998779297</ele>
        <time>2013-03-12T15:00:33.000Z</time>
      </trkpt>
      <trkpt lat="43.60552" lon="5.58268">
        <ele>482.20001220703</ele>
        <time>2013-03-12T15:00:46.000Z</time>
      </trkpt>
      <trkpt lat="43.60535" lon="5.58315">
        <ele>485.60000610352</ele>
        <time>2013-03-12T15:01:00.000Z</time>
      </trkpt>
      <trkpt lat="43.60522" lon="5.58342">
        <ele>488.60000610352</ele>
        <time>2013-03-12T15:01:11.000Z</time>
      </trkpt>
      <trkpt lat="43.60518" lon="5.58374">
        <ele>492</ele>
        <time>2013-03-12T15:01:23.000Z</time>
      </trkpt>
      <trkpt lat="43.60514" lon="5.58416">
        <ele>496.79998779297</ele>
        <time>2013-03-12T15:01:38.000Z</time>
      </trkpt>
      <trkpt lat="43.60506" lon="5.58449">
        <ele>498.20001220703</ele>
        <time>2013-03-12T15:01:51.000Z</time>
      </trkpt>
      <trkpt lat="43.60495" lon="5.58478">
        <ele>499.60000610352</ele>
        <time>2013-03-12T15:02:04.000Z</time>
      </trkpt>
      <trkpt lat="43.60493" lon="5.5848">
        <ele>499.79998779297</ele>
        <time>2013-03-12T15:02:05.000Z</time>
      </trkpt>
      <trkpt lat="43.60492" lon="5.58482">
        <ele>499.79998779297</ele>
        <time>2013-03-12T15:02:06.000Z</time>
      </trkpt>
      <trkpt lat="43.60491" lon="5.58484">
        <ele>500</ele>
        <time>2013-03-12T15:02:07.000Z</time>
      </trkpt>
      <trkpt lat="43.6049" lon="5.58486">
        <ele>500</ele>
        <time>2013-03-12T15:02:08.000Z</time>
      </trkpt>
      <trkpt lat="43.60475" lon="5.58501">
        <ele>501</ele>
        <time>2013-03-12T15:02:18.000Z</time>
      </trkpt>
      <trkpt lat="43.60457" lon="5.58519">
        <ele>501.60000610352</ele>
        <time>2013-03-12T15:02:30.000Z</time>
      </trkpt>
      <trkpt lat="43.60436" lon="5.58527">
        <ele>502.79998779297</ele>
        <time>2013-03-12T15:02:42.000Z</time>
      </trkpt>
      <trkpt lat="43.60418" lon="5.58524">
        <ele>504.39999389648</ele>
        <time>2013-03-12T15:02:52.000Z</time>
      </trkpt>
      <trkpt lat="43.60417" lon="5.58522">
        <ele>504.60000610352</ele>
        <time>2013-03-12T15:02:53.000Z</time>
      </trkpt>
      <trkpt lat="43.60416" lon="5.5852">
        <ele>504.79998779297</ele>
        <time>2013-03-12T15:02:54.000Z</time>
      </trkpt>
      <trkpt lat="43.60415" lon="5.58518">
        <ele>505</ele>
        <time>2013-03-12T15:02:55.000Z</time>
      </trkpt>
      <trkpt lat="43.60414" lon="5.58516">
        <ele>505</ele>
        <time>2013-03-12T15:02:56.000Z</time>
      </trkpt>
      <trkpt lat="43.60413" lon="5.58515">
        <ele>505.20001220703</ele>
        <time>2013-03-12T15:02:57.000Z</time>
      </trkpt>
      <trkpt lat="43.60412" lon="5.58513">
        <ele>505.39999389648</ele>
        <time>2013-03-12T15:02:58.000Z</time>
      </trkpt>
      <trkpt lat="43.6041" lon="5.58512">
        <ele>505.60000610352</ele>
        <time>2013-03-12T15:02:59.000Z</time>
      </trkpt>
      <trkpt lat="43.60409" lon="5.5851">
        <ele>505.79998779297</ele>
        <time>2013-03-12T15:03:00.000Z</time>
      </trkpt>
      <trkpt lat="43.60408" lon="5.58509">
        <ele>506</ele>
        <time>2013-03-12T15:03:01.000Z</time>
      </trkpt>
      <trkpt lat="43.60407" lon="5.58508">
        <ele>506</ele>
        <time>2013-03-12T15:03:02.000Z</time>
      </trkpt>
      <trkpt lat="43.60406" lon="5.58507">
        <ele>506.20001220703</ele>
        <time>2013-03-12T15:03:03.000Z</time>
      </trkpt>
      <trkpt lat="43.60405" lon="5.58506">
        <ele>506.39999389648</ele>
        <time>2013-03-12T15:03:04.000Z</time>
      </trkpt>
      <trkpt lat="43.60404" lon="5.58505">
        <ele>506.39999389648</ele>
        <time>2013-03-12T15:03:05.000Z</time>
      </trkpt>
      <trkpt lat="43.60403" lon="5.58503">
        <ele>506.60000610352</ele>
        <time>2013-03-12T15:03:06.000Z</time>
      </trkpt>
      <trkpt lat="43.60394" lon="5.58492">
        <ele>508</ele>
        <time>2013-03-12T15:03:15.000Z</time>
      </trkpt>
      <trkpt lat="43.60378" lon="5.58477">
        <ele>510.39999389648</ele>
        <time>2013-03-12T15:03:27.000Z</time>
      </trkpt>
      <trkpt lat="43.60362" lon="5.5846">
        <ele>513</ele>
        <time>2013-03-12T15:03:39.000Z</time>
      </trkpt>
      <trkpt lat="43.60346" lon="5.58451">
        <ele>515.40002441406</ele>
        <time>2013-03-12T15:03:50.000Z</time>
      </trkpt>
      <trkpt lat="43.60329" lon="5.58444">
        <ele>517.59997558594</ele>
        <time>2013-03-12T15:04:02.000Z</time>
      </trkpt>
      <trkpt lat="43.60315" lon="5.58435">
        <ele>519.20001220703</ele>
        <time>2013-03-12T15:04:13.000Z</time>
      </trkpt>
      <trkpt lat="43.60314" lon="5.58434">
        <ele>519.40002441406</ele>
        <time>2013-03-12T15:04:14.000Z</time>
      </trkpt>
      <trkpt lat="43.60312" lon="5.58433">
        <ele>519.59997558594</ele>
        <time>2013-03-12T15:04:15.000Z</time>
      </trkpt>
      <trkpt lat="43.60311" lon="5.58432">
        <ele>519.59997558594</ele>
        <time>2013-03-12T15:04:16.000Z</time>
      </trkpt>
      <trkpt lat="43.6031" lon="5.58431">
        <ele>519.79998779297</ele>
        <time>2013-03-12T15:04:17.000Z</time>
      </trkpt>
      <trkpt lat="43.60309" lon="5.5843">
        <ele>520</ele>
        <time>2013-03-12T15:04:18.000Z</time>
      </trkpt>
      <trkpt lat="43.60308" lon="5.5843">
        <ele>520</ele>
        <time>2013-03-12T15:04:19.000Z</time>
      </trkpt>
      <trkpt lat="43.60307" lon="5.58428">
        <ele>520.20001220703</ele>
        <time>2013-03-12T15:04:20.000Z</time>
      </trkpt>
      <trkpt lat="43.60305" lon="5.58427">
        <ele>520.40002441406</ele>
        <time>2013-03-12T15:04:21.000Z</time>
      </trkpt>
      <trkpt lat="43.60304" lon="5.58426">
        <ele>520.59997558594</ele>
        <time>2013-03-12T15:04:22.000Z</time>
      </trkpt>
      <trkpt lat="43.6029" lon="5.58411">
        <ele>522.20001220703</ele>
        <time>2013-03-12T15:04:34.000Z</time>
      </trkpt>
      <trkpt lat="43.60286" lon="5.58402">
        <ele>523</ele>
        <time>2013-03-12T15:04:39.000Z</time>
      </trkpt>
      <trkpt lat="43.60283" lon="5.58376">
        <ele>524.59997558594</ele>
        <time>2013-03-12T15:04:53.000Z</time>
      </trkpt>
      <trkpt lat="43.60279" lon="5.58366">
        <ele>525.20001220703</ele>
        <time>2013-03-12T15:04:59.000Z</time>
      </trkpt>
      <trkpt lat="43.60278" lon="5.58365">
        <ele>525.40002441406</ele>
        <time>2013-03-12T15:05:00.000Z</time>
      </trkpt>
      <trkpt lat="43.60277" lon="5.58363">
        <ele>525.59997558594</ele>
        <time>2013-03-12T15:05:01.000Z</time>
      </trkpt>
      <trkpt lat="43.60276" lon="5.58362">
        <ele>525.79998779297</ele>
        <time>2013-03-12T15:05:02.000Z</time>
      </trkpt>
      <trkpt lat="43.60275" lon="5.58361">
        <ele>525.79998779297</ele>
        <time>2013-03-12T15:05:03.000Z</time>
      </trkpt>
      <trkpt lat="43.60262" lon="5.58337">
        <ele>528.40002441406</ele>
        <time>2013-03-12T15:05:19.000Z</time>
      </trkpt>
      <trkpt lat="43.6026" lon="5.58333">
        <ele>529</ele>
        <time>2013-03-12T15:05:22.000Z</time>
      </trkpt>
      <trkpt lat="43.6026" lon="5.58331">
        <ele>529</ele>
        <time>2013-03-12T15:05:23.000Z</time>
      </trkpt>
      <trkpt lat="43.60259" lon="5.58329">
        <ele>529.20001220703</ele>
        <time>2013-03-12T15:05:24.000Z</time>
      </trkpt>
      <trkpt lat="43.60251" lon="5.58307">
        <ele>531</ele>
        <time>2013-03-12T15:05:37.000Z</time>
      </trkpt>
      <trkpt lat="43.60246" lon="5.58298">
        <ele>532</ele>
        <time>2013-03-12T15:05:43.000Z</time>
      </trkpt>
      <trkpt lat="43.60245" lon="5.58296">
        <ele>532</ele>
        <time>2013-03-12T15:05:44.000Z</time>
      </trkpt>
      <trkpt lat="43.60243" lon="5.58295">
        <ele>532.20001220703</ele>
        <time>2013-03-12T15:05:45.000Z</time>
      </trkpt>
      <trkpt lat="43.60235" lon="5.58284">
        <ele>533.40002441406</ele>
        <time>2013-03-12T15:05:53.000Z</time>
      </trkpt>
      <trkpt lat="43.60233" lon="5.58283">
        <ele>533.59997558594</ele>
        <time>2013-03-12T15:05:54.000Z</time>
      </trkpt>
      <trkpt lat="43.60232" lon="5.58282">
        <ele>533.79998779297</ele>
        <time>2013-03-12T15:05:55.000Z</time>
      </trkpt>
      <trkpt lat="43.60231" lon="5.58281">
        <ele>533.79998779297</ele>
        <time>2013-03-12T15:05:56.000Z</time>
      </trkpt>
      <trkpt lat="43.60229" lon="5.5828">
        <ele>534</ele>
        <time>2013-03-12T15:05:57.000Z</time>
      </trkpt>
      <trkpt lat="43.60228" lon="5.58279">
        <ele>534.20001220703</ele>
        <time>2013-03-12T15:05:58.000Z</time>
      </trkpt>
      <trkpt lat="43.60227" lon="5.58277">
        <ele>534.40002441406</ele>
        <time>2013-03-12T15:05:59.000Z</time>
      </trkpt>
      <trkpt lat="43.60208" lon="5.58258">
        <ele>537</ele>
        <time>2013-03-12T15:06:14.000Z</time>
      </trkpt>
      <trkpt lat="43.60202" lon="5.58249">
        <ele>537.79998779297</ele>
        <time>2013-03-12T15:06:20.000Z</time>
      </trkpt>
      <trkpt lat="43.60201" lon="5.58248">
        <ele>538</ele>
        <time>2013-03-12T15:06:21.000Z</time>
      </trkpt>
      <trkpt lat="43.60191" lon="5.58236">
        <ele>538.59997558594</ele>
        <time>2013-03-12T15:06:29.000Z</time>
      </trkpt>
      <trkpt lat="43.60182" lon="5.58232">
        <ele>539.40002441406</ele>
        <time>2013-03-12T15:06:35.000Z</time>
      </trkpt>
      <trkpt lat="43.6018" lon="5.58232">
        <ele>539.59997558594</ele>
        <time>2013-03-12T15:06:36.000Z</time>
      </trkpt>
      <trkpt lat="43.60162" lon="5.5823">
        <ele>541</ele>
        <time>2013-03-12T15:06:47.000Z</time>
      </trkpt>
      <trkpt lat="43.60135" lon="5.58229">
        <ele>542.59997558594</ele>
        <time>2013-03-12T15:07:02.000Z</time>
      </trkpt>
      <trkpt lat="43.60115" lon="5.58232">
        <ele>543.79998779297</ele>
        <time>2013-03-12T15:07:13.000Z</time>
      </trkpt>
      <trkpt lat="43.6009" lon="5.58247">
        <ele>545.40002441406</ele>
        <time>2013-03-12T15:07:26.000Z</time>
      </trkpt>
      <trkpt lat="43.60057" lon="5.58275">
        <ele>544.40002441406</ele>
        <time>2013-03-12T15:07:39.000Z</time>
      </trkpt>
      <trkpt lat="43.6002" lon="5.58309">
        <ele>545</ele>
        <time>2013-03-12T15:07:52.000Z</time>
      </trkpt>
      <trkpt lat="43.60005" lon="5.58351">
        <ele>546.20001220703</ele>
        <time>2013-03-12T15:08:01.000Z</time>
      </trkpt>
      <trkpt lat="43.59979" lon="5.58401">
        <ele>547.20001220703</ele>
        <time>2013-03-12T15:08:14.000Z</time>
      </trkpt>
      <trkpt lat="43.59947" lon="5.58408">
        <ele>549</ele>
        <time>2013-03-12T15:08:25.000Z</time>
      </trkpt>
      <trkpt lat="43.59915" lon="5.58418">
        <ele>551</ele>
        <time>2013-03-12T15:08:36.000Z</time>
      </trkpt>
      <trkpt lat="43.59896" lon="5.58442">
        <ele>550.59997558594</ele>
        <time>2013-03-12T15:08:45.000Z</time>
      </trkpt>
      <trkpt lat="43.59893" lon="5.58443">
        <ele>550.79998779297</ele>
        <time>2013-03-12T15:08:46.000Z</time>
      </trkpt>
      <trkpt lat="43.5989" lon="5.58444">
        <ele>550.79998779297</ele>
        <time>2013-03-12T15:08:47.000Z</time>
      </trkpt>
      <trkpt lat="43.59887" lon="5.58444">
        <ele>550.79998779297</ele>
        <time>2013-03-12T15:08:48.000Z</time>
      </trkpt>
      <trkpt lat="43.59884" lon="5.58444">
        <ele>551</ele>
        <time>2013-03-12T15:08:49.000Z</time>
      </trkpt>
      <trkpt lat="43.59854" lon="5.58433">
        <ele>552.40002441406</ele>
        <time>2013-03-12T15:08:59.000Z</time>
      </trkpt>
      <trkpt lat="43.59848" lon="5.58434">
        <ele>552.59997558594</ele>
        <time>2013-03-12T15:09:01.000Z</time>
      </trkpt>
      <trkpt lat="43.59845" lon="5.58436">
        <ele>552.59997558594</ele>
        <time>2013-03-12T15:09:02.000Z</time>
      </trkpt>
      <trkpt lat="43.59842" lon="5.58437">
        <ele>552.59997558594</ele>
        <time>2013-03-12T15:09:03.000Z</time>
      </trkpt>
      <trkpt lat="43.59839" lon="5.58438">
        <ele>552.59997558594</ele>
        <time>2013-03-12T15:09:04.000Z</time>
      </trkpt>
      <trkpt lat="43.59836" lon="5.58439">
        <ele>552.79998779297</ele>
        <time>2013-03-12T15:09:05.000Z</time>
      </trkpt>
      <trkpt lat="43.59832" lon="5.58439">
        <ele>552.79998779297</ele>
        <time>2013-03-12T15:09:06.000Z</time>
      </trkpt>
      <trkpt lat="43.59803" lon="5.58443">
        <ele>552.40002441406</ele>
        <time>2013-03-12T15:09:16.000Z</time>
      </trkpt>
      <trkpt lat="43.5978" lon="5.58443">
        <ele>552.20001220703</ele>
        <time>2013-03-12T15:09:24.000Z</time>
      </trkpt>
      <trkpt lat="43.59759" lon="5.58443">
        <ele>552</ele>
        <time>2013-03-12T15:09:31.000Z</time>
      </trkpt>
      <trkpt lat="43.59757" lon="5.58446">
        <ele>551.79998779297</ele>
        <time>2013-03-12T15:09:32.000Z</time>
      </trkpt>
      <trkpt lat="43.59719" lon="5.58471">
        <ele>552.20001220703</ele>
        <time>2013-03-12T15:09:46.000Z</time>
      </trkpt>
      <trkpt lat="43.5969" lon="5.58486">
        <ele>553.79998779297</ele>
        <time>2013-03-12T15:09:57.000Z</time>
      </trkpt>
      <trkpt lat="43.59661" lon="5.58488">
        <ele>555.40002441406</ele>
        <time>2013-03-12T15:10:07.000Z</time>
      </trkpt>
      <trkpt lat="43.59633" lon="5.58502">
        <ele>555.79998779297</ele>
        <time>2013-03-12T15:10:17.000Z</time>
      </trkpt>
      <trkpt lat="43.59603" lon="5.5853">
        <ele>556.20001220703</ele>
        <time>2013-03-12T15:10:29.000Z</time>
      </trkpt>
      <trkpt lat="43.59578" lon="5.58566">
        <ele>557.40002441406</ele>
        <time>2013-03-12T15:10:41.000Z</time>
      </trkpt>
      <trkpt lat="43.59551" lon="5.586">
        <ele>558</ele>
        <time>2013-03-12T15:10:52.000Z</time>
      </trkpt>
      <trkpt lat="43.59543" lon="5.5863">
        <ele>558</ele>
        <time>2013-03-12T15:10:59.000Z</time>
      </trkpt>
      <trkpt lat="43.59525" lon="5.58659">
        <ele>559</ele>
        <time>2013-03-12T15:11:07.000Z</time>
      </trkpt>
      <trkpt lat="43.59506" lon="5.58701">
        <ele>560.40002441406</ele>
        <time>2013-03-12T15:11:18.000Z</time>
      </trkpt>
      <trkpt lat="43.59482" lon="5.58725">
        <ele>560.79998779297</ele>
        <time>2013-03-12T15:11:29.000Z</time>
      </trkpt>
      <trkpt lat="43.59463" lon="5.58755">
        <ele>562.20001220703</ele>
        <time>2013-03-12T15:11:41.000Z</time>
      </trkpt>
      <trkpt lat="43.5945" lon="5.5878">
        <ele>564.40002441406</ele>
        <time>2013-03-12T15:11:53.000Z</time>
      </trkpt>
      <trkpt lat="43.5945" lon="5.58783">
        <ele>564.59997558594</ele>
        <time>2013-03-12T15:11:54.000Z</time>
      </trkpt>
      <trkpt lat="43.59449" lon="5.58785">
        <ele>564.79998779297</ele>
        <time>2013-03-12T15:11:55.000Z</time>
      </trkpt>
      <trkpt lat="43.59449" lon="5.58787">
        <ele>565</ele>
        <time>2013-03-12T15:11:56.000Z</time>
      </trkpt>
      <trkpt lat="43.59448" lon="5.58789">
        <ele>565.20001220703</ele>
        <time>2013-03-12T15:11:57.000Z</time>
      </trkpt>
      <trkpt lat="43.59447" lon="5.58791">
        <ele>565.40002441406</ele>
        <time>2013-03-12T15:11:58.000Z</time>
      </trkpt>
      <trkpt lat="43.59446" lon="5.58794">
        <ele>565.59997558594</ele>
        <time>2013-03-12T15:11:59.000Z</time>
      </trkpt>
      <trkpt lat="43.59446" lon="5.58796">
        <ele>565.79998779297</ele>
        <time>2013-03-12T15:12:00.000Z</time>
      </trkpt>
      <trkpt lat="43.59445" lon="5.58798">
        <ele>566</ele>
        <time>2013-03-12T15:12:01.000Z</time>
      </trkpt>
      <trkpt lat="43.59444" lon="5.58801">
        <ele>566.40002441406</ele>
        <time>2013-03-12T15:12:02.000Z</time>
      </trkpt>
      <trkpt lat="43.59443" lon="5.58803">
        <ele>566.59997558594</ele>
        <time>2013-03-12T15:12:03.000Z</time>
      </trkpt>
      <trkpt lat="43.59434" lon="5.58817">
        <ele>568.20001220703</ele>
        <time>2013-03-12T15:12:10.000Z</time>
      </trkpt>
      <trkpt lat="43.59433" lon="5.58819">
        <ele>568.40002441406</ele>
        <time>2013-03-12T15:12:11.000Z</time>
      </trkpt>
      <trkpt lat="43.59431" lon="5.5882">
        <ele>568.79998779297</ele>
        <time>2013-03-12T15:12:12.000Z</time>
      </trkpt>
      <trkpt lat="43.59429" lon="5.58822">
        <ele>569</ele>
        <time>2013-03-12T15:12:13.000Z</time>
      </trkpt>
      <trkpt lat="43.59428" lon="5.58824">
        <ele>569.20001220703</ele>
        <time>2013-03-12T15:12:14.000Z</time>
      </trkpt>
      <trkpt lat="43.59426" lon="5.58825">
        <ele>569.59997558594</ele>
        <time>2013-03-12T15:12:15.000Z</time>
      </trkpt>
      <trkpt lat="43.59409" lon="5.58847">
        <ele>570.79998779297</ele>
        <time>2013-03-12T15:12:26.000Z</time>
      </trkpt>
      <trkpt lat="43.59406" lon="5.58877">
        <ele>571.79998779297</ele>
        <time>2013-03-12T15:12:38.000Z</time>
      </trkpt>
      <trkpt lat="43.59394" lon="5.58904">
        <ele>572.20001220703</ele>
        <time>2013-03-12T15:12:49.000Z</time>
      </trkpt>
      <trkpt lat="43.59375" lon="5.58933">
        <ele>572.20001220703</ele>
        <time>2013-03-12T15:13:00.000Z</time>
      </trkpt>
      <trkpt lat="43.59348" lon="5.58957">
        <ele>571.79998779297</ele>
        <time>2013-03-12T15:13:11.000Z</time>
      </trkpt>
      <trkpt lat="43.59319" lon="5.58994">
        <ele>572.20001220703</ele>
        <time>2013-03-12T15:13:23.000Z</time>
      </trkpt>
      <trkpt lat="43.59295" lon="5.59012">
        <ele>571.20001220703</ele>
        <time>2013-03-12T15:13:31.000Z</time>
      </trkpt>
      <trkpt lat="43.59275" lon="5.59012">
        <ele>570.59997558594</ele>
        <time>2013-03-12T15:13:36.000Z</time>
      </trkpt>
      <trkpt lat="43.59271" lon="5.59014">
        <ele>570.59997558594</ele>
        <time>2013-03-12T15:13:37.000Z</time>
      </trkpt>
      <trkpt lat="43.59267" lon="5.59018">
        <ele>570.40002441406</ele>
        <time>2013-03-12T15:13:38.000Z</time>
      </trkpt>
      <trkpt lat="43.59264" lon="5.59022">
        <ele>570.40002441406</ele>
        <time>2013-03-12T15:13:39.000Z</time>
      </trkpt>
      <trkpt lat="43.59262" lon="5.59027">
        <ele>570.40002441406</ele>
        <time>2013-03-12T15:13:40.000Z</time>
      </trkpt>
      <trkpt lat="43.5926" lon="5.59032">
        <ele>570.40002441406</ele>
        <time>2013-03-12T15:13:41.000Z</time>
      </trkpt>
      <trkpt lat="43.59258" lon="5.59038">
        <ele>570.40002441406</ele>
        <time>2013-03-12T15:13:42.000Z</time>
      </trkpt>
      <trkpt lat="43.59257" lon="5.59043">
        <ele>570.40002441406</ele>
        <time>2013-03-12T15:13:43.000Z</time>
      </trkpt>
      <trkpt lat="43.59256" lon="5.59049">
        <ele>570.40002441406</ele>
        <time>2013-03-12T15:13:44.000Z</time>
      </trkpt>
      <trkpt lat="43.59256" lon="5.59055">
        <ele>570.40002441406</ele>
        <time>2013-03-12T15:13:45.000Z</time>
      </trkpt>
      <trkpt lat="43.59257" lon="5.5906">
        <ele>570.59997558594</ele>
        <time>2013-03-12T15:13:46.000Z</time>
      </trkpt>
      <trkpt lat="43.59258" lon="5.59066">
        <ele>570.59997558594</ele>
        <time>2013-03-12T15:13:47.000Z</time>
      </trkpt>
      <trkpt lat="43.59257" lon="5.59072">
        <ele>570.59997558594</ele>
        <time>2013-03-12T15:13:48.000Z</time>
      </trkpt>
      <trkpt lat="43.59256" lon="5.59078">
        <ele>570.59997558594</ele>
        <time>2013-03-12T15:13:49.000Z</time>
      </trkpt>
      <trkpt lat="43.59254" lon="5.59083">
        <ele>570.79998779297</ele>
        <time>2013-03-12T15:13:50.000Z</time>
      </trkpt>
      <trkpt lat="43.5925" lon="5.59088">
        <ele>570.59997558594</ele>
        <time>2013-03-12T15:13:51.000Z</time>
      </trkpt>
      <trkpt lat="43.59247" lon="5.59092">
        <ele>570.20001220703</ele>
        <time>2013-03-12T15:13:52.000Z</time>
      </trkpt>
      <trkpt lat="43.59243" lon="5.59097">
        <ele>569.79998779297</ele>
        <time>2013-03-12T15:13:53.000Z</time>
      </trkpt>
      <trkpt lat="43.5924" lon="5.59102">
        <ele>569.59997558594</ele>
        <time>2013-03-12T15:13:54.000Z</time>
      </trkpt>
      <trkpt lat="43.59237" lon="5.59107">
        <ele>569.20001220703</ele>
        <time>2013-03-12T15:13:55.000Z</time>
      </trkpt>
      <trkpt lat="43.59226" lon="5.59128">
        <ele>568.40002441406</ele>
        <time>2013-03-12T15:13:59.000Z</time>
      </trkpt>
      <trkpt lat="43.59214" lon="5.59145">
        <ele>568</ele>
        <time>2013-03-12T15:14:03.000Z</time>
      </trkpt>
      <trkpt lat="43.59212" lon="5.59151">
        <ele>568</ele>
        <time>2013-03-12T15:14:04.000Z</time>
      </trkpt>
      <trkpt lat="43.59198" lon="5.59178">
        <ele>568.59997558594</ele>
        <time>2013-03-12T15:14:09.000Z</time>
      </trkpt>
      <trkpt lat="43.59194" lon="5.59181">
        <ele>568.79998779297</ele>
        <time>2013-03-12T15:14:10.000Z</time>
      </trkpt>
      <trkpt lat="43.5919" lon="5.59184">
        <ele>569</ele>
        <time>2013-03-12T15:14:11.000Z</time>
      </trkpt>
      <trkpt lat="43.59186" lon="5.59185">
        <ele>569.20001220703</ele>
        <time>2013-03-12T15:14:12.000Z</time>
      </trkpt>
      <trkpt lat="43.59183" lon="5.59183">
        <ele>569.40002441406</ele>
        <time>2013-03-12T15:14:13.000Z</time>
      </trkpt>
      <trkpt lat="43.59179" lon="5.59182">
        <ele>569.59997558594</ele>
        <time>2013-03-12T15:14:14.000Z</time>
      </trkpt>
      <trkpt lat="43.59175" lon="5.59181">
        <ele>569.79998779297</ele>
        <time>2013-03-12T15:14:15.000Z</time>
      </trkpt>
      <trkpt lat="43.59171" lon="5.5918">
        <ele>570</ele>
        <time>2013-03-12T15:14:16.000Z</time>
      </trkpt>
      <trkpt lat="43.59167" lon="5.59179">
        <ele>570.20001220703</ele>
        <time>2013-03-12T15:14:17.000Z</time>
      </trkpt>
      <trkpt lat="43.59162" lon="5.59178">
        <ele>570.20001220703</ele>
        <time>2013-03-12T15:14:18.000Z</time>
      </trkpt>
      <trkpt lat="43.59138" lon="5.59181">
        <ele>570</ele>
        <time>2013-03-12T15:14:23.000Z</time>
      </trkpt>
      <trkpt lat="43.59133" lon="5.59181">
        <ele>570</ele>
        <time>2013-03-12T15:14:24.000Z</time>
      </trkpt>
      <trkpt lat="43.59128" lon="5.59179">
        <ele>570</ele>
        <time>2013-03-12T15:14:25.000Z</time>
      </trkpt>
      <trkpt lat="43.59123" lon="5.59177">
        <ele>569.79998779297</ele>
        <time>2013-03-12T15:14:26.000Z</time>
      </trkpt>
      <trkpt lat="43.59119" lon="5.59175">
        <ele>569.79998779297</ele>
        <time>2013-03-12T15:14:27.000Z</time>
      </trkpt>
      <trkpt lat="43.59112" lon="5.5917">
        <ele>569.40002441406</ele>
        <time>2013-03-12T15:14:29.000Z</time>
      </trkpt>
      <trkpt lat="43.59098" lon="5.59159">
        <ele>568.79998779297</ele>
        <time>2013-03-12T15:14:33.000Z</time>
      </trkpt>
      <trkpt lat="43.59095" lon="5.59155">
        <ele>568.59997558594</ele>
        <time>2013-03-12T15:14:34.000Z</time>
      </trkpt>
      <trkpt lat="43.59092" lon="5.59151">
        <ele>568.40002441406</ele>
        <time>2013-03-12T15:14:35.000Z</time>
      </trkpt>
      <trkpt lat="43.59089" lon="5.59146">
        <ele>568.20001220703</ele>
        <time>2013-03-12T15:14:36.000Z</time>
      </trkpt>
      <trkpt lat="43.59086" lon="5.59141">
        <ele>568</ele>
        <time>2013-03-12T15:14:37.000Z</time>
      </trkpt>
      <trkpt lat="43.59074" lon="5.59117">
        <ele>567</ele>
        <time>2013-03-12T15:14:41.000Z</time>
      </trkpt>
      <trkpt lat="43.5907" lon="5.59104">
        <ele>566.40002441406</ele>
        <time>2013-03-12T15:14:43.000Z</time>
      </trkpt>
      <trkpt lat="43.59069" lon="5.59096">
        <ele>566</ele>
        <time>2013-03-12T15:14:44.000Z</time>
      </trkpt>
      <trkpt lat="43.59068" lon="5.59089">
        <ele>565.79998779297</ele>
        <time>2013-03-12T15:14:45.000Z</time>
      </trkpt>
      <trkpt lat="43.59068" lon="5.59081">
        <ele>565.40002441406</ele>
        <time>2013-03-12T15:14:46.000Z</time>
      </trkpt>
      <trkpt lat="43.59069" lon="5.59073">
        <ele>565.20001220703</ele>
        <time>2013-03-12T15:14:47.000Z</time>
      </trkpt>
      <trkpt lat="43.59066" lon="5.59014">
        <ele>562.59997558594</ele>
        <time>2013-03-12T15:14:55.000Z</time>
      </trkpt>
      <trkpt lat="43.59067" lon="5.59007">
        <ele>562.20001220703</ele>
        <time>2013-03-12T15:14:56.000Z</time>
      </trkpt>
      <trkpt lat="43.5907" lon="5.58969">
        <ele>561</ele>
        <time>2013-03-12T15:15:01.000Z</time>
      </trkpt>
      <trkpt lat="43.5907" lon="5.58962">
        <ele>560.59997558594</ele>
        <time>2013-03-12T15:15:02.000Z</time>
      </trkpt>
      <trkpt lat="43.5907" lon="5.58954">
        <ele>560.40002441406</ele>
        <time>2013-03-12T15:15:03.000Z</time>
      </trkpt>
      <trkpt lat="43.59061" lon="5.58851">
        <ele>556.79998779297</ele>
        <time>2013-03-12T15:15:16.000Z</time>
      </trkpt>
      <trkpt lat="43.59061" lon="5.58842">
        <ele>556.59997558594</ele>
        <time>2013-03-12T15:15:17.000Z</time>
      </trkpt>
      <trkpt lat="43.59056" lon="5.58816">
        <ele>554.79998779297</ele>
        <time>2013-03-12T15:15:20.000Z</time>
      </trkpt>
      <trkpt lat="43.59053" lon="5.58807">
        <ele>554.20001220703</ele>
        <time>2013-03-12T15:15:21.000Z</time>
      </trkpt>
      <trkpt lat="43.59047" lon="5.58792">
        <ele>553</ele>
        <time>2013-03-12T15:15:23.000Z</time>
      </trkpt>
      <trkpt lat="43.59039" lon="5.58776">
        <ele>551.59997558594</ele>
        <time>2013-03-12T15:15:26.000Z</time>
      </trkpt>
      <trkpt lat="43.59036" lon="5.58769">
        <ele>551.20001220703</ele>
        <time>2013-03-12T15:15:28.000Z</time>
      </trkpt>
      <trkpt lat="43.59037" lon="5.58765">
        <ele>551</ele>
        <time>2013-03-12T15:15:29.000Z</time>
      </trkpt>
      <trkpt lat="43.5904" lon="5.58763">
        <ele>551</ele>
        <time>2013-03-12T15:15:30.000Z</time>
      </trkpt>
      <trkpt lat="43.59042" lon="5.58762">
        <ele>551</ele>
        <time>2013-03-12T15:15:31.000Z</time>
      </trkpt>
      <trkpt lat="43.59044" lon="5.58761">
        <ele>551</ele>
        <time>2013-03-12T15:15:32.000Z</time>
      </trkpt>
      <trkpt lat="43.59046" lon="5.58761">
        <ele>551.20001220703</ele>
        <time>2013-03-12T15:15:39.000Z</time>
      </trkpt>
      <trkpt lat="43.59047" lon="5.58761">
        <ele>551.20001220703</ele>
        <time>2013-03-12T15:16:00.000Z</time>
      </trkpt>
      <trkpt lat="43.59047" lon="5.5876">
        <ele>551.20001220703</ele>
        <time>2013-03-12T15:16:37.000Z</time>
      </trkpt>
      <trkpt lat="43.59048" lon="5.58761">
        <ele>551.20001220703</ele>
        <time>2013-03-12T15:17:05.000Z</time>
      </trkpt>
      <trkpt lat="43.59049" lon="5.58761">
        <ele>551.40002441406</ele>
        <time>2013-03-12T15:17:14.000Z</time>
      </trkpt>
      <trkpt lat="43.59049" lon="5.58761">
        <ele>551.20001220703</ele>
        <time>2013-03-12T15:17:29.000Z</time>
      </trkpt>
      <trkpt lat="43.59047" lon="5.58761">
        <ele>551.20001220703</ele>
        <time>2013-03-12T15:17:47.000Z</time>
      </trkpt>
      <trkpt lat="43.59047" lon="5.58758">
        <ele>551</ele>
        <time>2013-03-12T15:18:09.000Z</time>
      </trkpt>
      <trkpt lat="43.59046" lon="5.58758">
        <ele>551</ele>
        <time>2013-03-12T15:18:33.000Z</time>
      </trkpt>
      <trkpt lat="43.59046" lon="5.58758">
        <ele>551</ele>
        <time>2013-03-12T15:18:45.000Z</time>
      </trkpt>
      <trkpt lat="43.59045" lon="5.58757">
        <ele>551</ele>
        <time>2013-03-12T15:19:00.000Z</time>
      </trkpt>
      <trkpt lat="43.59044" lon="5.58756">
        <ele>550.79998779297</ele>
        <time>2013-03-12T15:19:01.000Z</time>
      </trkpt>
      <trkpt lat="43.59043" lon="5.58755">
        <ele>550.79998779297</ele>
        <time>2013-03-12T15:19:02.000Z</time>
      </trkpt>
      <trkpt lat="43.59031" lon="5.58757">
        <ele>550.40002441406</ele>
        <time>2013-03-12T15:19:08.000Z</time>
      </trkpt>
      <trkpt lat="43.5903" lon="5.58759">
        <ele>550.40002441406</ele>
        <time>2013-03-12T15:19:09.000Z</time>
      </trkpt>
      <trkpt lat="43.59028" lon="5.5876">
        <ele>550.40002441406</ele>
        <time>2013-03-12T15:19:10.000Z</time>
      </trkpt>
      <trkpt lat="43.59025" lon="5.58761">
        <ele>550.40002441406</ele>
        <time>2013-03-12T15:19:12.000Z</time>
      </trkpt>
      <trkpt lat="43.59022" lon="5.5876">
        <ele>550.20001220703</ele>
        <time>2013-03-12T15:19:13.000Z</time>
      </trkpt>
      <trkpt lat="43.5902" lon="5.58758">
        <ele>550</ele>
        <time>2013-03-12T15:19:14.000Z</time>
      </trkpt>
      <trkpt lat="43.59018" lon="5.58755">
        <ele>549.79998779297</ele>
        <time>2013-03-12T15:19:15.000Z</time>
      </trkpt>
      <trkpt lat="43.59016" lon="5.58752">
        <ele>549.59997558594</ele>
        <time>2013-03-12T15:19:16.000Z</time>
      </trkpt>
      <trkpt lat="43.59013" lon="5.58749">
        <ele>549.40002441406</ele>
        <time>2013-03-12T15:19:17.000Z</time>
      </trkpt>
      <trkpt lat="43.58997" lon="5.5873">
        <ele>549.20001220703</ele>
        <time>2013-03-12T15:19:22.000Z</time>
      </trkpt>
      <trkpt lat="43.58994" lon="5.58725">
        <ele>549</ele>
        <time>2013-03-12T15:19:23.000Z</time>
      </trkpt>
      <trkpt lat="43.58991" lon="5.5872">
        <ele>549</ele>
        <time>2013-03-12T15:19:24.000Z</time>
      </trkpt>
      <trkpt lat="43.58989" lon="5.58715">
        <ele>548.79998779297</ele>
        <time>2013-03-12T15:19:25.000Z</time>
      </trkpt>
      <trkpt lat="43.58987" lon="5.5871">
        <ele>548.79998779297</ele>
        <time>2013-03-12T15:19:26.000Z</time>
      </trkpt>
      <trkpt lat="43.58984" lon="5.58706">
        <ele>548.59997558594</ele>
        <time>2013-03-12T15:19:27.000Z</time>
      </trkpt>
      <trkpt lat="43.58974" lon="5.58686">
        <ele>548</ele>
        <time>2013-03-12T15:19:31.000Z</time>
      </trkpt>
      <trkpt lat="43.58972" lon="5.58681">
        <ele>547.79998779297</ele>
        <time>2013-03-12T15:19:32.000Z</time>
      </trkpt>
      <trkpt lat="43.58959" lon="5.5866">
        <ele>546.79998779297</ele>
        <time>2013-03-12T15:19:36.000Z</time>
      </trkpt>
      <trkpt lat="43.58956" lon="5.58654">
        <ele>546.59997558594</ele>
        <time>2013-03-12T15:19:37.000Z</time>
      </trkpt>
      <trkpt lat="43.58939" lon="5.58625">
        <ele>545.79998779297</ele>
        <time>2013-03-12T15:19:42.000Z</time>
      </trkpt>
      <trkpt lat="43.58935" lon="5.5862">
        <ele>545.59997558594</ele>
        <time>2013-03-12T15:19:43.000Z</time>
      </trkpt>
      <trkpt lat="43.58932" lon="5.58614">
        <ele>545.59997558594</ele>
        <time>2013-03-12T15:19:44.000Z</time>
      </trkpt>
      <trkpt lat="43.58929" lon="5.58608">
        <ele>545.59997558594</ele>
        <time>2013-03-12T15:19:45.000Z</time>
      </trkpt>
      <trkpt lat="43.58925" lon="5.58603">
        <ele>545.59997558594</ele>
        <time>2013-03-12T15:19:46.000Z</time>
      </trkpt>
      <trkpt lat="43.58921" lon="5.58598">
        <ele>545.40002441406</ele>
        <time>2013-03-12T15:19:47.000Z</time>
      </trkpt>
      <trkpt lat="43.58918" lon="5.58593">
        <ele>545.40002441406</ele>
        <time>2013-03-12T15:19:48.000Z</time>
      </trkpt>
      <trkpt lat="43.5891" lon="5.58584">
        <ele>545</ele>
        <time>2013-03-12T15:19:50.000Z</time>
      </trkpt>
      <trkpt lat="43.58906" lon="5.5858">
        <ele>544.40002441406</ele>
        <time>2013-03-12T15:19:51.000Z</time>
      </trkpt>
      <trkpt lat="43.58902" lon="5.58575">
        <ele>544</ele>
        <time>2013-03-12T15:19:52.000Z</time>
      </trkpt>
      <trkpt lat="43.58898" lon="5.5857">
        <ele>543.59997558594</ele>
        <time>2013-03-12T15:19:53.000Z</time>
      </trkpt>
      <trkpt lat="43.58895" lon="5.58564">
        <ele>543.20001220703</ele>
        <time>2013-03-12T15:19:54.000Z</time>
      </trkpt>
      <trkpt lat="43.58885" lon="5.58547">
        <ele>542.20001220703</ele>
        <time>2013-03-12T15:19:57.000Z</time>
      </trkpt>
      <trkpt lat="43.58882" lon="5.58541">
        <ele>541.79998779297</ele>
        <time>2013-03-12T15:19:58.000Z</time>
      </trkpt>
      <trkpt lat="43.58879" lon="5.58535">
        <ele>541.59997558594</ele>
        <time>2013-03-12T15:19:59.000Z</time>
      </trkpt>
      <trkpt lat="43.58874" lon="5.58522">
        <ele>541.40002441406</ele>
        <time>2013-03-12T15:20:01.000Z</time>
      </trkpt>
      <trkpt lat="43.58857" lon="5.58502">
        <ele>540.59997558594</ele>
        <time>2013-03-12T15:20:05.000Z</time>
      </trkpt>
      <trkpt lat="43.58854" lon="5.58495">
        <ele>540.40002441406</ele>
        <time>2013-03-12T15:20:06.000Z</time>
      </trkpt>
      <trkpt lat="43.58846" lon="5.58475">
        <ele>539.79998779297</ele>
        <time>2013-03-12T15:20:09.000Z</time>
      </trkpt>
      <trkpt lat="43.58843" lon="5.58469">
        <ele>539.59997558594</ele>
        <time>2013-03-12T15:20:10.000Z</time>
      </trkpt>
      <trkpt lat="43.5884" lon="5.58463">
        <ele>539.40002441406</ele>
        <time>2013-03-12T15:20:11.000Z</time>
      </trkpt>
      <trkpt lat="43.58839" lon="5.58456">
        <ele>539.20001220703</ele>
        <time>2013-03-12T15:20:12.000Z</time>
      </trkpt>
      <trkpt lat="43.58838" lon="5.58449">
        <ele>539.20001220703</ele>
        <time>2013-03-12T15:20:13.000Z</time>
      </trkpt>
      <trkpt lat="43.58823" lon="5.58383">
        <ele>536.40002441406</ele>
        <time>2013-03-12T15:20:22.000Z</time>
      </trkpt>
      <trkpt lat="43.5881" lon="5.58345">
        <ele>534</ele>
        <time>2013-03-12T15:20:27.000Z</time>
      </trkpt>
      <trkpt lat="43.58806" lon="5.5833">
        <ele>533.20001220703</ele>
        <time>2013-03-12T15:20:29.000Z</time>
      </trkpt>
      <trkpt lat="43.58805" lon="5.58322">
        <ele>533</ele>
        <time>2013-03-12T15:20:30.000Z</time>
      </trkpt>
      <trkpt lat="43.58807" lon="5.58315">
        <ele>533</ele>
        <time>2013-03-12T15:20:31.000Z</time>
      </trkpt>
      <trkpt lat="43.58809" lon="5.58309">
        <ele>533</ele>
        <time>2013-03-12T15:20:32.000Z</time>
      </trkpt>
      <trkpt lat="43.5881" lon="5.58302">
        <ele>533</ele>
        <time>2013-03-12T15:20:33.000Z</time>
      </trkpt>
      <trkpt lat="43.5881" lon="5.58294">
        <ele>532.79998779297</ele>
        <time>2013-03-12T15:20:34.000Z</time>
      </trkpt>
      <trkpt lat="43.58811" lon="5.58286">
        <ele>532.79998779297</ele>
        <time>2013-03-12T15:20:35.000Z</time>
      </trkpt>
      <trkpt lat="43.58812" lon="5.58278">
        <ele>532.59997558594</ele>
        <time>2013-03-12T15:20:36.000Z</time>
      </trkpt>
      <trkpt lat="43.58813" lon="5.5827">
        <ele>532.40002441406</ele>
        <time>2013-03-12T15:20:37.000Z</time>
      </trkpt>
      <trkpt lat="43.58816" lon="5.58253">
        <ele>532.20001220703</ele>
        <time>2013-03-12T15:20:39.000Z</time>
      </trkpt>
      <trkpt lat="43.58817" lon="5.58245">
        <ele>531.79998779297</ele>
        <time>2013-03-12T15:20:40.000Z</time>
      </trkpt>
      <trkpt lat="43.58818" lon="5.58236">
        <ele>531.40002441406</ele>
        <time>2013-03-12T15:20:41.000Z</time>
      </trkpt>
      <trkpt lat="43.58818" lon="5.58227">
        <ele>531</ele>
        <time>2013-03-12T15:20:42.000Z</time>
      </trkpt>
      <trkpt lat="43.58819" lon="5.58219">
        <ele>530.40002441406</ele>
        <time>2013-03-12T15:20:43.000Z</time>
      </trkpt>
      <trkpt lat="43.58821" lon="5.5821">
        <ele>530</ele>
        <time>2013-03-12T15:20:44.000Z</time>
      </trkpt>
      <trkpt lat="43.58823" lon="5.58201">
        <ele>529.59997558594</ele>
        <time>2013-03-12T15:20:45.000Z</time>
      </trkpt>
      <trkpt lat="43.58825" lon="5.58193">
        <ele>529.20001220703</ele>
        <time>2013-03-12T15:20:46.000Z</time>
      </trkpt>
      <trkpt lat="43.58827" lon="5.58184">
        <ele>528.79998779297</ele>
        <time>2013-03-12T15:20:47.000Z</time>
      </trkpt>
      <trkpt lat="43.58828" lon="5.58175">
        <ele>528.20001220703</ele>
        <time>2013-03-12T15:20:48.000Z</time>
      </trkpt>
      <trkpt lat="43.58827" lon="5.58167">
        <ele>527.79998779297</ele>
        <time>2013-03-12T15:20:49.000Z</time>
      </trkpt>
      <trkpt lat="43.58826" lon="5.58158">
        <ele>527.59997558594</ele>
        <time>2013-03-12T15:20:50.000Z</time>
      </trkpt>
      <trkpt lat="43.58826" lon="5.58149">
        <ele>527.40002441406</ele>
        <time>2013-03-12T15:20:51.000Z</time>
      </trkpt>
      <trkpt lat="43.58829" lon="5.58141">
        <ele>527.20001220703</ele>
        <time>2013-03-12T15:20:52.000Z</time>
      </trkpt>
      <trkpt lat="43.58836" lon="5.58117">
        <ele>526.79998779297</ele>
        <time>2013-03-12T15:20:55.000Z</time>
      </trkpt>
      <trkpt lat="43.58837" lon="5.58109">
        <ele>526.59997558594</ele>
        <time>2013-03-12T15:20:56.000Z</time>
      </trkpt>
      <trkpt lat="43.58838" lon="5.58101">
        <ele>526.40002441406</ele>
        <time>2013-03-12T15:20:57.000Z</time>
      </trkpt>
      <trkpt lat="43.5884" lon="5.58084">
        <ele>526</ele>
        <time>2013-03-12T15:20:59.000Z</time>
      </trkpt>
      <trkpt lat="43.58843" lon="5.58076">
        <ele>525.79998779297</ele>
        <time>2013-03-12T15:21:00.000Z</time>
      </trkpt>
      <trkpt lat="43.58845" lon="5.58068">
        <ele>525.59997558594</ele>
        <time>2013-03-12T15:21:01.000Z</time>
      </trkpt>
      <trkpt lat="43.58854" lon="5.58015">
        <ele>524.59997558594</ele>
        <time>2013-03-12T15:21:07.000Z</time>
      </trkpt>
      <trkpt lat="43.58867" lon="5.57935">
        <ele>522.40002441406</ele>
        <time>2013-03-12T15:21:16.000Z</time>
      </trkpt>
      <trkpt lat="43.58869" lon="5.57926">
        <ele>522.20001220703</ele>
        <time>2013-03-12T15:21:17.000Z</time>
      </trkpt>
      <trkpt lat="43.58873" lon="5.57908">
        <ele>521.59997558594</ele>
        <time>2013-03-12T15:21:19.000Z</time>
      </trkpt>
      <trkpt lat="43.58876" lon="5.57881">
        <ele>520.59997558594</ele>
        <time>2013-03-12T15:21:22.000Z</time>
      </trkpt>
      <trkpt lat="43.58878" lon="5.57818">
        <ele>518.40002441406</ele>
        <time>2013-03-12T15:21:29.000Z</time>
      </trkpt>
      <trkpt lat="43.58876" lon="5.5781">
        <ele>517.79998779297</ele>
        <time>2013-03-12T15:21:30.000Z</time>
      </trkpt>
      <trkpt lat="43.58872" lon="5.57804">
        <ele>517.40002441406</ele>
        <time>2013-03-12T15:21:31.000Z</time>
      </trkpt>
      <trkpt lat="43.58867" lon="5.578">
        <ele>516.79998779297</ele>
        <time>2013-03-12T15:21:32.000Z</time>
      </trkpt>
      <trkpt lat="43.58861" lon="5.57796">
        <ele>516.20001220703</ele>
        <time>2013-03-12T15:21:33.000Z</time>
      </trkpt>
      <trkpt lat="43.58849" lon="5.57787">
        <ele>515</ele>
        <time>2013-03-12T15:21:35.000Z</time>
      </trkpt>
      <trkpt lat="43.58845" lon="5.5778">
        <ele>514.40002441406</ele>
        <time>2013-03-12T15:21:36.000Z</time>
      </trkpt>
      <trkpt lat="43.58841" lon="5.57773">
        <ele>513.79998779297</ele>
        <time>2013-03-12T15:21:37.000Z</time>
      </trkpt>
      <trkpt lat="43.58839" lon="5.57765">
        <ele>513.20001220703</ele>
        <time>2013-03-12T15:21:38.000Z</time>
      </trkpt>
      <trkpt lat="43.58839" lon="5.57756">
        <ele>512.59997558594</ele>
        <time>2013-03-12T15:21:39.000Z</time>
      </trkpt>
      <trkpt lat="43.5884" lon="5.57746">
        <ele>512</ele>
        <time>2013-03-12T15:21:40.000Z</time>
      </trkpt>
      <trkpt lat="43.5884" lon="5.57737">
        <ele>511.39999389648</ele>
        <time>2013-03-12T15:21:41.000Z</time>
      </trkpt>
      <trkpt lat="43.58849" lon="5.57671">
        <ele>507.60000610352</ele>
        <time>2013-03-12T15:21:48.000Z</time>
      </trkpt>
      <trkpt lat="43.58853" lon="5.57655">
        <ele>507.79998779297</ele>
        <time>2013-03-12T15:21:50.000Z</time>
      </trkpt>
      <trkpt lat="43.58852" lon="5.57648">
        <ele>508</ele>
        <time>2013-03-12T15:21:51.000Z</time>
      </trkpt>
      <trkpt lat="43.58849" lon="5.57642">
        <ele>507.60000610352</ele>
        <time>2013-03-12T15:21:52.000Z</time>
      </trkpt>
      <trkpt lat="43.58843" lon="5.57638">
        <ele>507.20001220703</ele>
        <time>2013-03-12T15:21:53.000Z</time>
      </trkpt>
      <trkpt lat="43.58836" lon="5.57637">
        <ele>506.60000610352</ele>
        <time>2013-03-12T15:21:54.000Z</time>
      </trkpt>
      <trkpt lat="43.58829" lon="5.57635">
        <ele>506.39999389648</ele>
        <time>2013-03-12T15:21:55.000Z</time>
      </trkpt>
      <trkpt lat="43.58822" lon="5.57632">
        <ele>506.60000610352</ele>
        <time>2013-03-12T15:21:56.000Z</time>
      </trkpt>
      <trkpt lat="43.58816" lon="5.57627">
        <ele>506.79998779297</ele>
        <time>2013-03-12T15:21:57.000Z</time>
      </trkpt>
      <trkpt lat="43.58811" lon="5.5762">
        <ele>506.79998779297</ele>
        <time>2013-03-12T15:21:58.000Z</time>
      </trkpt>
      <trkpt lat="43.58802" lon="5.57604">
        <ele>506.39999389648</ele>
        <time>2013-03-12T15:22:00.000Z</time>
      </trkpt>
      <trkpt lat="43.58798" lon="5.57596">
        <ele>506.20001220703</ele>
        <time>2013-03-12T15:22:01.000Z</time>
      </trkpt>
      <trkpt lat="43.58788" lon="5.5758">
        <ele>505.20001220703</ele>
        <time>2013-03-12T15:22:03.000Z</time>
      </trkpt>
      <trkpt lat="43.58775" lon="5.57556">
        <ele>504.20001220703</ele>
        <time>2013-03-12T15:22:06.000Z</time>
      </trkpt>
      <trkpt lat="43.5877" lon="5.5755">
        <ele>503.79998779297</ele>
        <time>2013-03-12T15:22:07.000Z</time>
      </trkpt>
      <trkpt lat="43.58765" lon="5.57543">
        <ele>503.20001220703</ele>
        <time>2013-03-12T15:22:08.000Z</time>
      </trkpt>
      <trkpt lat="43.58761" lon="5.57535">
        <ele>502.60000610352</ele>
        <time>2013-03-12T15:22:09.000Z</time>
      </trkpt>
      <trkpt lat="43.58758" lon="5.57527">
        <ele>502</ele>
        <time>2013-03-12T15:22:10.000Z</time>
      </trkpt>
      <trkpt lat="43.58755" lon="5.57518">
        <ele>501.39999389648</ele>
        <time>2013-03-12T15:22:11.000Z</time>
      </trkpt>
      <trkpt lat="43.58752" lon="5.57509">
        <ele>500.60000610352</ele>
        <time>2013-03-12T15:22:12.000Z</time>
      </trkpt>
      <trkpt lat="43.58749" lon="5.575">
        <ele>500</ele>
        <time>2013-03-12T15:22:13.000Z</time>
      </trkpt>
      <trkpt lat="43.58747" lon="5.57491">
        <ele>499.79998779297</ele>
        <time>2013-03-12T15:22:14.000Z</time>
      </trkpt>
      <trkpt lat="43.58746" lon="5.57481">
        <ele>499.39999389648</ele>
        <time>2013-03-12T15:22:15.000Z</time>
      </trkpt>
      <trkpt lat="43.58746" lon="5.57471">
        <ele>499</ele>
        <time>2013-03-12T15:22:16.000Z</time>
      </trkpt>
      <trkpt lat="43.58747" lon="5.57432">
        <ele>496.79998779297</ele>
        <time>2013-03-12T15:22:20.000Z</time>
      </trkpt>
      <trkpt lat="43.58752" lon="5.57402">
        <ele>495.79998779297</ele>
        <time>2013-03-12T15:22:23.000Z</time>
      </trkpt>
      <trkpt lat="43.58755" lon="5.57393">
        <ele>496</ele>
        <time>2013-03-12T15:22:24.000Z</time>
      </trkpt>
      <trkpt lat="43.58759" lon="5.57385">
        <ele>496.20001220703</ele>
        <time>2013-03-12T15:22:25.000Z</time>
      </trkpt>
      <trkpt lat="43.58773" lon="5.57363">
        <ele>497.20001220703</ele>
        <time>2013-03-12T15:22:28.000Z</time>
      </trkpt>
      <trkpt lat="43.58777" lon="5.57355">
        <ele>497.39999389648</ele>
        <time>2013-03-12T15:22:29.000Z</time>
      </trkpt>
      <trkpt lat="43.58788" lon="5.57332">
        <ele>497.39999389648</ele>
        <time>2013-03-12T15:22:32.000Z</time>
      </trkpt>
      <trkpt lat="43.5879" lon="5.57325">
        <ele>497.20001220703</ele>
        <time>2013-03-12T15:22:33.000Z</time>
      </trkpt>
      <trkpt lat="43.58789" lon="5.57318">
        <ele>496.60000610352</ele>
        <time>2013-03-12T15:22:34.000Z</time>
      </trkpt>
      <trkpt lat="43.58788" lon="5.5731">
        <ele>496</ele>
        <time>2013-03-12T15:22:35.000Z</time>
      </trkpt>
      <trkpt lat="43.58787" lon="5.57302">
        <ele>495.39999389648</ele>
        <time>2013-03-12T15:22:36.000Z</time>
      </trkpt>
      <trkpt lat="43.58784" lon="5.57295">
        <ele>494.60000610352</ele>
        <time>2013-03-12T15:22:37.000Z</time>
      </trkpt>
      <trkpt lat="43.58783" lon="5.57289">
        <ele>494.20001220703</ele>
        <time>2013-03-12T15:22:38.000Z</time>
      </trkpt>
      <trkpt lat="43.58784" lon="5.57283">
        <ele>494</ele>
        <time>2013-03-12T15:22:39.000Z</time>
      </trkpt>
      <trkpt lat="43.58786" lon="5.57277">
        <ele>493.60000610352</ele>
        <time>2013-03-12T15:22:40.000Z</time>
      </trkpt>
      <trkpt lat="43.58786" lon="5.57269">
        <ele>493.20001220703</ele>
        <time>2013-03-12T15:22:41.000Z</time>
      </trkpt>
      <trkpt lat="43.58787" lon="5.57261">
        <ele>492.79998779297</ele>
        <time>2013-03-12T15:22:42.000Z</time>
      </trkpt>
      <trkpt lat="43.58788" lon="5.57254">
        <ele>492.39999389648</ele>
        <time>2013-03-12T15:22:43.000Z</time>
      </trkpt>
      <trkpt lat="43.5879" lon="5.57246">
        <ele>492</ele>
        <time>2013-03-12T15:22:44.000Z</time>
      </trkpt>
      <trkpt lat="43.58792" lon="5.57238">
        <ele>491.79998779297</ele>
        <time>2013-03-12T15:22:45.000Z</time>
      </trkpt>
      <trkpt lat="43.58794" lon="5.57231">
        <ele>491.60000610352</ele>
        <time>2013-03-12T15:22:46.000Z</time>
      </trkpt>
      <trkpt lat="43.58796" lon="5.57223">
        <ele>491.39999389648</ele>
        <time>2013-03-12T15:22:47.000Z</time>
      </trkpt>
      <trkpt lat="43.58796" lon="5.57215">
        <ele>491</ele>
        <time>2013-03-12T15:22:48.000Z</time>
      </trkpt>
      <trkpt lat="43.58792" lon="5.572">
        <ele>489.79998779297</ele>
        <time>2013-03-12T15:22:50.000Z</time>
      </trkpt>
      <trkpt lat="43.58789" lon="5.57192">
        <ele>489</ele>
        <time>2013-03-12T15:22:51.000Z</time>
      </trkpt>
      <trkpt lat="43.58784" lon="5.57176">
        <ele>487.39999389648</ele>
        <time>2013-03-12T15:22:53.000Z</time>
      </trkpt>
      <trkpt lat="43.58782" lon="5.57168">
        <ele>486.60000610352</ele>
        <time>2013-03-12T15:22:54.000Z</time>
      </trkpt>
      <trkpt lat="43.58773" lon="5.57144">
        <ele>485.60000610352</ele>
        <time>2013-03-12T15:22:57.000Z</time>
      </trkpt>
      <trkpt lat="43.58762" lon="5.57125">
        <ele>484.39999389648</ele>
        <time>2013-03-12T15:23:00.000Z</time>
      </trkpt>
      <trkpt lat="43.58757" lon="5.57123">
        <ele>483.60000610352</ele>
        <time>2013-03-12T15:23:01.000Z</time>
      </trkpt>
      <trkpt lat="43.58752" lon="5.57122">
        <ele>482.60000610352</ele>
        <time>2013-03-12T15:23:02.000Z</time>
      </trkpt>
      <trkpt lat="43.58739" lon="5.57119">
        <ele>481.79998779297</ele>
        <time>2013-03-12T15:23:04.000Z</time>
      </trkpt>
      <trkpt lat="43.58733" lon="5.57118">
        <ele>481.20001220703</ele>
        <time>2013-03-12T15:23:05.000Z</time>
      </trkpt>
      <trkpt lat="43.58728" lon="5.57117">
        <ele>480.79998779297</ele>
        <time>2013-03-12T15:23:06.000Z</time>
      </trkpt>
      <trkpt lat="43.58723" lon="5.57116">
        <ele>480.39999389648</ele>
        <time>2013-03-12T15:23:07.000Z</time>
      </trkpt>
      <trkpt lat="43.58718" lon="5.57116">
        <ele>480</ele>
        <time>2013-03-12T15:23:08.000Z</time>
      </trkpt>
      <trkpt lat="43.58712" lon="5.57116">
        <ele>479.60000610352</ele>
        <time>2013-03-12T15:23:09.000Z</time>
      </trkpt>
      <trkpt lat="43.58707" lon="5.57116">
        <ele>479.39999389648</ele>
        <time>2013-03-12T15:23:10.000Z</time>
      </trkpt>
      <trkpt lat="43.58702" lon="5.57115">
        <ele>478.79998779297</ele>
        <time>2013-03-12T15:23:11.000Z</time>
      </trkpt>
      <trkpt lat="43.58697" lon="5.57114">
        <ele>478.39999389648</ele>
        <time>2013-03-12T15:23:12.000Z</time>
      </trkpt>
      <trkpt lat="43.58691" lon="5.57114">
        <ele>478</ele>
        <time>2013-03-12T15:23:13.000Z</time>
      </trkpt>
      <trkpt lat="43.58685" lon="5.57114">
        <ele>477.60000610352</ele>
        <time>2013-03-12T15:23:14.000Z</time>
      </trkpt>
      <trkpt lat="43.58678" lon="5.57114">
        <ele>477</ele>
        <time>2013-03-12T15:23:15.000Z</time>
      </trkpt>
      <trkpt lat="43.58672" lon="5.57114">
        <ele>476.39999389648</ele>
        <time>2013-03-12T15:23:16.000Z</time>
      </trkpt>
      <trkpt lat="43.58666" lon="5.57112">
        <ele>476</ele>
        <time>2013-03-12T15:23:17.000Z</time>
      </trkpt>
      <trkpt lat="43.58659" lon="5.5711">
        <ele>475.79998779297</ele>
        <time>2013-03-12T15:23:18.000Z</time>
      </trkpt>
      <trkpt lat="43.58648" lon="5.57104">
        <ele>475.20001220703</ele>
        <time>2013-03-12T15:23:20.000Z</time>
      </trkpt>
      <trkpt lat="43.58644" lon="5.57099">
        <ele>474.79998779297</ele>
        <time>2013-03-12T15:23:21.000Z</time>
      </trkpt>
      <trkpt lat="43.58641" lon="5.57093">
        <ele>474.20001220703</ele>
        <time>2013-03-12T15:23:22.000Z</time>
      </trkpt>
      <trkpt lat="43.58638" lon="5.57086">
        <ele>473.60000610352</ele>
        <time>2013-03-12T15:23:23.000Z</time>
      </trkpt>
      <trkpt lat="43.58635" lon="5.57079">
        <ele>473.20001220703</ele>
        <time>2013-03-12T15:23:24.000Z</time>
      </trkpt>
      <trkpt lat="43.58633" lon="5.57072">
        <ele>473.39999389648</ele>
        <time>2013-03-12T15:23:25.000Z</time>
      </trkpt>
      <trkpt lat="43.58624" lon="5.5705">
        <ele>473</ele>
        <time>2013-03-12T15:23:28.000Z</time>
      </trkpt>
      <trkpt lat="43.58619" lon="5.57043">
        <ele>472.60000610352</ele>
        <time>2013-03-12T15:23:29.000Z</time>
      </trkpt>
      <trkpt lat="43.58613" lon="5.57037">
        <ele>471.79998779297</ele>
        <time>2013-03-12T15:23:30.000Z</time>
      </trkpt>
      <trkpt lat="43.58607" lon="5.57032">
        <ele>471</ele>
        <time>2013-03-12T15:23:31.000Z</time>
      </trkpt>
      <trkpt lat="43.58601" lon="5.57027">
        <ele>470.20001220703</ele>
        <time>2013-03-12T15:23:32.000Z</time>
      </trkpt>
      <trkpt lat="43.58596" lon="5.57022">
        <ele>469.20001220703</ele>
        <time>2013-03-12T15:23:33.000Z</time>
      </trkpt>
      <trkpt lat="43.58591" lon="5.57016">
        <ele>468.20001220703</ele>
        <time>2013-03-12T15:23:34.000Z</time>
      </trkpt>
      <trkpt lat="43.58588" lon="5.57008">
        <ele>467.20001220703</ele>
        <time>2013-03-12T15:23:35.000Z</time>
      </trkpt>
      <trkpt lat="43.58586" lon="5.57">
        <ele>466.39999389648</ele>
        <time>2013-03-12T15:23:36.000Z</time>
      </trkpt>
      <trkpt lat="43.58584" lon="5.56992">
        <ele>465.79998779297</ele>
        <time>2013-03-12T15:23:37.000Z</time>
      </trkpt>
      <trkpt lat="43.58585" lon="5.56982">
        <ele>465.60000610352</ele>
        <time>2013-03-12T15:23:38.000Z</time>
      </trkpt>
      <trkpt lat="43.58586" lon="5.56973">
        <ele>465.39999389648</ele>
        <time>2013-03-12T15:23:39.000Z</time>
      </trkpt>
      <trkpt lat="43.58587" lon="5.56963">
        <ele>465.39999389648</ele>
        <time>2013-03-12T15:23:40.000Z</time>
      </trkpt>
      <trkpt lat="43.58589" lon="5.56954">
        <ele>465.20001220703</ele>
        <time>2013-03-12T15:23:41.000Z</time>
      </trkpt>
      <trkpt lat="43.58591" lon="5.56945">
        <ele>465.39999389648</ele>
        <time>2013-03-12T15:23:42.000Z</time>
      </trkpt>
      <trkpt lat="43.58593" lon="5.56935">
        <ele>465.20001220703</ele>
        <time>2013-03-12T15:23:43.000Z</time>
      </trkpt>
      <trkpt lat="43.586" lon="5.56874">
        <ele>461.20001220703</ele>
        <time>2013-03-12T15:23:49.000Z</time>
      </trkpt>
      <trkpt lat="43.58601" lon="5.56854">
        <ele>459.20001220703</ele>
        <time>2013-03-12T15:23:51.000Z</time>
      </trkpt>
      <trkpt lat="43.58604" lon="5.56846">
        <ele>458.60000610352</ele>
        <time>2013-03-12T15:23:52.000Z</time>
      </trkpt>
      <trkpt lat="43.58607" lon="5.56839">
        <ele>458.20001220703</ele>
        <time>2013-03-12T15:23:53.000Z</time>
      </trkpt>
      <trkpt lat="43.5861" lon="5.56833">
        <ele>457.79998779297</ele>
        <time>2013-03-12T15:23:54.000Z</time>
      </trkpt>
      <trkpt lat="43.58613" lon="5.56829">
        <ele>458.60000610352</ele>
        <time>2013-03-12T15:23:55.000Z</time>
      </trkpt>
      <trkpt lat="43.58612" lon="5.5682">
        <ele>459.39999389648</ele>
        <time>2013-03-12T15:23:59.000Z</time>
      </trkpt>
      <trkpt lat="43.58609" lon="5.5682">
        <ele>459.20001220703</ele>
        <time>2013-03-12T15:24:00.000Z</time>
      </trkpt>
      <trkpt lat="43.58605" lon="5.56819">
        <ele>458.79998779297</ele>
        <time>2013-03-12T15:24:01.000Z</time>
      </trkpt>
      <trkpt lat="43.586" lon="5.5682">
        <ele>458.39999389648</ele>
        <time>2013-03-12T15:24:02.000Z</time>
      </trkpt>
      <trkpt lat="43.58596" lon="5.56821">
        <ele>457.79998779297</ele>
        <time>2013-03-12T15:24:03.000Z</time>
      </trkpt>
      <trkpt lat="43.58591" lon="5.56822">
        <ele>457.20001220703</ele>
        <time>2013-03-12T15:24:04.000Z</time>
      </trkpt>
      <trkpt lat="43.58587" lon="5.5682">
        <ele>457</ele>
        <time>2013-03-12T15:24:05.000Z</time>
      </trkpt>
      <trkpt lat="43.58582" lon="5.56819">
        <ele>456.79998779297</ele>
        <time>2013-03-12T15:24:06.000Z</time>
      </trkpt>
      <trkpt lat="43.58577" lon="5.56818">
        <ele>456.60000610352</ele>
        <time>2013-03-12T15:24:07.000Z</time>
      </trkpt>
      <trkpt lat="43.58571" lon="5.56816">
        <ele>456.60000610352</ele>
        <time>2013-03-12T15:24:08.000Z</time>
      </trkpt>
      <trkpt lat="43.58566" lon="5.56812">
        <ele>456.79998779297</ele>
        <time>2013-03-12T15:24:09.000Z</time>
      </trkpt>
      <trkpt lat="43.58561" lon="5.56809">
        <ele>456.79998779297</ele>
        <time>2013-03-12T15:24:10.000Z</time>
      </trkpt>
      <trkpt lat="43.58556" lon="5.56807">
        <ele>456.60000610352</ele>
        <time>2013-03-12T15:24:11.000Z</time>
      </trkpt>
      <trkpt lat="43.58551" lon="5.56809">
        <ele>456.20001220703</ele>
        <time>2013-03-12T15:24:12.000Z</time>
      </trkpt>
      <trkpt lat="43.58546" lon="5.56812">
        <ele>455.79998779297</ele>
        <time>2013-03-12T15:24:13.000Z</time>
      </trkpt>
      <trkpt lat="43.58541" lon="5.56815">
        <ele>455.39999389648</ele>
        <time>2013-03-12T15:24:14.000Z</time>
      </trkpt>
      <trkpt lat="43.58535" lon="5.56816">
        <ele>455.20001220703</ele>
        <time>2013-03-12T15:24:15.000Z</time>
      </trkpt>
      <trkpt lat="43.58529" lon="5.56818">
        <ele>454.79998779297</ele>
        <time>2013-03-12T15:24:16.000Z</time>
      </trkpt>
      <trkpt lat="43.58523" lon="5.56818">
        <ele>454.60000610352</ele>
        <time>2013-03-12T15:24:17.000Z</time>
      </trkpt>
      <trkpt lat="43.58517" lon="5.56817">
        <ele>454.39999389648</ele>
        <time>2013-03-12T15:24:18.000Z</time>
      </trkpt>
      <trkpt lat="43.58511" lon="5.56814">
        <ele>454</ele>
        <time>2013-03-12T15:24:19.000Z</time>
      </trkpt>
      <trkpt lat="43.58501" lon="5.56806">
        <ele>453</ele>
        <time>2013-03-12T15:24:21.000Z</time>
      </trkpt>
      <trkpt lat="43.58492" lon="5.56797">
        <ele>453.20001220703</ele>
        <time>2013-03-12T15:24:23.000Z</time>
      </trkpt>
      <trkpt lat="43.58485" lon="5.56784">
        <ele>453</ele>
        <time>2013-03-12T15:24:25.000Z</time>
      </trkpt>
      <trkpt lat="43.58481" lon="5.5678">
        <ele>453</ele>
        <time>2013-03-12T15:24:26.000Z</time>
      </trkpt>
      <trkpt lat="43.58477" lon="5.56775">
        <ele>452.79998779297</ele>
        <time>2013-03-12T15:24:27.000Z</time>
      </trkpt>
      <trkpt lat="43.58474" lon="5.56769">
        <ele>452.39999389648</ele>
        <time>2013-03-12T15:24:28.000Z</time>
      </trkpt>
      <trkpt lat="43.58471" lon="5.56762">
        <ele>451.79998779297</ele>
        <time>2013-03-12T15:24:29.000Z</time>
      </trkpt>
      <trkpt lat="43.58468" lon="5.56755">
        <ele>451.20001220703</ele>
        <time>2013-03-12T15:24:30.000Z</time>
      </trkpt>
      <trkpt lat="43.58464" lon="5.56749">
        <ele>450.60000610352</ele>
        <time>2013-03-12T15:24:31.000Z</time>
      </trkpt>
      <trkpt lat="43.58461" lon="5.56741">
        <ele>450.39999389648</ele>
        <time>2013-03-12T15:24:32.000Z</time>
      </trkpt>
      <trkpt lat="43.5844" lon="5.56702">
        <ele>447.39999389648</ele>
        <time>2013-03-12T15:24:37.000Z</time>
      </trkpt>
      <trkpt lat="43.58437" lon="5.56694">
        <ele>446.60000610352</ele>
        <time>2013-03-12T15:24:38.000Z</time>
      </trkpt>
      <trkpt lat="43.58435" lon="5.56686">
        <ele>445.60000610352</ele>
        <time>2013-03-12T15:24:39.000Z</time>
      </trkpt>
      <trkpt lat="43.58434" lon="5.56678">
        <ele>444.60000610352</ele>
        <time>2013-03-12T15:24:40.000Z</time>
      </trkpt>
      <trkpt lat="43.58435" lon="5.56671">
        <ele>444</ele>
        <time>2013-03-12T15:24:41.000Z</time>
      </trkpt>
      <trkpt lat="43.58436" lon="5.56665">
        <ele>443.60000610352</ele>
        <time>2013-03-12T15:24:42.000Z</time>
      </trkpt>
      <trkpt lat="43.58436" lon="5.56657">
        <ele>443.39999389648</ele>
        <time>2013-03-12T15:24:43.000Z</time>
      </trkpt>
      <trkpt lat="43.58435" lon="5.56649">
        <ele>442.79998779297</ele>
        <time>2013-03-12T15:24:44.000Z</time>
      </trkpt>
      <trkpt lat="43.58433" lon="5.56631">
        <ele>441.39999389648</ele>
        <time>2013-03-12T15:24:46.000Z</time>
      </trkpt>
      <trkpt lat="43.58431" lon="5.56622">
        <ele>440.60000610352</ele>
        <time>2013-03-12T15:24:47.000Z</time>
      </trkpt>
      <trkpt lat="43.58429" lon="5.56604">
        <ele>439.20001220703</ele>
        <time>2013-03-12T15:24:49.000Z</time>
      </trkpt>
      <trkpt lat="43.58429" lon="5.56596">
        <ele>438.79998779297</ele>
        <time>2013-03-12T15:24:50.000Z</time>
      </trkpt>
      <trkpt lat="43.58429" lon="5.56588">
        <ele>438.39999389648</ele>
        <time>2013-03-12T15:24:51.000Z</time>
      </trkpt>
      <trkpt lat="43.58429" lon="5.56579">
        <ele>438.39999389648</ele>
        <time>2013-03-12T15:24:52.000Z</time>
      </trkpt>
      <trkpt lat="43.58427" lon="5.56571">
        <ele>438.79998779297</ele>
        <time>2013-03-12T15:24:53.000Z</time>
      </trkpt>
      <trkpt lat="43.58424" lon="5.56563">
        <ele>438.79998779297</ele>
        <time>2013-03-12T15:24:54.000Z</time>
      </trkpt>
      <trkpt lat="43.58422" lon="5.56555">
        <ele>438.79998779297</ele>
        <time>2013-03-12T15:24:55.000Z</time>
      </trkpt>
      <trkpt lat="43.58419" lon="5.56547">
        <ele>438.60000610352</ele>
        <time>2013-03-12T15:24:56.000Z</time>
      </trkpt>
      <trkpt lat="43.58414" lon="5.56541">
        <ele>438</ele>
        <time>2013-03-12T15:24:57.000Z</time>
      </trkpt>
      <trkpt lat="43.58409" lon="5.56536">
        <ele>437.39999389648</ele>
        <time>2013-03-12T15:24:58.000Z</time>
      </trkpt>
      <trkpt lat="43.58403" lon="5.56532">
        <ele>436.79998779297</ele>
        <time>2013-03-12T15:24:59.000Z</time>
      </trkpt>
      <trkpt lat="43.58397" lon="5.56528">
        <ele>435.79998779297</ele>
        <time>2013-03-12T15:25:00.000Z</time>
      </trkpt>
      <trkpt lat="43.5839" lon="5.56527">
        <ele>434.79998779297</ele>
        <time>2013-03-12T15:25:01.000Z</time>
      </trkpt>
      <trkpt lat="43.58385" lon="5.5653">
        <ele>433.60000610352</ele>
        <time>2013-03-12T15:25:02.000Z</time>
      </trkpt>
      <trkpt lat="43.5838" lon="5.56536">
        <ele>432.39999389648</ele>
        <time>2013-03-12T15:25:03.000Z</time>
      </trkpt>
      <trkpt lat="43.58377" lon="5.5654">
        <ele>431.79998779297</ele>
        <time>2013-03-12T15:25:04.000Z</time>
      </trkpt>
      <trkpt lat="43.5837" lon="5.56548">
        <ele>430.39999389648</ele>
        <time>2013-03-12T15:25:05.000Z</time>
      </trkpt>
      <trkpt lat="43.58363" lon="5.56552">
        <ele>429.20001220703</ele>
        <time>2013-03-12T15:25:06.000Z</time>
      </trkpt>
      <trkpt lat="43.58342" lon="5.56562">
        <ele>425.79998779297</ele>
        <time>2013-03-12T15:25:09.000Z</time>
      </trkpt>
      <trkpt lat="43.58335" lon="5.56563">
        <ele>424.79998779297</ele>
        <time>2013-03-12T15:25:10.000Z</time>
      </trkpt>
      <trkpt lat="43.58328" lon="5.56563">
        <ele>425.60000610352</ele>
        <time>2013-03-12T15:25:11.000Z</time>
      </trkpt>
      <trkpt lat="43.58321" lon="5.5656">
        <ele>426.60000610352</ele>
        <time>2013-03-12T15:25:12.000Z</time>
      </trkpt>
      <trkpt lat="43.58303" lon="5.56551">
        <ele>428.79998779297</ele>
        <time>2013-03-12T15:25:16.000Z</time>
      </trkpt>
      <trkpt lat="43.58302" lon="5.56546">
        <ele>428.60000610352</ele>
        <time>2013-03-12T15:25:17.000Z</time>
      </trkpt>
      <trkpt lat="43.58303" lon="5.56512">
        <ele>425.79998779297</ele>
        <time>2013-03-12T15:25:24.000Z</time>
      </trkpt>
      <trkpt lat="43.58305" lon="5.56479">
        <ele>424.79998779297</ele>
        <time>2013-03-12T15:25:29.000Z</time>
      </trkpt>
      <trkpt lat="43.58305" lon="5.56472">
        <ele>424.79998779297</ele>
        <time>2013-03-12T15:25:30.000Z</time>
      </trkpt>
      <trkpt lat="43.58303" lon="5.56464">
        <ele>424.60000610352</ele>
        <time>2013-03-12T15:25:31.000Z</time>
      </trkpt>
      <trkpt lat="43.58287" lon="5.5642">
        <ele>421.20001220703</ele>
        <time>2013-03-12T15:25:37.000Z</time>
      </trkpt>
      <trkpt lat="43.58278" lon="5.56407">
        <ele>421</ele>
        <time>2013-03-12T15:25:39.000Z</time>
      </trkpt>
      <trkpt lat="43.58273" lon="5.56402">
        <ele>420.60000610352</ele>
        <time>2013-03-12T15:25:40.000Z</time>
      </trkpt>
      <trkpt lat="43.58267" lon="5.56399">
        <ele>420</ele>
        <time>2013-03-12T15:25:41.000Z</time>
      </trkpt>
      <trkpt lat="43.58261" lon="5.56399">
        <ele>418.60000610352</ele>
        <time>2013-03-12T15:25:42.000Z</time>
      </trkpt>
      <trkpt lat="43.58255" lon="5.56401">
        <ele>417.20001220703</ele>
        <time>2013-03-12T15:25:43.000Z</time>
      </trkpt>
      <trkpt lat="43.58248" lon="5.56404">
        <ele>415.79998779297</ele>
        <time>2013-03-12T15:25:44.000Z</time>
      </trkpt>
      <trkpt lat="43.58215" lon="5.56414">
        <ele>411.79998779297</ele>
        <time>2013-03-12T15:25:49.000Z</time>
      </trkpt>
      <trkpt lat="43.58208" lon="5.56414">
        <ele>411.20001220703</ele>
        <time>2013-03-12T15:25:50.000Z</time>
      </trkpt>
      <trkpt lat="43.58181" lon="5.56411">
        <ele>409.20001220703</ele>
        <time>2013-03-12T15:25:54.000Z</time>
      </trkpt>
      <trkpt lat="43.58174" lon="5.56408">
        <ele>408.79998779297</ele>
        <time>2013-03-12T15:25:55.000Z</time>
      </trkpt>
      <trkpt lat="43.58161" lon="5.56403">
        <ele>408.60000610352</ele>
        <time>2013-03-12T15:25:57.000Z</time>
      </trkpt>
      <trkpt lat="43.58154" lon="5.56399">
        <ele>408.79998779297</ele>
        <time>2013-03-12T15:25:58.000Z</time>
      </trkpt>
      <trkpt lat="43.58149" lon="5.56392">
        <ele>409</ele>
        <time>2013-03-12T15:25:59.000Z</time>
      </trkpt>
      <trkpt lat="43.58145" lon="5.56383">
        <ele>409</ele>
        <time>2013-03-12T15:26:00.000Z</time>
      </trkpt>
      <trkpt lat="43.58142" lon="5.56373">
        <ele>409.20001220703</ele>
        <time>2013-03-12T15:26:01.000Z</time>
      </trkpt>
      <trkpt lat="43.5814" lon="5.56363">
        <ele>409.20001220703</ele>
        <time>2013-03-12T15:26:02.000Z</time>
      </trkpt>
      <trkpt lat="43.58137" lon="5.56354">
        <ele>409</ele>
        <time>2013-03-12T15:26:03.000Z</time>
      </trkpt>
      <trkpt lat="43.58132" lon="5.56347">
        <ele>408.79998779297</ele>
        <time>2013-03-12T15:26:04.000Z</time>
      </trkpt>
      <trkpt lat="43.58126" lon="5.56341">
        <ele>408.60000610352</ele>
        <time>2013-03-12T15:26:05.000Z</time>
      </trkpt>
      <trkpt lat="43.58109" lon="5.56324">
        <ele>408.20001220703</ele>
        <time>2013-03-12T15:26:08.000Z</time>
      </trkpt>
      <trkpt lat="43.58104" lon="5.56317">
        <ele>408.39999389648</ele>
        <time>2013-03-12T15:26:09.000Z</time>
      </trkpt>
      <trkpt lat="43.58095" lon="5.56302">
        <ele>408.20001220703</ele>
        <time>2013-03-12T15:26:11.000Z</time>
      </trkpt>
      <trkpt lat="43.58089" lon="5.56296">
        <ele>407.39999389648</ele>
        <time>2013-03-12T15:26:12.000Z</time>
      </trkpt>
      <trkpt lat="43.58056" lon="5.56266">
        <ele>405.39999389648</ele>
        <time>2013-03-12T15:26:18.000Z</time>
      </trkpt>
      <trkpt lat="43.58052" lon="5.56259">
        <ele>405</ele>
        <time>2013-03-12T15:26:19.000Z</time>
      </trkpt>
      <trkpt lat="43.58049" lon="5.56252">
        <ele>404.60000610352</ele>
        <time>2013-03-12T15:26:20.000Z</time>
      </trkpt>
      <trkpt lat="43.58047" lon="5.56244">
        <ele>405.20001220703</ele>
        <time>2013-03-12T15:26:21.000Z</time>
      </trkpt>
      <trkpt lat="43.58044" lon="5.56238">
        <ele>406</ele>
        <time>2013-03-12T15:26:22.000Z</time>
      </trkpt>
      <trkpt lat="43.5804" lon="5.56234">
        <ele>406.20001220703</ele>
        <time>2013-03-12T15:26:23.000Z</time>
      </trkpt>
      <trkpt lat="43.58035" lon="5.5623">
        <ele>406.20001220703</ele>
        <time>2013-03-12T15:26:24.000Z</time>
      </trkpt>
      <trkpt lat="43.5803" lon="5.56228">
        <ele>406.20001220703</ele>
        <time>2013-03-12T15:26:25.000Z</time>
      </trkpt>
      <trkpt lat="43.58024" lon="5.56226">
        <ele>405.79998779297</ele>
        <time>2013-03-12T15:26:26.000Z</time>
      </trkpt>
      <trkpt lat="43.58018" lon="5.56225">
        <ele>405.20001220703</ele>
        <time>2013-03-12T15:26:27.000Z</time>
      </trkpt>
      <trkpt lat="43.58012" lon="5.56225">
        <ele>404.39999389648</ele>
        <time>2013-03-12T15:26:28.000Z</time>
      </trkpt>
      <trkpt lat="43.58005" lon="5.56226">
        <ele>403.60000610352</ele>
        <time>2013-03-12T15:26:29.000Z</time>
      </trkpt>
      <trkpt lat="43.57999" lon="5.56226">
        <ele>403</ele>
        <time>2013-03-12T15:26:30.000Z</time>
      </trkpt>
      <trkpt lat="43.57992" lon="5.56225">
        <ele>403</ele>
        <time>2013-03-12T15:26:31.000Z</time>
      </trkpt>
      <trkpt lat="43.57985" lon="5.56221">
        <ele>403.20001220703</ele>
        <time>2013-03-12T15:26:32.000Z</time>
      </trkpt>
      <trkpt lat="43.57978" lon="5.56215">
        <ele>403.60000610352</ele>
        <time>2013-03-12T15:26:33.000Z</time>
      </trkpt>
      <trkpt lat="43.57971" lon="5.56209">
        <ele>403.60000610352</ele>
        <time>2013-03-12T15:26:34.000Z</time>
      </trkpt>
      <trkpt lat="43.57964" lon="5.56204">
        <ele>403.60000610352</ele>
        <time>2013-03-12T15:26:35.000Z</time>
      </trkpt>
      <trkpt lat="43.57956" lon="5.56198">
        <ele>403.60000610352</ele>
        <time>2013-03-12T15:26:36.000Z</time>
      </trkpt>
      <trkpt lat="43.5795" lon="5.56191">
        <ele>403.39999389648</ele>
        <time>2013-03-12T15:26:37.000Z</time>
      </trkpt>
      <trkpt lat="43.57943" lon="5.56183">
        <ele>403</ele>
        <time>2013-03-12T15:26:38.000Z</time>
      </trkpt>
      <trkpt lat="43.57937" lon="5.56174">
        <ele>402.60000610352</ele>
        <time>2013-03-12T15:26:39.000Z</time>
      </trkpt>
      <trkpt lat="43.57903" lon="5.56129">
        <ele>403.60000610352</ele>
        <time>2013-03-12T15:26:45.000Z</time>
      </trkpt>
      <trkpt lat="43.57894" lon="5.56115">
        <ele>404</ele>
        <time>2013-03-12T15:26:47.000Z</time>
      </trkpt>
      <trkpt lat="43.57888" lon="5.56109">
        <ele>404</ele>
        <time>2013-03-12T15:26:48.000Z</time>
      </trkpt>
      <trkpt lat="43.57881" lon="5.56105">
        <ele>403.79998779297</ele>
        <time>2013-03-12T15:26:49.000Z</time>
      </trkpt>
      <trkpt lat="43.57874" lon="5.56102">
        <ele>403.39999389648</ele>
        <time>2013-03-12T15:26:50.000Z</time>
      </trkpt>
      <trkpt lat="43.57867" lon="5.561">
        <ele>403</ele>
        <time>2013-03-12T15:26:51.000Z</time>
      </trkpt>
      <trkpt lat="43.5786" lon="5.56098">
        <ele>402.60000610352</ele>
        <time>2013-03-12T15:26:52.000Z</time>
      </trkpt>
      <trkpt lat="43.57853" lon="5.56094">
        <ele>401.79998779297</ele>
        <time>2013-03-12T15:26:53.000Z</time>
      </trkpt>
      <trkpt lat="43.57848" lon="5.56087">
        <ele>400.60000610352</ele>
        <time>2013-03-12T15:26:54.000Z</time>
      </trkpt>
      <trkpt lat="43.57844" lon="5.56078">
        <ele>399.39999389648</ele>
        <time>2013-03-12T15:26:55.000Z</time>
      </trkpt>
      <trkpt lat="43.57842" lon="5.56068">
        <ele>398.60000610352</ele>
        <time>2013-03-12T15:26:56.000Z</time>
      </trkpt>
      <trkpt lat="43.5784" lon="5.56058">
        <ele>397.60000610352</ele>
        <time>2013-03-12T15:26:57.000Z</time>
      </trkpt>
      <trkpt lat="43.57839" lon="5.56047">
        <ele>396.79998779297</ele>
        <time>2013-03-12T15:26:58.000Z</time>
      </trkpt>
      <trkpt lat="43.57839" lon="5.56037">
        <ele>395.79998779297</ele>
        <time>2013-03-12T15:26:59.000Z</time>
      </trkpt>
      <trkpt lat="43.57835" lon="5.55997">
        <ele>392.39999389648</ele>
        <time>2013-03-12T15:27:03.000Z</time>
      </trkpt>
      <trkpt lat="43.57835" lon="5.55987">
        <ele>393.39999389648</ele>
        <time>2013-03-12T15:27:04.000Z</time>
      </trkpt>
      <trkpt lat="43.57837" lon="5.55978">
        <ele>394.39999389648</ele>
        <time>2013-03-12T15:27:05.000Z</time>
      </trkpt>
      <trkpt lat="43.5784" lon="5.55969">
        <ele>395.39999389648</ele>
        <time>2013-03-12T15:27:06.000Z</time>
      </trkpt>
      <trkpt lat="43.57844" lon="5.55962">
        <ele>396.39999389648</ele>
        <time>2013-03-12T15:27:07.000Z</time>
      </trkpt>
      <trkpt lat="43.57849" lon="5.55955">
        <ele>397.20001220703</ele>
        <time>2013-03-12T15:27:08.000Z</time>
      </trkpt>
      <trkpt lat="43.57855" lon="5.55949">
        <ele>398</ele>
        <time>2013-03-12T15:27:09.000Z</time>
      </trkpt>
      <trkpt lat="43.57861" lon="5.55944">
        <ele>398.60000610352</ele>
        <time>2013-03-12T15:27:10.000Z</time>
      </trkpt>
      <trkpt lat="43.57898" lon="5.55909">
        <ele>399</ele>
        <time>2013-03-12T15:27:16.000Z</time>
      </trkpt>
      <trkpt lat="43.57914" lon="5.55885">
        <ele>398</ele>
        <time>2013-03-12T15:27:19.000Z</time>
      </trkpt>
      <trkpt lat="43.57945" lon="5.55826">
        <ele>400.79998779297</ele>
        <time>2013-03-12T15:27:26.000Z</time>
      </trkpt>
      <trkpt lat="43.57953" lon="5.55799">
        <ele>400.79998779297</ele>
        <time>2013-03-12T15:27:29.000Z</time>
      </trkpt>
      <trkpt lat="43.57959" lon="5.55762">
        <ele>399</ele>
        <time>2013-03-12T15:27:33.000Z</time>
      </trkpt>
      <trkpt lat="43.57962" lon="5.55754">
        <ele>398.39999389648</ele>
        <time>2013-03-12T15:27:34.000Z</time>
      </trkpt>
      <trkpt lat="43.57976" lon="5.55722">
        <ele>395.20001220703</ele>
        <time>2013-03-12T15:27:38.000Z</time>
      </trkpt>
      <trkpt lat="43.57979" lon="5.55714">
        <ele>394.39999389648</ele>
        <time>2013-03-12T15:27:39.000Z</time>
      </trkpt>
      <trkpt lat="43.57995" lon="5.55641">
        <ele>389</ele>
        <time>2013-03-12T15:27:47.000Z</time>
      </trkpt>
      <trkpt lat="43.57996" lon="5.55632">
        <ele>388.79998779297</ele>
        <time>2013-03-12T15:27:48.000Z</time>
      </trkpt>
      <trkpt lat="43.57997" lon="5.55579">
        <ele>388</ele>
        <time>2013-03-12T15:27:54.000Z</time>
      </trkpt>
      <trkpt lat="43.57995" lon="5.55571">
        <ele>387.79998779297</ele>
        <time>2013-03-12T15:27:55.000Z</time>
      </trkpt>
      <trkpt lat="43.57993" lon="5.55564">
        <ele>387.79998779297</ele>
        <time>2013-03-12T15:27:56.000Z</time>
      </trkpt>
      <trkpt lat="43.57991" lon="5.55558">
        <ele>387.79998779297</ele>
        <time>2013-03-12T15:27:57.000Z</time>
      </trkpt>
      <trkpt lat="43.57988" lon="5.55552">
        <ele>387.79998779297</ele>
        <time>2013-03-12T15:27:58.000Z</time>
      </trkpt>
      <trkpt lat="43.57984" lon="5.55548">
        <ele>388</ele>
        <time>2013-03-12T15:27:59.000Z</time>
      </trkpt>
      <trkpt lat="43.57979" lon="5.55544">
        <ele>388.20001220703</ele>
        <time>2013-03-12T15:28:00.000Z</time>
      </trkpt>
      <trkpt lat="43.57975" lon="5.55541">
        <ele>388.60000610352</ele>
        <time>2013-03-12T15:28:01.000Z</time>
      </trkpt>
      <trkpt lat="43.5797" lon="5.55539">
        <ele>388.79998779297</ele>
        <time>2013-03-12T15:28:02.000Z</time>
      </trkpt>
      <trkpt lat="43.57966" lon="5.55539">
        <ele>389.20001220703</ele>
        <time>2013-03-12T15:28:03.000Z</time>
      </trkpt>
      <trkpt lat="43.57962" lon="5.55539">
        <ele>389.39999389648</ele>
        <time>2013-03-12T15:28:04.000Z</time>
      </trkpt>
      <trkpt lat="43.57959" lon="5.55538">
        <ele>389.79998779297</ele>
        <time>2013-03-12T15:28:05.000Z</time>
      </trkpt>
      <trkpt lat="43.57957" lon="5.55537">
        <ele>390</ele>
        <time>2013-03-12T15:28:06.000Z</time>
      </trkpt>
      <trkpt lat="43.57954" lon="5.55536">
        <ele>390.20001220703</ele>
        <time>2013-03-12T15:28:07.000Z</time>
      </trkpt>
      <trkpt lat="43.57952" lon="5.55536">
        <ele>390.20001220703</ele>
        <time>2013-03-12T15:28:08.000Z</time>
      </trkpt>
      <trkpt lat="43.5795" lon="5.55537">
        <ele>390.39999389648</ele>
        <time>2013-03-12T15:28:09.000Z</time>
      </trkpt>
      <trkpt lat="43.57948" lon="5.55539">
        <ele>390.60000610352</ele>
        <time>2013-03-12T15:28:10.000Z</time>
      </trkpt>
      <trkpt lat="43.57947" lon="5.5554">
        <ele>390.79998779297</ele>
        <time>2013-03-12T15:28:11.000Z</time>
      </trkpt>
      <trkpt lat="43.57946" lon="5.55542">
        <ele>391</ele>
        <time>2013-03-12T15:28:12.000Z</time>
      </trkpt>
      <trkpt lat="43.57944" lon="5.55544">
        <ele>391.20001220703</ele>
        <time>2013-03-12T15:28:13.000Z</time>
      </trkpt>
      <trkpt lat="43.57943" lon="5.55545">
        <ele>391.20001220703</ele>
        <time>2013-03-12T15:28:14.000Z</time>
      </trkpt>
      <trkpt lat="43.57941" lon="5.55547">
        <ele>391.39999389648</ele>
        <time>2013-03-12T15:28:15.000Z</time>
      </trkpt>
      <trkpt lat="43.57922" lon="5.55565">
        <ele>393.39999389648</ele>
        <time>2013-03-12T15:28:27.000Z</time>
      </trkpt>
      <trkpt lat="43.57902" lon="5.55578">
        <ele>396</ele>
        <time>2013-03-12T15:28:38.000Z</time>
      </trkpt>
      <trkpt lat="43.57885" lon="5.55589">
        <ele>398.20001220703</ele>
        <time>2013-03-12T15:28:48.000Z</time>
      </trkpt>
      <trkpt lat="43.57862" lon="5.556">
        <ele>401.20001220703</ele>
        <time>2013-03-12T15:29:01.000Z</time>
      </trkpt>
      <trkpt lat="43.57846" lon="5.5561">
        <ele>403.20001220703</ele>
        <time>2013-03-12T15:29:12.000Z</time>
      </trkpt>
      <trkpt lat="43.57832" lon="5.55626">
        <ele>404.60000610352</ele>
        <time>2013-03-12T15:29:22.000Z</time>
      </trkpt>
      <trkpt lat="43.57819" lon="5.55647">
        <ele>407.20001220703</ele>
        <time>2013-03-12T15:29:34.000Z</time>
      </trkpt>
      <trkpt lat="43.57803" lon="5.55667">
        <ele>409.79998779297</ele>
        <time>2013-03-12T15:29:46.000Z</time>
      </trkpt>
      <trkpt lat="43.57786" lon="5.55682">
        <ele>414.20001220703</ele>
        <time>2013-03-12T15:29:58.000Z</time>
      </trkpt>
      <trkpt lat="43.57783" lon="5.55686">
        <ele>414.79998779297</ele>
        <time>2013-03-12T15:30:01.000Z</time>
      </trkpt>
      <trkpt lat="43.57782" lon="5.55687">
        <ele>415</ele>
        <time>2013-03-12T15:30:02.000Z</time>
      </trkpt>
      <trkpt lat="43.57767" lon="5.557">
        <ele>417.79998779297</ele>
        <time>2013-03-12T15:30:13.000Z</time>
      </trkpt>
      <trkpt lat="43.57764" lon="5.55711">
        <ele>418.60000610352</ele>
        <time>2013-03-12T15:30:19.000Z</time>
      </trkpt>
      <trkpt lat="43.57764" lon="5.55714">
        <ele>418.60000610352</ele>
        <time>2013-03-12T15:30:20.000Z</time>
      </trkpt>
      <trkpt lat="43.5777" lon="5.55723">
        <ele>418.39999389648</ele>
        <time>2013-03-12T15:30:26.000Z</time>
      </trkpt>
      <trkpt lat="43.57772" lon="5.55723">
        <ele>418.20001220703</ele>
        <time>2013-03-12T15:30:27.000Z</time>
      </trkpt>
      <trkpt lat="43.57773" lon="5.55723">
        <ele>418</ele>
        <time>2013-03-12T15:30:28.000Z</time>
      </trkpt>
      <trkpt lat="43.57784" lon="5.55723">
        <ele>417.20001220703</ele>
        <time>2013-03-12T15:30:34.000Z</time>
      </trkpt>
      <trkpt lat="43.57804" lon="5.55715">
        <ele>414.79998779297</ele>
        <time>2013-03-12T15:30:46.000Z</time>
      </trkpt>
      <trkpt lat="43.57825" lon="5.55707">
        <ele>411.60000610352</ele>
        <time>2013-03-12T15:30:58.000Z</time>
      </trkpt>
      <trkpt lat="43.57848" lon="5.55702">
        <ele>407.79998779297</ele>
        <time>2013-03-12T15:31:11.000Z</time>
      </trkpt>
      <trkpt lat="43.57866" lon="5.55702">
        <ele>405.60000610352</ele>
        <time>2013-03-12T15:31:20.000Z</time>
      </trkpt>
      <trkpt lat="43.57871" lon="5.5571">
        <ele>405.60000610352</ele>
        <time>2013-03-12T15:31:24.000Z</time>
      </trkpt>
      <trkpt lat="43.57867" lon="5.55736">
        <ele>409.39999389648</ele>
        <time>2013-03-12T15:31:36.000Z</time>
      </trkpt>
      <trkpt lat="43.57856" lon="5.55759">
        <ele>413</ele>
        <time>2013-03-12T15:31:47.000Z</time>
      </trkpt>
      <trkpt lat="43.57839" lon="5.55788">
        <ele>415.79998779297</ele>
        <time>2013-03-12T15:32:02.000Z</time>
      </trkpt>
      <trkpt lat="43.57825" lon="5.55808">
        <ele>417.39999389648</ele>
        <time>2013-03-12T15:32:15.000Z</time>
      </trkpt>
      <trkpt lat="43.57807" lon="5.55821">
        <ele>419.39999389648</ele>
        <time>2013-03-12T15:32:27.000Z</time>
      </trkpt>
      <trkpt lat="43.57806" lon="5.55821">
        <ele>419.60000610352</ele>
        <time>2013-03-12T15:32:28.000Z</time>
      </trkpt>
      <trkpt lat="43.57804" lon="5.55822">
        <ele>420</ele>
        <time>2013-03-12T15:32:29.000Z</time>
      </trkpt>
      <trkpt lat="43.57788" lon="5.55826">
        <ele>422.20001220703</ele>
        <time>2013-03-12T15:32:39.000Z</time>
      </trkpt>
      <trkpt lat="43.57769" lon="5.55827">
        <ele>424.60000610352</ele>
        <time>2013-03-12T15:32:51.000Z</time>
      </trkpt>
      <trkpt lat="43.57748" lon="5.55829">
        <ele>427.60000610352</ele>
        <time>2013-03-12T15:33:05.000Z</time>
      </trkpt>
      <trkpt lat="43.57729" lon="5.55836">
        <ele>429.39999389648</ele>
        <time>2013-03-12T15:33:17.000Z</time>
      </trkpt>
      <trkpt lat="43.57709" lon="5.55845">
        <ele>429.79998779297</ele>
        <time>2013-03-12T15:33:30.000Z</time>
      </trkpt>
      <trkpt lat="43.57689" lon="5.55848">
        <ele>431.39999389648</ele>
        <time>2013-03-12T15:33:42.000Z</time>
      </trkpt>
      <trkpt lat="43.57673" lon="5.5585">
        <ele>432.60000610352</ele>
        <time>2013-03-12T15:33:52.000Z</time>
      </trkpt>
      <trkpt lat="43.57652" lon="5.5585">
        <ele>434.39999389648</ele>
        <time>2013-03-12T15:34:05.000Z</time>
      </trkpt>
      <trkpt lat="43.57632" lon="5.55851">
        <ele>436</ele>
        <time>2013-03-12T15:34:17.000Z</time>
      </trkpt>
      <trkpt lat="43.57605" lon="5.55851">
        <ele>438.20001220703</ele>
        <time>2013-03-12T15:34:32.000Z</time>
      </trkpt>
      <trkpt lat="43.57581" lon="5.5585">
        <ele>440.60000610352</ele>
        <time>2013-03-12T15:34:45.000Z</time>
      </trkpt>
      <trkpt lat="43.57556" lon="5.55848">
        <ele>445.20001220703</ele>
        <time>2013-03-12T15:34:58.000Z</time>
      </trkpt>
      <trkpt lat="43.5753" lon="5.55846">
        <ele>449.79998779297</ele>
        <time>2013-03-12T15:35:12.000Z</time>
      </trkpt>
      <trkpt lat="43.57505" lon="5.55849">
        <ele>453.79998779297</ele>
        <time>2013-03-12T15:35:26.000Z</time>
      </trkpt>
      <trkpt lat="43.57488" lon="5.55857">
        <ele>455</ele>
        <time>2013-03-12T15:35:36.000Z</time>
      </trkpt>
      <trkpt lat="43.57467" lon="5.55876">
        <ele>455.39999389648</ele>
        <time>2013-03-12T15:35:51.000Z</time>
      </trkpt>
      <trkpt lat="43.57446" lon="5.55899">
        <ele>455</ele>
        <time>2013-03-12T15:36:05.000Z</time>
      </trkpt>
      <trkpt lat="43.57445" lon="5.55901">
        <ele>455</ele>
        <time>2013-03-12T15:36:06.000Z</time>
      </trkpt>
      <trkpt lat="43.57437" lon="5.55901">
        <ele>456.20001220703</ele>
        <time>2013-03-12T15:36:10.000Z</time>
      </trkpt>
      <trkpt lat="43.57436" lon="5.55899">
        <ele>456.60000610352</ele>
        <time>2013-03-12T15:36:11.000Z</time>
      </trkpt>
      <trkpt lat="43.57436" lon="5.55882">
        <ele>458.79998779297</ele>
        <time>2013-03-12T15:36:18.000Z</time>
      </trkpt>
      <trkpt lat="43.57437" lon="5.5588">
        <ele>458.79998779297</ele>
        <time>2013-03-12T15:36:19.000Z</time>
      </trkpt>
      <trkpt lat="43.57442" lon="5.55873">
        <ele>459.20001220703</ele>
        <time>2013-03-12T15:36:23.000Z</time>
      </trkpt>
      <trkpt lat="43.57442" lon="5.55871">
        <ele>459.39999389648</ele>
        <time>2013-03-12T15:36:24.000Z</time>
      </trkpt>
      <trkpt lat="43.57444" lon="5.55845">
        <ele>462.60000610352</ele>
        <time>2013-03-12T15:36:35.000Z</time>
      </trkpt>
      <trkpt lat="43.57442" lon="5.55833">
        <ele>464.39999389648</ele>
        <time>2013-03-12T15:36:40.000Z</time>
      </trkpt>
      <trkpt lat="43.57439" lon="5.55809">
        <ele>464.79998779297</ele>
        <time>2013-03-12T15:36:52.000Z</time>
      </trkpt>
      <trkpt lat="43.57427" lon="5.55778">
        <ele>466</ele>
        <time>2013-03-12T15:37:07.000Z</time>
      </trkpt>
      <trkpt lat="43.57419" lon="5.55773">
        <ele>466.79998779297</ele>
        <time>2013-03-12T15:37:12.000Z</time>
      </trkpt>
      <trkpt lat="43.57417" lon="5.55771">
        <ele>467.20001220703</ele>
        <time>2013-03-12T15:37:14.000Z</time>
      </trkpt>
      <trkpt lat="43.57415" lon="5.55769">
        <ele>467.39999389648</ele>
        <time>2013-03-12T15:37:15.000Z</time>
      </trkpt>
      <trkpt lat="43.57397" lon="5.5577">
        <ele>469.60000610352</ele>
        <time>2013-03-12T15:37:26.000Z</time>
      </trkpt>
      <trkpt lat="43.57371" lon="5.5577">
        <ele>472.60000610352</ele>
        <time>2013-03-12T15:37:41.000Z</time>
      </trkpt>
      <trkpt lat="43.57346" lon="5.55772">
        <ele>475.60000610352</ele>
        <time>2013-03-12T15:37:55.000Z</time>
      </trkpt>
      <trkpt lat="43.57325" lon="5.5577">
        <ele>477.60000610352</ele>
        <time>2013-03-12T15:38:07.000Z</time>
      </trkpt>
      <trkpt lat="43.57302" lon="5.55763">
        <ele>479.39999389648</ele>
        <time>2013-03-12T15:38:18.000Z</time>
      </trkpt>
      <trkpt lat="43.57274" lon="5.55752">
        <ele>482.20001220703</ele>
        <time>2013-03-12T15:38:32.000Z</time>
      </trkpt>
      <trkpt lat="43.57248" lon="5.55735">
        <ele>483.39999389648</ele>
        <time>2013-03-12T15:38:44.000Z</time>
      </trkpt>
      <trkpt lat="43.57221" lon="5.5572">
        <ele>485</ele>
        <time>2013-03-12T15:38:56.000Z</time>
      </trkpt>
      <trkpt lat="43.57212" lon="5.55716">
        <ele>485.79998779297</ele>
        <time>2013-03-12T15:39:00.000Z</time>
      </trkpt>
      <trkpt lat="43.57182" lon="5.55702">
        <ele>488.79998779297</ele>
        <time>2013-03-12T15:39:13.000Z</time>
      </trkpt>
      <trkpt lat="43.57174" lon="5.55698">
        <ele>490</ele>
        <time>2013-03-12T15:39:17.000Z</time>
      </trkpt>
      <trkpt lat="43.57155" lon="5.55684">
        <ele>492.20001220703</ele>
        <time>2013-03-12T15:39:29.000Z</time>
      </trkpt>
      <trkpt lat="43.57131" lon="5.5567">
        <ele>494</ele>
        <time>2013-03-12T15:39:42.000Z</time>
      </trkpt>
      <trkpt lat="43.57103" lon="5.5565">
        <ele>495.39999389648</ele>
        <time>2013-03-12T15:39:57.000Z</time>
      </trkpt>
      <trkpt lat="43.57077" lon="5.5563">
        <ele>497.39999389648</ele>
        <time>2013-03-12T15:40:11.000Z</time>
      </trkpt>
      <trkpt lat="43.57056" lon="5.55607">
        <ele>499.39999389648</ele>
        <time>2013-03-12T15:40:23.000Z</time>
      </trkpt>
      <trkpt lat="43.57036" lon="5.55578">
        <ele>502</ele>
        <time>2013-03-12T15:40:36.000Z</time>
      </trkpt>
      <trkpt lat="43.5702" lon="5.55556">
        <ele>503.79998779297</ele>
        <time>2013-03-12T15:40:46.000Z</time>
      </trkpt>
      <trkpt lat="43.57" lon="5.55531">
        <ele>506.39999389648</ele>
        <time>2013-03-12T15:40:57.000Z</time>
      </trkpt>
      <trkpt lat="43.56975" lon="5.55509">
        <ele>507.20001220703</ele>
        <time>2013-03-12T15:41:08.000Z</time>
      </trkpt>
      <trkpt lat="43.56941" lon="5.55482">
        <ele>507.39999389648</ele>
        <time>2013-03-12T15:41:21.000Z</time>
      </trkpt>
      <trkpt lat="43.56899" lon="5.55431">
        <ele>507.79998779297</ele>
        <time>2013-03-12T15:41:37.000Z</time>
      </trkpt>
      <trkpt lat="43.5688" lon="5.55387">
        <ele>508.20001220703</ele>
        <time>2013-03-12T15:41:48.000Z</time>
      </trkpt>
      <trkpt lat="43.56869" lon="5.55358">
        <ele>508.60000610352</ele>
        <time>2013-03-12T15:41:54.000Z</time>
      </trkpt>
      <trkpt lat="43.56849" lon="5.55275">
        <ele>506.79998779297</ele>
        <time>2013-03-12T15:42:06.000Z</time>
      </trkpt>
      <trkpt lat="43.56845" lon="5.55259">
        <ele>506.20001220703</ele>
        <time>2013-03-12T15:42:08.000Z</time>
      </trkpt>
      <trkpt lat="43.56823" lon="5.55186">
        <ele>503.60000610352</ele>
        <time>2013-03-12T15:42:17.000Z</time>
      </trkpt>
      <trkpt lat="43.56814" lon="5.55152">
        <ele>502.79998779297</ele>
        <time>2013-03-12T15:42:21.000Z</time>
      </trkpt>
      <trkpt lat="43.56795" lon="5.55045">
        <ele>501.60000610352</ele>
        <time>2013-03-12T15:42:35.000Z</time>
      </trkpt>
      <trkpt lat="43.56792" lon="5.5503">
        <ele>501.60000610352</ele>
        <time>2013-03-12T15:42:37.000Z</time>
      </trkpt>
      <trkpt lat="43.56779" lon="5.5498">
        <ele>501.39999389648</ele>
        <time>2013-03-12T15:42:44.000Z</time>
      </trkpt>
      <trkpt lat="43.56774" lon="5.54956">
        <ele>500.79998779297</ele>
        <time>2013-03-12T15:42:47.000Z</time>
      </trkpt>
      <trkpt lat="43.56771" lon="5.54949">
        <ele>500.79998779297</ele>
        <time>2013-03-12T15:42:48.000Z</time>
      </trkpt>
      <trkpt lat="43.56764" lon="5.5493">
        <ele>500.60000610352</ele>
        <time>2013-03-12T15:42:51.000Z</time>
      </trkpt>
      <trkpt lat="43.5676" lon="5.54926">
        <ele>500.60000610352</ele>
        <time>2013-03-12T15:42:52.000Z</time>
      </trkpt>
      <trkpt lat="43.56753" lon="5.54917">
        <ele>500.79998779297</ele>
        <time>2013-03-12T15:42:54.000Z</time>
      </trkpt>
      <trkpt lat="43.5675" lon="5.54912">
        <ele>501</ele>
        <time>2013-03-12T15:42:55.000Z</time>
      </trkpt>
      <trkpt lat="43.56747" lon="5.54907">
        <ele>501</ele>
        <time>2013-03-12T15:42:56.000Z</time>
      </trkpt>
      <trkpt lat="43.56745" lon="5.54901">
        <ele>501</ele>
        <time>2013-03-12T15:42:57.000Z</time>
      </trkpt>
      <trkpt lat="43.56743" lon="5.54895">
        <ele>501.20001220703</ele>
        <time>2013-03-12T15:42:58.000Z</time>
      </trkpt>
      <trkpt lat="43.56734" lon="5.54872">
        <ele>501.39999389648</ele>
        <time>2013-03-12T15:43:02.000Z</time>
      </trkpt>
      <trkpt lat="43.56728" lon="5.54854">
        <ele>501.39999389648</ele>
        <time>2013-03-12T15:43:05.000Z</time>
      </trkpt>
      <trkpt lat="43.56724" lon="5.54835">
        <ele>501.60000610352</ele>
        <time>2013-03-12T15:43:08.000Z</time>
      </trkpt>
      <trkpt lat="43.56724" lon="5.54829">
        <ele>501.60000610352</ele>
        <time>2013-03-12T15:43:09.000Z</time>
      </trkpt>
      <trkpt lat="43.56725" lon="5.54794">
        <ele>501.60000610352</ele>
        <time>2013-03-12T15:43:14.000Z</time>
      </trkpt>
      <trkpt lat="43.56725" lon="5.54786">
        <ele>501.60000610352</ele>
        <time>2013-03-12T15:43:15.000Z</time>
      </trkpt>
      <trkpt lat="43.56723" lon="5.54695">
        <ele>500.39999389648</ele>
        <time>2013-03-12T15:43:26.000Z</time>
      </trkpt>
      <trkpt lat="43.56725" lon="5.54671">
        <ele>500.20001220703</ele>
        <time>2013-03-12T15:43:29.000Z</time>
      </trkpt>
      <trkpt lat="43.56728" lon="5.54645">
        <ele>499.60000610352</ele>
        <time>2013-03-12T15:43:32.000Z</time>
      </trkpt>
      <trkpt lat="43.56737" lon="5.54575">
        <ele>497.79998779297</ele>
        <time>2013-03-12T15:43:39.000Z</time>
      </trkpt>
      <trkpt lat="43.56745" lon="5.54532">
        <ele>497.39999389648</ele>
        <time>2013-03-12T15:43:43.000Z</time>
      </trkpt>
      <trkpt lat="43.56754" lon="5.5445">
        <ele>497.79998779297</ele>
        <time>2013-03-12T15:43:51.000Z</time>
      </trkpt>
      <trkpt lat="43.56757" lon="5.54441">
        <ele>498.20001220703</ele>
        <time>2013-03-12T15:43:52.000Z</time>
      </trkpt>
      <trkpt lat="43.56761" lon="5.54433">
        <ele>498.39999389648</ele>
        <time>2013-03-12T15:43:53.000Z</time>
      </trkpt>
      <trkpt lat="43.56764" lon="5.54426">
        <ele>498.79998779297</ele>
        <time>2013-03-12T15:43:54.000Z</time>
      </trkpt>
      <trkpt lat="43.56768" lon="5.5442">
        <ele>499</ele>
        <time>2013-03-12T15:43:55.000Z</time>
      </trkpt>
      <trkpt lat="43.56775" lon="5.54407">
        <ele>499.20001220703</ele>
        <time>2013-03-12T15:43:57.000Z</time>
      </trkpt>
      <trkpt lat="43.56778" lon="5.54401">
        <ele>499.39999389648</ele>
        <time>2013-03-12T15:43:58.000Z</time>
      </trkpt>
      <trkpt lat="43.56782" lon="5.54396">
        <ele>499.39999389648</ele>
        <time>2013-03-12T15:43:59.000Z</time>
      </trkpt>
      <trkpt lat="43.56786" lon="5.54392">
        <ele>499.79998779297</ele>
        <time>2013-03-12T15:44:00.000Z</time>
      </trkpt>
      <trkpt lat="43.5679" lon="5.54389">
        <ele>500</ele>
        <time>2013-03-12T15:44:01.000Z</time>
      </trkpt>
      <trkpt lat="43.56794" lon="5.54387">
        <ele>500.20001220703</ele>
        <time>2013-03-12T15:44:02.000Z</time>
      </trkpt>
      <trkpt lat="43.56798" lon="5.54385">
        <ele>500.39999389648</ele>
        <time>2013-03-12T15:44:03.000Z</time>
      </trkpt>
      <trkpt lat="43.56801" lon="5.54384">
        <ele>500.60000610352</ele>
        <time>2013-03-12T15:44:04.000Z</time>
      </trkpt>
      <trkpt lat="43.56824" lon="5.54374">
        <ele>502.20001220703</ele>
        <time>2013-03-12T15:44:14.000Z</time>
      </trkpt>
      <trkpt lat="43.56848" lon="5.54365">
        <ele>503.79998779297</ele>
        <time>2013-03-12T15:44:26.000Z</time>
      </trkpt>
      <trkpt lat="43.56872" lon="5.5436">
        <ele>505.39999389648</ele>
        <time>2013-03-12T15:44:35.000Z</time>
      </trkpt>
      <trkpt lat="43.56893" lon="5.54363">
        <ele>506.79998779297</ele>
        <time>2013-03-12T15:44:43.000Z</time>
      </trkpt>
      <trkpt lat="43.56922" lon="5.54357">
        <ele>508</ele>
        <time>2013-03-12T15:44:53.000Z</time>
      </trkpt>
      <trkpt lat="43.56961" lon="5.54342">
        <ele>507.79998779297</ele>
        <time>2013-03-12T15:45:05.000Z</time>
      </trkpt>
      <trkpt lat="43.56984" lon="5.54333">
        <ele>507.79998779297</ele>
        <time>2013-03-12T15:45:11.000Z</time>
      </trkpt>
      <trkpt lat="43.56987" lon="5.5433">
        <ele>507.79998779297</ele>
        <time>2013-03-12T15:45:12.000Z</time>
      </trkpt>
      <trkpt lat="43.57001" lon="5.54316">
        <ele>507.60000610352</ele>
        <time>2013-03-12T15:45:16.000Z</time>
      </trkpt>
      <trkpt lat="43.57003" lon="5.54311">
        <ele>507.39999389648</ele>
        <time>2013-03-12T15:45:17.000Z</time>
      </trkpt>
      <trkpt lat="43.57006" lon="5.54306">
        <ele>507</ele>
        <time>2013-03-12T15:45:18.000Z</time>
      </trkpt>
      <trkpt lat="43.5701" lon="5.54302">
        <ele>506.79998779297</ele>
        <time>2013-03-12T15:45:19.000Z</time>
      </trkpt>
      <trkpt lat="43.57012" lon="5.54297">
        <ele>506.60000610352</ele>
        <time>2013-03-12T15:45:20.000Z</time>
      </trkpt>
      <trkpt lat="43.57015" lon="5.54292">
        <ele>506.39999389648</ele>
        <time>2013-03-12T15:45:21.000Z</time>
      </trkpt>
      <trkpt lat="43.57017" lon="5.54286">
        <ele>506.20001220703</ele>
        <time>2013-03-12T15:45:22.000Z</time>
      </trkpt>
      <trkpt lat="43.57019" lon="5.54281">
        <ele>506</ele>
        <time>2013-03-12T15:45:23.000Z</time>
      </trkpt>
      <trkpt lat="43.57022" lon="5.54275">
        <ele>506</ele>
        <time>2013-03-12T15:45:24.000Z</time>
      </trkpt>
      <trkpt lat="43.57032" lon="5.54248">
        <ele>505.79998779297</ele>
        <time>2013-03-12T15:45:29.000Z</time>
      </trkpt>
      <trkpt lat="43.57035" lon="5.54244">
        <ele>505.60000610352</ele>
        <time>2013-03-12T15:45:30.000Z</time>
      </trkpt>
      <trkpt lat="43.57048" lon="5.54213">
        <ele>505.79998779297</ele>
        <time>2013-03-12T15:45:36.000Z</time>
      </trkpt>
      <trkpt lat="43.5705" lon="5.54207">
        <ele>506</ele>
        <time>2013-03-12T15:45:37.000Z</time>
      </trkpt>
      <trkpt lat="43.57056" lon="5.54161">
        <ele>506.60000610352</ele>
        <time>2013-03-12T15:45:44.000Z</time>
      </trkpt>
      <trkpt lat="43.57065" lon="5.54069">
        <ele>502.39999389648</ele>
        <time>2013-03-12T15:45:56.000Z</time>
      </trkpt>
      <trkpt lat="43.57077" lon="5.53974">
        <ele>498.39999389648</ele>
        <time>2013-03-12T15:46:06.000Z</time>
      </trkpt>
      <trkpt lat="43.57086" lon="5.53938">
        <ele>497.79998779297</ele>
        <time>2013-03-12T15:46:10.000Z</time>
      </trkpt>
      <trkpt lat="43.57089" lon="5.5393">
        <ele>497.60000610352</ele>
        <time>2013-03-12T15:46:11.000Z</time>
      </trkpt>
      <trkpt lat="43.57092" lon="5.53921">
        <ele>497</ele>
        <time>2013-03-12T15:46:12.000Z</time>
      </trkpt>
      <trkpt lat="43.571" lon="5.53905">
        <ele>496.39999389648</ele>
        <time>2013-03-12T15:46:14.000Z</time>
      </trkpt>
      <trkpt lat="43.57104" lon="5.53898">
        <ele>496.20001220703</ele>
        <time>2013-03-12T15:46:15.000Z</time>
      </trkpt>
      <trkpt lat="43.57145" lon="5.53812">
        <ele>494.60000610352</ele>
        <time>2013-03-12T15:46:26.000Z</time>
      </trkpt>
      <trkpt lat="43.57191" lon="5.53714">
        <ele>491.79998779297</ele>
        <time>2013-03-12T15:46:39.000Z</time>
      </trkpt>
      <trkpt lat="43.57202" lon="5.53683">
        <ele>491.39999389648</ele>
        <time>2013-03-12T15:46:43.000Z</time>
      </trkpt>
      <trkpt lat="43.57206" lon="5.53675">
        <ele>491.39999389648</ele>
        <time>2013-03-12T15:46:44.000Z</time>
      </trkpt>
      <trkpt lat="43.57223" lon="5.53649">
        <ele>490.39999389648</ele>
        <time>2013-03-12T15:46:48.000Z</time>
      </trkpt>
      <trkpt lat="43.57228" lon="5.53643">
        <ele>490.20001220703</ele>
        <time>2013-03-12T15:46:49.000Z</time>
      </trkpt>
      <trkpt lat="43.57232" lon="5.53637">
        <ele>490</ele>
        <time>2013-03-12T15:46:50.000Z</time>
      </trkpt>
      <trkpt lat="43.57237" lon="5.5363">
        <ele>489.79998779297</ele>
        <time>2013-03-12T15:46:51.000Z</time>
      </trkpt>
      <trkpt lat="43.57241" lon="5.53622">
        <ele>489.60000610352</ele>
        <time>2013-03-12T15:46:52.000Z</time>
      </trkpt>
      <trkpt lat="43.57246" lon="5.53614">
        <ele>489.39999389648</ele>
        <time>2013-03-12T15:46:53.000Z</time>
      </trkpt>
      <trkpt lat="43.5725" lon="5.53604">
        <ele>489.20001220703</ele>
        <time>2013-03-12T15:46:54.000Z</time>
      </trkpt>
      <trkpt lat="43.57253" lon="5.53593">
        <ele>488.39999389648</ele>
        <time>2013-03-12T15:46:55.000Z</time>
      </trkpt>
      <trkpt lat="43.57258" lon="5.53583">
        <ele>487.60000610352</ele>
        <time>2013-03-12T15:46:56.000Z</time>
      </trkpt>
      <trkpt lat="43.57263" lon="5.53573">
        <ele>486.39999389648</ele>
        <time>2013-03-12T15:46:57.000Z</time>
      </trkpt>
      <trkpt lat="43.57268" lon="5.53563">
        <ele>485.20001220703</ele>
        <time>2013-03-12T15:46:58.000Z</time>
      </trkpt>
      <trkpt lat="43.57274" lon="5.53554">
        <ele>484.20001220703</ele>
        <time>2013-03-12T15:46:59.000Z</time>
      </trkpt>
      <trkpt lat="43.57296" lon="5.53514">
        <ele>481.60000610352</ele>
        <time>2013-03-12T15:47:03.000Z</time>
      </trkpt>
      <trkpt lat="43.57344" lon="5.5342">
        <ele>478.79998779297</ele>
        <time>2013-03-12T15:47:13.000Z</time>
      </trkpt>
      <trkpt lat="43.57357" lon="5.53396">
        <ele>478.60000610352</ele>
        <time>2013-03-12T15:47:16.000Z</time>
      </trkpt>
      <trkpt lat="43.5736" lon="5.53387">
        <ele>478.60000610352</ele>
        <time>2013-03-12T15:47:17.000Z</time>
      </trkpt>
      <trkpt lat="43.57388" lon="5.53282">
        <ele>478</ele>
        <time>2013-03-12T15:47:28.000Z</time>
      </trkpt>
      <trkpt lat="43.57388" lon="5.53271">
        <ele>477.60000610352</ele>
        <time>2013-03-12T15:47:29.000Z</time>
      </trkpt>
      <trkpt lat="43.57385" lon="5.53228">
        <ele>477</ele>
        <time>2013-03-12T15:47:33.000Z</time>
      </trkpt>
      <trkpt lat="43.57378" lon="5.53144">
        <ele>477.20001220703</ele>
        <time>2013-03-12T15:47:41.000Z</time>
      </trkpt>
      <trkpt lat="43.57375" lon="5.53069">
        <ele>476.60000610352</ele>
        <time>2013-03-12T15:47:48.000Z</time>
      </trkpt>
      <trkpt lat="43.57374" lon="5.53035">
        <ele>475</ele>
        <time>2013-03-12T15:47:51.000Z</time>
      </trkpt>
      <trkpt lat="43.57375" lon="5.53012">
        <ele>474</ele>
        <time>2013-03-12T15:47:53.000Z</time>
      </trkpt>
      <trkpt lat="43.57371" lon="5.52912">
        <ele>467.39999389648</ele>
        <time>2013-03-12T15:48:01.000Z</time>
      </trkpt>
      <trkpt lat="43.57374" lon="5.52875">
        <ele>465.20001220703</ele>
        <time>2013-03-12T15:48:04.000Z</time>
      </trkpt>
      <trkpt lat="43.57374" lon="5.52823">
        <ele>462</ele>
        <time>2013-03-12T15:48:08.000Z</time>
      </trkpt>
      <trkpt lat="43.57388" lon="5.52724">
        <ele>460</ele>
        <time>2013-03-12T15:48:16.000Z</time>
      </trkpt>
      <trkpt lat="43.57399" lon="5.52618">
        <ele>460.79998779297</ele>
        <time>2013-03-12T15:48:26.000Z</time>
      </trkpt>
      <trkpt lat="43.57409" lon="5.52521">
        <ele>459.60000610352</ele>
        <time>2013-03-12T15:48:35.000Z</time>
      </trkpt>
      <trkpt lat="43.5742" lon="5.52429">
        <ele>462.20001220703</ele>
        <time>2013-03-12T15:48:45.000Z</time>
      </trkpt>
      <trkpt lat="43.57424" lon="5.52397">
        <ele>461.60000610352</ele>
        <time>2013-03-12T15:48:49.000Z</time>
      </trkpt>
      <trkpt lat="43.5743" lon="5.52365">
        <ele>460.39999389648</ele>
        <time>2013-03-12T15:48:53.000Z</time>
      </trkpt>
      <trkpt lat="43.57433" lon="5.52358">
        <ele>460.20001220703</ele>
        <time>2013-03-12T15:48:54.000Z</time>
      </trkpt>
      <trkpt lat="43.57435" lon="5.52351">
        <ele>460.20001220703</ele>
        <time>2013-03-12T15:48:55.000Z</time>
      </trkpt>
      <trkpt lat="43.57439" lon="5.52344">
        <ele>460.20001220703</ele>
        <time>2013-03-12T15:48:56.000Z</time>
      </trkpt>
      <trkpt lat="43.57442" lon="5.52339">
        <ele>460.20001220703</ele>
        <time>2013-03-12T15:48:57.000Z</time>
      </trkpt>
      <trkpt lat="43.57446" lon="5.52333">
        <ele>460.39999389648</ele>
        <time>2013-03-12T15:48:58.000Z</time>
      </trkpt>
      <trkpt lat="43.57457" lon="5.52313">
        <ele>460</ele>
        <time>2013-03-12T15:49:01.000Z</time>
      </trkpt>
      <trkpt lat="43.57462" lon="5.52299">
        <ele>460</ele>
        <time>2013-03-12T15:49:03.000Z</time>
      </trkpt>
      <trkpt lat="43.57464" lon="5.52291">
        <ele>460</ele>
        <time>2013-03-12T15:49:04.000Z</time>
      </trkpt>
      <trkpt lat="43.57469" lon="5.5226">
        <ele>460</ele>
        <time>2013-03-12T15:49:08.000Z</time>
      </trkpt>
      <trkpt lat="43.57472" lon="5.52171">
        <ele>458.20001220703</ele>
        <time>2013-03-12T15:49:19.000Z</time>
      </trkpt>
      <trkpt lat="43.5747" lon="5.52154">
        <ele>457.79998779297</ele>
        <time>2013-03-12T15:49:21.000Z</time>
      </trkpt>
      <trkpt lat="43.5747" lon="5.52145">
        <ele>457.79998779297</ele>
        <time>2013-03-12T15:49:22.000Z</time>
      </trkpt>
      <trkpt lat="43.57472" lon="5.52135">
        <ele>457.79998779297</ele>
        <time>2013-03-12T15:49:23.000Z</time>
      </trkpt>
      <trkpt lat="43.57475" lon="5.52126">
        <ele>457.79998779297</ele>
        <time>2013-03-12T15:49:24.000Z</time>
      </trkpt>
      <trkpt lat="43.57494" lon="5.52072">
        <ele>458.39999389648</ele>
        <time>2013-03-12T15:49:30.000Z</time>
      </trkpt>
      <trkpt lat="43.57495" lon="5.52062">
        <ele>458.39999389648</ele>
        <time>2013-03-12T15:49:31.000Z</time>
      </trkpt>
      <trkpt lat="43.57494" lon="5.52029">
        <ele>458</ele>
        <time>2013-03-12T15:49:34.000Z</time>
      </trkpt>
      <trkpt lat="43.57495" lon="5.52007">
        <ele>457.79998779297</ele>
        <time>2013-03-12T15:49:36.000Z</time>
      </trkpt>
      <trkpt lat="43.57497" lon="5.51997">
        <ele>457.79998779297</ele>
        <time>2013-03-12T15:49:37.000Z</time>
      </trkpt>
      <trkpt lat="43.57501" lon="5.51989">
        <ele>457.39999389648</ele>
        <time>2013-03-12T15:49:38.000Z</time>
      </trkpt>
      <trkpt lat="43.57506" lon="5.5198">
        <ele>456.79998779297</ele>
        <time>2013-03-12T15:49:39.000Z</time>
      </trkpt>
      <trkpt lat="43.57512" lon="5.51973">
        <ele>456</ele>
        <time>2013-03-12T15:49:40.000Z</time>
      </trkpt>
      <trkpt lat="43.57518" lon="5.51965">
        <ele>455.39999389648</ele>
        <time>2013-03-12T15:49:41.000Z</time>
      </trkpt>
      <trkpt lat="43.57523" lon="5.51957">
        <ele>454.79998779297</ele>
        <time>2013-03-12T15:49:42.000Z</time>
      </trkpt>
      <trkpt lat="43.57529" lon="5.51948">
        <ele>454.20001220703</ele>
        <time>2013-03-12T15:49:43.000Z</time>
      </trkpt>
      <trkpt lat="43.57535" lon="5.5194">
        <ele>453.79998779297</ele>
        <time>2013-03-12T15:49:44.000Z</time>
      </trkpt>
      <trkpt lat="43.57542" lon="5.51934">
        <ele>453.20001220703</ele>
        <time>2013-03-12T15:49:45.000Z</time>
      </trkpt>
      <trkpt lat="43.57549" lon="5.51927">
        <ele>452.79998779297</ele>
        <time>2013-03-12T15:49:46.000Z</time>
      </trkpt>
      <trkpt lat="43.57554" lon="5.5192">
        <ele>452.39999389648</ele>
        <time>2013-03-12T15:49:47.000Z</time>
      </trkpt>
      <trkpt lat="43.57559" lon="5.51912">
        <ele>451.79998779297</ele>
        <time>2013-03-12T15:49:48.000Z</time>
      </trkpt>
      <trkpt lat="43.57565" lon="5.51905">
        <ele>451</ele>
        <time>2013-03-12T15:49:49.000Z</time>
      </trkpt>
      <trkpt lat="43.57571" lon="5.51899">
        <ele>450.39999389648</ele>
        <time>2013-03-12T15:49:50.000Z</time>
      </trkpt>
      <trkpt lat="43.57579" lon="5.51895">
        <ele>449.79998779297</ele>
        <time>2013-03-12T15:49:51.000Z</time>
      </trkpt>
      <trkpt lat="43.57587" lon="5.51891">
        <ele>449.20001220703</ele>
        <time>2013-03-12T15:49:52.000Z</time>
      </trkpt>
      <trkpt lat="43.57593" lon="5.51886">
        <ele>448.60000610352</ele>
        <time>2013-03-12T15:49:53.000Z</time>
      </trkpt>
      <trkpt lat="43.57599" lon="5.51878">
        <ele>448</ele>
        <time>2013-03-12T15:49:54.000Z</time>
      </trkpt>
      <trkpt lat="43.57602" lon="5.51869">
        <ele>447.39999389648</ele>
        <time>2013-03-12T15:49:55.000Z</time>
      </trkpt>
      <trkpt lat="43.57602" lon="5.51857">
        <ele>446.79998779297</ele>
        <time>2013-03-12T15:49:56.000Z</time>
      </trkpt>
      <trkpt lat="43.576" lon="5.51847">
        <ele>446.39999389648</ele>
        <time>2013-03-12T15:49:57.000Z</time>
      </trkpt>
      <trkpt lat="43.57602" lon="5.51839">
        <ele>446</ele>
        <time>2013-03-12T15:49:58.000Z</time>
      </trkpt>
      <trkpt lat="43.57606" lon="5.51833">
        <ele>445.60000610352</ele>
        <time>2013-03-12T15:49:59.000Z</time>
      </trkpt>
      <trkpt lat="43.57612" lon="5.51827">
        <ele>445</ele>
        <time>2013-03-12T15:50:00.000Z</time>
      </trkpt>
      <trkpt lat="43.57618" lon="5.5182">
        <ele>444.39999389648</ele>
        <time>2013-03-12T15:50:01.000Z</time>
      </trkpt>
      <trkpt lat="43.57625" lon="5.51814">
        <ele>443.79998779297</ele>
        <time>2013-03-12T15:50:02.000Z</time>
      </trkpt>
      <trkpt lat="43.57632" lon="5.51807">
        <ele>443.20001220703</ele>
        <time>2013-03-12T15:50:03.000Z</time>
      </trkpt>
      <trkpt lat="43.57637" lon="5.51799">
        <ele>442.39999389648</ele>
        <time>2013-03-12T15:50:04.000Z</time>
      </trkpt>
      <trkpt lat="43.57638" lon="5.51788">
        <ele>441.39999389648</ele>
        <time>2013-03-12T15:50:05.000Z</time>
      </trkpt>
      <trkpt lat="43.57637" lon="5.51776">
        <ele>440.39999389648</ele>
        <time>2013-03-12T15:50:06.000Z</time>
      </trkpt>
      <trkpt lat="43.57636" lon="5.51764">
        <ele>439.39999389648</ele>
        <time>2013-03-12T15:50:07.000Z</time>
      </trkpt>
      <trkpt lat="43.57634" lon="5.51752">
        <ele>438.39999389648</ele>
        <time>2013-03-12T15:50:08.000Z</time>
      </trkpt>
      <trkpt lat="43.57631" lon="5.51739">
        <ele>437.39999389648</ele>
        <time>2013-03-12T15:50:09.000Z</time>
      </trkpt>
      <trkpt lat="43.57629" lon="5.51725">
        <ele>436.20001220703</ele>
        <time>2013-03-12T15:50:10.000Z</time>
      </trkpt>
      <trkpt lat="43.57628" lon="5.51711">
        <ele>435</ele>
        <time>2013-03-12T15:50:11.000Z</time>
      </trkpt>
      <trkpt lat="43.57627" lon="5.51698">
        <ele>434</ele>
        <time>2013-03-12T15:50:12.000Z</time>
      </trkpt>
      <trkpt lat="43.57626" lon="5.51685">
        <ele>432.79998779297</ele>
        <time>2013-03-12T15:50:13.000Z</time>
      </trkpt>
      <trkpt lat="43.57628" lon="5.51672">
        <ele>431.79998779297</ele>
        <time>2013-03-12T15:50:14.000Z</time>
      </trkpt>
      <trkpt lat="43.5763" lon="5.5166">
        <ele>430.60000610352</ele>
        <time>2013-03-12T15:50:15.000Z</time>
      </trkpt>
      <trkpt lat="43.57634" lon="5.51649">
        <ele>429.60000610352</ele>
        <time>2013-03-12T15:50:16.000Z</time>
      </trkpt>
      <trkpt lat="43.57638" lon="5.51637">
        <ele>428.60000610352</ele>
        <time>2013-03-12T15:50:17.000Z</time>
      </trkpt>
      <trkpt lat="43.57655" lon="5.51592">
        <ele>424.79998779297</ele>
        <time>2013-03-12T15:50:21.000Z</time>
      </trkpt>
      <trkpt lat="43.57659" lon="5.51582">
        <ele>424</ele>
        <time>2013-03-12T15:50:22.000Z</time>
      </trkpt>
      <trkpt lat="43.57662" lon="5.5157">
        <ele>423</ele>
        <time>2013-03-12T15:50:23.000Z</time>
      </trkpt>
      <trkpt lat="43.57671" lon="5.51521">
        <ele>419.39999389648</ele>
        <time>2013-03-12T15:50:27.000Z</time>
      </trkpt>
      <trkpt lat="43.57673" lon="5.5151">
        <ele>418.60000610352</ele>
        <time>2013-03-12T15:50:28.000Z</time>
      </trkpt>
      <trkpt lat="43.57677" lon="5.515">
        <ele>417.79998779297</ele>
        <time>2013-03-12T15:50:29.000Z</time>
      </trkpt>
      <trkpt lat="43.57681" lon="5.51492">
        <ele>417.60000610352</ele>
        <time>2013-03-12T15:50:30.000Z</time>
      </trkpt>
      <trkpt lat="43.57691" lon="5.51473">
        <ele>416.60000610352</ele>
        <time>2013-03-12T15:50:32.000Z</time>
      </trkpt>
      <trkpt lat="43.57697" lon="5.51465">
        <ele>416</ele>
        <time>2013-03-12T15:50:33.000Z</time>
      </trkpt>
      <trkpt lat="43.57703" lon="5.51458">
        <ele>415.39999389648</ele>
        <time>2013-03-12T15:50:34.000Z</time>
      </trkpt>
      <trkpt lat="43.5771" lon="5.5145">
        <ele>414.60000610352</ele>
        <time>2013-03-12T15:50:35.000Z</time>
      </trkpt>
      <trkpt lat="43.57724" lon="5.51435">
        <ele>412.60000610352</ele>
        <time>2013-03-12T15:50:37.000Z</time>
      </trkpt>
      <trkpt lat="43.5773" lon="5.51426">
        <ele>411.60000610352</ele>
        <time>2013-03-12T15:50:38.000Z</time>
      </trkpt>
      <trkpt lat="43.57735" lon="5.51416">
        <ele>410.20001220703</ele>
        <time>2013-03-12T15:50:39.000Z</time>
      </trkpt>
      <trkpt lat="43.5774" lon="5.51404">
        <ele>409</ele>
        <time>2013-03-12T15:50:40.000Z</time>
      </trkpt>
      <trkpt lat="43.57743" lon="5.51393">
        <ele>408.20001220703</ele>
        <time>2013-03-12T15:50:41.000Z</time>
      </trkpt>
      <trkpt lat="43.57744" lon="5.51383">
        <ele>407.39999389648</ele>
        <time>2013-03-12T15:50:42.000Z</time>
      </trkpt>
      <trkpt lat="43.57746" lon="5.51378">
        <ele>406.79998779297</ele>
        <time>2013-03-12T15:50:43.000Z</time>
      </trkpt>
      <trkpt lat="43.57751" lon="5.51376">
        <ele>406.39999389648</ele>
        <time>2013-03-12T15:50:44.000Z</time>
      </trkpt>
      <trkpt lat="43.57756" lon="5.51376">
        <ele>405.60000610352</ele>
        <time>2013-03-12T15:50:45.000Z</time>
      </trkpt>
      <trkpt lat="43.57763" lon="5.51372">
        <ele>404.60000610352</ele>
        <time>2013-03-12T15:50:46.000Z</time>
      </trkpt>
      <trkpt lat="43.57768" lon="5.51366">
        <ele>403.39999389648</ele>
        <time>2013-03-12T15:50:47.000Z</time>
      </trkpt>
      <trkpt lat="43.57771" lon="5.51358">
        <ele>402.39999389648</ele>
        <time>2013-03-12T15:50:48.000Z</time>
      </trkpt>
      <trkpt lat="43.57775" lon="5.51351">
        <ele>401.39999389648</ele>
        <time>2013-03-12T15:50:49.000Z</time>
      </trkpt>
      <trkpt lat="43.57779" lon="5.51343">
        <ele>400.20001220703</ele>
        <time>2013-03-12T15:50:50.000Z</time>
      </trkpt>
      <trkpt lat="43.57782" lon="5.51334">
        <ele>399</ele>
        <time>2013-03-12T15:50:51.000Z</time>
      </trkpt>
      <trkpt lat="43.57785" lon="5.51325">
        <ele>397.79998779297</ele>
        <time>2013-03-12T15:50:52.000Z</time>
      </trkpt>
      <trkpt lat="43.57791" lon="5.51306">
        <ele>395.79998779297</ele>
        <time>2013-03-12T15:50:54.000Z</time>
      </trkpt>
      <trkpt lat="43.57794" lon="5.51295">
        <ele>395</ele>
        <time>2013-03-12T15:50:55.000Z</time>
      </trkpt>
      <trkpt lat="43.57797" lon="5.51285">
        <ele>394</ele>
        <time>2013-03-12T15:50:56.000Z</time>
      </trkpt>
      <trkpt lat="43.57806" lon="5.51259">
        <ele>392</ele>
        <time>2013-03-12T15:50:59.000Z</time>
      </trkpt>
      <trkpt lat="43.57808" lon="5.51255">
        <ele>391.60000610352</ele>
        <time>2013-03-12T15:51:00.000Z</time>
      </trkpt>
      <trkpt lat="43.5781" lon="5.51253">
        <ele>391.39999389648</ele>
        <time>2013-03-12T15:51:01.000Z</time>
      </trkpt>
      <trkpt lat="43.57811" lon="5.51254">
        <ele>391.39999389648</ele>
        <time>2013-03-12T15:51:02.000Z</time>
      </trkpt>
      <trkpt lat="43.57811" lon="5.51257">
        <ele>391.39999389648</ele>
        <time>2013-03-12T15:51:03.000Z</time>
      </trkpt>
      <trkpt lat="43.57811" lon="5.5126">
        <ele>391.60000610352</ele>
        <time>2013-03-12T15:51:04.000Z</time>
      </trkpt>
      <trkpt lat="43.57811" lon="5.51262">
        <ele>391.60000610352</ele>
        <time>2013-03-12T15:51:05.000Z</time>
      </trkpt>
      <trkpt lat="43.57811" lon="5.51265">
        <ele>391.79998779297</ele>
        <time>2013-03-12T15:51:06.000Z</time>
      </trkpt>
      <trkpt lat="43.57811" lon="5.51268">
        <ele>391.79998779297</ele>
        <time>2013-03-12T15:51:07.000Z</time>
      </trkpt>
      <trkpt lat="43.57812" lon="5.51268">
        <ele>391.79998779297</ele>
        <time>2013-03-12T15:51:08.000Z</time>
      </trkpt>
      <trkpt lat="43.57813" lon="5.51266">
        <ele>391.60000610352</ele>
        <time>2013-03-12T15:51:09.000Z</time>
      </trkpt>
      <trkpt lat="43.57814" lon="5.51263">
        <ele>391.39999389648</ele>
        <time>2013-03-12T15:51:10.000Z</time>
      </trkpt>
      <trkpt lat="43.57815" lon="5.51259">
        <ele>391.20001220703</ele>
        <time>2013-03-12T15:51:11.000Z</time>
      </trkpt>
      <trkpt lat="43.57823" lon="5.51244">
        <ele>390.79998779297</ele>
        <time>2013-03-12T15:51:16.000Z</time>
      </trkpt>
      <trkpt lat="43.57834" lon="5.51221">
        <ele>391.60000610352</ele>
        <time>2013-03-12T15:51:25.000Z</time>
      </trkpt>
      <trkpt lat="43.57845" lon="5.51183">
        <ele>393.20001220703</ele>
        <time>2013-03-12T15:51:36.000Z</time>
      </trkpt>
      <trkpt lat="43.57855" lon="5.51158">
        <ele>393.60000610352</ele>
        <time>2013-03-12T15:51:43.000Z</time>
      </trkpt>
      <trkpt lat="43.57856" lon="5.51154">
        <ele>393.60000610352</ele>
        <time>2013-03-12T15:51:44.000Z</time>
      </trkpt>
      <trkpt lat="43.57858" lon="5.51149">
        <ele>393.79998779297</ele>
        <time>2013-03-12T15:51:45.000Z</time>
      </trkpt>
      <trkpt lat="43.57877" lon="5.51109">
        <ele>395.39999389648</ele>
        <time>2013-03-12T15:51:57.000Z</time>
      </trkpt>
      <trkpt lat="43.57902" lon="5.51077">
        <ele>397.79998779297</ele>
        <time>2013-03-12T15:52:07.000Z</time>
      </trkpt>
      <trkpt lat="43.57929" lon="5.51055">
        <ele>395.60000610352</ele>
        <time>2013-03-12T15:52:16.000Z</time>
      </trkpt>
      <trkpt lat="43.5794" lon="5.51045">
        <ele>393.79998779297</ele>
        <time>2013-03-12T15:52:19.000Z</time>
      </trkpt>
      <trkpt lat="43.57949" lon="5.51038">
        <ele>392.39999389648</ele>
        <time>2013-03-12T15:52:21.000Z</time>
      </trkpt>
      <trkpt lat="43.57954" lon="5.51033">
        <ele>391.79998779297</ele>
        <time>2013-03-12T15:52:22.000Z</time>
      </trkpt>
      <trkpt lat="43.57971" lon="5.51013">
        <ele>390</ele>
        <time>2013-03-12T15:52:25.000Z</time>
      </trkpt>
      <trkpt lat="43.57994" lon="5.50993">
        <ele>388</ele>
        <time>2013-03-12T15:52:28.000Z</time>
      </trkpt>
      <trkpt lat="43.58021" lon="5.50973">
        <ele>384.20001220703</ele>
        <time>2013-03-12T15:52:31.000Z</time>
      </trkpt>
      <trkpt lat="43.58048" lon="5.50961">
        <ele>381</ele>
        <time>2013-03-12T15:52:34.000Z</time>
      </trkpt>
      <trkpt lat="43.58055" lon="5.50954">
        <ele>380.39999389648</ele>
        <time>2013-03-12T15:52:35.000Z</time>
      </trkpt>
      <trkpt lat="43.5806" lon="5.50944">
        <ele>380</ele>
        <time>2013-03-12T15:52:36.000Z</time>
      </trkpt>
      <trkpt lat="43.58063" lon="5.50933">
        <ele>379.79998779297</ele>
        <time>2013-03-12T15:52:37.000Z</time>
      </trkpt>
      <trkpt lat="43.58066" lon="5.50922">
        <ele>379.79998779297</ele>
        <time>2013-03-12T15:52:38.000Z</time>
      </trkpt>
      <trkpt lat="43.58082" lon="5.50868">
        <ele>376</ele>
        <time>2013-03-12T15:52:43.000Z</time>
      </trkpt>
      <trkpt lat="43.58097" lon="5.5082">
        <ele>372.60000610352</ele>
        <time>2013-03-12T15:52:47.000Z</time>
      </trkpt>
      <trkpt lat="43.58119" lon="5.5076">
        <ele>368.20001220703</ele>
        <time>2013-03-12T15:52:52.000Z</time>
      </trkpt>
      <trkpt lat="43.58147" lon="5.50697">
        <ele>364.39999389648</ele>
        <time>2013-03-12T15:52:58.000Z</time>
      </trkpt>
      <trkpt lat="43.5819" lon="5.50615">
        <ele>360.60000610352</ele>
        <time>2013-03-12T15:53:08.000Z</time>
      </trkpt>
      <trkpt lat="43.58195" lon="5.5061">
        <ele>360.60000610352</ele>
        <time>2013-03-12T15:53:09.000Z</time>
      </trkpt>
      <trkpt lat="43.5824" lon="5.50552">
        <ele>360.60000610352</ele>
        <time>2013-03-12T15:53:19.000Z</time>
      </trkpt>
      <trkpt lat="43.58254" lon="5.50536">
        <ele>360.39999389648</ele>
        <time>2013-03-12T15:53:22.000Z</time>
      </trkpt>
      <trkpt lat="43.58263" lon="5.50526">
        <ele>359.60000610352</ele>
        <time>2013-03-12T15:53:24.000Z</time>
      </trkpt>
      <trkpt lat="43.58289" lon="5.50501">
        <ele>358.39999389648</ele>
        <time>2013-03-12T15:53:29.000Z</time>
      </trkpt>
      <trkpt lat="43.58295" lon="5.50498">
        <ele>358.20001220703</ele>
        <time>2013-03-12T15:53:30.000Z</time>
      </trkpt>
      <trkpt lat="43.58302" lon="5.50499">
        <ele>358.20001220703</ele>
        <time>2013-03-12T15:53:31.000Z</time>
      </trkpt>
      <trkpt lat="43.58307" lon="5.50505">
        <ele>358.20001220703</ele>
        <time>2013-03-12T15:53:32.000Z</time>
      </trkpt>
      <trkpt lat="43.5831" lon="5.50513">
        <ele>358.20001220703</ele>
        <time>2013-03-12T15:53:33.000Z</time>
      </trkpt>
      <trkpt lat="43.58313" lon="5.50523">
        <ele>358</ele>
        <time>2013-03-12T15:53:34.000Z</time>
      </trkpt>
      <trkpt lat="43.58316" lon="5.50533">
        <ele>357.79998779297</ele>
        <time>2013-03-12T15:53:35.000Z</time>
      </trkpt>
      <trkpt lat="43.58321" lon="5.50554">
        <ele>357.39999389648</ele>
        <time>2013-03-12T15:53:37.000Z</time>
      </trkpt>
      <trkpt lat="43.58325" lon="5.50562">
        <ele>357</ele>
        <time>2013-03-12T15:53:38.000Z</time>
      </trkpt>
      <trkpt lat="43.58329" lon="5.50565">
        <ele>356.60000610352</ele>
        <time>2013-03-12T15:53:39.000Z</time>
      </trkpt>
      <trkpt lat="43.58335" lon="5.50563">
        <ele>356.20001220703</ele>
        <time>2013-03-12T15:53:40.000Z</time>
      </trkpt>
      <trkpt lat="43.58341" lon="5.50559">
        <ele>355.39999389648</ele>
        <time>2013-03-12T15:53:41.000Z</time>
      </trkpt>
      <trkpt lat="43.58369" lon="5.50544">
        <ele>352.20001220703</ele>
        <time>2013-03-12T15:53:45.000Z</time>
      </trkpt>
      <trkpt lat="43.58393" lon="5.50534">
        <ele>349.20001220703</ele>
        <time>2013-03-12T15:53:48.000Z</time>
      </trkpt>
      <trkpt lat="43.5841" lon="5.50526">
        <ele>347.20001220703</ele>
        <time>2013-03-12T15:53:50.000Z</time>
      </trkpt>
      <trkpt lat="43.58437" lon="5.50515">
        <ele>344.60000610352</ele>
        <time>2013-03-12T15:53:53.000Z</time>
      </trkpt>
      <trkpt lat="43.58446" lon="5.50511">
        <ele>343.79998779297</ele>
        <time>2013-03-12T15:53:54.000Z</time>
      </trkpt>
      <trkpt lat="43.58469" lon="5.50498">
        <ele>342</ele>
        <time>2013-03-12T15:53:57.000Z</time>
      </trkpt>
      <trkpt lat="43.58474" lon="5.5049">
        <ele>341.60000610352</ele>
        <time>2013-03-12T15:53:58.000Z</time>
      </trkpt>
      <trkpt lat="43.58477" lon="5.50483">
        <ele>341.39999389648</ele>
        <time>2013-03-12T15:53:59.000Z</time>
      </trkpt>
      <trkpt lat="43.58479" lon="5.50475">
        <ele>341.39999389648</ele>
        <time>2013-03-12T15:54:00.000Z</time>
      </trkpt>
      <trkpt lat="43.58481" lon="5.50469">
        <ele>341.39999389648</ele>
        <time>2013-03-12T15:54:01.000Z</time>
      </trkpt>
      <trkpt lat="43.58481" lon="5.50463">
        <ele>341.39999389648</ele>
        <time>2013-03-12T15:54:02.000Z</time>
      </trkpt>
      <trkpt lat="43.58481" lon="5.50456">
        <ele>341.60000610352</ele>
        <time>2013-03-12T15:54:03.000Z</time>
      </trkpt>
      <trkpt lat="43.5848" lon="5.5045">
        <ele>341.79998779297</ele>
        <time>2013-03-12T15:54:04.000Z</time>
      </trkpt>
      <trkpt lat="43.5848" lon="5.50444">
        <ele>341.79998779297</ele>
        <time>2013-03-12T15:54:05.000Z</time>
      </trkpt>
      <trkpt lat="43.58478" lon="5.50384">
        <ele>341.79998779297</ele>
        <time>2013-03-12T15:54:15.000Z</time>
      </trkpt>
      <trkpt lat="43.58479" lon="5.50378">
        <ele>341.60000610352</ele>
        <time>2013-03-12T15:54:16.000Z</time>
      </trkpt>
      <trkpt lat="43.5848" lon="5.50367">
        <ele>341.39999389648</ele>
        <time>2013-03-12T15:54:18.000Z</time>
      </trkpt>
      <trkpt lat="43.58479" lon="5.50361">
        <ele>341.20001220703</ele>
        <time>2013-03-12T15:54:19.000Z</time>
      </trkpt>
      <trkpt lat="43.58478" lon="5.50355">
        <ele>341.20001220703</ele>
        <time>2013-03-12T15:54:20.000Z</time>
      </trkpt>
      <trkpt lat="43.58477" lon="5.50349">
        <ele>341</ele>
        <time>2013-03-12T15:54:21.000Z</time>
      </trkpt>
      <trkpt lat="43.58473" lon="5.50344">
        <ele>341.20001220703</ele>
        <time>2013-03-12T15:54:22.000Z</time>
      </trkpt>
      <trkpt lat="43.58469" lon="5.5034">
        <ele>341.20001220703</ele>
        <time>2013-03-12T15:54:23.000Z</time>
      </trkpt>
      <trkpt lat="43.58464" lon="5.50338">
        <ele>341.39999389648</ele>
        <time>2013-03-12T15:54:24.000Z</time>
      </trkpt>
      <trkpt lat="43.58459" lon="5.50335">
        <ele>341.39999389648</ele>
        <time>2013-03-12T15:54:25.000Z</time>
      </trkpt>
      <trkpt lat="43.5843" lon="5.50323">
        <ele>342.39999389648</ele>
        <time>2013-03-12T15:54:31.000Z</time>
      </trkpt>
      <trkpt lat="43.58376" lon="5.50286">
        <ele>342.60000610352</ele>
        <time>2013-03-12T15:54:44.000Z</time>
      </trkpt>
      <trkpt lat="43.58346" lon="5.50254">
        <ele>342.79998779297</ele>
        <time>2013-03-12T15:54:55.000Z</time>
      </trkpt>
      <trkpt lat="43.58348" lon="5.50252">
        <ele>342.79998779297</ele>
        <time>2013-03-12T15:54:56.000Z</time>
      </trkpt>
      <trkpt lat="43.5835" lon="5.50251">
        <ele>342.79998779297</ele>
        <time>2013-03-12T15:54:57.000Z</time>
      </trkpt>
      <trkpt lat="43.58382" lon="5.50254">
        <ele>342.79998779297</ele>
        <time>2013-03-12T15:55:07.000Z</time>
      </trkpt>
      <trkpt lat="43.58415" lon="5.50236">
        <ele>343.39999389648</ele>
        <time>2013-03-12T15:55:17.000Z</time>
      </trkpt>
      <trkpt lat="43.58445" lon="5.50219">
        <ele>343.60000610352</ele>
        <time>2013-03-12T15:55:27.000Z</time>
      </trkpt>
      <trkpt lat="43.58457" lon="5.50216">
        <ele>343.60000610352</ele>
        <time>2013-03-12T15:55:30.000Z</time>
      </trkpt>
      <trkpt lat="43.58461" lon="5.50214">
        <ele>343.60000610352</ele>
        <time>2013-03-12T15:55:31.000Z</time>
      </trkpt>
      <trkpt lat="43.58465" lon="5.50211">
        <ele>343.60000610352</ele>
        <time>2013-03-12T15:55:32.000Z</time>
      </trkpt>
      <trkpt lat="43.58469" lon="5.50207">
        <ele>343.79998779297</ele>
        <time>2013-03-12T15:55:33.000Z</time>
      </trkpt>
      <trkpt lat="43.58472" lon="5.50203">
        <ele>344</ele>
        <time>2013-03-12T15:55:34.000Z</time>
      </trkpt>
      <trkpt lat="43.58478" lon="5.50194">
        <ele>344.39999389648</ele>
        <time>2013-03-12T15:55:36.000Z</time>
      </trkpt>
      <trkpt lat="43.58481" lon="5.5019">
        <ele>344.60000610352</ele>
        <time>2013-03-12T15:55:37.000Z</time>
      </trkpt>
      <trkpt lat="43.58483" lon="5.50185">
        <ele>345</ele>
        <time>2013-03-12T15:55:38.000Z</time>
      </trkpt>
      <trkpt lat="43.58514" lon="5.50131">
        <ele>344.39999389648</ele>
        <time>2013-03-12T15:55:49.000Z</time>
      </trkpt>
      <trkpt lat="43.58516" lon="5.50125">
        <ele>344.20001220703</ele>
        <time>2013-03-12T15:55:50.000Z</time>
      </trkpt>
      <trkpt lat="43.58518" lon="5.50117">
        <ele>343.79998779297</ele>
        <time>2013-03-12T15:55:51.000Z</time>
      </trkpt>
      <trkpt lat="43.5852" lon="5.50109">
        <ele>343.60000610352</ele>
        <time>2013-03-12T15:55:52.000Z</time>
      </trkpt>
      <trkpt lat="43.58522" lon="5.50101">
        <ele>343.39999389648</ele>
        <time>2013-03-12T15:55:53.000Z</time>
      </trkpt>
      <trkpt lat="43.58527" lon="5.50052">
        <ele>340.79998779297</ele>
        <time>2013-03-12T15:55:58.000Z</time>
      </trkpt>
      <trkpt lat="43.58529" lon="5.50041">
        <ele>340.20001220703</ele>
        <time>2013-03-12T15:55:59.000Z</time>
      </trkpt>
      <trkpt lat="43.58533" lon="5.50031">
        <ele>339.39999389648</ele>
        <time>2013-03-12T15:56:00.000Z</time>
      </trkpt>
      <trkpt lat="43.58538" lon="5.50022">
        <ele>338.60000610352</ele>
        <time>2013-03-12T15:56:01.000Z</time>
      </trkpt>
      <trkpt lat="43.58546" lon="5.50016">
        <ele>338.20001220703</ele>
        <time>2013-03-12T15:56:02.000Z</time>
      </trkpt>
      <trkpt lat="43.58554" lon="5.50012">
        <ele>337.79998779297</ele>
        <time>2013-03-12T15:56:03.000Z</time>
      </trkpt>
      <trkpt lat="43.58561" lon="5.50008">
        <ele>337.39999389648</ele>
        <time>2013-03-12T15:56:04.000Z</time>
      </trkpt>
      <trkpt lat="43.58576" lon="5.50001">
        <ele>337</ele>
        <time>2013-03-12T15:56:06.000Z</time>
      </trkpt>
      <trkpt lat="43.58584" lon="5.5">
        <ele>337</ele>
        <time>2013-03-12T15:56:07.000Z</time>
      </trkpt>
      <trkpt lat="43.58591" lon="5.49999">
        <ele>337.60000610352</ele>
        <time>2013-03-12T15:56:08.000Z</time>
      </trkpt>
      <trkpt lat="43.58596" lon="5.49995">
        <ele>338</ele>
        <time>2013-03-12T15:56:09.000Z</time>
      </trkpt>
      <trkpt lat="43.586" lon="5.49989">
        <ele>338.20001220703</ele>
        <time>2013-03-12T15:56:10.000Z</time>
      </trkpt>
      <trkpt lat="43.58602" lon="5.49983">
        <ele>338.20001220703</ele>
        <time>2013-03-12T15:56:11.000Z</time>
      </trkpt>
      <trkpt lat="43.58603" lon="5.49976">
        <ele>338</ele>
        <time>2013-03-12T15:56:12.000Z</time>
      </trkpt>
      <trkpt lat="43.58603" lon="5.4997">
        <ele>337.79998779297</ele>
        <time>2013-03-12T15:56:13.000Z</time>
      </trkpt>
      <trkpt lat="43.58604" lon="5.49963">
        <ele>337.79998779297</ele>
        <time>2013-03-12T15:56:14.000Z</time>
      </trkpt>
      <trkpt lat="43.58606" lon="5.49959">
        <ele>337.79998779297</ele>
        <time>2013-03-12T15:56:15.000Z</time>
      </trkpt>
      <trkpt lat="43.58609" lon="5.49958">
        <ele>338</ele>
        <time>2013-03-12T15:56:16.000Z</time>
      </trkpt>
      <trkpt lat="43.58613" lon="5.49958">
        <ele>338.39999389648</ele>
        <time>2013-03-12T15:56:17.000Z</time>
      </trkpt>
      <trkpt lat="43.58625" lon="5.49957">
        <ele>339.39999389648</ele>
        <time>2013-03-12T15:56:20.000Z</time>
      </trkpt>
      <trkpt lat="43.5863" lon="5.49956">
        <ele>339.79998779297</ele>
        <time>2013-03-12T15:56:21.000Z</time>
      </trkpt>
      <trkpt lat="43.58635" lon="5.49954">
        <ele>340</ele>
        <time>2013-03-12T15:56:22.000Z</time>
      </trkpt>
      <trkpt lat="43.58681" lon="5.49932">
        <ele>343</ele>
        <time>2013-03-12T15:56:34.000Z</time>
      </trkpt>
      <trkpt lat="43.58724" lon="5.49908">
        <ele>345.20001220703</ele>
        <time>2013-03-12T15:56:47.000Z</time>
      </trkpt>
      <trkpt lat="43.58772" lon="5.49883">
        <ele>346.20001220703</ele>
        <time>2013-03-12T15:57:01.000Z</time>
      </trkpt>
      <trkpt lat="43.58791" lon="5.49874">
        <ele>346</ele>
        <time>2013-03-12T15:57:06.000Z</time>
      </trkpt>
      <trkpt lat="43.58795" lon="5.49873">
        <ele>346</ele>
        <time>2013-03-12T15:57:07.000Z</time>
      </trkpt>
      <trkpt lat="43.588" lon="5.49873">
        <ele>346.20001220703</ele>
        <time>2013-03-12T15:57:08.000Z</time>
      </trkpt>
      <trkpt lat="43.58804" lon="5.49875">
        <ele>346.39999389648</ele>
        <time>2013-03-12T15:57:09.000Z</time>
      </trkpt>
      <trkpt lat="43.58808" lon="5.49877">
        <ele>346.79998779297</ele>
        <time>2013-03-12T15:57:10.000Z</time>
      </trkpt>
      <trkpt lat="43.58812" lon="5.4988">
        <ele>347.20001220703</ele>
        <time>2013-03-12T15:57:11.000Z</time>
      </trkpt>
      <trkpt lat="43.58815" lon="5.49884">
        <ele>347.60000610352</ele>
        <time>2013-03-12T15:57:12.000Z</time>
      </trkpt>
      <trkpt lat="43.58819" lon="5.49888">
        <ele>348</ele>
        <time>2013-03-12T15:57:13.000Z</time>
      </trkpt>
      <trkpt lat="43.58832" lon="5.49905">
        <ele>349.79998779297</ele>
        <time>2013-03-12T15:57:17.000Z</time>
      </trkpt>
      <trkpt lat="43.58836" lon="5.49908">
        <ele>350.20001220703</ele>
        <time>2013-03-12T15:57:18.000Z</time>
      </trkpt>
      <trkpt lat="43.58839" lon="5.49912">
        <ele>350.60000610352</ele>
        <time>2013-03-12T15:57:19.000Z</time>
      </trkpt>
      <trkpt lat="43.58843" lon="5.49915">
        <ele>350.79998779297</ele>
        <time>2013-03-12T15:57:20.000Z</time>
      </trkpt>
      <trkpt lat="43.58846" lon="5.49918">
        <ele>351.20001220703</ele>
        <time>2013-03-12T15:57:21.000Z</time>
      </trkpt>
      <trkpt lat="43.58878" lon="5.49948">
        <ele>353.39999389648</ele>
        <time>2013-03-12T15:57:32.000Z</time>
      </trkpt>
      <trkpt lat="43.5891" lon="5.49976">
        <ele>356</ele>
        <time>2013-03-12T15:57:43.000Z</time>
      </trkpt>
      <trkpt lat="43.58941" lon="5.49979">
        <ele>357.60000610352</ele>
        <time>2013-03-12T15:57:53.000Z</time>
      </trkpt>
      <trkpt lat="43.58964" lon="5.49974">
        <ele>358.39999389648</ele>
        <time>2013-03-12T15:58:02.000Z</time>
      </trkpt>
      <trkpt lat="43.59002" lon="5.49971">
        <ele>359.79998779297</ele>
        <time>2013-03-12T15:58:13.000Z</time>
      </trkpt>
      <trkpt lat="43.59033" lon="5.49993">
        <ele>361.39999389648</ele>
        <time>2013-03-12T15:58:22.000Z</time>
      </trkpt>
      <trkpt lat="43.59069" lon="5.50012">
        <ele>362.20001220703</ele>
        <time>2013-03-12T15:58:32.000Z</time>
      </trkpt>
      <trkpt lat="43.59107" lon="5.50029">
        <ele>363.20001220703</ele>
        <time>2013-03-12T15:58:43.000Z</time>
      </trkpt>
      <trkpt lat="43.59124" lon="5.5003">
        <ele>363.20001220703</ele>
        <time>2013-03-12T15:58:47.000Z</time>
      </trkpt>
      <trkpt lat="43.5918" lon="5.50031">
        <ele>363.79998779297</ele>
        <time>2013-03-12T15:59:00.000Z</time>
      </trkpt>
      <trkpt lat="43.59219" lon="5.5003">
        <ele>366.39999389648</ele>
        <time>2013-03-12T15:59:11.000Z</time>
      </trkpt>
      <trkpt lat="43.59256" lon="5.50031">
        <ele>369.20001220703</ele>
        <time>2013-03-12T15:59:21.000Z</time>
      </trkpt>
      <trkpt lat="43.59265" lon="5.50031">
        <ele>370.20001220703</ele>
        <time>2013-03-12T15:59:24.000Z</time>
      </trkpt>
      <trkpt lat="43.59267" lon="5.50029">
        <ele>370.60000610352</ele>
        <time>2013-03-12T15:59:25.000Z</time>
      </trkpt>
      <trkpt lat="43.59268" lon="5.50024">
        <ele>370.60000610352</ele>
        <time>2013-03-12T15:59:26.000Z</time>
      </trkpt>
      <trkpt lat="43.59269" lon="5.49963">
        <ele>370.39999389648</ele>
        <time>2013-03-12T15:59:38.000Z</time>
      </trkpt>
      <trkpt lat="43.59268" lon="5.49884">
        <ele>369.79998779297</ele>
        <time>2013-03-12T15:59:51.000Z</time>
      </trkpt>
      <trkpt lat="43.59257" lon="5.4984">
        <ele>368.79998779297</ele>
        <time>2013-03-12T15:59:58.000Z</time>
      </trkpt>
      <trkpt lat="43.59257" lon="5.49833">
        <ele>368.79998779297</ele>
        <time>2013-03-12T15:59:59.000Z</time>
      </trkpt>
      <trkpt lat="43.59256" lon="5.49826">
        <ele>369</ele>
        <time>2013-03-12T16:00:00.000Z</time>
      </trkpt>
      <trkpt lat="43.59256" lon="5.49818">
        <ele>369.20001220703</ele>
        <time>2013-03-12T16:00:01.000Z</time>
      </trkpt>
      <trkpt lat="43.59257" lon="5.49811">
        <ele>369.39999389648</ele>
        <time>2013-03-12T16:00:02.000Z</time>
      </trkpt>
      <trkpt lat="43.59258" lon="5.49804">
        <ele>369.79998779297</ele>
        <time>2013-03-12T16:00:03.000Z</time>
      </trkpt>
      <trkpt lat="43.5927" lon="5.49765">
        <ele>372.20001220703</ele>
        <time>2013-03-12T16:00:09.000Z</time>
      </trkpt>
      <trkpt lat="43.59279" lon="5.49746">
        <ele>373.79998779297</ele>
        <time>2013-03-12T16:00:13.000Z</time>
      </trkpt>
      <trkpt lat="43.59281" lon="5.49734">
        <ele>374.39999389648</ele>
        <time>2013-03-12T16:00:15.000Z</time>
      </trkpt>
      <trkpt lat="43.5928" lon="5.49728">
        <ele>374.60000610352</ele>
        <time>2013-03-12T16:00:16.000Z</time>
      </trkpt>
      <trkpt lat="43.59279" lon="5.49723">
        <ele>374.60000610352</ele>
        <time>2013-03-12T16:00:17.000Z</time>
      </trkpt>
      <trkpt lat="43.59278" lon="5.49718">
        <ele>374.60000610352</ele>
        <time>2013-03-12T16:00:18.000Z</time>
      </trkpt>
      <trkpt lat="43.59277" lon="5.49713">
        <ele>374.60000610352</ele>
        <time>2013-03-12T16:00:19.000Z</time>
      </trkpt>
      <trkpt lat="43.59277" lon="5.49709">
        <ele>374.79998779297</ele>
        <time>2013-03-12T16:00:20.000Z</time>
      </trkpt>
      <trkpt lat="43.59277" lon="5.49704">
        <ele>375</ele>
        <time>2013-03-12T16:00:21.000Z</time>
      </trkpt>
      <trkpt lat="43.59277" lon="5.49699">
        <ele>375.20001220703</ele>
        <time>2013-03-12T16:00:22.000Z</time>
      </trkpt>
      <trkpt lat="43.59289" lon="5.49662">
        <ele>377.60000610352</ele>
        <time>2013-03-12T16:00:31.000Z</time>
      </trkpt>
      <trkpt lat="43.59302" lon="5.49634">
        <ele>378.79998779297</ele>
        <time>2013-03-12T16:00:40.000Z</time>
      </trkpt>
      <trkpt lat="43.5932" lon="5.49602">
        <ele>380.60000610352</ele>
        <time>2013-03-12T16:00:51.000Z</time>
      </trkpt>
      <trkpt lat="43.59339" lon="5.49576">
        <ele>382.39999389648</ele>
        <time>2013-03-12T16:01:01.000Z</time>
      </trkpt>
      <trkpt lat="43.59357" lon="5.49553">
        <ele>383.79998779297</ele>
        <time>2013-03-12T16:01:10.000Z</time>
      </trkpt>
      <trkpt lat="43.59379" lon="5.4952">
        <ele>385.39999389648</ele>
        <time>2013-03-12T16:01:20.000Z</time>
      </trkpt>
      <trkpt lat="43.59404" lon="5.4947">
        <ele>386.60000610352</ele>
        <time>2013-03-12T16:01:32.000Z</time>
      </trkpt>
      <trkpt lat="43.59414" lon="5.49438">
        <ele>386.39999389648</ele>
        <time>2013-03-12T16:01:38.000Z</time>
      </trkpt>
      <trkpt lat="43.59416" lon="5.49433">
        <ele>386.39999389648</ele>
        <time>2013-03-12T16:01:39.000Z</time>
      </trkpt>
      <trkpt lat="43.59435" lon="5.49359">
        <ele>384.20001220703</ele>
        <time>2013-03-12T16:01:51.000Z</time>
      </trkpt>
      <trkpt lat="43.5945" lon="5.49308">
        <ele>384</ele>
        <time>2013-03-12T16:01:58.000Z</time>
      </trkpt>
      <trkpt lat="43.59474" lon="5.49248">
        <ele>385</ele>
        <time>2013-03-12T16:02:08.000Z</time>
      </trkpt>
      <trkpt lat="43.59488" lon="5.4923">
        <ele>385.79998779297</ele>
        <time>2013-03-12T16:02:12.000Z</time>
      </trkpt>
      <trkpt lat="43.59528" lon="5.49192">
        <ele>386.39999389648</ele>
        <time>2013-03-12T16:02:24.000Z</time>
      </trkpt>
      <trkpt lat="43.59534" lon="5.49186">
        <ele>386.20001220703</ele>
        <time>2013-03-12T16:02:26.000Z</time>
      </trkpt>
      <trkpt lat="43.59537" lon="5.49181">
        <ele>386</ele>
        <time>2013-03-12T16:02:27.000Z</time>
      </trkpt>
      <trkpt lat="43.59541" lon="5.49176">
        <ele>385.79998779297</ele>
        <time>2013-03-12T16:02:28.000Z</time>
      </trkpt>
      <trkpt lat="43.59548" lon="5.49164">
        <ele>385</ele>
        <time>2013-03-12T16:02:30.000Z</time>
      </trkpt>
      <trkpt lat="43.59566" lon="5.49131">
        <ele>382.20001220703</ele>
        <time>2013-03-12T16:02:35.000Z</time>
      </trkpt>
      <trkpt lat="43.59582" lon="5.49096">
        <ele>379</ele>
        <time>2013-03-12T16:02:40.000Z</time>
      </trkpt>
      <trkpt lat="43.59585" lon="5.49091">
        <ele>378.60000610352</ele>
        <time>2013-03-12T16:02:41.000Z</time>
      </trkpt>
      <trkpt lat="43.59593" lon="5.49075">
        <ele>377.20001220703</ele>
        <time>2013-03-12T16:02:44.000Z</time>
      </trkpt>
      <trkpt lat="43.59595" lon="5.49069">
        <ele>376.79998779297</ele>
        <time>2013-03-12T16:02:45.000Z</time>
      </trkpt>
      <trkpt lat="43.59599" lon="5.49059">
        <ele>376</ele>
        <time>2013-03-12T16:02:47.000Z</time>
      </trkpt>
      <trkpt lat="43.59602" lon="5.49059">
        <ele>375.79998779297</ele>
        <time>2013-03-12T16:02:48.000Z</time>
      </trkpt>
      <trkpt lat="43.59606" lon="5.4906">
        <ele>376</ele>
        <time>2013-03-12T16:02:49.000Z</time>
      </trkpt>
      <trkpt lat="43.59609" lon="5.49057">
        <ele>375.79998779297</ele>
        <time>2013-03-12T16:02:50.000Z</time>
      </trkpt>
      <trkpt lat="43.59612" lon="5.49052">
        <ele>375.20001220703</ele>
        <time>2013-03-12T16:02:51.000Z</time>
      </trkpt>
      <trkpt lat="43.59614" lon="5.49046">
        <ele>374.60000610352</ele>
        <time>2013-03-12T16:02:52.000Z</time>
      </trkpt>
      <trkpt lat="43.5963" lon="5.49008">
        <ele>370.60000610352</ele>
        <time>2013-03-12T16:02:57.000Z</time>
      </trkpt>
      <trkpt lat="43.59636" lon="5.49002">
        <ele>369.79998779297</ele>
        <time>2013-03-12T16:02:58.000Z</time>
      </trkpt>
      <trkpt lat="43.59642" lon="5.48998">
        <ele>369.39999389648</ele>
        <time>2013-03-12T16:02:59.000Z</time>
      </trkpt>
      <trkpt lat="43.59672" lon="5.48984">
        <ele>368.79998779297</ele>
        <time>2013-03-12T16:03:06.000Z</time>
      </trkpt>
      <trkpt lat="43.59688" lon="5.48966">
        <ele>369</ele>
        <time>2013-03-12T16:03:13.000Z</time>
      </trkpt>
      <trkpt lat="43.59705" lon="5.48946">
        <ele>369.20001220703</ele>
        <time>2013-03-12T16:03:21.000Z</time>
      </trkpt>
      <trkpt lat="43.59709" lon="5.48943">
        <ele>369.20001220703</ele>
        <time>2013-03-12T16:03:23.000Z</time>
      </trkpt>
      <trkpt lat="43.59711" lon="5.48944">
        <ele>369.20001220703</ele>
        <time>2013-03-12T16:03:24.000Z</time>
      </trkpt>
      <trkpt lat="43.59713" lon="5.48945">
        <ele>369.39999389648</ele>
        <time>2013-03-12T16:03:25.000Z</time>
      </trkpt>
      <trkpt lat="43.59716" lon="5.48946">
        <ele>369.39999389648</ele>
        <time>2013-03-12T16:03:26.000Z</time>
      </trkpt>
      <trkpt lat="43.59719" lon="5.48946">
        <ele>369.60000610352</ele>
        <time>2013-03-12T16:03:27.000Z</time>
      </trkpt>
      <trkpt lat="43.59722" lon="5.48944">
        <ele>369.60000610352</ele>
        <time>2013-03-12T16:03:28.000Z</time>
      </trkpt>
      <trkpt lat="43.59724" lon="5.48942">
        <ele>369.60000610352</ele>
        <time>2013-03-12T16:03:29.000Z</time>
      </trkpt>
      <trkpt lat="43.59727" lon="5.48936">
        <ele>369.60000610352</ele>
        <time>2013-03-12T16:03:31.000Z</time>
      </trkpt>
      <trkpt lat="43.59726" lon="5.48933">
        <ele>369.60000610352</ele>
        <time>2013-03-12T16:03:32.000Z</time>
      </trkpt>
      <trkpt lat="43.59724" lon="5.48929">
        <ele>369.39999389648</ele>
        <time>2013-03-12T16:03:33.000Z</time>
      </trkpt>
      <trkpt lat="43.5971" lon="5.48892">
        <ele>367.79998779297</ele>
        <time>2013-03-12T16:03:42.000Z</time>
      </trkpt>
      <trkpt lat="43.5971" lon="5.48887">
        <ele>367.60000610352</ele>
        <time>2013-03-12T16:03:43.000Z</time>
      </trkpt>
      <trkpt lat="43.59712" lon="5.48881">
        <ele>367.20001220703</ele>
        <time>2013-03-12T16:03:44.000Z</time>
      </trkpt>
      <trkpt lat="43.59714" lon="5.48874">
        <ele>367</ele>
        <time>2013-03-12T16:03:45.000Z</time>
      </trkpt>
      <trkpt lat="43.59717" lon="5.48866">
        <ele>366.60000610352</ele>
        <time>2013-03-12T16:03:46.000Z</time>
      </trkpt>
      <trkpt lat="43.59726" lon="5.48836">
        <ele>365.39999389648</ele>
        <time>2013-03-12T16:03:50.000Z</time>
      </trkpt>
      <trkpt lat="43.59727" lon="5.48827">
        <ele>365</ele>
        <time>2013-03-12T16:03:51.000Z</time>
      </trkpt>
      <trkpt lat="43.5973" lon="5.48803">
        <ele>363.39999389648</ele>
        <time>2013-03-12T16:03:54.000Z</time>
      </trkpt>
      <trkpt lat="43.59731" lon="5.48794">
        <ele>363</ele>
        <time>2013-03-12T16:03:55.000Z</time>
      </trkpt>
      <trkpt lat="43.59741" lon="5.48737">
        <ele>359.79998779297</ele>
        <time>2013-03-12T16:04:01.000Z</time>
      </trkpt>
      <trkpt lat="43.59745" lon="5.48721">
        <ele>359</ele>
        <time>2013-03-12T16:04:03.000Z</time>
      </trkpt>
      <trkpt lat="43.59748" lon="5.48717">
        <ele>358.79998779297</ele>
        <time>2013-03-12T16:04:04.000Z</time>
      </trkpt>
      <trkpt lat="43.59752" lon="5.48714">
        <ele>358.79998779297</ele>
        <time>2013-03-12T16:04:05.000Z</time>
      </trkpt>
      <trkpt lat="43.59757" lon="5.48712">
        <ele>358.60000610352</ele>
        <time>2013-03-12T16:04:06.000Z</time>
      </trkpt>
      <trkpt lat="43.59761" lon="5.48711">
        <ele>358.60000610352</ele>
        <time>2013-03-12T16:04:07.000Z</time>
      </trkpt>
      <trkpt lat="43.59766" lon="5.48712">
        <ele>358.60000610352</ele>
        <time>2013-03-12T16:04:08.000Z</time>
      </trkpt>
      <trkpt lat="43.5977" lon="5.48713">
        <ele>358.60000610352</ele>
        <time>2013-03-12T16:04:09.000Z</time>
      </trkpt>
      <trkpt lat="43.59773" lon="5.48715">
        <ele>358.60000610352</ele>
        <time>2013-03-12T16:04:10.000Z</time>
      </trkpt>
      <trkpt lat="43.59776" lon="5.48718">
        <ele>358.60000610352</ele>
        <time>2013-03-12T16:04:11.000Z</time>
      </trkpt>
      <trkpt lat="43.59809" lon="5.48735">
        <ele>359</ele>
        <time>2013-03-12T16:04:22.000Z</time>
      </trkpt>
      <trkpt lat="43.59833" lon="5.48759">
        <ele>359.39999389648</ele>
        <time>2013-03-12T16:04:33.000Z</time>
      </trkpt>
      <trkpt lat="43.59863" lon="5.48795">
        <ele>362</ele>
        <time>2013-03-12T16:04:46.000Z</time>
      </trkpt>
      <trkpt lat="43.59891" lon="5.48813">
        <ele>363.39999389648</ele>
        <time>2013-03-12T16:04:56.000Z</time>
      </trkpt>
      <trkpt lat="43.59911" lon="5.48831">
        <ele>364.60000610352</ele>
        <time>2013-03-12T16:05:07.000Z</time>
      </trkpt>
      <trkpt lat="43.59911" lon="5.4885">
        <ele>365.39999389648</ele>
        <time>2013-03-12T16:05:14.000Z</time>
      </trkpt>
      <trkpt lat="43.5991" lon="5.48851">
        <ele>365.39999389648</ele>
        <time>2013-03-12T16:05:15.000Z</time>
      </trkpt>
      <trkpt lat="43.5991" lon="5.48851">
        <ele>365.39999389648</ele>
        <time>2013-03-12T16:05:23.000Z</time>
      </trkpt>
    </trkseg>
  </trk>
</gpx>